<?xml version="1.0" encoding="UTF-8" standalone="no" ?><gpx xmlns="http://www.topografix.com/GPX/1/1" xmlns:gpxx="http://www.garmin.com/xmlschemas/GpxExtensions/v3" xmlns:gpxtrkx="http://www.garmin.com/xmlschemas/TrackStatsExtension/v1" xmlns:wptx1="http://www.garmin.com/xmlschemas/WaypointExtension/v1" xmlns:gpxtpx="http://www.garmin.com/xmlschemas/TrackPointExtension/v1" creator="eTrex 30" version="1.1" xmlns:xsi="http://www.w3.org/2001/XMLSchema-instance" xsi:schemaLocation="http://www.topografix.com/GPX/1/1 http://www.topografix.com/GPX/1/1/gpx.xsd http://www.garmin.com/xmlschemas/GpxExtensions/v3 http://www8.garmin.com/xmlschemas/GpxExtensionsv3.xsd http://www.garmin.com/xmlschemas/TrackStatsExtension/v1 http://www8.garmin.com/xmlschemas/TrackStatsExtension.xsd http://www.garmin.com/xmlschemas/WaypointExtension/v1 http://www8.garmin.com/xmlschemas/WaypointExtensionv1.xsd http://www.garmin.com/xmlschemas/TrackPointExtension/v1 http://www.garmin.com/xmlschemas/TrackPointExtensionv1.xsd"><metadata><link href="http://www.garmin.com"><text>Garmin International</text></link><time>2026-08-23T10:46:31Z</time></metadata><trk><name>2026-08-23 12:46:27</name><extensions><gpxx:TrackExtension><gpxx:DisplayColor>Green</gpxx:DisplayColor></gpxx:TrackExtension><gpxtrkx:TrackStatsExtension><gpxtrkx:Distance>41960</gpxtrkx:Distance><gpxtrkx:TotalElapsedTime>12897</gpxtrkx:TotalElapsedTime><gpxtrkx:MovingTime>10271</gpxtrkx:MovingTime><gpxtrkx:StoppedTime>2622</gpxtrkx:StoppedTime><gpxtrkx:MovingSpeed>4</gpxtrkx:MovingSpeed><gpxtrkx:MaxSpeed>12</gpxtrkx:MaxSpeed><gpxtrkx:MaxElevation>1303</gpxtrkx:MaxElevation><gpxtrkx:MinElevation>865</gpxtrkx:MinElevation><gpxtrkx:Ascent>905</gpxtrkx:Ascent><gpxtrkx:Descent>905</gpxtrkx:Descent><gpxtrkx:AvgAscentRate>0</gpxtrkx:AvgAscentRate><gpxtrkx:MaxAscentRate>1</gpxtrkx:MaxAscentRate><gpxtrkx:AvgDescentRate>0</gpxtrkx:AvgDescentRate><gpxtrkx:MaxDescentRate>-1</gpxtrkx:MaxDescentRate></gpxtrkx:TrackStatsExtension></extensions><trkseg><trkpt lat="40.8634616341" lon="-3.6132887565"><ele>1035.96</ele><time>2026-08-23T07:11:34Z</time></trkpt><trkpt lat="40.8634618856" lon="-3.6132883374"><ele>1035.96</ele><time>2026-08-23T07:11:35Z</time></trkpt><trkpt lat="40.8634684235" lon="-3.6132834759"><ele>1035.96</ele><time>2026-08-23T07:12:09Z</time></trkpt><trkpt lat="40.8634734526" lon="-3.6132866610"><ele>1036.44</ele><time>2026-08-23T07:12:45Z</time></trkpt><trkpt lat="40.8634690940" lon="-3.6132873315"><ele>1036.44</ele><time>2026-08-23T07:13:08Z</time></trkpt><trkpt lat="40.8634682558" lon="-3.6132797040"><ele>1036.44</ele><time>2026-08-23T07:13:37Z</time></trkpt><trkpt lat="40.8634462114" lon="-3.6132747587"><ele>1036.44</ele><time>2026-08-23T07:14:11Z</time></trkpt><trkpt lat="40.8634371590" lon="-3.6132802069"><ele>1035.96</ele><time>2026-08-23T07:14:46Z</time></trkpt><trkpt lat="40.8634488098" lon="-3.6132850684"><ele>1035.96</ele><time>2026-08-23T07:15:19Z</time></trkpt><trkpt lat="40.8634434454" lon="-3.6132912710"><ele>1035.96</ele><time>2026-08-23T07:15:47Z</time></trkpt><trkpt lat="40.8634388354" lon="-3.6132647004"><ele>1035.96</ele><time>2026-08-23T07:16:16Z</time></trkpt><trkpt lat="40.8634363208" lon="-3.6132665444"><ele>1035.96</ele><time>2026-08-23T07:16:46Z</time></trkpt><trkpt lat="40.8634413499" lon="-3.6132714897"><ele>1035.48</ele><time>2026-08-23T07:17:11Z</time></trkpt><trkpt lat="40.8634480555" lon="-3.6132640298"><ele>1035.48</ele><time>2026-08-23T07:17:33Z</time></trkpt><trkpt lat="40.8634483907" lon="-3.6132692266"><ele>1035.48</ele><time>2026-08-23T07:18:02Z</time></trkpt><trkpt lat="40.8634411823" lon="-3.6132817995"><ele>1035.48</ele><time>2026-08-23T07:18:34Z</time></trkpt><trkpt lat="40.8634459600" lon="-3.6132840626"><ele>1035.48</ele><time>2026-08-23T07:19:06Z</time></trkpt><trkpt lat="40.8634422719" lon="-3.6132786982"><ele>1035.48</ele><time>2026-08-23T07:19:44Z</time></trkpt><trkpt lat="40.8634398412" lon="-3.6132808775"><ele>1035.48</ele><time>2026-08-23T07:20:21Z</time></trkpt><trkpt lat="40.8634408470" lon="-3.6132683884"><ele>1035.00</ele><time>2026-08-23T07:20:56Z</time></trkpt><trkpt lat="40.8634545933" lon="-3.6132689752"><ele>1035.00</ele><time>2026-08-23T07:21:32Z</time></trkpt><trkpt lat="40.8634653222" lon="-3.6132758483"><ele>1035.00</ele><time>2026-08-23T07:22:10Z</time></trkpt><trkpt lat="40.8634742070" lon="-3.6132713221"><ele>1035.00</ele><time>2026-08-23T07:22:48Z</time></trkpt><trkpt lat="40.8634801582" lon="-3.6132947914"><ele>1035.00</ele><time>2026-08-23T07:23:32Z</time></trkpt><trkpt lat="40.8634934016" lon="-3.6132882535"><ele>1034.52</ele><time>2026-08-23T07:24:13Z</time></trkpt><trkpt lat="40.8634835947" lon="-3.6132835597"><ele>1034.52</ele><time>2026-08-23T07:24:52Z</time></trkpt><trkpt lat="40.8634770568" lon="-3.6132859904"><ele>1034.52</ele><time>2026-08-23T07:25:22Z</time></trkpt><trkpt lat="40.8634789847" lon="-3.6132878345"><ele>1034.52</ele><time>2026-08-23T07:26:03Z</time></trkpt><trkpt lat="40.8634767216" lon="-3.6132822186"><ele>1034.52</ele><time>2026-08-23T07:26:45Z</time></trkpt><trkpt lat="40.8634850197" lon="-3.6132626887"><ele>1034.52</ele><time>2026-08-23T07:27:19Z</time></trkpt><trkpt lat="40.8634759672" lon="-3.6132672150"><ele>1034.04</ele><time>2026-08-23T07:27:56Z</time></trkpt><trkpt lat="40.8634669147" lon="-3.6132817995"><ele>1034.04</ele><time>2026-08-23T07:28:35Z</time></trkpt><trkpt lat="40.8634707704" lon="-3.6132855713"><ele>1034.04</ele><time>2026-08-23T07:29:11Z</time></trkpt><trkpt lat="40.8634656575" lon="-3.6132863257"><ele>1034.04</ele><time>2026-08-23T07:29:45Z</time></trkpt><trkpt lat="40.8634680044" lon="-3.6132312566"><ele>1034.04</ele><time>2026-08-23T07:30:07Z</time></trkpt><trkpt lat="40.8634812478" lon="-3.6131938733"><ele>1034.04</ele><time>2026-08-23T07:30:23Z</time></trkpt><trkpt lat="40.8634861093" lon="-3.6131913587"><ele>1034.04</ele><time>2026-08-23T07:30:48Z</time></trkpt><trkpt lat="40.8634960838" lon="-3.6131714936"><ele>1034.04</ele><time>2026-08-23T07:31:00Z</time></trkpt><trkpt lat="40.8635012805" lon="-3.6131611001"><ele>1034.04</ele><time>2026-08-23T07:31:01Z</time></trkpt><trkpt lat="40.8635197207" lon="-3.6131331883"><ele>1034.04</ele><time>2026-08-23T07:31:03Z</time></trkpt><trkpt lat="40.8635902964" lon="-3.6130828969"><ele>1034.04</ele><time>2026-08-23T07:31:06Z</time></trkpt><trkpt lat="40.8641050290" lon="-3.6130047776"><ele>1034.04</ele><time>2026-08-23T07:31:22Z</time></trkpt><trkpt lat="40.8646674547" lon="-3.6128686555"><ele>1034.52</ele><time>2026-08-23T07:31:38Z</time></trkpt><trkpt lat="40.8652729634" lon="-3.6126322020"><ele>1035.96</ele><time>2026-08-23T07:31:57Z</time></trkpt><trkpt lat="40.8656063117" lon="-3.6124127638"><ele>1038.84</ele><time>2026-08-23T07:32:09Z</time></trkpt><trkpt lat="40.8661114052" lon="-3.6120564491"><ele>1041.73</ele><time>2026-08-23T07:32:27Z</time></trkpt><trkpt lat="40.8666301612" lon="-3.6116890702"><ele>1044.13</ele><time>2026-08-23T07:32:46Z</time></trkpt><trkpt lat="40.8670662716" lon="-3.6114200111"><ele>1045.57</ele><time>2026-08-23T07:33:00Z</time></trkpt><trkpt lat="40.8675889671" lon="-3.6110706534"><ele>1046.05</ele><time>2026-08-23T07:33:17Z</time></trkpt><trkpt lat="40.8681640495" lon="-3.6107032746"><ele>1046.53</ele><time>2026-08-23T07:33:35Z</time></trkpt><trkpt lat="40.8687111363" lon="-3.6103482172"><ele>1047.01</ele><time>2026-08-23T07:33:52Z</time></trkpt><trkpt lat="40.8692232706" lon="-3.6100255139"><ele>1047.49</ele><time>2026-08-23T07:34:08Z</time></trkpt><trkpt lat="40.8699000254" lon="-3.6095992941"><ele>1049.90</ele><time>2026-08-23T07:34:28Z</time></trkpt><trkpt lat="40.8703779615" lon="-3.6092934385"><ele>1050.86</ele><time>2026-08-23T07:34:42Z</time></trkpt><trkpt lat="40.8710648585" lon="-3.6088347808"><ele>1053.26</ele><time>2026-08-23T07:35:02Z</time></trkpt><trkpt lat="40.8716287091" lon="-3.6084373947"><ele>1056.15</ele><time>2026-08-23T07:35:20Z</time></trkpt><trkpt lat="40.8722322900" lon="-3.6079679243"><ele>1059.51</ele><time>2026-08-23T07:35:39Z</time></trkpt><trkpt lat="40.8727375511" lon="-3.6073322408"><ele>1060.95</ele><time>2026-08-23T07:35:58Z</time></trkpt><trkpt lat="40.8731514495" lon="-3.6065881792"><ele>1062.39</ele><time>2026-08-23T07:36:15Z</time></trkpt><trkpt lat="40.8736469876" lon="-3.6057364941"><ele>1065.28</ele><time>2026-08-23T07:36:35Z</time></trkpt><trkpt lat="40.8741447050" lon="-3.6048579030"><ele>1068.64</ele><time>2026-08-23T07:36:56Z</time></trkpt><trkpt lat="40.8744195476" lon="-3.6040523183"><ele>1071.05</ele><time>2026-08-23T07:37:14Z</time></trkpt><trkpt lat="40.8744657319" lon="-3.6038448662"><ele>1071.05</ele><time>2026-08-23T07:37:19Z</time></trkpt><trkpt lat="40.8745220583" lon="-3.6037991848"><ele>1071.05</ele><time>2026-08-23T07:37:20Z</time></trkpt><trkpt lat="40.8745815698" lon="-3.6037767213"><ele>1071.05</ele><time>2026-08-23T07:37:21Z</time></trkpt><trkpt lat="40.8746389020" lon="-3.6037639808"><ele>1071.05</ele><time>2026-08-23T07:37:23Z</time></trkpt><trkpt lat="40.8749166783" lon="-3.6034615617"><ele>1072.49</ele><time>2026-08-23T07:37:32Z</time></trkpt><trkpt lat="40.8754440676" lon="-3.6024976429"><ele>1074.89</ele><time>2026-08-23T07:37:55Z</time></trkpt><trkpt lat="40.8758514281" lon="-3.6018130090"><ele>1077.78</ele><time>2026-08-23T07:38:13Z</time></trkpt><trkpt lat="40.8761989418" lon="-3.6012902297"><ele>1080.66</ele><time>2026-08-23T07:38:28Z</time></trkpt><trkpt lat="40.8767696656" lon="-3.6006811168"><ele>1084.02</ele><time>2026-08-23T07:38:49Z</time></trkpt><trkpt lat="40.8770799637" lon="-3.6004634388"><ele>1087.39</ele><time>2026-08-23T07:38:59Z</time></trkpt><trkpt lat="40.8774190117" lon="-3.6004460882"><ele>1090.75</ele><time>2026-08-23T07:39:09Z</time></trkpt><trkpt lat="40.8779996261" lon="-3.6004858185"><ele>1094.12</ele><time>2026-08-23T07:39:25Z</time></trkpt><trkpt lat="40.8785170410" lon="-3.6004418973"><ele>1094.60</ele><time>2026-08-23T07:39:40Z</time></trkpt><trkpt lat="40.8786205575" lon="-3.6003615987"><ele>1093.64</ele><time>2026-08-23T07:39:43Z</time></trkpt><trkpt lat="40.8786574379" lon="-3.6003308371"><ele>1092.68</ele><time>2026-08-23T07:39:44Z</time></trkpt><trkpt lat="40.8786922228" lon="-3.6002924480"><ele>1091.71</ele><time>2026-08-23T07:39:45Z</time></trkpt><trkpt lat="40.8787265886" lon="-3.6002432462"><ele>1091.71</ele><time>2026-08-23T07:39:46Z</time></trkpt><trkpt lat="40.8787574340" lon="-3.6001845729"><ele>1091.23</ele><time>2026-08-23T07:39:47Z</time></trkpt><trkpt lat="40.8787866030" lon="-3.6001118179"><ele>1091.23</ele><time>2026-08-23T07:39:48Z</time></trkpt><trkpt lat="40.8788160235" lon="-3.6000424158"><ele>1090.75</ele><time>2026-08-23T07:39:49Z</time></trkpt><trkpt lat="40.8788561728" lon="-3.5999747738"><ele>1090.27</ele><time>2026-08-23T07:39:50Z</time></trkpt><trkpt lat="40.8789048716" lon="-3.5999181960"><ele>1089.31</ele><time>2026-08-23T07:39:51Z</time></trkpt><trkpt lat="40.8789592702" lon="-3.5998698324"><ele>1088.35</ele><time>2026-08-23T07:39:52Z</time></trkpt><trkpt lat="40.8790206257" lon="-3.5998262465"><ele>1087.39</ele><time>2026-08-23T07:39:53Z</time></trkpt><trkpt lat="40.8790824842" lon="-3.5997880250"><ele>1086.91</ele><time>2026-08-23T07:39:54Z</time></trkpt><trkpt lat="40.8791503776" lon="-3.5997512285"><ele>1086.91</ele><time>2026-08-23T07:39:55Z</time></trkpt><trkpt lat="40.8796018269" lon="-3.5996017791"><ele>1084.50</ele><time>2026-08-23T07:40:02Z</time></trkpt><trkpt lat="40.8799366001" lon="-3.5995687544"><ele>1080.66</ele><time>2026-08-23T07:40:07Z</time></trkpt><trkpt lat="40.8800111990" lon="-3.5995690897"><ele>1080.18</ele><time>2026-08-23T07:40:08Z</time></trkpt><trkpt lat="40.8800825290" lon="-3.5995761305"><ele>1080.66</ele><time>2026-08-23T07:40:09Z</time></trkpt><trkpt lat="40.8802825212" lon="-3.5995989293"><ele>1078.26</ele><time>2026-08-23T07:40:12Z</time></trkpt><trkpt lat="40.8803504985" lon="-3.5995985102"><ele>1078.26</ele><time>2026-08-23T07:40:13Z</time></trkpt><trkpt lat="40.8807772212" lon="-3.5994974244"><ele>1074.89</ele><time>2026-08-23T07:40:19Z</time></trkpt><trkpt lat="40.8809187077" lon="-3.5994368233"><ele>1073.45</ele><time>2026-08-23T07:40:21Z</time></trkpt><trkpt lat="40.8810513094" lon="-3.5993850231"><ele>1071.53</ele><time>2026-08-23T07:40:23Z</time></trkpt><trkpt lat="40.8812238928" lon="-3.5993394256"><ele>1068.16</ele><time>2026-08-23T07:40:26Z</time></trkpt><trkpt lat="40.8813989908" lon="-3.5993222427"><ele>1064.80</ele><time>2026-08-23T07:40:30Z</time></trkpt><trkpt lat="40.8815256413" lon="-3.5993727855"><ele>1061.43</ele><time>2026-08-23T07:40:34Z</time></trkpt><trkpt lat="40.8816754259" lon="-3.5993887950"><ele>1058.55</ele><time>2026-08-23T07:40:38Z</time></trkpt><trkpt lat="40.8817869052" lon="-3.5993594583"><ele>1056.63</ele><time>2026-08-23T07:40:41Z</time></trkpt><trkpt lat="40.8818313293" lon="-3.5993516631"><ele>1055.18</ele><time>2026-08-23T07:40:42Z</time></trkpt><trkpt lat="40.8818789385" lon="-3.5993557703"><ele>1054.70</ele><time>2026-08-23T07:40:43Z</time></trkpt><trkpt lat="40.8819204289" lon="-3.5993674211"><ele>1054.22</ele><time>2026-08-23T07:40:44Z</time></trkpt><trkpt lat="40.8819535375" lon="-3.5993770603"><ele>1052.78</ele><time>2026-08-23T07:40:45Z</time></trkpt><trkpt lat="40.8819832094" lon="-3.5993804131"><ele>1051.82</ele><time>2026-08-23T07:40:46Z</time></trkpt><trkpt lat="40.8820190839" lon="-3.5993751325"><ele>1051.82</ele><time>2026-08-23T07:40:47Z</time></trkpt><trkpt lat="40.8820603229" lon="-3.5993633140"><ele>1051.82</ele><time>2026-08-23T07:40:48Z</time></trkpt><trkpt lat="40.8822004683" lon="-3.5993296187"><ele>1050.86</ele><time>2026-08-23T07:40:51Z</time></trkpt><trkpt lat="40.8822479099" lon="-3.5993281938"><ele>1050.86</ele><time>2026-08-23T07:40:52Z</time></trkpt><trkpt lat="40.8822944295" lon="-3.5993240029"><ele>1050.38</ele><time>2026-08-23T07:40:53Z</time></trkpt><trkpt lat="40.8823365904" lon="-3.5993131064"><ele>1050.38</ele><time>2026-08-23T07:40:54Z</time></trkpt><trkpt lat="40.8823806792" lon="-3.5993000306"><ele>1050.38</ele><time>2026-08-23T07:40:55Z</time></trkpt><trkpt lat="40.8824760653" lon="-3.5992815066"><ele>1049.90</ele><time>2026-08-23T07:40:57Z</time></trkpt><trkpt lat="40.8826706931" lon="-3.5992800817"><ele>1048.94</ele><time>2026-08-23T07:41:01Z</time></trkpt><trkpt lat="40.8827213198" lon="-3.5992859490"><ele>1048.94</ele><time>2026-08-23T07:41:02Z</time></trkpt><trkpt lat="40.8827728685" lon="-3.5992856976"><ele>1048.94</ele><time>2026-08-23T07:41:03Z</time></trkpt><trkpt lat="40.8828261774" lon="-3.5992738791"><ele>1048.94</ele><time>2026-08-23T07:41:04Z</time></trkpt><trkpt lat="40.8828819171" lon="-3.5992563609"><ele>1048.94</ele><time>2026-08-23T07:41:05Z</time></trkpt><trkpt lat="40.8829343878" lon="-3.5992491525"><ele>1048.45</ele><time>2026-08-23T07:41:06Z</time></trkpt><trkpt lat="40.8829893731" lon="-3.5992555227"><ele>1047.97</ele><time>2026-08-23T07:41:07Z</time></trkpt><trkpt lat="40.8830376528" lon="-3.5992698558"><ele>1047.97</ele><time>2026-08-23T07:41:08Z</time></trkpt><trkpt lat="40.8830861002" lon="-3.5992898047"><ele>1047.97</ele><time>2026-08-23T07:41:09Z</time></trkpt><trkpt lat="40.8834111504" lon="-3.5995440278"><ele>1047.49</ele><time>2026-08-23T07:41:19Z</time></trkpt><trkpt lat="40.8837489411" lon="-3.5996972490"><ele>1045.57</ele><time>2026-08-23T07:41:29Z</time></trkpt><trkpt lat="40.8837924432" lon="-3.5997243226"><ele>1044.61</ele><time>2026-08-23T07:41:30Z</time></trkpt><trkpt lat="40.8841197565" lon="-3.5999398213"><ele>1043.17</ele><time>2026-08-23T07:41:37Z</time></trkpt><trkpt lat="40.8845019713" lon="-3.6000785418"><ele>1041.73</ele><time>2026-08-23T07:41:45Z</time></trkpt><trkpt lat="40.8845862933" lon="-3.6001229659"><ele>1041.25</ele><time>2026-08-23T07:41:47Z</time></trkpt><trkpt lat="40.8846294601" lon="-3.6001400650"><ele>1040.76</ele><time>2026-08-23T07:41:48Z</time></trkpt><trkpt lat="40.8847208228" lon="-3.6001810525"><ele>1040.76</ele><time>2026-08-23T07:41:50Z</time></trkpt><trkpt lat="40.8849863615" lon="-3.6003935337"><ele>1039.80</ele><time>2026-08-23T07:41:57Z</time></trkpt><trkpt lat="40.8850156981" lon="-3.6004315037"><ele>1039.80</ele><time>2026-08-23T07:41:58Z</time></trkpt><trkpt lat="40.8850448672" lon="-3.6004740000"><ele>1039.80</ele><time>2026-08-23T07:41:59Z</time></trkpt><trkpt lat="40.8852961566" lon="-3.6008417141"><ele>1041.73</ele><time>2026-08-23T07:42:09Z</time></trkpt><trkpt lat="40.8854762837" lon="-3.6011546943"><ele>1042.21</ele><time>2026-08-23T07:42:17Z</time></trkpt><trkpt lat="40.8855871763" lon="-3.6012898106"><ele>1045.57</ele><time>2026-08-23T07:42:21Z</time></trkpt><trkpt lat="40.8856345341" lon="-3.6013734620"><ele>1046.05</ele><time>2026-08-23T07:42:23Z</time></trkpt><trkpt lat="40.8857284114" lon="-3.6015881225"><ele>1048.94</ele><time>2026-08-23T07:42:28Z</time></trkpt><trkpt lat="40.8857596759" lon="-3.6016032938"><ele>1048.94</ele><time>2026-08-23T07:42:29Z</time></trkpt><trkpt lat="40.8861210197" lon="-3.6016602069"><ele>1052.30</ele><time>2026-08-23T07:42:39Z</time></trkpt><trkpt lat="40.8863742370" lon="-3.6016747914"><ele>1055.67</ele><time>2026-08-23T07:42:46Z</time></trkpt><trkpt lat="40.8865552023" lon="-3.6017323751"><ele>1059.03</ele><time>2026-08-23T07:42:52Z</time></trkpt><trkpt lat="40.8867421187" lon="-3.6017710157"><ele>1061.91</ele><time>2026-08-23T07:42:58Z</time></trkpt><trkpt lat="40.8870187216" lon="-3.6018143501"><ele>1065.28</ele><time>2026-08-23T07:43:07Z</time></trkpt><trkpt lat="40.8870986849" lon="-3.6018388253"><ele>1066.72</ele><time>2026-08-23T07:43:10Z</time></trkpt><trkpt lat="40.8872725256" lon="-3.6018398311"><ele>1070.08</ele><time>2026-08-23T07:43:16Z</time></trkpt><trkpt lat="40.8876802213" lon="-3.6019810662"><ele>1072.01</ele><time>2026-08-23T07:43:29Z</time></trkpt><trkpt lat="40.8881773520" lon="-3.6020172760"><ele>1073.93</ele><time>2026-08-23T07:43:44Z</time></trkpt><trkpt lat="40.8882574830" lon="-3.6020114925"><ele>1073.93</ele><time>2026-08-23T07:43:46Z</time></trkpt><trkpt lat="40.8885507658" lon="-3.6020336207"><ele>1070.57</ele><time>2026-08-23T07:43:52Z</time></trkpt><trkpt lat="40.8887040708" lon="-3.6020393204"><ele>1068.64</ele><time>2026-08-23T07:43:55Z</time></trkpt><trkpt lat="40.8888833597" lon="-3.6020547431"><ele>1066.24</ele><time>2026-08-23T07:43:59Z</time></trkpt><trkpt lat="40.8890119381" lon="-3.6020446010"><ele>1063.36</ele><time>2026-08-23T07:44:03Z</time></trkpt><trkpt lat="40.8890258521" lon="-3.6020468641"><ele>1062.87</ele><time>2026-08-23T07:44:04Z</time></trkpt><trkpt lat="40.8890178055" lon="-3.6020641308"><ele>1062.39</ele><time>2026-08-23T07:44:20Z</time></trkpt><trkpt lat="40.8890450466" lon="-3.6020474508"><ele>1062.39</ele><time>2026-08-23T07:44:58Z</time></trkpt><trkpt lat="40.8891494852" lon="-3.6021870933"><ele>1061.91</ele><time>2026-08-23T07:45:06Z</time></trkpt><trkpt lat="40.8891963400" lon="-3.6022556573"><ele>1061.43</ele><time>2026-08-23T07:45:08Z</time></trkpt><trkpt lat="40.8892032970" lon="-3.6022908613"><ele>1061.43</ele><time>2026-08-23T07:45:09Z</time></trkpt><trkpt lat="40.8892116789" lon="-3.6023269873"><ele>1061.43</ele><time>2026-08-23T07:45:10Z</time></trkpt><trkpt lat="40.8892260119" lon="-3.6023551505"><ele>1061.43</ele><time>2026-08-23T07:45:11Z</time></trkpt><trkpt lat="40.8892455418" lon="-3.6023794580"><ele>1061.43</ele><time>2026-08-23T07:45:12Z</time></trkpt><trkpt lat="40.8892711904" lon="-3.6024098843"><ele>1061.43</ele><time>2026-08-23T07:45:13Z</time></trkpt><trkpt lat="40.8893657383" lon="-3.6026058532"><ele>1062.87</ele><time>2026-08-23T07:45:18Z</time></trkpt><trkpt lat="40.8893969189" lon="-3.6028045043"><ele>1065.76</ele><time>2026-08-23T07:45:23Z</time></trkpt><trkpt lat="40.8894130122" lon="-3.6028729007"><ele>1067.20</ele><time>2026-08-23T07:45:25Z</time></trkpt><trkpt lat="40.8894236572" lon="-3.6028983817"><ele>1067.20</ele><time>2026-08-23T07:45:26Z</time></trkpt><trkpt lat="40.8894369844" lon="-3.6029283050"><ele>1067.20</ele><time>2026-08-23T07:45:27Z</time></trkpt><trkpt lat="40.8894565143" lon="-3.6029620003"><ele>1067.20</ele><time>2026-08-23T07:45:28Z</time></trkpt><trkpt lat="40.8894815762" lon="-3.6029978748"><ele>1067.20</ele><time>2026-08-23T07:45:29Z</time></trkpt><trkpt lat="40.8895534929" lon="-3.6031225976"><ele>1066.72</ele><time>2026-08-23T07:45:32Z</time></trkpt><trkpt lat="40.8895839192" lon="-3.6031736434"><ele>1066.72</ele><time>2026-08-23T07:45:33Z</time></trkpt><trkpt lat="40.8897733502" lon="-3.6034843605"><ele>1064.80</ele><time>2026-08-23T07:45:40Z</time></trkpt><trkpt lat="40.8898103144" lon="-3.6034843605"><ele>1065.28</ele><time>2026-08-23T07:45:41Z</time></trkpt><trkpt lat="40.8898541518" lon="-3.6034537666"><ele>1064.32</ele><time>2026-08-23T07:45:42Z</time></trkpt><trkpt lat="40.8899000008" lon="-3.6034152936"><ele>1063.84</ele><time>2026-08-23T07:45:43Z</time></trkpt><trkpt lat="40.8899479453" lon="-3.6033968534"><ele>1062.39</ele><time>2026-08-23T07:45:44Z</time></trkpt><trkpt lat="40.8899991587" lon="-3.6034089234"><ele>1061.91</ele><time>2026-08-23T07:45:45Z</time></trkpt><trkpt lat="40.8900458459" lon="-3.6034551915"><ele>1060.95</ele><time>2026-08-23T07:45:46Z</time></trkpt><trkpt lat="40.8900933713" lon="-3.6035143677"><ele>1060.95</ele><time>2026-08-23T07:45:47Z</time></trkpt><trkpt lat="40.8901515417" lon="-3.6035586242"><ele>1060.47</ele><time>2026-08-23T07:45:48Z</time></trkpt><trkpt lat="40.8902190160" lon="-3.6035956722"><ele>1060.47</ele><time>2026-08-23T07:45:49Z</time></trkpt><trkpt lat="40.8904403821" lon="-3.6037369911"><ele>1057.11</ele><time>2026-08-23T07:45:52Z</time></trkpt><trkpt lat="40.8904968761" lon="-3.6038007773"><ele>1056.63</ele><time>2026-08-23T07:45:53Z</time></trkpt><trkpt lat="40.8905418869" lon="-3.6038756277"><ele>1055.67</ele><time>2026-08-23T07:45:54Z</time></trkpt><trkpt lat="40.8906224370" lon="-3.6040193774"><ele>1054.22</ele><time>2026-08-23T07:45:56Z</time></trkpt><trkpt lat="40.8906690404" lon="-3.6040784698"><ele>1053.74</ele><time>2026-08-23T07:45:57Z</time></trkpt><trkpt lat="40.8907228522" lon="-3.6041263305"><ele>1053.26</ele><time>2026-08-23T07:45:58Z</time></trkpt><trkpt lat="40.8907795139" lon="-3.6041607801"><ele>1052.30</ele><time>2026-08-23T07:45:59Z</time></trkpt><trkpt lat="40.8908465691" lon="-3.6041984148"><ele>1050.86</ele><time>2026-08-23T07:46:00Z</time></trkpt><trkpt lat="40.8909053262" lon="-3.6042344570"><ele>1050.38</ele><time>2026-08-23T07:46:01Z</time></trkpt><trkpt lat="40.8909735549" lon="-3.6042730138"><ele>1050.38</ele><time>2026-08-23T07:46:02Z</time></trkpt><trkpt lat="40.8910432085" lon="-3.6043011770"><ele>1048.45</ele><time>2026-08-23T07:46:03Z</time></trkpt><trkpt lat="40.8911877964" lon="-3.6043505464"><ele>1047.01</ele><time>2026-08-23T07:46:05Z</time></trkpt><trkpt lat="40.8914514910" lon="-3.6044713296"><ele>1044.61</ele><time>2026-08-23T07:46:09Z</time></trkpt><trkpt lat="40.8915119246" lon="-3.6044795439"><ele>1043.17</ele><time>2026-08-23T07:46:10Z</time></trkpt><trkpt lat="40.8915692568" lon="-3.6044862494"><ele>1041.73</ele><time>2026-08-23T07:46:11Z</time></trkpt><trkpt lat="40.8916170336" lon="-3.6045043543"><ele>1040.76</ele><time>2026-08-23T07:46:12Z</time></trkpt><trkpt lat="40.8916669898" lon="-3.6045420729"><ele>1039.80</ele><time>2026-08-23T07:46:13Z</time></trkpt><trkpt lat="40.8917155210" lon="-3.6045932025"><ele>1039.32</ele><time>2026-08-23T07:46:14Z</time></trkpt><trkpt lat="40.8917591907" lon="-3.6046442483"><ele>1038.84</ele><time>2026-08-23T07:46:15Z</time></trkpt><trkpt lat="40.8918016031" lon="-3.6046884209"><ele>1038.84</ele><time>2026-08-23T07:46:16Z</time></trkpt><trkpt lat="40.8918493800" lon="-3.6047269776"><ele>1037.88</ele><time>2026-08-23T07:46:17Z</time></trkpt><trkpt lat="40.8918898646" lon="-3.6047513690"><ele>1036.92</ele><time>2026-08-23T07:46:18Z</time></trkpt><trkpt lat="40.8919306006" lon="-3.6047766823"><ele>1037.40</ele><time>2026-08-23T07:46:19Z</time></trkpt><trkpt lat="40.8919709176" lon="-3.6048126407"><ele>1036.44</ele><time>2026-08-23T07:46:21Z</time></trkpt><trkpt lat="40.8919942193" lon="-3.6048534606"><ele>1036.44</ele><time>2026-08-23T07:46:22Z</time></trkpt><trkpt lat="40.8920023497" lon="-3.6048715655"><ele>1036.44</ele><time>2026-08-23T07:46:23Z</time></trkpt><trkpt lat="40.8920108154" lon="-3.6048836354"><ele>1036.44</ele><time>2026-08-23T07:46:24Z</time></trkpt><trkpt lat="40.8920212090" lon="-3.6049033329"><ele>1035.96</ele><time>2026-08-23T07:46:26Z</time></trkpt><trkpt lat="40.8920262381" lon="-3.6049185041"><ele>1035.96</ele><time>2026-08-23T07:46:27Z</time></trkpt><trkpt lat="40.8920347877" lon="-3.6049402971"><ele>1035.96</ele><time>2026-08-23T07:46:28Z</time></trkpt><trkpt lat="40.8921687305" lon="-3.6053414550"><ele>1035.96</ele><time>2026-08-23T07:46:37Z</time></trkpt><trkpt lat="40.8923032600" lon="-3.6057267711"><ele>1035.48</ele><time>2026-08-23T07:46:44Z</time></trkpt><trkpt lat="40.8923412301" lon="-3.6057828460"><ele>1035.48</ele><time>2026-08-23T07:46:45Z</time></trkpt><trkpt lat="40.8923852351" lon="-3.6058262642"><ele>1035.48</ele><time>2026-08-23T07:46:46Z</time></trkpt><trkpt lat="40.8924364485" lon="-3.6058632284"><ele>1034.04</ele><time>2026-08-23T07:46:47Z</time></trkpt><trkpt lat="40.8924917690" lon="-3.6058948282"><ele>1034.04</ele><time>2026-08-23T07:46:48Z</time></trkpt><trkpt lat="40.8925954532" lon="-3.6059537530"><ele>1033.55</ele><time>2026-08-23T07:46:50Z</time></trkpt><trkpt lat="40.8926393744" lon="-3.6059956625"><ele>1032.59</ele><time>2026-08-23T07:46:51Z</time></trkpt><trkpt lat="40.8926793560" lon="-3.6060474627"><ele>1032.59</ele><time>2026-08-23T07:46:52Z</time></trkpt><trkpt lat="40.8927178290" lon="-3.6061104946"><ele>1032.59</ele><time>2026-08-23T07:46:53Z</time></trkpt><trkpt lat="40.8927557152" lon="-3.6061786395"><ele>1031.63</ele><time>2026-08-23T07:46:54Z</time></trkpt><trkpt lat="40.8929417934" lon="-3.6065202020"><ele>1031.15</ele><time>2026-08-23T07:46:59Z</time></trkpt><trkpt lat="40.8929703757" lon="-3.6065967288"><ele>1031.15</ele><time>2026-08-23T07:47:00Z</time></trkpt><trkpt lat="40.8929907437" lon="-3.6066747643"><ele>1031.15</ele><time>2026-08-23T07:47:01Z</time></trkpt><trkpt lat="40.8930031490" lon="-3.6067553982"><ele>1030.19</ele><time>2026-08-23T07:47:02Z</time></trkpt><trkpt lat="40.8930122852" lon="-3.6068431567"><ele>1029.71</ele><time>2026-08-23T07:47:03Z</time></trkpt><trkpt lat="40.8930498362" lon="-3.6075036507"><ele>1028.75</ele><time>2026-08-23T07:47:10Z</time></trkpt><trkpt lat="40.8930475730" lon="-3.6075976957"><ele>1029.23</ele><time>2026-08-23T07:47:11Z</time></trkpt><trkpt lat="40.8930562064" lon="-3.6076975241"><ele>1029.23</ele><time>2026-08-23T07:47:12Z</time></trkpt><trkpt lat="40.8930731378" lon="-3.6077812593"><ele>1029.23</ele><time>2026-08-23T07:47:13Z</time></trkpt><trkpt lat="40.8930991217" lon="-3.6078513321"><ele>1029.23</ele><time>2026-08-23T07:47:14Z</time></trkpt><trkpt lat="40.8931224234" lon="-3.6079330556"><ele>1029.23</ele><time>2026-08-23T07:47:15Z</time></trkpt><trkpt lat="40.8931360021" lon="-3.6080136057"><ele>1029.23</ele><time>2026-08-23T07:47:16Z</time></trkpt><trkpt lat="40.8931458090" lon="-3.6080933176"><ele>1029.23</ele><time>2026-08-23T07:47:17Z</time></trkpt><trkpt lat="40.8931513410" lon="-3.6081727780"><ele>1027.31</ele><time>2026-08-23T07:47:18Z</time></trkpt><trkpt lat="40.8931511734" lon="-3.6082580220"><ele>1027.31</ele><time>2026-08-23T07:47:19Z</time></trkpt><trkpt lat="40.8931446355" lon="-3.6083340459"><ele>1027.31</ele><time>2026-08-23T07:47:20Z</time></trkpt><trkpt lat="40.8931287099" lon="-3.6084052920"><ele>1026.34</ele><time>2026-08-23T07:47:21Z</time></trkpt><trkpt lat="40.8931036480" lon="-3.6084777955"><ele>1026.34</ele><time>2026-08-23T07:47:22Z</time></trkpt><trkpt lat="40.8930792566" lon="-3.6085414141"><ele>1025.86</ele><time>2026-08-23T07:47:23Z</time></trkpt><trkpt lat="40.8930588048" lon="-3.6086062063"><ele>1025.86</ele><time>2026-08-23T07:47:24Z</time></trkpt><trkpt lat="40.8930489141" lon="-3.6086766981"><ele>1025.86</ele><time>2026-08-23T07:47:25Z</time></trkpt><trkpt lat="40.8930515964" lon="-3.6087224633"><ele>1025.86</ele><time>2026-08-23T07:47:26Z</time></trkpt><trkpt lat="40.8930687793" lon="-3.6087835673"><ele>1025.86</ele><time>2026-08-23T07:47:27Z</time></trkpt><trkpt lat="40.8930899017" lon="-3.6088257283"><ele>1025.86</ele><time>2026-08-23T07:47:28Z</time></trkpt><trkpt lat="40.8931169752" lon="-3.6088717449"><ele>1025.86</ele><time>2026-08-23T07:47:29Z</time></trkpt><trkpt lat="40.8931469824" lon="-3.6089166719"><ele>1025.86</ele><time>2026-08-23T07:47:30Z</time></trkpt><trkpt lat="40.8931817673" lon="-3.6089601740"><ele>1025.86</ele><time>2026-08-23T07:47:31Z</time></trkpt><trkpt lat="40.8932163846" lon="-3.6090030055"><ele>1025.86</ele><time>2026-08-23T07:47:32Z</time></trkpt><trkpt lat="40.8932507504" lon="-3.6090424005"><ele>1025.86</ele><time>2026-08-23T07:47:33Z</time></trkpt><trkpt lat="40.8932886366" lon="-3.6090797838"><ele>1025.86</ele><time>2026-08-23T07:47:34Z</time></trkpt><trkpt lat="40.8937929757" lon="-3.6096626613"><ele>1025.38</ele><time>2026-08-23T07:47:47Z</time></trkpt><trkpt lat="40.8938243240" lon="-3.6097279564"><ele>1024.42</ele><time>2026-08-23T07:47:48Z</time></trkpt><trkpt lat="40.8938399144" lon="-3.6097734701"><ele>1024.42</ele><time>2026-08-23T07:47:49Z</time></trkpt><trkpt lat="40.8938930556" lon="-3.6099383421"><ele>1024.42</ele><time>2026-08-23T07:47:52Z</time></trkpt><trkpt lat="40.8939353842" lon="-3.6100493185"><ele>1024.42</ele><time>2026-08-23T07:47:54Z</time></trkpt><trkpt lat="40.8939582668" lon="-3.6100935750"><ele>1024.42</ele><time>2026-08-23T07:47:55Z</time></trkpt><trkpt lat="40.8939855080" lon="-3.6101346463"><ele>1024.42</ele><time>2026-08-23T07:47:56Z</time></trkpt><trkpt lat="40.8940184489" lon="-3.6101675872"><ele>1024.42</ele><time>2026-08-23T07:47:57Z</time></trkpt><trkpt lat="40.8940572571" lon="-3.6101969238"><ele>1024.42</ele><time>2026-08-23T07:47:58Z</time></trkpt><trkpt lat="40.8940791339" lon="-3.6102208961"><ele>1023.94</ele><time>2026-08-23T07:47:59Z</time></trkpt><trkpt lat="40.8940851688" lon="-3.6102476344"><ele>1023.94</ele><time>2026-08-23T07:48:00Z</time></trkpt><trkpt lat="40.8940839116" lon="-3.6102638114"><ele>1023.94</ele><time>2026-08-23T07:48:01Z</time></trkpt><trkpt lat="40.8940788824" lon="-3.6102869455"><ele>1023.94</ele><time>2026-08-23T07:48:02Z</time></trkpt><trkpt lat="40.8940724283" lon="-3.6103117559"><ele>1023.94</ele><time>2026-08-23T07:48:03Z</time></trkpt><trkpt lat="40.8940601069" lon="-3.6104432680"><ele>1023.94</ele><time>2026-08-23T07:48:11Z</time></trkpt><trkpt lat="40.8941391483" lon="-3.6106865946"><ele>1025.38</ele><time>2026-08-23T07:48:23Z</time></trkpt><trkpt lat="40.8942885976" lon="-3.6110565718"><ele>1026.83</ele><time>2026-08-23T07:48:35Z</time></trkpt><trkpt lat="40.8943984844" lon="-3.6114940234"><ele>1026.83</ele><time>2026-08-23T07:48:46Z</time></trkpt><trkpt lat="40.8944435790" lon="-3.6122132745"><ele>1029.71</ele><time>2026-08-23T07:49:02Z</time></trkpt><trkpt lat="40.8943437506" lon="-3.6128438450"><ele>1031.63</ele><time>2026-08-23T07:49:16Z</time></trkpt><trkpt lat="40.8940758649" lon="-3.6132352799"><ele>1035.00</ele><time>2026-08-23T07:49:27Z</time></trkpt><trkpt lat="40.8938385732" lon="-3.6137407087"><ele>1037.88</ele><time>2026-08-23T07:49:40Z</time></trkpt><trkpt lat="40.8940171916" lon="-3.6144392565"><ele>1040.76</ele><time>2026-08-23T07:49:54Z</time></trkpt><trkpt lat="40.8940320276" lon="-3.6148178671"><ele>1043.65</ele><time>2026-08-23T07:50:02Z</time></trkpt><trkpt lat="40.8941382263" lon="-3.6154699791"><ele>1046.05</ele><time>2026-08-23T07:50:16Z</time></trkpt><trkpt lat="40.8941482846" lon="-3.6156534590"><ele>1046.53</ele><time>2026-08-23T07:50:21Z</time></trkpt><trkpt lat="40.8941920381" lon="-3.6156987213"><ele>1046.53</ele><time>2026-08-23T07:50:23Z</time></trkpt><trkpt lat="40.8942250628" lon="-3.6157216877"><ele>1046.53</ele><time>2026-08-23T07:50:24Z</time></trkpt><trkpt lat="40.8942920342" lon="-3.6157569755"><ele>1045.09</ele><time>2026-08-23T07:50:25Z</time></trkpt><trkpt lat="40.8943423256" lon="-3.6157835461"><ele>1044.61</ele><time>2026-08-23T07:50:26Z</time></trkpt><trkpt lat="40.8944102190" lon="-3.6157986335"><ele>1044.61</ele><time>2026-08-23T07:50:27Z</time></trkpt><trkpt lat="40.8944781963" lon="-3.6158105358"><ele>1043.17</ele><time>2026-08-23T07:50:28Z</time></trkpt><trkpt lat="40.8946467564" lon="-3.6158495117"><ele>1042.21</ele><time>2026-08-23T07:50:30Z</time></trkpt><trkpt lat="40.8948742412" lon="-3.6159132980"><ele>1040.76</ele><time>2026-08-23T07:50:33Z</time></trkpt><trkpt lat="40.8949929290" lon="-3.6159587279"><ele>1040.28</ele><time>2026-08-23T07:50:35Z</time></trkpt><trkpt lat="40.8950501774" lon="-3.6159617454"><ele>1040.28</ele><time>2026-08-23T07:50:36Z</time></trkpt><trkpt lat="40.8951094374" lon="-3.6159609910"><ele>1039.80</ele><time>2026-08-23T07:50:37Z</time></trkpt><trkpt lat="40.8951666858" lon="-3.6159672774"><ele>1038.84</ele><time>2026-08-23T07:50:38Z</time></trkpt><trkpt lat="40.8952339925" lon="-3.6159742344"><ele>1038.84</ele><time>2026-08-23T07:50:39Z</time></trkpt><trkpt lat="40.8952955995" lon="-3.6159632541"><ele>1038.84</ele><time>2026-08-23T07:50:40Z</time></trkpt><trkpt lat="40.8953572903" lon="-3.6159331631"><ele>1038.36</ele><time>2026-08-23T07:50:41Z</time></trkpt><trkpt lat="40.8954179753" lon="-3.6159110349"><ele>1036.92</ele><time>2026-08-23T07:50:42Z</time></trkpt><trkpt lat="40.8954862878" lon="-3.6158982106"><ele>1035.96</ele><time>2026-08-23T07:50:43Z</time></trkpt><trkpt lat="40.8955484815" lon="-3.6158726458"><ele>1035.48</ele><time>2026-08-23T07:50:44Z</time></trkpt><trkpt lat="40.8955982700" lon="-3.6158451531"><ele>1035.48</ele><time>2026-08-23T07:50:45Z</time></trkpt><trkpt lat="40.8956332225" lon="-3.6158482544"><ele>1035.48</ele><time>2026-08-23T07:50:46Z</time></trkpt><trkpt lat="40.8956628945" lon="-3.6158796027"><ele>1035.48</ele><time>2026-08-23T07:50:47Z</time></trkpt><trkpt lat="40.8956933208" lon="-3.6159262899"><ele>1035.48</ele><time>2026-08-23T07:50:48Z</time></trkpt><trkpt lat="40.8958058059" lon="-3.6161198281"><ele>1035.00</ele><time>2026-08-23T07:50:51Z</time></trkpt><trkpt lat="40.8958913852" lon="-3.6162416171"><ele>1034.04</ele><time>2026-08-23T07:50:53Z</time></trkpt><trkpt lat="40.8959376533" lon="-3.6162961833"><ele>1033.55</ele><time>2026-08-23T07:50:54Z</time></trkpt><trkpt lat="40.8959726058" lon="-3.6163525097"><ele>1033.07</ele><time>2026-08-23T07:50:55Z</time></trkpt><trkpt lat="40.8959984221" lon="-3.6164258514"><ele>1033.07</ele><time>2026-08-23T07:50:56Z</time></trkpt><trkpt lat="40.8960268367" lon="-3.6164980195"><ele>1032.59</ele><time>2026-08-23T07:50:57Z</time></trkpt><trkpt lat="40.8960695844" lon="-3.6165541783"><ele>1032.11</ele><time>2026-08-23T07:50:58Z</time></trkpt><trkpt lat="40.8961152658" lon="-3.6165824253"><ele>1030.67</ele><time>2026-08-23T07:50:59Z</time></trkpt><trkpt lat="40.8961679880" lon="-3.6165877059"><ele>1030.67</ele><time>2026-08-23T07:51:00Z</time></trkpt><trkpt lat="40.8962170221" lon="-3.6165660806"><ele>1030.19</ele><time>2026-08-23T07:51:01Z</time></trkpt><trkpt lat="40.8962457720" lon="-3.6165348161"><ele>1030.19</ele><time>2026-08-23T07:51:02Z</time></trkpt><trkpt lat="40.8962694928" lon="-3.6164993607"><ele>1029.23</ele><time>2026-08-23T07:51:03Z</time></trkpt><trkpt lat="40.8962881006" lon="-3.6164615583"><ele>1028.27</ele><time>2026-08-23T07:51:05Z</time></trkpt><trkpt lat="40.8962869272" lon="-3.6164704431"><ele>1027.79</ele><time>2026-08-23T07:51:09Z</time></trkpt><trkpt lat="40.8962647989" lon="-3.6165172979"><ele>1027.79</ele><time>2026-08-23T07:51:13Z</time></trkpt><trkpt lat="40.8962528966" lon="-3.6165576149"><ele>1027.79</ele><time>2026-08-23T07:51:14Z</time></trkpt><trkpt lat="40.8962408267" lon="-3.6166096665"><ele>1027.79</ele><time>2026-08-23T07:51:16Z</time></trkpt><trkpt lat="40.8962470293" lon="-3.6166374944"><ele>1027.79</ele><time>2026-08-23T07:51:17Z</time></trkpt><trkpt lat="40.8962611947" lon="-3.6166667473"><ele>1027.79</ele><time>2026-08-23T07:51:18Z</time></trkpt><trkpt lat="40.8963642921" lon="-3.6168100778"><ele>1027.79</ele><time>2026-08-23T07:51:22Z</time></trkpt><trkpt lat="40.8963989932" lon="-3.6168461200"><ele>1027.31</ele><time>2026-08-23T07:51:23Z</time></trkpt><trkpt lat="40.8964359574" lon="-3.6168964952"><ele>1027.31</ele><time>2026-08-23T07:51:24Z</time></trkpt><trkpt lat="40.8964667190" lon="-3.6169534922"><ele>1027.31</ele><time>2026-08-23T07:51:25Z</time></trkpt><trkpt lat="40.8964906074" lon="-3.6170221400"><ele>1026.83</ele><time>2026-08-23T07:51:26Z</time></trkpt><trkpt lat="40.8965033479" lon="-3.6170913745"><ele>1026.34</ele><time>2026-08-23T07:51:27Z</time></trkpt><trkpt lat="40.8965108078" lon="-3.6171518080"><ele>1026.34</ele><time>2026-08-23T07:51:28Z</time></trkpt><trkpt lat="40.8965161722" lon="-3.6172200367"><ele>1026.34</ele><time>2026-08-23T07:51:29Z</time></trkpt><trkpt lat="40.8965200279" lon="-3.6172895227"><ele>1026.34</ele><time>2026-08-23T07:51:30Z</time></trkpt><trkpt lat="40.8965181839" lon="-3.6173633672"><ele>1026.34</ele><time>2026-08-23T07:51:31Z</time></trkpt><trkpt lat="40.8964944631" lon="-3.6175056081"><ele>1027.79</ele><time>2026-08-23T07:51:33Z</time></trkpt><trkpt lat="40.8964685630" lon="-3.6175751779"><ele>1027.79</ele><time>2026-08-23T07:51:34Z</time></trkpt><trkpt lat="40.8964556549" lon="-3.6176256370"><ele>1027.79</ele><time>2026-08-23T07:51:35Z</time></trkpt><trkpt lat="40.8964621928" lon="-3.6176965479"><ele>1027.79</ele><time>2026-08-23T07:51:36Z</time></trkpt><trkpt lat="40.8964848239" lon="-3.6177439895"><ele>1027.79</ele><time>2026-08-23T07:51:37Z</time></trkpt><trkpt lat="40.8965212014" lon="-3.6177996453"><ele>1027.79</ele><time>2026-08-23T07:51:38Z</time></trkpt><trkpt lat="40.8965621889" lon="-3.6178550497"><ele>1027.79</ele><time>2026-08-23T07:51:39Z</time></trkpt><trkpt lat="40.8966065291" lon="-3.6179081909"><ele>1026.34</ele><time>2026-08-23T07:51:40Z</time></trkpt><trkpt lat="40.8966556471" lon="-3.6179480050"><ele>1026.34</ele><time>2026-08-23T07:51:41Z</time></trkpt><trkpt lat="40.8967083693" lon="-3.6179609969"><ele>1025.86</ele><time>2026-08-23T07:51:42Z</time></trkpt><trkpt lat="40.8967606723" lon="-3.6179431435"><ele>1025.38</ele><time>2026-08-23T07:51:43Z</time></trkpt><trkpt lat="40.8968050126" lon="-3.6178994738"><ele>1023.94</ele><time>2026-08-23T07:51:44Z</time></trkpt><trkpt lat="40.8968459163" lon="-3.6178427283"><ele>1022.98</ele><time>2026-08-23T07:51:45Z</time></trkpt><trkpt lat="40.8968916815" lon="-3.6177868210"><ele>1022.98</ele><time>2026-08-23T07:51:46Z</time></trkpt><trkpt lat="40.8970327489" lon="-3.6176253017"><ele>1018.65</ele><time>2026-08-23T07:51:49Z</time></trkpt><trkpt lat="40.8971309010" lon="-3.6174982321"><ele>1016.73</ele><time>2026-08-23T07:51:51Z</time></trkpt><trkpt lat="40.8971597347" lon="-3.6174325179"><ele>1015.77</ele><time>2026-08-23T07:51:52Z</time></trkpt><trkpt lat="40.8971828688" lon="-3.6173607688"><ele>1015.77</ele><time>2026-08-23T07:51:53Z</time></trkpt><trkpt lat="40.8972452302" lon="-3.6172233056"><ele>1013.85</ele><time>2026-08-23T07:51:56Z</time></trkpt><trkpt lat="40.8973107766" lon="-3.6171466950"><ele>1011.93</ele><time>2026-08-23T07:51:58Z</time></trkpt><trkpt lat="40.8973438013" lon="-3.6171189509"><ele>1010.96</ele><time>2026-08-23T07:51:59Z</time></trkpt><trkpt lat="40.8973775804" lon="-3.6170963198"><ele>1010.48</ele><time>2026-08-23T07:52:00Z</time></trkpt><trkpt lat="40.8974576276" lon="-3.6170627922"><ele>1010.00</ele><time>2026-08-23T07:52:02Z</time></trkpt><trkpt lat="40.8975069970" lon="-3.6170583498"><ele>1009.52</ele><time>2026-08-23T07:52:03Z</time></trkpt><trkpt lat="40.8975598868" lon="-3.6170615349"><ele>1009.04</ele><time>2026-08-23T07:52:04Z</time></trkpt><trkpt lat="40.8977827616" lon="-3.6170954816"><ele>1007.60</ele><time>2026-08-23T07:52:13Z</time></trkpt><trkpt lat="40.8977598790" lon="-3.6171000078"><ele>1007.60</ele><time>2026-08-23T07:52:53Z</time></trkpt><trkpt lat="40.8977670036" lon="-3.6171077192"><ele>1007.60</ele><time>2026-08-23T07:52:57Z</time></trkpt><trkpt lat="40.8977738768" lon="-3.6171223037"><ele>1007.60</ele><time>2026-08-23T07:52:58Z</time></trkpt><trkpt lat="40.8977790736" lon="-3.6171378102"><ele>1007.60</ele><time>2026-08-23T07:52:59Z</time></trkpt><trkpt lat="40.8979229070" lon="-3.6174751818"><ele>1007.60</ele><time>2026-08-23T07:53:11Z</time></trkpt><trkpt lat="40.8982840832" lon="-3.6181832850"><ele>1005.20</ele><time>2026-08-23T07:53:26Z</time></trkpt><trkpt lat="40.8983134199" lon="-3.6182343308"><ele>1005.68</ele><time>2026-08-23T07:53:27Z</time></trkpt><trkpt lat="40.8983467799" lon="-3.6182835326"><ele>1005.68</ele><time>2026-08-23T07:53:28Z</time></trkpt><trkpt lat="40.8987091295" lon="-3.6185951717"><ele>1004.72</ele><time>2026-08-23T07:53:37Z</time></trkpt><trkpt lat="40.8987512067" lon="-3.6186214909"><ele>1004.23</ele><time>2026-08-23T07:53:38Z</time></trkpt><trkpt lat="40.8987909369" lon="-3.6186611373"><ele>1004.23</ele><time>2026-08-23T07:53:39Z</time></trkpt><trkpt lat="40.8988237102" lon="-3.6187072378"><ele>1003.27</ele><time>2026-08-23T07:53:40Z</time></trkpt><trkpt lat="40.8988548908" lon="-3.6187549308"><ele>1003.27</ele><time>2026-08-23T07:53:41Z</time></trkpt><trkpt lat="40.8991822880" lon="-3.6192379799"><ele>1003.27</ele><time>2026-08-23T07:53:52Z</time></trkpt><trkpt lat="40.8993353415" lon="-3.6196315940"><ele>1004.72</ele><time>2026-08-23T07:54:00Z</time></trkpt><trkpt lat="40.8993588109" lon="-3.6196957994"><ele>1003.27</ele><time>2026-08-23T07:54:01Z</time></trkpt><trkpt lat="40.8993817773" lon="-3.6197619326"><ele>1002.79</ele><time>2026-08-23T07:54:02Z</time></trkpt><trkpt lat="40.8994122874" lon="-3.6198339332"><ele>1002.79</ele><time>2026-08-23T07:54:03Z</time></trkpt><trkpt lat="40.8994466532" lon="-3.6199009884"><ele>1002.31</ele><time>2026-08-23T07:54:04Z</time></trkpt><trkpt lat="40.8994909935" lon="-3.6199777666"><ele>1001.83</ele><time>2026-08-23T07:54:05Z</time></trkpt><trkpt lat="40.8995347470" lon="-3.6200211849"><ele>1000.87</ele><time>2026-08-23T07:54:06Z</time></trkpt><trkpt lat="40.8995990362" lon="-3.6200723983"><ele>1000.87</ele><time>2026-08-23T07:54:07Z</time></trkpt><trkpt lat="40.8996527642" lon="-3.6201107036"><ele>1000.39</ele><time>2026-08-23T07:54:08Z</time></trkpt><trkpt lat="40.8997174725" lon="-3.6201479193"><ele>999.43</ele><time>2026-08-23T07:54:09Z</time></trkpt><trkpt lat="40.8997911494" lon="-3.6201869790"><ele>998.95</ele><time>2026-08-23T07:54:10Z</time></trkpt><trkpt lat="40.8998608869" lon="-3.6202302296"><ele>997.99</ele><time>2026-08-23T07:54:11Z</time></trkpt><trkpt lat="40.8999329712" lon="-3.6202888191"><ele>997.51</ele><time>2026-08-23T07:54:12Z</time></trkpt><trkpt lat="40.9000043850" lon="-3.6203399487"><ele>996.54</ele><time>2026-08-23T07:54:13Z</time></trkpt><trkpt lat="40.9000857733" lon="-3.6203901563"><ele>995.58</ele><time>2026-08-23T07:54:14Z</time></trkpt><trkpt lat="40.9001597017" lon="-3.6204435490"><ele>994.62</ele><time>2026-08-23T07:54:15Z</time></trkpt><trkpt lat="40.9002299421" lon="-3.6204987857"><ele>994.62</ele><time>2026-08-23T07:54:16Z</time></trkpt><trkpt lat="40.9003796428" lon="-3.6206212454"><ele>992.70</ele><time>2026-08-23T07:54:19Z</time></trkpt><trkpt lat="40.9005040303" lon="-3.6207391787"><ele>990.78</ele><time>2026-08-23T07:54:22Z</time></trkpt><trkpt lat="40.9005382285" lon="-3.6207981035"><ele>989.81</ele><time>2026-08-23T07:54:23Z</time></trkpt><trkpt lat="40.9005522262" lon="-3.6208663322"><ele>989.81</ele><time>2026-08-23T07:54:24Z</time></trkpt><trkpt lat="40.9005476162" lon="-3.6209387518"><ele>989.33</ele><time>2026-08-23T07:54:25Z</time></trkpt><trkpt lat="40.9005327802" lon="-3.6210094951"><ele>988.85</ele><time>2026-08-23T07:54:26Z</time></trkpt><trkpt lat="40.9005126636" lon="-3.6210778914"><ele>988.85</ele><time>2026-08-23T07:54:27Z</time></trkpt><trkpt lat="40.9004779626" lon="-3.6212051287"><ele>988.37</ele><time>2026-08-23T07:54:29Z</time></trkpt><trkpt lat="40.9004689101" lon="-3.6213290971"><ele>988.37</ele><time>2026-08-23T07:54:31Z</time></trkpt><trkpt lat="40.9004743584" lon="-3.6213885248"><ele>988.37</ele><time>2026-08-23T07:54:32Z</time></trkpt><trkpt lat="40.9004903678" lon="-3.6215005070"><ele>988.37</ele><time>2026-08-23T07:54:34Z</time></trkpt><trkpt lat="40.9004982468" lon="-3.6215555761"><ele>988.37</ele><time>2026-08-23T07:54:35Z</time></trkpt><trkpt lat="40.9005000908" lon="-3.6216105614"><ele>988.37</ele><time>2026-08-23T07:54:36Z</time></trkpt><trkpt lat="40.9004984982" lon="-3.6216672231"><ele>988.37</ele><time>2026-08-23T07:54:37Z</time></trkpt><trkpt lat="40.9004997555" lon="-3.6217186879"><ele>988.37</ele><time>2026-08-23T07:54:38Z</time></trkpt><trkpt lat="40.9005023539" lon="-3.6217706557"><ele>988.37</ele><time>2026-08-23T07:54:39Z</time></trkpt><trkpt lat="40.9004991688" lon="-3.6218221206"><ele>989.81</ele><time>2026-08-23T07:54:40Z</time></trkpt><trkpt lat="40.9004892781" lon="-3.6218771059"><ele>989.81</ele><time>2026-08-23T07:54:41Z</time></trkpt><trkpt lat="40.9004618693" lon="-3.6220452469"><ele>989.81</ele><time>2026-08-23T07:54:44Z</time></trkpt><trkpt lat="40.9004604444" lon="-3.6220997293"><ele>989.81</ele><time>2026-08-23T07:54:45Z</time></trkpt><trkpt lat="40.9004637133" lon="-3.6221557204"><ele>990.30</ele><time>2026-08-23T07:54:46Z</time></trkpt><trkpt lat="40.9004736040" lon="-3.6222102866"><ele>990.30</ele><time>2026-08-23T07:54:47Z</time></trkpt><trkpt lat="40.9004902840" lon="-3.6222652718"><ele>990.30</ele><time>2026-08-23T07:54:48Z</time></trkpt><trkpt lat="40.9005150106" lon="-3.6223163176"><ele>990.30</ele><time>2026-08-23T07:54:49Z</time></trkpt><trkpt lat="40.9005486220" lon="-3.6223607417"><ele>990.30</ele><time>2026-08-23T07:54:50Z</time></trkpt><trkpt lat="40.9005870949" lon="-3.6224039085"><ele>990.30</ele><time>2026-08-23T07:54:51Z</time></trkpt><trkpt lat="40.9006958921" lon="-3.6225445569"><ele>990.30</ele><time>2026-08-23T07:54:54Z</time></trkpt><trkpt lat="40.9007237200" lon="-3.6225972790"><ele>990.30</ele><time>2026-08-23T07:54:55Z</time></trkpt><trkpt lat="40.9008280747" lon="-3.6228173878"><ele>989.81</ele><time>2026-08-23T07:54:59Z</time></trkpt><trkpt lat="40.9008419048" lon="-3.6228670925"><ele>989.81</ele><time>2026-08-23T07:55:00Z</time></trkpt><trkpt lat="40.9008524660" lon="-3.6229179706"><ele>989.81</ele><time>2026-08-23T07:55:01Z</time></trkpt><trkpt lat="40.9008844849" lon="-3.6230834294"><ele>989.81</ele><time>2026-08-23T07:55:04Z</time></trkpt><trkpt lat="40.9008972254" lon="-3.6231351458"><ele>989.81</ele><time>2026-08-23T07:55:05Z</time></trkpt><trkpt lat="40.9009569045" lon="-3.6235694122"><ele>990.30</ele><time>2026-08-23T07:55:14Z</time></trkpt><trkpt lat="40.9009231254" lon="-3.6236000899"><ele>991.26</ele><time>2026-08-23T07:55:15Z</time></trkpt><trkpt lat="40.9009102173" lon="-3.6236144230"><ele>991.26</ele><time>2026-08-23T07:55:16Z</time></trkpt><trkpt lat="40.9008855745" lon="-3.6236405745"><ele>991.74</ele><time>2026-08-23T07:55:17Z</time></trkpt><trkpt lat="40.9008636139" lon="-3.6236681510"><ele>991.74</ele><time>2026-08-23T07:55:18Z</time></trkpt><trkpt lat="40.9005058743" lon="-3.6239073705"><ele>993.18</ele><time>2026-08-23T07:55:29Z</time></trkpt><trkpt lat="40.9002229851" lon="-3.6240429059"><ele>995.58</ele><time>2026-08-23T07:55:37Z</time></trkpt><trkpt lat="40.8998848591" lon="-3.6241045967"><ele>997.99</ele><time>2026-08-23T07:55:45Z</time></trkpt><trkpt lat="40.8997968491" lon="-3.6241341848"><ele>998.47</ele><time>2026-08-23T07:55:47Z</time></trkpt><trkpt lat="40.8997572027" lon="-3.6241580732"><ele>998.95</ele><time>2026-08-23T07:55:48Z</time></trkpt><trkpt lat="40.8997250162" lon="-3.6241884995"><ele>998.95</ele><time>2026-08-23T07:55:49Z</time></trkpt><trkpt lat="40.8997001220" lon="-3.6242282297"><ele>999.43</ele><time>2026-08-23T07:55:50Z</time></trkpt><trkpt lat="40.8996868785" lon="-3.6242690496"><ele>999.43</ele><time>2026-08-23T07:55:51Z</time></trkpt><trkpt lat="40.8996764850" lon="-3.6243162397"><ele>999.43</ele><time>2026-08-23T07:55:52Z</time></trkpt><trkpt lat="40.8996711206" lon="-3.6243626755"><ele>999.43</ele><time>2026-08-23T07:55:53Z</time></trkpt><trkpt lat="40.8996738028" lon="-3.6244086083"><ele>999.43</ele><time>2026-08-23T07:55:54Z</time></trkpt><trkpt lat="40.8996853698" lon="-3.6244501825"><ele>999.43</ele><time>2026-08-23T07:55:55Z</time></trkpt><trkpt lat="40.8997021336" lon="-3.6244951934"><ele>1000.39</ele><time>2026-08-23T07:55:56Z</time></trkpt><trkpt lat="40.8997205738" lon="-3.6245381925"><ele>1000.39</ele><time>2026-08-23T07:55:57Z</time></trkpt><trkpt lat="40.8997816779" lon="-3.6250152905"><ele>1001.83</ele><time>2026-08-23T07:56:07Z</time></trkpt><trkpt lat="40.8996426221" lon="-3.6253198888"><ele>1003.75</ele><time>2026-08-23T07:56:15Z</time></trkpt><trkpt lat="40.8994220104" lon="-3.6256637145"><ele>1005.20</ele><time>2026-08-23T07:56:25Z</time></trkpt><trkpt lat="40.8990022447" lon="-3.6255917139"><ele>1006.16</ele><time>2026-08-23T07:56:36Z</time></trkpt><trkpt lat="40.8989620116" lon="-3.6256031971"><ele>1006.16</ele><time>2026-08-23T07:56:37Z</time></trkpt><trkpt lat="40.8989204373" lon="-3.6256233975"><ele>1006.16</ele><time>2026-08-23T07:56:38Z</time></trkpt><trkpt lat="40.8988832217" lon="-3.6256485432"><ele>1006.16</ele><time>2026-08-23T07:56:39Z</time></trkpt><trkpt lat="40.8988434914" lon="-3.6256816518"><ele>1006.16</ele><time>2026-08-23T07:56:40Z</time></trkpt><trkpt lat="40.8987041004" lon="-3.6258230545"><ele>1007.60</ele><time>2026-08-23T07:56:44Z</time></trkpt><trkpt lat="40.8986672200" lon="-3.6258437578"><ele>1007.60</ele><time>2026-08-23T07:56:45Z</time></trkpt><trkpt lat="40.8986285795" lon="-3.6258456856"><ele>1008.56</ele><time>2026-08-23T07:56:46Z</time></trkpt><trkpt lat="40.8985865861" lon="-3.6258423328"><ele>1009.04</ele><time>2026-08-23T07:56:47Z</time></trkpt><trkpt lat="40.8985450119" lon="-3.6258443445"><ele>1008.56</ele><time>2026-08-23T07:56:48Z</time></trkpt><trkpt lat="40.8985063713" lon="-3.6258575041"><ele>1008.56</ele><time>2026-08-23T07:56:49Z</time></trkpt><trkpt lat="40.8984743524" lon="-3.6258879304"><ele>1008.56</ele><time>2026-08-23T07:56:50Z</time></trkpt><trkpt lat="40.8984544035" lon="-3.6259333603"><ele>1008.56</ele><time>2026-08-23T07:56:51Z</time></trkpt><trkpt lat="40.8984441776" lon="-3.6259842385"><ele>1009.04</ele><time>2026-08-23T07:56:52Z</time></trkpt><trkpt lat="40.8984388132" lon="-3.6260346137"><ele>1009.04</ele><time>2026-08-23T07:56:53Z</time></trkpt><trkpt lat="40.8984344546" lon="-3.6260861624"><ele>1009.04</ele><time>2026-08-23T07:56:54Z</time></trkpt><trkpt lat="40.8984348737" lon="-3.6261327658"><ele>1009.52</ele><time>2026-08-23T07:56:55Z</time></trkpt><trkpt lat="40.8984460216" lon="-3.6261802074"><ele>1009.52</ele><time>2026-08-23T07:56:56Z</time></trkpt><trkpt lat="40.8984649647" lon="-3.6262181774"><ele>1009.52</ele><time>2026-08-23T07:56:57Z</time></trkpt><trkpt lat="40.8984860871" lon="-3.6262551416"><ele>1010.00</ele><time>2026-08-23T07:56:58Z</time></trkpt><trkpt lat="40.8985042758" lon="-3.6262939498"><ele>1010.00</ele><time>2026-08-23T07:56:59Z</time></trkpt><trkpt lat="40.8985191118" lon="-3.6263387091"><ele>1010.48</ele><time>2026-08-23T07:57:00Z</time></trkpt><trkpt lat="40.8985300921" lon="-3.6263920180"><ele>1010.96</ele><time>2026-08-23T07:57:01Z</time></trkpt><trkpt lat="40.8985350374" lon="-3.6264505237"><ele>1010.96</ele><time>2026-08-23T07:57:02Z</time></trkpt><trkpt lat="40.8985331096" lon="-3.6265101191"><ele>1010.96</ele><time>2026-08-23T07:57:03Z</time></trkpt><trkpt lat="40.8985217102" lon="-3.6265643500"><ele>1010.96</ele><time>2026-08-23T07:57:04Z</time></trkpt><trkpt lat="40.8985038567" lon="-3.6266159825"><ele>1010.96</ele><time>2026-08-23T07:57:05Z</time></trkpt><trkpt lat="40.8984820638" lon="-3.6266689561"><ele>1010.96</ele><time>2026-08-23T07:57:06Z</time></trkpt><trkpt lat="40.8984440099" lon="-3.6267905775"><ele>1010.96</ele><time>2026-08-23T07:57:08Z</time></trkpt><trkpt lat="40.8984342869" lon="-3.6268569622"><ele>1010.96</ele><time>2026-08-23T07:57:09Z</time></trkpt><trkpt lat="40.8984355442" lon="-3.6269243527"><ele>1010.00</ele><time>2026-08-23T07:57:10Z</time></trkpt><trkpt lat="40.8984487038" lon="-3.6269874685"><ele>1010.00</ele><time>2026-08-23T07:57:11Z</time></trkpt><trkpt lat="40.8984694909" lon="-3.6270435434"><ele>1009.52</ele><time>2026-08-23T07:57:12Z</time></trkpt><trkpt lat="40.8984952234" lon="-3.6270939186"><ele>1009.52</ele><time>2026-08-23T07:57:13Z</time></trkpt><trkpt lat="40.8985215425" lon="-3.6271476466"><ele>1009.52</ele><time>2026-08-23T07:57:14Z</time></trkpt><trkpt lat="40.8985447604" lon="-3.6272071581"><ele>1009.52</ele><time>2026-08-23T07:57:15Z</time></trkpt><trkpt lat="40.8985793777" lon="-3.6273248401"><ele>1009.52</ele><time>2026-08-23T07:57:17Z</time></trkpt><trkpt lat="40.8985782042" lon="-3.6273871176"><ele>1009.04</ele><time>2026-08-23T07:57:18Z</time></trkpt><trkpt lat="40.8985628653" lon="-3.6274467967"><ele>1009.04</ele><time>2026-08-23T07:57:19Z</time></trkpt><trkpt lat="40.8985405695" lon="-3.6275063921"><ele>1009.04</ele><time>2026-08-23T07:57:20Z</time></trkpt><trkpt lat="40.8985262364" lon="-3.6275660712"><ele>1009.04</ele><time>2026-08-23T07:57:21Z</time></trkpt><trkpt lat="40.8985318523" lon="-3.6276235711"><ele>1009.04</ele><time>2026-08-23T07:57:22Z</time></trkpt><trkpt lat="40.8985474426" lon="-3.6276793107"><ele>1009.04</ele><time>2026-08-23T07:57:23Z</time></trkpt><trkpt lat="40.8985642903" lon="-3.6277356371"><ele>1009.04</ele><time>2026-08-23T07:57:24Z</time></trkpt><trkpt lat="40.8986492828" lon="-3.6280181073"><ele>1009.04</ele><time>2026-08-23T07:57:29Z</time></trkpt><trkpt lat="40.8986700699" lon="-3.6280798819"><ele>1009.04</ele><time>2026-08-23T07:57:30Z</time></trkpt><trkpt lat="40.8986949641" lon="-3.6281431653"><ele>1009.04</ele><time>2026-08-23T07:57:31Z</time></trkpt><trkpt lat="40.8987322636" lon="-3.6281949654"><ele>1009.04</ele><time>2026-08-23T07:57:32Z</time></trkpt><trkpt lat="40.8987771068" lon="-3.6282367073"><ele>1008.56</ele><time>2026-08-23T07:57:33Z</time></trkpt><trkpt lat="40.8988231234" lon="-3.6282769404"><ele>1008.56</ele><time>2026-08-23T07:57:34Z</time></trkpt><trkpt lat="40.8989714831" lon="-3.6284070276"><ele>1007.12</ele><time>2026-08-23T07:57:37Z</time></trkpt><trkpt lat="40.8990210202" lon="-3.6284607556"><ele>1007.12</ele><time>2026-08-23T07:57:38Z</time></trkpt><trkpt lat="40.8990666177" lon="-3.6285212729"><ele>1007.12</ele><time>2026-08-23T07:57:39Z</time></trkpt><trkpt lat="40.8991128858" lon="-3.6285805330"><ele>1007.12</ele><time>2026-08-23T07:57:40Z</time></trkpt><trkpt lat="40.8991642669" lon="-3.6286366917"><ele>1006.64</ele><time>2026-08-23T07:57:41Z</time></trkpt><trkpt lat="40.8992117923" lon="-3.6286959518"><ele>1006.64</ele><time>2026-08-23T07:57:42Z</time></trkpt><trkpt lat="40.8992438111" lon="-3.6287588999"><ele>1005.20</ele><time>2026-08-23T07:57:43Z</time></trkpt><trkpt lat="40.8992543723" lon="-3.6288228538"><ele>1005.20</ele><time>2026-08-23T07:57:44Z</time></trkpt><trkpt lat="40.8992436435" lon="-3.6288816109"><ele>1004.72</ele><time>2026-08-23T07:57:45Z</time></trkpt><trkpt lat="40.8992197551" lon="-3.6289339140"><ele>1004.72</ele><time>2026-08-23T07:57:46Z</time></trkpt><trkpt lat="40.8991905022" lon="-3.6289863009"><ele>1004.72</ele><time>2026-08-23T07:57:47Z</time></trkpt><trkpt lat="40.8990519494" lon="-3.6292227544"><ele>1004.23</ele><time>2026-08-23T07:57:51Z</time></trkpt><trkpt lat="40.8990035858" lon="-3.6292714532"><ele>1003.75</ele><time>2026-08-23T07:57:52Z</time></trkpt><trkpt lat="40.8989013266" lon="-3.6293624807"><ele>1003.27</ele><time>2026-08-23T07:57:54Z</time></trkpt><trkpt lat="40.8988581598" lon="-3.6294155382"><ele>1003.27</ele><time>2026-08-23T07:57:55Z</time></trkpt><trkpt lat="40.8988255542" lon="-3.6294787377"><ele>1002.79</ele><time>2026-08-23T07:57:56Z</time></trkpt><trkpt lat="40.8988037612" lon="-3.6295507383"><ele>1002.79</ele><time>2026-08-23T07:57:57Z</time></trkpt><trkpt lat="40.8987878356" lon="-3.6296181288"><ele>1002.79</ele><time>2026-08-23T07:57:58Z</time></trkpt><trkpt lat="40.8987729996" lon="-3.6296868604"><ele>1002.79</ele><time>2026-08-23T07:57:59Z</time></trkpt><trkpt lat="40.8987636119" lon="-3.6297537480"><ele>1002.79</ele><time>2026-08-23T07:58:00Z</time></trkpt><trkpt lat="40.8987649530" lon="-3.6298275087"><ele>1002.79</ele><time>2026-08-23T07:58:01Z</time></trkpt><trkpt lat="40.8987785317" lon="-3.6299041193"><ele>1002.31</ele><time>2026-08-23T07:58:02Z</time></trkpt><trkpt lat="40.8987982292" lon="-3.6299829092"><ele>1002.31</ele><time>2026-08-23T07:58:03Z</time></trkpt><trkpt lat="40.8988164179" lon="-3.6300657224"><ele>1001.35</ele><time>2026-08-23T07:58:04Z</time></trkpt><trkpt lat="40.8988306671" lon="-3.6301534809"><ele>1001.35</ele><time>2026-08-23T07:58:05Z</time></trkpt><trkpt lat="40.8988690563" lon="-3.6303224601"><ele>1000.87</ele><time>2026-08-23T07:58:07Z</time></trkpt><trkpt lat="40.8988922741" lon="-3.6303963047"><ele>999.91</ele><time>2026-08-23T07:58:08Z</time></trkpt><trkpt lat="40.8989013266" lon="-3.6304595042"><ele>998.47</ele><time>2026-08-23T07:58:09Z</time></trkpt><trkpt lat="40.8988950402" lon="-3.6305243801"><ele>998.47</ele><time>2026-08-23T07:58:10Z</time></trkpt><trkpt lat="40.8988786954" lon="-3.6305910163"><ele>997.99</ele><time>2026-08-23T07:58:11Z</time></trkpt><trkpt lat="40.8988558128" lon="-3.6306587420"><ele>997.02</ele><time>2026-08-23T07:58:12Z</time></trkpt><trkpt lat="40.8988344390" lon="-3.6307155713"><ele>996.06</ele><time>2026-08-23T07:58:13Z</time></trkpt><trkpt lat="40.8988229558" lon="-3.6307717301"><ele>995.58</ele><time>2026-08-23T07:58:14Z</time></trkpt><trkpt lat="40.8988258895" lon="-3.6308237817"><ele>995.58</ele><time>2026-08-23T07:58:15Z</time></trkpt><trkpt lat="40.8988409769" lon="-3.6308785994"><ele>995.58</ele><time>2026-08-23T07:58:16Z</time></trkpt><trkpt lat="40.8988642786" lon="-3.6309316568"><ele>995.58</ele><time>2026-08-23T07:58:17Z</time></trkpt><trkpt lat="40.8988890052" lon="-3.6309868935"><ele>995.58</ele><time>2026-08-23T07:58:18Z</time></trkpt><trkpt lat="40.8989119716" lon="-3.6310446449"><ele>995.58</ele><time>2026-08-23T07:58:19Z</time></trkpt><trkpt lat="40.8989384584" lon="-3.6310901586"><ele>997.02</ele><time>2026-08-23T07:58:20Z</time></trkpt><trkpt lat="40.8989669569" lon="-3.6311296374"><ele>997.02</ele><time>2026-08-23T07:58:21Z</time></trkpt><trkpt lat="40.8989838883" lon="-3.6311699543"><ele>997.51</ele><time>2026-08-23T07:58:22Z</time></trkpt><trkpt lat="40.8989967126" lon="-3.6312129535"><ele>997.51</ele><time>2026-08-23T07:58:23Z</time></trkpt><trkpt lat="40.8990081958" lon="-3.6312531028"><ele>997.99</ele><time>2026-08-23T07:58:24Z</time></trkpt><trkpt lat="40.8990364429" lon="-3.6313526798"><ele>998.47</ele><time>2026-08-23T07:58:26Z</time></trkpt><trkpt lat="40.8990606666" lon="-3.6314071622"><ele>998.47</ele><time>2026-08-23T07:58:27Z</time></trkpt><trkpt lat="40.8990899194" lon="-3.6314576212"><ele>998.47</ele><time>2026-08-23T07:58:28Z</time></trkpt><trkpt lat="40.8991223574" lon="-3.6315064039"><ele>998.47</ele><time>2026-08-23T07:58:29Z</time></trkpt><trkpt lat="40.8991578966" lon="-3.6315551866"><ele>998.47</ele><time>2026-08-23T07:58:30Z</time></trkpt><trkpt lat="40.8992573060" lon="-3.6316959187"><ele>998.47</ele><time>2026-08-23T07:58:33Z</time></trkpt><trkpt lat="40.8992795181" lon="-3.6317499820"><ele>998.47</ele><time>2026-08-23T07:58:34Z</time></trkpt><trkpt lat="40.8992892411" lon="-3.6318067275"><ele>998.47</ele><time>2026-08-23T07:58:35Z</time></trkpt><trkpt lat="40.8992855530" lon="-3.6318630539"><ele>998.47</ele><time>2026-08-23T07:58:36Z</time></trkpt><trkpt lat="40.8992686216" lon="-3.6319109146"><ele>998.47</ele><time>2026-08-23T07:58:37Z</time></trkpt><trkpt lat="40.8992417995" lon="-3.6319537461"><ele>998.47</ele><time>2026-08-23T07:58:38Z</time></trkpt><trkpt lat="40.8992114570" lon="-3.6319944821"><ele>998.47</ele><time>2026-08-23T07:58:39Z</time></trkpt><trkpt lat="40.8991769236" lon="-3.6320336256"><ele>998.47</ele><time>2026-08-23T07:58:40Z</time></trkpt><trkpt lat="40.8990181703" lon="-3.6321688257"><ele>998.47</ele><time>2026-08-23T07:58:50Z</time></trkpt><trkpt lat="40.8990128897" lon="-3.6321585998"><ele>997.99</ele><time>2026-08-23T07:59:17Z</time></trkpt><trkpt lat="40.8989942819" lon="-3.6321590189"><ele>997.99</ele><time>2026-08-23T07:59:18Z</time></trkpt><trkpt lat="40.8989726566" lon="-3.6321639642"><ele>997.99</ele><time>2026-08-23T07:59:19Z</time></trkpt><trkpt lat="40.8985743485" lon="-3.6322627869"><ele>1000.39</ele><time>2026-08-23T07:59:32Z</time></trkpt><trkpt lat="40.8982477058" lon="-3.6322993319"><ele>1002.79</ele><time>2026-08-23T07:59:42Z</time></trkpt><trkpt lat="40.8979407605" lon="-3.6323808879"><ele>1006.16</ele><time>2026-08-23T07:59:55Z</time></trkpt><trkpt lat="40.8977587894" lon="-3.6324332748"><ele>1009.52</ele><time>2026-08-23T08:00:02Z</time></trkpt><trkpt lat="40.8974788338" lon="-3.6324181873"><ele>1011.44</ele><time>2026-08-23T08:00:13Z</time></trkpt><trkpt lat="40.8971227705" lon="-3.6323738471"><ele>1011.93</ele><time>2026-08-23T08:00:23Z</time></trkpt><trkpt lat="40.8968252130" lon="-3.6323196162"><ele>1011.93</ele><time>2026-08-23T08:00:30Z</time></trkpt><trkpt lat="40.8967818785" lon="-3.6323310994"><ele>1011.93</ele><time>2026-08-23T08:00:31Z</time></trkpt><trkpt lat="40.8967408072" lon="-3.6323508807"><ele>1011.93</ele><time>2026-08-23T08:00:32Z</time></trkpt><trkpt lat="40.8967040945" lon="-3.6323766131"><ele>1011.93</ele><time>2026-08-23T08:00:33Z</time></trkpt><trkpt lat="40.8966672141" lon="-3.6324050277"><ele>1011.93</ele><time>2026-08-23T08:00:34Z</time></trkpt><trkpt lat="40.8966316748" lon="-3.6324335262"><ele>1011.93</ele><time>2026-08-23T08:00:35Z</time></trkpt><trkpt lat="40.8965570759" lon="-3.6324830633"><ele>1011.93</ele><time>2026-08-23T08:00:37Z</time></trkpt><trkpt lat="40.8965168428" lon="-3.6325001623"><ele>1011.93</ele><time>2026-08-23T08:00:38Z</time></trkpt><trkpt lat="40.8964762744" lon="-3.6325124837"><ele>1011.93</ele><time>2026-08-23T08:00:39Z</time></trkpt><trkpt lat="40.8958985098" lon="-3.6327187624"><ele>1013.85</ele><time>2026-08-23T08:00:53Z</time></trkpt><trkpt lat="40.8958287723" lon="-3.6327758431"><ele>1014.33</ele><time>2026-08-23T08:00:55Z</time></trkpt><trkpt lat="40.8957986813" lon="-3.6328143161"><ele>1014.81</ele><time>2026-08-23T08:00:56Z</time></trkpt><trkpt lat="40.8957547601" lon="-3.6328934412"><ele>1015.77</ele><time>2026-08-23T08:00:58Z</time></trkpt><trkpt lat="40.8957232442" lon="-3.6330091953"><ele>1016.25</ele><time>2026-08-23T08:01:01Z</time></trkpt><trkpt lat="40.8957004454" lon="-3.6330236960"><ele>1016.73</ele><time>2026-08-23T08:01:02Z</time></trkpt><trkpt lat="40.8956734557" lon="-3.6330379453"><ele>1017.21</ele><time>2026-08-23T08:01:03Z</time></trkpt><trkpt lat="40.8956452087" lon="-3.6330605764"><ele>1018.17</ele><time>2026-08-23T08:01:04Z</time></trkpt><trkpt lat="40.8956194762" lon="-3.6330853868"><ele>1018.65</ele><time>2026-08-23T08:01:05Z</time></trkpt><trkpt lat="40.8954035584" lon="-3.6332682800"><ele>1020.58</ele><time>2026-08-23T08:01:12Z</time></trkpt><trkpt lat="40.8951081801" lon="-3.6332817748"><ele>1022.50</ele><time>2026-08-23T08:01:20Z</time></trkpt><trkpt lat="40.8950676955" lon="-3.6332802661"><ele>1022.02</ele><time>2026-08-23T08:01:21Z</time></trkpt><trkpt lat="40.8950236067" lon="-3.6332894862"><ele>1022.50</ele><time>2026-08-23T08:01:22Z</time></trkpt><trkpt lat="40.8948661108" lon="-3.6333455611"><ele>1023.46</ele><time>2026-08-23T08:01:26Z</time></trkpt><trkpt lat="40.8948290627" lon="-3.6333546974"><ele>1023.46</ele><time>2026-08-23T08:01:27Z</time></trkpt><trkpt lat="40.8947905060" lon="-3.6333676055"><ele>1023.46</ele><time>2026-08-23T08:01:28Z</time></trkpt><trkpt lat="40.8947534580" lon="-3.6333882250"><ele>1023.94</ele><time>2026-08-23T08:01:29Z</time></trkpt><trkpt lat="40.8947195951" lon="-3.6334142089"><ele>1023.94</ele><time>2026-08-23T08:01:30Z</time></trkpt><trkpt lat="40.8946841396" lon="-3.6334458925"><ele>1023.94</ele><time>2026-08-23T08:01:31Z</time></trkpt><trkpt lat="40.8946467564" lon="-3.6334721278"><ele>1024.42</ele><time>2026-08-23T08:01:32Z</time></trkpt><trkpt lat="40.8946066070" lon="-3.6334797554"><ele>1024.42</ele><time>2026-08-23T08:01:33Z</time></trkpt><trkpt lat="40.8945716545" lon="-3.6334657576"><ele>1025.38</ele><time>2026-08-23T08:01:34Z</time></trkpt><trkpt lat="40.8945415635" lon="-3.6334372591"><ele>1025.38</ele><time>2026-08-23T08:01:35Z</time></trkpt><trkpt lat="40.8945163339" lon="-3.6334021389"><ele>1025.86</ele><time>2026-08-23T08:01:36Z</time></trkpt><trkpt lat="40.8944929484" lon="-3.6333589721"><ele>1025.86</ele><time>2026-08-23T08:01:37Z</time></trkpt><trkpt lat="40.8944739215" lon="-3.6333140451"><ele>1026.34</ele><time>2026-08-23T08:01:38Z</time></trkpt><trkpt lat="40.8944480214" lon="-3.6332694534"><ele>1026.34</ele><time>2026-08-23T08:01:39Z</time></trkpt><trkpt lat="40.8944144938" lon="-3.6332369316"><ele>1026.83</ele><time>2026-08-23T08:01:40Z</time></trkpt><trkpt lat="40.8943779487" lon="-3.6332106963"><ele>1026.83</ele><time>2026-08-23T08:01:41Z</time></trkpt><trkpt lat="40.8943443373" lon="-3.6331865564"><ele>1026.83</ele><time>2026-08-23T08:01:42Z</time></trkpt><trkpt lat="40.8943098038" lon="-3.6331623327"><ele>1027.79</ele><time>2026-08-23T08:01:43Z</time></trkpt><trkpt lat="40.8942717500" lon="-3.6331363488"><ele>1027.79</ele><time>2026-08-23T08:01:44Z</time></trkpt><trkpt lat="40.8941634558" lon="-3.6330649350"><ele>1029.23</ele><time>2026-08-23T08:01:47Z</time></trkpt><trkpt lat="40.8940249868" lon="-3.6330453213"><ele>1031.15</ele><time>2026-08-23T08:01:51Z</time></trkpt><trkpt lat="40.8939979132" lon="-3.6330727302"><ele>1031.63</ele><time>2026-08-23T08:01:52Z</time></trkpt><trkpt lat="40.8938548341" lon="-3.6332350876"><ele>1033.07</ele><time>2026-08-23T08:01:57Z</time></trkpt><trkpt lat="40.8938218094" lon="-3.6332453974"><ele>1033.55</ele><time>2026-08-23T08:01:58Z</time></trkpt><trkpt lat="40.8937857673" lon="-3.6332548689"><ele>1034.04</ele><time>2026-08-23T08:01:59Z</time></trkpt><trkpt lat="40.8937500603" lon="-3.6332671065"><ele>1034.04</ele><time>2026-08-23T08:02:00Z</time></trkpt><trkpt lat="40.8937158622" lon="-3.6332852952"><ele>1034.04</ele><time>2026-08-23T08:02:01Z</time></trkpt><trkpt lat="40.8932792488" lon="-3.6334976926"><ele>1037.40</ele><time>2026-08-23T08:02:14Z</time></trkpt><trkpt lat="40.8928212617" lon="-3.6335947551"><ele>1038.84</ele><time>2026-08-23T08:02:27Z</time></trkpt><trkpt lat="40.8926205989" lon="-3.6339312047"><ele>1041.73</ele><time>2026-08-23T08:02:38Z</time></trkpt><trkpt lat="40.8925081976" lon="-3.6343274172"><ele>1043.65</ele><time>2026-08-23T08:02:49Z</time></trkpt><trkpt lat="40.8925277274" lon="-3.6347781960"><ele>1044.13</ele><time>2026-08-23T08:03:00Z</time></trkpt><trkpt lat="40.8923564013" lon="-3.6350824591"><ele>1045.57</ele><time>2026-08-23T08:03:10Z</time></trkpt><trkpt lat="40.8922791202" lon="-3.6351602431"><ele>1046.53</ele><time>2026-08-23T08:03:14Z</time></trkpt><trkpt lat="40.8921140805" lon="-3.6352391168"><ele>1049.42</ele><time>2026-08-23T08:03:21Z</time></trkpt><trkpt lat="40.8920889348" lon="-3.6352330819"><ele>1049.90</ele><time>2026-08-23T08:03:22Z</time></trkpt><trkpt lat="40.8920689020" lon="-3.6352118757"><ele>1050.38</ele><time>2026-08-23T08:03:23Z</time></trkpt><trkpt lat="40.8920482825" lon="-3.6351863109"><ele>1050.38</ele><time>2026-08-23T08:03:24Z</time></trkpt><trkpt lat="40.8920238074" lon="-3.6351690441"><ele>1051.34</ele><time>2026-08-23T08:03:25Z</time></trkpt><trkpt lat="40.8920003381" lon="-3.6351609975"><ele>1051.34</ele><time>2026-08-23T08:03:26Z</time></trkpt><trkpt lat="40.8919746894" lon="-3.6351606622"><ele>1052.30</ele><time>2026-08-23T08:03:27Z</time></trkpt><trkpt lat="40.8919502981" lon="-3.6351734027"><ele>1052.30</ele><time>2026-08-23T08:03:28Z</time></trkpt><trkpt lat="40.8919280022" lon="-3.6351939384"><ele>1053.26</ele><time>2026-08-23T08:03:29Z</time></trkpt><trkpt lat="40.8919059578" lon="-3.6352184974"><ele>1053.26</ele><time>2026-08-23T08:03:30Z</time></trkpt><trkpt lat="40.8917394932" lon="-3.6355842836"><ele>1055.67</ele><time>2026-08-23T08:03:41Z</time></trkpt><trkpt lat="40.8916240744" lon="-3.6358137801"><ele>1057.11</ele><time>2026-08-23T08:03:47Z</time></trkpt><trkpt lat="40.8916108310" lon="-3.6358670890"><ele>1057.59</ele><time>2026-08-23T08:03:48Z</time></trkpt><trkpt lat="40.8915995155" lon="-3.6359082442"><ele>1057.59</ele><time>2026-08-23T08:03:49Z</time></trkpt><trkpt lat="40.8915932290" lon="-3.6359518301"><ele>1057.59</ele><time>2026-08-23T08:03:50Z</time></trkpt><trkpt lat="40.8915929776" lon="-3.6359917279"><ele>1058.07</ele><time>2026-08-23T08:03:51Z</time></trkpt><trkpt lat="40.8915926423" lon="-3.6360321287"><ele>1058.07</ele><time>2026-08-23T08:03:52Z</time></trkpt><trkpt lat="40.8915391658" lon="-3.6364642996"><ele>1058.55</ele><time>2026-08-23T08:04:02Z</time></trkpt><trkpt lat="40.8914255071" lon="-3.6368771084"><ele>1060.95</ele><time>2026-08-23T08:04:14Z</time></trkpt><trkpt lat="40.8912064880" lon="-3.6373349279"><ele>1062.39</ele><time>2026-08-23T08:04:27Z</time></trkpt><trkpt lat="40.8910420351" lon="-3.6377682723"><ele>1066.24</ele><time>2026-08-23T08:04:40Z</time></trkpt><trkpt lat="40.8911514189" lon="-3.6381644849"><ele>1064.80</ele><time>2026-08-23T08:04:49Z</time></trkpt><trkpt lat="40.8911478985" lon="-3.6382096633"><ele>1064.80</ele><time>2026-08-23T08:04:50Z</time></trkpt><trkpt lat="40.8912546001" lon="-3.6387213785"><ele>1065.76</ele><time>2026-08-23T08:05:01Z</time></trkpt><trkpt lat="40.8914866112" lon="-3.6390382983"><ele>1064.80</ele><time>2026-08-23T08:05:11Z</time></trkpt><trkpt lat="40.8916352224" lon="-3.6392264720"><ele>1066.24</ele><time>2026-08-23T08:05:19Z</time></trkpt><trkpt lat="40.8919953089" lon="-3.6395685375"><ele>1067.68</ele><time>2026-08-23T08:05:34Z</time></trkpt><trkpt lat="40.8920775354" lon="-3.6395780928"><ele>1066.24</ele><time>2026-08-23T08:05:37Z</time></trkpt><trkpt lat="40.8921164274" lon="-3.6395850498"><ele>1066.24</ele><time>2026-08-23T08:05:38Z</time></trkpt><trkpt lat="40.8921545651" lon="-3.6396001372"><ele>1066.24</ele><time>2026-08-23T08:05:39Z</time></trkpt><trkpt lat="40.8921849914" lon="-3.6396243609"><ele>1064.80</ele><time>2026-08-23T08:05:40Z</time></trkpt><trkpt lat="40.8922143281" lon="-3.6396607384"><ele>1064.80</ele><time>2026-08-23T08:05:41Z</time></trkpt><trkpt lat="40.8922455087" lon="-3.6397069227"><ele>1064.80</ele><time>2026-08-23T08:05:42Z</time></trkpt><trkpt lat="40.8922751807" lon="-3.6397619080"><ele>1064.80</ele><time>2026-08-23T08:05:43Z</time></trkpt><trkpt lat="40.8923392184" lon="-3.6398747284"><ele>1064.80</ele><time>2026-08-23T08:05:45Z</time></trkpt><trkpt lat="40.8923784457" lon="-3.6399192363"><ele>1064.32</ele><time>2026-08-23T08:05:46Z</time></trkpt><trkpt lat="40.8924170863" lon="-3.6399533506"><ele>1064.80</ele><time>2026-08-23T08:05:47Z</time></trkpt><trkpt lat="40.8925680444" lon="-3.6400532629"><ele>1063.36</ele><time>2026-08-23T08:05:51Z</time></trkpt><trkpt lat="40.8926039189" lon="-3.6400867067"><ele>1063.36</ele><time>2026-08-23T08:05:52Z</time></trkpt><trkpt lat="40.8926817868" lon="-3.6401672568"><ele>1062.87</ele><time>2026-08-23T08:05:54Z</time></trkpt><trkpt lat="40.8927304856" lon="-3.6401984375"><ele>1062.39</ele><time>2026-08-23T08:05:55Z</time></trkpt><trkpt lat="40.8927779272" lon="-3.6402227450"><ele>1062.39</ele><time>2026-08-23T08:05:56Z</time></trkpt><trkpt lat="40.8929534443" lon="-3.6403097492"><ele>1062.39</ele><time>2026-08-23T08:05:59Z</time></trkpt><trkpt lat="40.8930042386" lon="-3.6403477192"><ele>1062.39</ele><time>2026-08-23T08:06:00Z</time></trkpt><trkpt lat="40.8930470701" lon="-3.6403957475"><ele>1062.39</ele><time>2026-08-23T08:06:01Z</time></trkpt><trkpt lat="40.8930816036" lon="-3.6404469609"><ele>1062.39</ele><time>2026-08-23T08:06:02Z</time></trkpt><trkpt lat="40.8931172267" lon="-3.6404955760"><ele>1062.39</ele><time>2026-08-23T08:06:03Z</time></trkpt><trkpt lat="40.8931554481" lon="-3.6405422632"><ele>1062.39</ele><time>2026-08-23T08:06:04Z</time></trkpt><trkpt lat="40.8931881376" lon="-3.6405847594"><ele>1061.91</ele><time>2026-08-23T08:06:05Z</time></trkpt><trkpt lat="40.8932178933" lon="-3.6406318657"><ele>1062.39</ele><time>2026-08-23T08:06:06Z</time></trkpt><trkpt lat="40.8932390995" lon="-3.6406758707"><ele>1062.39</ele><time>2026-08-23T08:06:07Z</time></trkpt><trkpt lat="40.8932575397" lon="-3.6407212168"><ele>1061.91</ele><time>2026-08-23T08:06:08Z</time></trkpt><trkpt lat="40.8932697773" lon="-3.6407591030"><ele>1061.91</ele><time>2026-08-23T08:06:09Z</time></trkpt><trkpt lat="40.8932787459" lon="-3.6407999229"><ele>1061.91</ele><time>2026-08-23T08:06:10Z</time></trkpt><trkpt lat="40.8932826854" lon="-3.6408435926"><ele>1061.91</ele><time>2026-08-23T08:06:11Z</time></trkpt><trkpt lat="40.8932762314" lon="-3.6408872623"><ele>1061.91</ele><time>2026-08-23T08:06:12Z</time></trkpt><trkpt lat="40.8932660054" lon="-3.6409314349"><ele>1061.91</ele><time>2026-08-23T08:06:13Z</time></trkpt><trkpt lat="40.8931111079" lon="-3.6413926072"><ele>1063.84</ele><time>2026-08-23T08:06:24Z</time></trkpt><trkpt lat="40.8931812644" lon="-3.6416871473"><ele>1063.84</ele><time>2026-08-23T08:06:33Z</time></trkpt><trkpt lat="40.8932089247" lon="-3.6417081021"><ele>1063.84</ele><time>2026-08-23T08:06:34Z</time></trkpt><trkpt lat="40.8933339827" lon="-3.6419247743"><ele>1065.28</ele><time>2026-08-23T08:06:40Z</time></trkpt><trkpt lat="40.8933398500" lon="-3.6419678573"><ele>1065.28</ele><time>2026-08-23T08:06:41Z</time></trkpt><trkpt lat="40.8933383413" lon="-3.6420054082"><ele>1065.76</ele><time>2026-08-23T08:06:42Z</time></trkpt><trkpt lat="40.8933323901" lon="-3.6420364212"><ele>1065.76</ele><time>2026-08-23T08:06:43Z</time></trkpt><trkpt lat="40.8933259360" lon="-3.6420582980"><ele>1066.24</ele><time>2026-08-23T08:06:44Z</time></trkpt><trkpt lat="40.8933222480" lon="-3.6420613993"><ele>1065.76</ele><time>2026-08-23T08:06:55Z</time></trkpt><trkpt lat="40.8933101781" lon="-3.6421815958"><ele>1067.68</ele><time>2026-08-23T08:07:11Z</time></trkpt><trkpt lat="40.8933209907" lon="-3.6422180571"><ele>1068.16</ele><time>2026-08-23T08:07:12Z</time></trkpt><trkpt lat="40.8933298755" lon="-3.6422553565"><ele>1068.16</ele><time>2026-08-23T08:07:13Z</time></trkpt><trkpt lat="40.8933425322" lon="-3.6422958411"><ele>1068.64</ele><time>2026-08-23T08:07:14Z</time></trkpt><trkpt lat="40.8933612239" lon="-3.6423326377"><ele>1069.12</ele><time>2026-08-23T08:07:15Z</time></trkpt><trkpt lat="40.8935042191" lon="-3.6427092366"><ele>1070.57</ele><time>2026-08-23T08:07:25Z</time></trkpt><trkpt lat="40.8934883773" lon="-3.6427416746"><ele>1070.57</ele><time>2026-08-23T08:07:26Z</time></trkpt><trkpt lat="40.8934675064" lon="-3.6427710112"><ele>1071.05</ele><time>2026-08-23T08:07:27Z</time></trkpt><trkpt lat="40.8931937534" lon="-3.6429443490"><ele>1073.45</ele><time>2026-08-23T08:07:37Z</time></trkpt><trkpt lat="40.8931954298" lon="-3.6430637911"><ele>1073.93</ele><time>2026-08-23T08:07:40Z</time></trkpt><trkpt lat="40.8932113554" lon="-3.6430990789"><ele>1073.93</ele><time>2026-08-23T08:07:41Z</time></trkpt><trkpt lat="40.8932297118" lon="-3.6431343667"><ele>1074.41</ele><time>2026-08-23T08:07:42Z</time></trkpt><trkpt lat="40.8932434581" lon="-3.6431735102"><ele>1074.41</ele><time>2026-08-23T08:07:43Z</time></trkpt><trkpt lat="40.8932493255" lon="-3.6432159226"><ele>1074.89</ele><time>2026-08-23T08:07:44Z</time></trkpt><trkpt lat="40.8932477329" lon="-3.6432595085"><ele>1074.89</ele><time>2026-08-23T08:07:45Z</time></trkpt><trkpt lat="40.8932424523" lon="-3.6433035135"><ele>1075.37</ele><time>2026-08-23T08:07:46Z</time></trkpt><trkpt lat="40.8932336513" lon="-3.6433465127"><ele>1075.37</ele><time>2026-08-23T08:07:47Z</time></trkpt><trkpt lat="40.8930964395" lon="-3.6437524483"><ele>1078.74</ele><time>2026-08-23T08:07:57Z</time></trkpt><trkpt lat="40.8929900732" lon="-3.6441573780"><ele>1081.62</ele><time>2026-08-23T08:08:08Z</time></trkpt><trkpt lat="40.8927105367" lon="-3.6443219148"><ele>1084.99</ele><time>2026-08-23T08:08:18Z</time></trkpt><trkpt lat="40.8924709819" lon="-3.6446418520"><ele>1087.39</ele><time>2026-08-23T08:08:29Z</time></trkpt><trkpt lat="40.8924128115" lon="-3.6450756993"><ele>1090.75</ele><time>2026-08-23T08:08:40Z</time></trkpt><trkpt lat="40.8923610952" lon="-3.6453892663"><ele>1093.64</ele><time>2026-08-23T08:08:49Z</time></trkpt><trkpt lat="40.8923742548" lon="-3.6454606801"><ele>1094.60</ele><time>2026-08-23T08:08:51Z</time></trkpt><trkpt lat="40.8923907671" lon="-3.6454889271"><ele>1095.56</ele><time>2026-08-23T08:08:52Z</time></trkpt><trkpt lat="40.8924080338" lon="-3.6455161683"><ele>1095.56</ele><time>2026-08-23T08:08:53Z</time></trkpt><trkpt lat="40.8925102931" lon="-3.6459866446"><ele>1097.96</ele><time>2026-08-23T08:09:06Z</time></trkpt><trkpt lat="40.8925597463" lon="-3.6463974416"><ele>1099.89</ele><time>2026-08-23T08:09:17Z</time></trkpt><trkpt lat="40.8925510291" lon="-3.6464300472"><ele>1100.85</ele><time>2026-08-23T08:09:18Z</time></trkpt><trkpt lat="40.8925345168" lon="-3.6464547738"><ele>1100.85</ele><time>2026-08-23T08:09:19Z</time></trkpt><trkpt lat="40.8925113827" lon="-3.6464748904"><ele>1101.33</ele><time>2026-08-23T08:09:20Z</time></trkpt><trkpt lat="40.8924881648" lon="-3.6464939173"><ele>1101.33</ele><time>2026-08-23T08:09:21Z</time></trkpt><trkpt lat="40.8924650308" lon="-3.6465149559"><ele>1101.33</ele><time>2026-08-23T08:09:22Z</time></trkpt><trkpt lat="40.8924486861" lon="-3.6465355754"><ele>1101.81</ele><time>2026-08-23T08:09:23Z</time></trkpt><trkpt lat="40.8924341016" lon="-3.6465616431"><ele>1101.81</ele><time>2026-08-23T08:09:24Z</time></trkpt><trkpt lat="40.8923588321" lon="-3.6466618069"><ele>1102.77</ele><time>2026-08-23T08:09:28Z</time></trkpt><trkpt lat="40.8923331834" lon="-3.6466662493"><ele>1102.77</ele><time>2026-08-23T08:09:29Z</time></trkpt><trkpt lat="40.8923086245" lon="-3.6466632318"><ele>1103.73</ele><time>2026-08-23T08:09:30Z</time></trkpt><trkpt lat="40.8920316026" lon="-3.6468217336"><ele>1106.13</ele><time>2026-08-23T08:09:42Z</time></trkpt><trkpt lat="40.8921134099" lon="-3.6471964046"><ele>1107.58</ele><time>2026-08-23T08:09:54Z</time></trkpt><trkpt lat="40.8921057824" lon="-3.6472060438"><ele>1107.10</ele><time>2026-08-23T08:10:17Z</time></trkpt><trkpt lat="40.8921068721" lon="-3.6472010985"><ele>1107.10</ele><time>2026-08-23T08:10:40Z</time></trkpt><trkpt lat="40.8921090513" lon="-3.6472131684"><ele>1107.58</ele><time>2026-08-23T08:11:12Z</time></trkpt><trkpt lat="40.8920875099" lon="-3.6472216342"><ele>1108.06</ele><time>2026-08-23T08:11:29Z</time></trkpt><trkpt lat="40.8920959756" lon="-3.6472237296"><ele>1108.06</ele><time>2026-08-23T08:11:54Z</time></trkpt><trkpt lat="40.8920894377" lon="-3.6472208798"><ele>1108.06</ele><time>2026-08-23T08:12:30Z</time></trkpt><trkpt lat="40.8920900244" lon="-3.6472284235"><ele>1108.06</ele><time>2026-08-23T08:13:13Z</time></trkpt><trkpt lat="40.8920848276" lon="-3.6472404934"><ele>1108.06</ele><time>2026-08-23T08:13:46Z</time></trkpt><trkpt lat="40.8920918684" lon="-3.6472459417"><ele>1108.06</ele><time>2026-08-23T08:13:57Z</time></trkpt><trkpt lat="40.8921113983" lon="-3.6472298484"><ele>1108.06</ele><time>2026-08-23T08:14:30Z</time></trkpt><trkpt lat="40.8921182714" lon="-3.6472073849"><ele>1108.54</ele><time>2026-08-23T08:15:07Z</time></trkpt><trkpt lat="40.8921076264" lon="-3.6472105701"><ele>1108.54</ele><time>2026-08-23T08:15:35Z</time></trkpt><trkpt lat="40.8921247255" lon="-3.6472256575"><ele>1108.54</ele><time>2026-08-23T08:15:57Z</time></trkpt><trkpt lat="40.8921382204" lon="-3.6472383980"><ele>1108.54</ele><time>2026-08-23T08:15:58Z</time></trkpt><trkpt lat="40.8921572473" lon="-3.6472447682"><ele>1108.54</ele><time>2026-08-23T08:15:59Z</time></trkpt><trkpt lat="40.8921709936" lon="-3.6472437624"><ele>1108.54</ele><time>2026-08-23T08:16:00Z</time></trkpt><trkpt lat="40.8921922836" lon="-3.6472360510"><ele>1108.54</ele><time>2026-08-23T08:16:01Z</time></trkpt><trkpt lat="40.8922154177" lon="-3.6472257413"><ele>1108.54</ele><time>2026-08-23T08:16:02Z</time></trkpt><trkpt lat="40.8922415692" lon="-3.6472190358"><ele>1107.10</ele><time>2026-08-23T08:16:03Z</time></trkpt><trkpt lat="40.8922704030" lon="-3.6472155154"><ele>1107.10</ele><time>2026-08-23T08:16:04Z</time></trkpt><trkpt lat="40.8923014998" lon="-3.6472093128"><ele>1107.10</ele><time>2026-08-23T08:16:05Z</time></trkpt><trkpt lat="40.8926337585" lon="-3.6470710952"><ele>1103.73</ele><time>2026-08-23T08:16:15Z</time></trkpt><trkpt lat="40.8928909991" lon="-3.6470335443"><ele>1101.81</ele><time>2026-08-23T08:16:24Z</time></trkpt><trkpt lat="40.8930315636" lon="-3.6470453627"><ele>1103.25</ele><time>2026-08-23T08:16:29Z</time></trkpt><trkpt lat="40.8934199810" lon="-3.6471147649"><ele>1103.73</ele><time>2026-08-23T08:16:42Z</time></trkpt><trkpt lat="40.8937933110" lon="-3.6470674910"><ele>1103.73</ele><time>2026-08-23T08:16:53Z</time></trkpt><trkpt lat="40.8944206964" lon="-3.6469409242"><ele>1104.69</ele><time>2026-08-23T08:17:11Z</time></trkpt><trkpt lat="40.8948356006" lon="-3.6468432751"><ele>1106.13</ele><time>2026-08-23T08:17:23Z</time></trkpt><trkpt lat="40.8951329067" lon="-3.6470492184"><ele>1108.54</ele><time>2026-08-23T08:17:33Z</time></trkpt><trkpt lat="40.8951878920" lon="-3.6470581871"><ele>1109.50</ele><time>2026-08-23T08:17:35Z</time></trkpt><trkpt lat="40.8952121995" lon="-3.6470447760"><ele>1109.50</ele><time>2026-08-23T08:17:36Z</time></trkpt><trkpt lat="40.8952329867" lon="-3.6470246594"><ele>1109.50</ele><time>2026-08-23T08:17:37Z</time></trkpt><trkpt lat="40.8955072425" lon="-3.6468628049"><ele>1112.38</ele><time>2026-08-23T08:17:48Z</time></trkpt><trkpt lat="40.8956871182" lon="-3.6469731946"><ele>1115.75</ele><time>2026-08-23T08:17:55Z</time></trkpt><trkpt lat="40.8957142755" lon="-3.6470479611"><ele>1116.71</ele><time>2026-08-23T08:17:57Z</time></trkpt><trkpt lat="40.8957331348" lon="-3.6470776331"><ele>1117.19</ele><time>2026-08-23T08:17:58Z</time></trkpt><trkpt lat="40.8957588673" lon="-3.6470961571"><ele>1117.67</ele><time>2026-08-23T08:17:59Z</time></trkpt><trkpt lat="40.8957891259" lon="-3.6471071374"><ele>1118.63</ele><time>2026-08-23T08:18:00Z</time></trkpt><trkpt lat="40.8958200552" lon="-3.6471152678"><ele>1119.11</ele><time>2026-08-23T08:18:01Z</time></trkpt><trkpt lat="40.8958486374" lon="-3.6471183691"><ele>1119.59</ele><time>2026-08-23T08:18:02Z</time></trkpt><trkpt lat="40.8958734479" lon="-3.6471264157"><ele>1120.07</ele><time>2026-08-23T08:18:03Z</time></trkpt><trkpt lat="40.8958940674" lon="-3.6471380666"><ele>1120.55</ele><time>2026-08-23T08:18:04Z</time></trkpt><trkpt lat="40.8959161956" lon="-3.6471528187"><ele>1120.55</ele><time>2026-08-23T08:18:05Z</time></trkpt><trkpt lat="40.8959412575" lon="-3.6471710075"><ele>1121.03</ele><time>2026-08-23T08:18:06Z</time></trkpt><trkpt lat="40.8959979191" lon="-3.6471898668"><ele>1122.00</ele><time>2026-08-23T08:18:08Z</time></trkpt><trkpt lat="40.8961370587" lon="-3.6472196225"><ele>1123.92</ele><time>2026-08-23T08:18:13Z</time></trkpt><trkpt lat="40.8964779507" lon="-3.6471554171"><ele>1124.88</ele><time>2026-08-23T08:18:24Z</time></trkpt><trkpt lat="40.8965412341" lon="-3.6471073888"><ele>1125.36</ele><time>2026-08-23T08:18:26Z</time></trkpt><trkpt lat="40.8965724148" lon="-3.6471037846"><ele>1125.36</ele><time>2026-08-23T08:18:27Z</time></trkpt><trkpt lat="40.8966044337" lon="-3.6471107416"><ele>1125.36</ele><time>2026-08-23T08:18:28Z</time></trkpt><trkpt lat="40.8966338541" lon="-3.6471272539"><ele>1125.36</ele><time>2026-08-23T08:18:29Z</time></trkpt><trkpt lat="40.8966635261" lon="-3.6471521482"><ele>1125.36</ele><time>2026-08-23T08:18:30Z</time></trkpt><trkpt lat="40.8966867439" lon="-3.6471818201"><ele>1125.36</ele><time>2026-08-23T08:18:31Z</time></trkpt><trkpt lat="40.8967044298" lon="-3.6472192034"><ele>1125.36</ele><time>2026-08-23T08:18:32Z</time></trkpt><trkpt lat="40.8967149910" lon="-3.6472579278"><ele>1125.36</ele><time>2026-08-23T08:18:33Z</time></trkpt><trkpt lat="40.8967196848" lon="-3.6472942214"><ele>1125.36</ele><time>2026-08-23T08:18:34Z</time></trkpt><trkpt lat="40.8967201039" lon="-3.6473265756"><ele>1125.36</ele><time>2026-08-23T08:18:35Z</time></trkpt><trkpt lat="40.8967196010" lon="-3.6473553255"><ele>1125.36</ele><time>2026-08-23T08:18:36Z</time></trkpt><trkpt lat="40.8967186790" lon="-3.6473838240"><ele>1125.36</ele><time>2026-08-23T08:18:37Z</time></trkpt><trkpt lat="40.8967152424" lon="-3.6474119872"><ele>1125.36</ele><time>2026-08-23T08:18:38Z</time></trkpt><trkpt lat="40.8967117220" lon="-3.6474399827"><ele>1125.36</ele><time>2026-08-23T08:18:39Z</time></trkpt><trkpt lat="40.8967101295" lon="-3.6474636197"><ele>1125.84</ele><time>2026-08-23T08:18:40Z</time></trkpt><trkpt lat="40.8966929466" lon="-3.6475585867"><ele>1126.32</ele><time>2026-08-23T08:18:51Z</time></trkpt><trkpt lat="40.8966442477" lon="-3.6479158234"><ele>1126.32</ele><time>2026-08-23T08:19:01Z</time></trkpt><trkpt lat="40.8966591675" lon="-3.6479522847"><ele>1126.32</ele><time>2026-08-23T08:19:02Z</time></trkpt><trkpt lat="40.8966828045" lon="-3.6479783524"><ele>1126.32</ele><time>2026-08-23T08:19:03Z</time></trkpt><trkpt lat="40.8967118897" lon="-3.6479895841"><ele>1126.32</ele><time>2026-08-23T08:19:04Z</time></trkpt><trkpt lat="40.8967459202" lon="-3.6479834653"><ele>1126.32</ele><time>2026-08-23T08:19:05Z</time></trkpt><trkpt lat="40.8967840578" lon="-3.6479714792"><ele>1126.32</ele><time>2026-08-23T08:19:06Z</time></trkpt><trkpt lat="40.8969774283" lon="-3.6479585711"><ele>1126.32</ele><time>2026-08-23T08:19:11Z</time></trkpt><trkpt lat="40.8970620017" lon="-3.6479729880"><ele>1125.36</ele><time>2026-08-23T08:19:13Z</time></trkpt><trkpt lat="40.8974593878" lon="-3.6481713876"><ele>1124.88</ele><time>2026-08-23T08:19:24Z</time></trkpt><trkpt lat="40.8981175348" lon="-3.6484865472"><ele>1122.48</ele><time>2026-08-23T08:19:38Z</time></trkpt><trkpt lat="40.8987063635" lon="-3.6487547681"><ele>1121.52</ele><time>2026-08-23T08:19:50Z</time></trkpt><trkpt lat="40.8987464290" lon="-3.6487796623"><ele>1120.55</ele><time>2026-08-23T08:19:51Z</time></trkpt><trkpt lat="40.8987849019" lon="-3.6488004494"><ele>1120.55</ele><time>2026-08-23T08:19:52Z</time></trkpt><trkpt lat="40.8992135525" lon="-3.6490938999"><ele>1119.59</ele><time>2026-08-23T08:20:04Z</time></trkpt><trkpt lat="40.8997570351" lon="-3.6494277511"><ele>1120.55</ele><time>2026-08-23T08:20:17Z</time></trkpt><trkpt lat="40.9000612143" lon="-3.6496201996"><ele>1121.52</ele><time>2026-08-23T08:20:24Z</time></trkpt><trkpt lat="40.9000907186" lon="-3.6496653780"><ele>1121.52</ele><time>2026-08-23T08:20:25Z</time></trkpt><trkpt lat="40.9001089074" lon="-3.6497138254"><ele>1121.52</ele><time>2026-08-23T08:20:26Z</time></trkpt><trkpt lat="40.9001139365" lon="-3.6497626919"><ele>1121.52</ele><time>2026-08-23T08:20:27Z</time></trkpt><trkpt lat="40.9001109190" lon="-3.6498057749"><ele>1122.00</ele><time>2026-08-23T08:20:28Z</time></trkpt><trkpt lat="40.9001383279" lon="-3.6501415540"><ele>1124.40</ele><time>2026-08-23T08:20:37Z</time></trkpt><trkpt lat="40.9001394175" lon="-3.6503962800"><ele>1128.24</ele><time>2026-08-23T08:20:46Z</time></trkpt><trkpt lat="40.9001343045" lon="-3.6504188273"><ele>1128.73</ele><time>2026-08-23T08:20:47Z</time></trkpt><trkpt lat="40.9000756312" lon="-3.6507539358"><ele>1132.09</ele><time>2026-08-23T08:20:58Z</time></trkpt><trkpt lat="40.9001117572" lon="-3.6510809138"><ele>1134.97</ele><time>2026-08-23T08:21:08Z</time></trkpt><trkpt lat="40.9003681596" lon="-3.6515753623"><ele>1137.38</ele><time>2026-08-23T08:21:22Z</time></trkpt><trkpt lat="40.9003331233" lon="-3.6518435832"><ele>1140.26</ele><time>2026-08-23T08:21:29Z</time></trkpt><trkpt lat="40.9002932254" lon="-3.6520901788"><ele>1143.63</ele><time>2026-08-23T08:21:36Z</time></trkpt><trkpt lat="40.9004746936" lon="-3.6523240339"><ele>1146.51</ele><time>2026-08-23T08:21:46Z</time></trkpt><trkpt lat="40.9006499592" lon="-3.6526255310"><ele>1147.95</ele><time>2026-08-23T08:21:58Z</time></trkpt><trkpt lat="40.9006506298" lon="-3.6526862998"><ele>1148.43</ele><time>2026-08-23T08:22:00Z</time></trkpt><trkpt lat="40.9006626997" lon="-3.6527156364"><ele>1148.43</ele><time>2026-08-23T08:22:01Z</time></trkpt><trkpt lat="40.9006796312" lon="-3.6527427100"><ele>1148.91</ele><time>2026-08-23T08:22:02Z</time></trkpt><trkpt lat="40.9008132387" lon="-3.6529845279"><ele>1150.35</ele><time>2026-08-23T08:22:13Z</time></trkpt><trkpt lat="40.9008294158" lon="-3.6530049797"><ele>1150.35</ele><time>2026-08-23T08:22:15Z</time></trkpt><trkpt lat="40.9008409828" lon="-3.6530126911"><ele>1150.35</ele><time>2026-08-23T08:22:16Z</time></trkpt><trkpt lat="40.9008559864" lon="-3.6530225817"><ele>1150.35</ele><time>2026-08-23T08:22:17Z</time></trkpt><trkpt lat="40.9008695651" lon="-3.6530315503"><ele>1150.35</ele><time>2026-08-23T08:22:18Z</time></trkpt><trkpt lat="40.9008868318" lon="-3.6530437879"><ele>1150.35</ele><time>2026-08-23T08:22:19Z</time></trkpt><trkpt lat="40.9010602534" lon="-3.6531972606"><ele>1150.35</ele><time>2026-08-23T08:22:25Z</time></trkpt><trkpt lat="40.9011315834" lon="-3.6532867793"><ele>1148.91</ele><time>2026-08-23T08:22:27Z</time></trkpt><trkpt lat="40.9013887402" lon="-3.6535780504"><ele>1151.32</ele><time>2026-08-23T08:22:37Z</time></trkpt><trkpt lat="40.9017683566" lon="-3.6537813116"><ele>1152.76</ele><time>2026-08-23T08:22:50Z</time></trkpt><trkpt lat="40.9020222444" lon="-3.6537191179"><ele>1149.39</ele><time>2026-08-23T08:22:59Z</time></trkpt><trkpt lat="40.9020843543" lon="-3.6536837462"><ele>1148.43</ele><time>2026-08-23T08:23:01Z</time></trkpt><trkpt lat="40.9021151997" lon="-3.6536920443"><ele>1148.43</ele><time>2026-08-23T08:23:02Z</time></trkpt><trkpt lat="40.9021849371" lon="-3.6537274998"><ele>1147.47</ele><time>2026-08-23T08:23:04Z</time></trkpt><trkpt lat="40.9022322949" lon="-3.6537342053"><ele>1146.51</ele><time>2026-08-23T08:23:05Z</time></trkpt><trkpt lat="40.9022873640" lon="-3.6537260748"><ele>1146.03</ele><time>2026-08-23T08:23:06Z</time></trkpt><trkpt lat="40.9023508988" lon="-3.6537154298"><ele>1145.55</ele><time>2026-08-23T08:23:07Z</time></trkpt><trkpt lat="40.9024189599" lon="-3.6537166033"><ele>1144.59</ele><time>2026-08-23T08:23:08Z</time></trkpt><trkpt lat="40.9024814889" lon="-3.6537243146"><ele>1144.59</ele><time>2026-08-23T08:23:09Z</time></trkpt><trkpt lat="40.9025326185" lon="-3.6537249014"><ele>1144.59</ele><time>2026-08-23T08:23:10Z</time></trkpt><trkpt lat="40.9025751986" lon="-3.6537273321"><ele>1144.59</ele><time>2026-08-23T08:23:11Z</time></trkpt><trkpt lat="40.9026126657" lon="-3.6537411623"><ele>1144.59</ele><time>2026-08-23T08:23:12Z</time></trkpt><trkpt lat="40.9026456065" lon="-3.6537618656"><ele>1146.03</ele><time>2026-08-23T08:23:13Z</time></trkpt><trkpt lat="40.9026757814" lon="-3.6537889391"><ele>1146.03</ele><time>2026-08-23T08:23:14Z</time></trkpt><trkpt lat="40.9027035255" lon="-3.6538270768"><ele>1146.51</ele><time>2026-08-23T08:23:15Z</time></trkpt><trkpt lat="40.9027237259" lon="-3.6538725067"><ele>1146.51</ele><time>2026-08-23T08:23:16Z</time></trkpt><trkpt lat="40.9027411602" lon="-3.6539196968"><ele>1146.99</ele><time>2026-08-23T08:23:17Z</time></trkpt><trkpt lat="40.9028471075" lon="-3.6541329324"><ele>1150.84</ele><time>2026-08-23T08:23:22Z</time></trkpt><trkpt lat="40.9029041044" lon="-3.6541865766"><ele>1151.80</ele><time>2026-08-23T08:23:24Z</time></trkpt><trkpt lat="40.9030128177" lon="-3.6542822979"><ele>1151.80</ele><time>2026-08-23T08:23:27Z</time></trkpt><trkpt lat="40.9030470159" lon="-3.6543252133"><ele>1151.80</ele><time>2026-08-23T08:23:28Z</time></trkpt><trkpt lat="40.9032486007" lon="-3.6546709668"><ele>1155.64</ele><time>2026-08-23T08:23:38Z</time></trkpt><trkpt lat="40.9035161510" lon="-3.6549833603"><ele>1158.05</ele><time>2026-08-23T08:23:51Z</time></trkpt><trkpt lat="40.9036687855" lon="-3.6550204922"><ele>1158.53</ele><time>2026-08-23T08:23:55Z</time></trkpt><trkpt lat="40.9038356692" lon="-3.6550401896"><ele>1157.56</ele><time>2026-08-23T08:23:59Z</time></trkpt><trkpt lat="40.9039709531" lon="-3.6550359149"><ele>1157.08</ele><time>2026-08-23T08:24:02Z</time></trkpt><trkpt lat="40.9044467099" lon="-3.6550455540"><ele>1152.76</ele><time>2026-08-23T08:24:11Z</time></trkpt><trkpt lat="40.9045827482" lon="-3.6550679337"><ele>1150.84</ele><time>2026-08-23T08:24:13Z</time></trkpt><trkpt lat="40.9046566766" lon="-3.6550719570"><ele>1150.35</ele><time>2026-08-23T08:24:14Z</time></trkpt><trkpt lat="40.9047264140" lon="-3.6550866254"><ele>1150.35</ele><time>2026-08-23T08:24:15Z</time></trkpt><trkpt lat="40.9047931340" lon="-3.6550950073"><ele>1150.35</ele><time>2026-08-23T08:24:16Z</time></trkpt><trkpt lat="40.9048436768" lon="-3.6550926603"><ele>1149.39</ele><time>2026-08-23T08:24:17Z</time></trkpt><trkpt lat="40.9049252328" lon="-3.6550987791"><ele>1148.91</ele><time>2026-08-23T08:24:19Z</time></trkpt><trkpt lat="40.9050133266" lon="-3.6551136989"><ele>1148.43</ele><time>2026-08-23T08:24:21Z</time></trkpt><trkpt lat="40.9051547293" lon="-3.6551792454"><ele>1147.47</ele><time>2026-08-23T08:24:24Z</time></trkpt><trkpt lat="40.9054569807" lon="-3.6553799082"><ele>1146.51</ele><time>2026-08-23T08:24:30Z</time></trkpt><trkpt lat="40.9054997284" lon="-3.6554234941"><ele>1146.03</ele><time>2026-08-23T08:24:31Z</time></trkpt><trkpt lat="40.9055402130" lon="-3.6554724444"><ele>1146.03</ele><time>2026-08-23T08:24:32Z</time></trkpt><trkpt lat="40.9055841342" lon="-3.6555259209"><ele>1145.55</ele><time>2026-08-23T08:24:33Z</time></trkpt><trkpt lat="40.9056155663" lon="-3.6555625498"><ele>1145.55</ele><time>2026-08-23T08:24:34Z</time></trkpt><trkpt lat="40.9057142213" lon="-3.6557047907"><ele>1145.07</ele><time>2026-08-23T08:24:37Z</time></trkpt><trkpt lat="40.9057813603" lon="-3.6558660585"><ele>1144.59</ele><time>2026-08-23T08:24:40Z</time></trkpt><trkpt lat="40.9057947714" lon="-3.6559154280"><ele>1144.59</ele><time>2026-08-23T08:24:41Z</time></trkpt><trkpt lat="40.9058078472" lon="-3.6559625342"><ele>1144.59</ele><time>2026-08-23T08:24:42Z</time></trkpt><trkpt lat="40.9058258682" lon="-3.6560039409"><ele>1144.59</ele><time>2026-08-23T08:24:43Z</time></trkpt><trkpt lat="40.9058529418" lon="-3.6560393963"><ele>1144.59</ele><time>2026-08-23T08:24:44Z</time></trkpt><trkpt lat="40.9058885649" lon="-3.6560676433"><ele>1144.59</ele><time>2026-08-23T08:24:45Z</time></trkpt><trkpt lat="40.9059229307" lon="-3.6560904421"><ele>1144.59</ele><time>2026-08-23T08:24:46Z</time></trkpt><trkpt lat="40.9060012177" lon="-3.6561377998"><ele>1144.59</ele><time>2026-08-23T08:24:48Z</time></trkpt><trkpt lat="40.9060844500" lon="-3.6561765242"><ele>1145.07</ele><time>2026-08-23T08:24:50Z</time></trkpt><trkpt lat="40.9061262757" lon="-3.6561952997"><ele>1146.03</ele><time>2026-08-23T08:24:51Z</time></trkpt><trkpt lat="40.9061697777" lon="-3.6562194396"><ele>1146.03</ele><time>2026-08-23T08:24:52Z</time></trkpt><trkpt lat="40.9062087536" lon="-3.6562455911"><ele>1146.03</ele><time>2026-08-23T08:24:53Z</time></trkpt><trkpt lat="40.9062490705" lon="-3.6562804598"><ele>1146.51</ele><time>2026-08-23T08:24:54Z</time></trkpt><trkpt lat="40.9062886331" lon="-3.6563264765"><ele>1146.51</ele><time>2026-08-23T08:24:55Z</time></trkpt><trkpt lat="40.9063607175" lon="-3.6564357765"><ele>1147.47</ele><time>2026-08-23T08:24:57Z</time></trkpt><trkpt lat="40.9063903056" lon="-3.6564951204"><ele>1147.47</ele><time>2026-08-23T08:24:58Z</time></trkpt><trkpt lat="40.9064138588" lon="-3.6565625109"><ele>1147.47</ele><time>2026-08-23T08:24:59Z</time></trkpt><trkpt lat="40.9064290300" lon="-3.6566250399"><ele>1147.47</ele><time>2026-08-23T08:25:00Z</time></trkpt><trkpt lat="40.9064432792" lon="-3.6566879041"><ele>1147.95</ele><time>2026-08-23T08:25:01Z</time></trkpt><trkpt lat="40.9064617194" lon="-3.6567474995"><ele>1147.95</ele><time>2026-08-23T08:25:02Z</time></trkpt><trkpt lat="40.9064851049" lon="-3.6568024848"><ele>1148.91</ele><time>2026-08-23T08:25:03Z</time></trkpt><trkpt lat="40.9065136034" lon="-3.6568546202"><ele>1148.91</ele><time>2026-08-23T08:25:04Z</time></trkpt><trkpt lat="40.9065462928" lon="-3.6569029838"><ele>1148.91</ele><time>2026-08-23T08:25:05Z</time></trkpt><trkpt lat="40.9065741207" lon="-3.6569351703"><ele>1148.91</ele><time>2026-08-23T08:25:06Z</time></trkpt><trkpt lat="40.9065979254" lon="-3.6569644231"><ele>1148.91</ele><time>2026-08-23T08:25:07Z</time></trkpt><trkpt lat="40.9066169523" lon="-3.6569911614"><ele>1149.39</ele><time>2026-08-23T08:25:08Z</time></trkpt><trkpt lat="40.9066330455" lon="-3.6570139602"><ele>1149.39</ele><time>2026-08-23T08:25:09Z</time></trkpt><trkpt lat="40.9066485520" lon="-3.6570344120"><ele>1149.39</ele><time>2026-08-23T08:25:10Z</time></trkpt><trkpt lat="40.9066603705" lon="-3.6570523493"><ele>1149.39</ele><time>2026-08-23T08:25:11Z</time></trkpt><trkpt lat="40.9066642262" lon="-3.6570748966"><ele>1149.39</ele><time>2026-08-23T08:25:12Z</time></trkpt><trkpt lat="40.9066585265" lon="-3.6570924986"><ele>1149.87</ele><time>2026-08-23T08:25:13Z</time></trkpt><trkpt lat="40.9066406731" lon="-3.6570981145"><ele>1149.87</ele><time>2026-08-23T08:25:14Z</time></trkpt><trkpt lat="40.9066197183" lon="-3.6570931692"><ele>1150.35</ele><time>2026-08-23T08:25:15Z</time></trkpt><trkpt lat="40.9065997694" lon="-3.6570862960"><ele>1150.35</ele><time>2026-08-23T08:25:16Z</time></trkpt><trkpt lat="40.9063747991" lon="-3.6572613940"><ele>1153.24</ele><time>2026-08-23T08:25:26Z</time></trkpt><trkpt lat="40.9063236695" lon="-3.6572869588"><ele>1153.72</ele><time>2026-08-23T08:25:28Z</time></trkpt><trkpt lat="40.9062966798" lon="-3.6572827678"><ele>1153.72</ele><time>2026-08-23T08:25:29Z</time></trkpt><trkpt lat="40.9059712104" lon="-3.6572309677"><ele>1157.08</ele><time>2026-08-23T08:25:41Z</time></trkpt><trkpt lat="40.9058719687" lon="-3.6572497431"><ele>1157.56</ele><time>2026-08-23T08:25:52Z</time></trkpt><trkpt lat="40.9058639221" lon="-3.6572427861"><ele>1157.56</ele><time>2026-08-23T08:25:59Z</time></trkpt><trkpt lat="40.9058406204" lon="-3.6572317220"><ele>1157.56</ele><time>2026-08-23T08:26:00Z</time></trkpt><trkpt lat="40.9055337589" lon="-3.6571448017"><ele>1159.01</ele><time>2026-08-23T08:26:13Z</time></trkpt><trkpt lat="40.9051925316" lon="-3.6570806801"><ele>1161.41</ele><time>2026-08-23T08:26:26Z</time></trkpt><trkpt lat="40.9048995841" lon="-3.6571435444"><ele>1162.85</ele><time>2026-08-23T08:26:37Z</time></trkpt><trkpt lat="40.9046386555" lon="-3.6572580412"><ele>1166.70</ele><time>2026-08-23T08:26:48Z</time></trkpt><trkpt lat="40.9044256713" lon="-3.6574158724"><ele>1169.10</ele><time>2026-08-23T08:26:59Z</time></trkpt><trkpt lat="40.9044030402" lon="-3.6574232485"><ele>1169.10</ele><time>2026-08-23T08:27:00Z</time></trkpt><trkpt lat="40.9043754637" lon="-3.6574331392"><ele>1169.58</ele><time>2026-08-23T08:27:01Z</time></trkpt><trkpt lat="40.9043491445" lon="-3.6574475560"><ele>1169.58</ele><time>2026-08-23T08:27:02Z</time></trkpt><trkpt lat="40.9043262620" lon="-3.6574641522"><ele>1170.54</ele><time>2026-08-23T08:27:03Z</time></trkpt><trkpt lat="40.9043038823" lon="-3.6574845202"><ele>1171.02</ele><time>2026-08-23T08:27:04Z</time></trkpt><trkpt lat="40.9042829275" lon="-3.6575095821"><ele>1171.50</ele><time>2026-08-23T08:27:05Z</time></trkpt><trkpt lat="40.9042629786" lon="-3.6575330514"><ele>1171.50</ele><time>2026-08-23T08:27:06Z</time></trkpt><trkpt lat="40.9042402636" lon="-3.6575548444"><ele>1171.98</ele><time>2026-08-23T08:27:07Z</time></trkpt><trkpt lat="40.9041677602" lon="-3.6576112546"><ele>1173.43</ele><time>2026-08-23T08:27:10Z</time></trkpt><trkpt lat="40.9040749725" lon="-3.6576930620"><ele>1174.39</ele><time>2026-08-23T08:27:14Z</time></trkpt><trkpt lat="40.9040479828" lon="-3.6576968338"><ele>1174.87</ele><time>2026-08-23T08:27:15Z</time></trkpt><trkpt lat="40.9040209930" lon="-3.6576842610"><ele>1174.87</ele><time>2026-08-23T08:27:16Z</time></trkpt><trkpt lat="40.9039986134" lon="-3.6576618813"><ele>1175.83</ele><time>2026-08-23T08:27:17Z</time></trkpt><trkpt lat="40.9039820172" lon="-3.6576422676"><ele>1175.83</ele><time>2026-08-23T08:27:18Z</time></trkpt><trkpt lat="40.9039619006" lon="-3.6576255877"><ele>1175.83</ele><time>2026-08-23T08:27:19Z</time></trkpt><trkpt lat="40.9039392695" lon="-3.6576115061"><ele>1175.83</ele><time>2026-08-23T08:27:20Z</time></trkpt><trkpt lat="40.9039132018" lon="-3.6575976759"><ele>1175.83</ele><time>2026-08-23T08:27:21Z</time></trkpt><trkpt lat="40.9038877208" lon="-3.6575858574"><ele>1175.83</ele><time>2026-08-23T08:27:22Z</time></trkpt><trkpt lat="40.9038629103" lon="-3.6575740390"><ele>1175.83</ele><time>2026-08-23T08:27:23Z</time></trkpt><trkpt lat="40.9038085118" lon="-3.6575572751"><ele>1175.83</ele><time>2026-08-23T08:27:32Z</time></trkpt><trkpt lat="40.9037951007" lon="-3.6575503182"><ele>1175.83</ele><time>2026-08-23T08:27:59Z</time></trkpt><trkpt lat="40.9037713800" lon="-3.6575515755"><ele>1175.83</ele><time>2026-08-23T08:28:27Z</time></trkpt><trkpt lat="40.9037564602" lon="-3.6575591192"><ele>1175.83</ele><time>2026-08-23T08:28:28Z</time></trkpt><trkpt lat="40.9037420433" lon="-3.6575664114"><ele>1175.83</ele><time>2026-08-23T08:28:29Z</time></trkpt><trkpt lat="40.9037249442" lon="-3.6575726140"><ele>1175.83</ele><time>2026-08-23T08:28:30Z</time></trkpt><trkpt lat="40.9037057497" lon="-3.6575751286"><ele>1175.83</ele><time>2026-08-23T08:28:31Z</time></trkpt><trkpt lat="40.9036890697" lon="-3.6575699318"><ele>1175.83</ele><time>2026-08-23T08:28:32Z</time></trkpt><trkpt lat="40.9036759939" lon="-3.6575569399"><ele>1175.83</ele><time>2026-08-23T08:28:33Z</time></trkpt><trkpt lat="40.9034133051" lon="-3.6574043054"><ele>1177.75</ele><time>2026-08-23T08:28:45Z</time></trkpt><trkpt lat="40.9030735027" lon="-3.6572800856"><ele>1180.16</ele><time>2026-08-23T08:28:58Z</time></trkpt><trkpt lat="40.9027798846" lon="-3.6572035588"><ele>1183.52</ele><time>2026-08-23T08:29:11Z</time></trkpt><trkpt lat="40.9024879429" lon="-3.6571820173"><ele>1185.44</ele><time>2026-08-23T08:29:24Z</time></trkpt><trkpt lat="40.9022444487" lon="-3.6571636610"><ele>1186.88</ele><time>2026-08-23T08:29:34Z</time></trkpt><trkpt lat="40.9018394351" lon="-3.6571504176"><ele>1188.33</ele><time>2026-08-23T08:29:50Z</time></trkpt><trkpt lat="40.9014340863" lon="-3.6571500823"><ele>1190.73</ele><time>2026-08-23T08:30:05Z</time></trkpt><trkpt lat="40.9013095312" lon="-3.6571777426"><ele>1191.21</ele><time>2026-08-23T08:30:10Z</time></trkpt><trkpt lat="40.9012812842" lon="-3.6571797542"><ele>1191.69</ele><time>2026-08-23T08:30:11Z</time></trkpt><trkpt lat="40.9008626919" lon="-3.6572914012"><ele>1194.09</ele><time>2026-08-23T08:30:26Z</time></trkpt><trkpt lat="40.9005944710" lon="-3.6574378330"><ele>1196.02</ele><time>2026-08-23T08:30:37Z</time></trkpt><trkpt lat="40.9005712532" lon="-3.6574471369"><ele>1196.50</ele><time>2026-08-23T08:30:38Z</time></trkpt><trkpt lat="40.9005451016" lon="-3.6574607994"><ele>1196.50</ele><time>2026-08-23T08:30:39Z</time></trkpt><trkpt lat="40.9001603723" lon="-3.6575075705"><ele>1197.94</ele><time>2026-08-23T08:30:52Z</time></trkpt><trkpt lat="40.8997335657" lon="-3.6575385835"><ele>1200.82</ele><time>2026-08-23T08:31:06Z</time></trkpt><trkpt lat="40.8994534425" lon="-3.6575224902"><ele>1204.67</ele><time>2026-08-23T08:31:17Z</time></trkpt><trkpt lat="40.8992208447" lon="-3.6574224941"><ele>1204.67</ele><time>2026-08-23T08:31:28Z</time></trkpt><trkpt lat="40.8989391290" lon="-3.6574136931"><ele>1208.51</ele><time>2026-08-23T08:31:39Z</time></trkpt><trkpt lat="40.8987930324" lon="-3.6574297864"><ele>1210.44</ele><time>2026-08-23T08:31:47Z</time></trkpt><trkpt lat="40.8987741731" lon="-3.6574302893"><ele>1210.92</ele><time>2026-08-23T08:31:48Z</time></trkpt><trkpt lat="40.8987555653" lon="-3.6574216560"><ele>1210.92</ele><time>2026-08-23T08:31:49Z</time></trkpt><trkpt lat="40.8986258972" lon="-3.6573587079"><ele>1211.88</ele><time>2026-08-23T08:31:55Z</time></trkpt><trkpt lat="40.8986058645" lon="-3.6573661678"><ele>1211.88</ele><time>2026-08-23T08:31:56Z</time></trkpt><trkpt lat="40.8985906094" lon="-3.6573773995"><ele>1212.36</ele><time>2026-08-23T08:31:57Z</time></trkpt><trkpt lat="40.8985734265" lon="-3.6573906429"><ele>1212.36</ele><time>2026-08-23T08:31:58Z</time></trkpt><trkpt lat="40.8985518850" lon="-3.6574009527"><ele>1212.84</ele><time>2026-08-23T08:31:59Z</time></trkpt><trkpt lat="40.8983493783" lon="-3.6575063132"><ele>1215.24</ele><time>2026-08-23T08:32:09Z</time></trkpt><trkpt lat="40.8981246594" lon="-3.6574339774"><ele>1218.61</ele><time>2026-08-23T08:32:19Z</time></trkpt><trkpt lat="40.8980555087" lon="-3.6574214883"><ele>1219.57</ele><time>2026-08-23T08:32:23Z</time></trkpt><trkpt lat="40.8980366495" lon="-3.6574087478"><ele>1219.57</ele><time>2026-08-23T08:32:24Z</time></trkpt><trkpt lat="40.8980182093" lon="-3.6574064009"><ele>1219.57</ele><time>2026-08-23T08:32:25Z</time></trkpt><trkpt lat="40.8979995176" lon="-3.6574089993"><ele>1219.57</ele><time>2026-08-23T08:32:26Z</time></trkpt><trkpt lat="40.8979798201" lon="-3.6574168783"><ele>1220.05</ele><time>2026-08-23T08:32:27Z</time></trkpt><trkpt lat="40.8977620583" lon="-3.6575640645"><ele>1223.42</ele><time>2026-08-23T08:32:39Z</time></trkpt><trkpt lat="40.8974918257" lon="-3.6576007772"><ele>1226.78</ele><time>2026-08-23T08:32:51Z</time></trkpt><trkpt lat="40.8974428754" lon="-3.6576038785"><ele>1226.78</ele><time>2026-08-23T08:32:53Z</time></trkpt><trkpt lat="40.8972370997" lon="-3.6575273518"><ele>1229.66</ele><time>2026-08-23T08:33:01Z</time></trkpt><trkpt lat="40.8969718125" lon="-3.6575480551"><ele>1232.07</ele><time>2026-08-23T08:33:09Z</time></trkpt><trkpt lat="40.8967066091" lon="-3.6576518230"><ele>1233.03</ele><time>2026-08-23T08:33:20Z</time></trkpt><trkpt lat="40.8966701478" lon="-3.6577297747"><ele>1234.47</ele><time>2026-08-23T08:33:23Z</time></trkpt><trkpt lat="40.8966476005" lon="-3.6577409226"><ele>1234.47</ele><time>2026-08-23T08:33:24Z</time></trkpt><trkpt lat="40.8966369554" lon="-3.6577437725"><ele>1234.47</ele><time>2026-08-23T08:33:25Z</time></trkpt><trkpt lat="40.8966206107" lon="-3.6577454489"><ele>1234.47</ele><time>2026-08-23T08:33:26Z</time></trkpt><trkpt lat="40.8966310881" lon="-3.6577505618"><ele>1234.47</ele><time>2026-08-23T08:33:40Z</time></trkpt><trkpt lat="40.8966221195" lon="-3.6577415094"><ele>1234.47</ele><time>2026-08-23T08:33:48Z</time></trkpt><trkpt lat="40.8965939563" lon="-3.6577304453"><ele>1234.47</ele><time>2026-08-23T08:33:50Z</time></trkpt><trkpt lat="40.8965679724" lon="-3.6577291042"><ele>1234.95</ele><time>2026-08-23T08:33:51Z</time></trkpt><trkpt lat="40.8965440840" lon="-3.6577311158"><ele>1234.95</ele><time>2026-08-23T08:33:52Z</time></trkpt><trkpt lat="40.8962344564" lon="-3.6579166073"><ele>1237.35</ele><time>2026-08-23T08:34:06Z</time></trkpt><trkpt lat="40.8959365636" lon="-3.6581498757"><ele>1240.24</ele><time>2026-08-23T08:34:20Z</time></trkpt><trkpt lat="40.8956352342" lon="-3.6583080422"><ele>1240.24</ele><time>2026-08-23T08:34:31Z</time></trkpt><trkpt lat="40.8951762412" lon="-3.6582665518"><ele>1238.32</ele><time>2026-08-23T08:34:44Z</time></trkpt><trkpt lat="40.8945172559" lon="-3.6581440084"><ele>1236.87</ele><time>2026-08-23T08:35:00Z</time></trkpt><trkpt lat="40.8944719937" lon="-3.6581422482"><ele>1236.87</ele><time>2026-08-23T08:35:01Z</time></trkpt><trkpt lat="40.8944374602" lon="-3.6581466068"><ele>1236.39</ele><time>2026-08-23T08:35:02Z</time></trkpt><trkpt lat="40.8940845821" lon="-3.6583593395"><ele>1238.80</ele><time>2026-08-23T08:35:14Z</time></trkpt><trkpt lat="40.8937270939" lon="-3.6586655304"><ele>1240.72</ele><time>2026-08-23T08:35:26Z</time></trkpt><trkpt lat="40.8935659938" lon="-3.6588316597"><ele>1240.72</ele><time>2026-08-23T08:35:31Z</time></trkpt><trkpt lat="40.8935316280" lon="-3.6588560510"><ele>1240.72</ele><time>2026-08-23T08:35:32Z</time></trkpt><trkpt lat="40.8932495769" lon="-3.6589405406"><ele>1240.72</ele><time>2026-08-23T08:35:39Z</time></trkpt><trkpt lat="40.8928641770" lon="-3.6591867171"><ele>1241.68</ele><time>2026-08-23T08:35:51Z</time></trkpt><trkpt lat="40.8925330918" lon="-3.6593296286"><ele>1244.56</ele><time>2026-08-23T08:36:01Z</time></trkpt><trkpt lat="40.8920383081" lon="-3.6594337318"><ele>1246.49</ele><time>2026-08-23T08:36:17Z</time></trkpt><trkpt lat="40.8917230647" lon="-3.6593204923"><ele>1249.37</ele><time>2026-08-23T08:36:27Z</time></trkpt><trkpt lat="40.8913750481" lon="-3.6592556164"><ele>1252.74</ele><time>2026-08-23T08:36:41Z</time></trkpt><trkpt lat="40.8910668455" lon="-3.6591070890"><ele>1255.62</ele><time>2026-08-23T08:36:53Z</time></trkpt><trkpt lat="40.8907257859" lon="-3.6590050813"><ele>1258.98</ele><time>2026-08-23T08:37:07Z</time></trkpt><trkpt lat="40.8903367817" lon="-3.6590301432"><ele>1262.35</ele><time>2026-08-23T08:37:22Z</time></trkpt><trkpt lat="40.8901241329" lon="-3.6590203363"><ele>1265.71</ele><time>2026-08-23T08:37:32Z</time></trkpt><trkpt lat="40.8898980729" lon="-3.6590480804"><ele>1268.60</ele><time>2026-08-23T08:37:42Z</time></trkpt><trkpt lat="40.8896889444" lon="-3.6590743996"><ele>1271.96</ele><time>2026-08-23T08:37:52Z</time></trkpt><trkpt lat="40.8892658260" lon="-3.6590006389"><ele>1274.36</ele><time>2026-08-23T08:38:09Z</time></trkpt><trkpt lat="40.8889819309" lon="-3.6589573883"><ele>1277.73</ele><time>2026-08-23T08:38:20Z</time></trkpt><trkpt lat="40.8887168113" lon="-3.6587795243"><ele>1281.09</ele><time>2026-08-23T08:38:32Z</time></trkpt><trkpt lat="40.8884958643" lon="-3.6584641133"><ele>1283.02</ele><time>2026-08-23T08:38:46Z</time></trkpt><trkpt lat="40.8883941080" lon="-3.6581330281"><ele>1286.38</ele><time>2026-08-23T08:38:58Z</time></trkpt><trkpt lat="40.8881559782" lon="-3.6579586845"><ele>1289.27</ele><time>2026-08-23T08:39:10Z</time></trkpt><trkpt lat="40.8877799660" lon="-3.6579457764"><ele>1290.71</ele><time>2026-08-23T08:39:23Z</time></trkpt><trkpt lat="40.8873091545" lon="-3.6580245662"><ele>1293.59</ele><time>2026-08-23T08:39:38Z</time></trkpt><trkpt lat="40.8868691884" lon="-3.6582837347"><ele>1295.99</ele><time>2026-08-23T08:39:53Z</time></trkpt><trkpt lat="40.8865670208" lon="-3.6585670430"><ele>1298.88</ele><time>2026-08-23T08:40:05Z</time></trkpt><trkpt lat="40.8860951196" lon="-3.6587589048"><ele>1300.80</ele><time>2026-08-23T08:40:19Z</time></trkpt><trkpt lat="40.8860632684" lon="-3.6590784229"><ele>1301.76</ele><time>2026-08-23T08:40:27Z</time></trkpt><trkpt lat="40.8859853167" lon="-3.6595087498"><ele>1303.20</ele><time>2026-08-23T08:40:39Z</time></trkpt><trkpt lat="40.8859180100" lon="-3.6598791461"><ele>1301.76</ele><time>2026-08-23T08:40:50Z</time></trkpt><trkpt lat="40.8859212790" lon="-3.6598819122"><ele>1301.76</ele><time>2026-08-23T08:41:03Z</time></trkpt><trkpt lat="40.8859193511" lon="-3.6598881986"><ele>1302.24</ele><time>2026-08-23T08:41:39Z</time></trkpt><trkpt lat="40.8859204408" lon="-3.6598988436"><ele>1302.24</ele><time>2026-08-23T08:42:08Z</time></trkpt><trkpt lat="40.8859269787" lon="-3.6598951556"><ele>1302.24</ele><time>2026-08-23T08:42:34Z</time></trkpt><trkpt lat="40.8859172557" lon="-3.6598848458"><ele>1302.24</ele><time>2026-08-23T08:43:07Z</time></trkpt><trkpt lat="40.8859095443" lon="-3.6598846782"><ele>1302.72</ele><time>2026-08-23T08:43:30Z</time></trkpt><trkpt lat="40.8859041799" lon="-3.6599028669"><ele>1302.72</ele><time>2026-08-23T08:43:50Z</time></trkpt><trkpt lat="40.8858500328" lon="-3.6600478739"><ele>1302.72</ele><time>2026-08-23T08:44:04Z</time></trkpt><trkpt lat="40.8856391441" lon="-3.6602312699"><ele>1301.28</ele><time>2026-08-23T08:44:11Z</time></trkpt><trkpt lat="40.8855978213" lon="-3.6602642108"><ele>1301.28</ele><time>2026-08-23T08:44:12Z</time></trkpt><trkpt lat="40.8855559118" lon="-3.6602897756"><ele>1301.28</ele><time>2026-08-23T08:44:13Z</time></trkpt><trkpt lat="40.8855091408" lon="-3.6603114009"><ele>1301.28</ele><time>2026-08-23T08:44:14Z</time></trkpt><trkpt lat="40.8854614478" lon="-3.6603233032"><ele>1301.28</ele><time>2026-08-23T08:44:15Z</time></trkpt><trkpt lat="40.8854210470" lon="-3.6603246443"><ele>1300.32</ele><time>2026-08-23T08:44:16Z</time></trkpt><trkpt lat="40.8853818197" lon="-3.6603163462"><ele>1300.32</ele><time>2026-08-23T08:44:17Z</time></trkpt><trkpt lat="40.8853427600" lon="-3.6602971517"><ele>1298.88</ele><time>2026-08-23T08:44:18Z</time></trkpt><trkpt lat="40.8853043709" lon="-3.6602872610"><ele>1298.88</ele><time>2026-08-23T08:44:19Z</time></trkpt><trkpt lat="40.8852673229" lon="-3.6602963135"><ele>1298.88</ele><time>2026-08-23T08:44:20Z</time></trkpt><trkpt lat="40.8852308616" lon="-3.6603186093"><ele>1298.40</ele><time>2026-08-23T08:44:21Z</time></trkpt><trkpt lat="40.8851922210" lon="-3.6603528075"><ele>1297.44</ele><time>2026-08-23T08:44:22Z</time></trkpt><trkpt lat="40.8851586096" lon="-3.6603955552"><ele>1297.92</ele><time>2026-08-23T08:44:23Z</time></trkpt><trkpt lat="40.8851260878" lon="-3.6604479421"><ele>1297.44</ele><time>2026-08-23T08:44:24Z</time></trkpt><trkpt lat="40.8850892913" lon="-3.6605035141"><ele>1296.48</ele><time>2026-08-23T08:44:25Z</time></trkpt><trkpt lat="40.8850436099" lon="-3.6605537217"><ele>1296.48</ele><time>2026-08-23T08:44:26Z</time></trkpt><trkpt lat="40.8849712741" lon="-3.6605900154"><ele>1296.48</ele><time>2026-08-23T08:44:27Z</time></trkpt><trkpt lat="40.8849125169" lon="-3.6605826393"><ele>1295.51</ele><time>2026-08-23T08:44:28Z</time></trkpt><trkpt lat="40.8848760556" lon="-3.6605584156"><ele>1295.51</ele><time>2026-08-23T08:44:29Z</time></trkpt><trkpt lat="40.8848392591" lon="-3.6605114769"><ele>1295.03</ele><time>2026-08-23T08:44:30Z</time></trkpt><trkpt lat="40.8848139457" lon="-3.6604502890"><ele>1294.07</ele><time>2026-08-23T08:44:31Z</time></trkpt><trkpt lat="40.8847920690" lon="-3.6603906937"><ele>1294.07</ele><time>2026-08-23T08:44:32Z</time></trkpt><trkpt lat="40.8847661689" lon="-3.6603385583"><ele>1294.07</ele><time>2026-08-23T08:44:33Z</time></trkpt><trkpt lat="40.8847350720" lon="-3.6603014264"><ele>1294.07</ele><time>2026-08-23T08:44:34Z</time></trkpt><trkpt lat="40.8846991975" lon="-3.6602768674"><ele>1294.07</ele><time>2026-08-23T08:44:35Z</time></trkpt><trkpt lat="40.8846577071" lon="-3.6602581758"><ele>1293.11</ele><time>2026-08-23T08:44:36Z</time></trkpt><trkpt lat="40.8846162166" lon="-3.6602353770"><ele>1292.63</ele><time>2026-08-23T08:44:37Z</time></trkpt><trkpt lat="40.8845760673" lon="-3.6602027714"><ele>1292.15</ele><time>2026-08-23T08:44:38Z</time></trkpt><trkpt lat="40.8845368400" lon="-3.6601664778"><ele>1292.15</ele><time>2026-08-23T08:44:39Z</time></trkpt><trkpt lat="40.8844289649" lon="-3.6600623745"><ele>1291.67</ele><time>2026-08-23T08:44:42Z</time></trkpt><trkpt lat="40.8843935095" lon="-3.6600269191"><ele>1291.67</ele><time>2026-08-23T08:44:43Z</time></trkpt><trkpt lat="40.8843187429" lon="-3.6599634681"><ele>1291.19</ele><time>2026-08-23T08:44:45Z</time></trkpt><trkpt lat="40.8842808567" lon="-3.6599411722"><ele>1291.19</ele><time>2026-08-23T08:44:46Z</time></trkpt><trkpt lat="40.8842044137" lon="-3.6599057168"><ele>1289.75</ele><time>2026-08-23T08:44:48Z</time></trkpt><trkpt lat="40.8841697127" lon="-3.6598799843"><ele>1290.23</ele><time>2026-08-23T08:44:49Z</time></trkpt><trkpt lat="40.8841365203" lon="-3.6598510668"><ele>1290.23</ele><time>2026-08-23T08:44:50Z</time></trkpt><trkpt lat="40.8841051720" lon="-3.6598384939"><ele>1290.23</ele><time>2026-08-23T08:44:51Z</time></trkpt><trkpt lat="40.8840729017" lon="-3.6598379072"><ele>1289.75</ele><time>2026-08-23T08:44:52Z</time></trkpt><trkpt lat="40.8840372786" lon="-3.6598514859"><ele>1289.27</ele><time>2026-08-23T08:44:53Z</time></trkpt><trkpt lat="40.8840133063" lon="-3.6598789785"><ele>1289.27</ele><time>2026-08-23T08:44:55Z</time></trkpt><trkpt lat="40.8839802817" lon="-3.6599286832"><ele>1288.78</ele><time>2026-08-23T08:44:56Z</time></trkpt><trkpt lat="40.8839516155" lon="-3.6599523202"><ele>1288.78</ele><time>2026-08-23T08:44:57Z</time></trkpt><trkpt lat="40.8839175850" lon="-3.6599622108"><ele>1287.82</ele><time>2026-08-23T08:44:58Z</time></trkpt><trkpt lat="40.8838796150" lon="-3.6599560920"><ele>1287.82</ele><time>2026-08-23T08:44:59Z</time></trkpt><trkpt lat="40.8838423993" lon="-3.6599412560"><ele>1287.34</ele><time>2026-08-23T08:45:00Z</time></trkpt><trkpt lat="40.8835275751" lon="-3.6598294415"><ele>1285.90</ele><time>2026-08-23T08:45:10Z</time></trkpt><trkpt lat="40.8834094740" lon="-3.6598934792"><ele>1283.98</ele><time>2026-08-23T08:45:17Z</time></trkpt><trkpt lat="40.8833197039" lon="-3.6599821597"><ele>1280.61</ele><time>2026-08-23T08:45:22Z</time></trkpt><trkpt lat="40.8832352981" lon="-3.6600400787"><ele>1279.17</ele><time>2026-08-23T08:45:25Z</time></trkpt><trkpt lat="40.8831844199" lon="-3.6600682419"><ele>1277.73</ele><time>2026-08-23T08:45:27Z</time></trkpt><trkpt lat="40.8831679914" lon="-3.6600689124"><ele>1277.73</ele><time>2026-08-23T08:45:41Z</time></trkpt><trkpt lat="40.8831588551" lon="-3.6600704212"><ele>1277.73</ele><time>2026-08-23T08:45:44Z</time></trkpt><trkpt lat="40.8831475396" lon="-3.6600681581"><ele>1277.73</ele><time>2026-08-23T08:45:45Z</time></trkpt><trkpt lat="40.8831327036" lon="-3.6600674037"><ele>1277.73</ele><time>2026-08-23T08:45:46Z</time></trkpt><trkpt lat="40.8830829989" lon="-3.6600815691"><ele>1277.73</ele><time>2026-08-23T08:45:56Z</time></trkpt><trkpt lat="40.8830770478" lon="-3.6600953154"><ele>1277.73</ele><time>2026-08-23T08:45:57Z</time></trkpt><trkpt lat="40.8830736112" lon="-3.6601163540"><ele>1277.73</ele><time>2026-08-23T08:45:58Z</time></trkpt><trkpt lat="40.8830705937" lon="-3.6601379793"><ele>1277.25</ele><time>2026-08-23T08:45:59Z</time></trkpt><trkpt lat="40.8830243256" lon="-3.6601886060"><ele>1276.77</ele><time>2026-08-23T08:46:08Z</time></trkpt><trkpt lat="40.8830060530" lon="-3.6602137517"><ele>1276.77</ele><time>2026-08-23T08:46:09Z</time></trkpt><trkpt lat="40.8830012754" lon="-3.6602342874"><ele>1276.77</ele><time>2026-08-23T08:46:10Z</time></trkpt><trkpt lat="40.8829612937" lon="-3.6605332699"><ele>1276.77</ele><time>2026-08-23T08:46:21Z</time></trkpt><trkpt lat="40.8829627186" lon="-3.6605666298"><ele>1275.81</ele><time>2026-08-23T08:46:22Z</time></trkpt><trkpt lat="40.8829730283" lon="-3.6605985649"><ele>1275.33</ele><time>2026-08-23T08:46:23Z</time></trkpt><trkpt lat="40.8829902951" lon="-3.6606196873"><ele>1275.33</ele><time>2026-08-23T08:46:24Z</time></trkpt><trkpt lat="40.8830113336" lon="-3.6606397200"><ele>1274.85</ele><time>2026-08-23T08:46:25Z</time></trkpt><trkpt lat="40.8830564283" lon="-3.6607603356"><ele>1273.88</ele><time>2026-08-23T08:46:31Z</time></trkpt><trkpt lat="40.8830466215" lon="-3.6607786082"><ele>1273.40</ele><time>2026-08-23T08:46:32Z</time></trkpt><trkpt lat="40.8830333780" lon="-3.6608056817"><ele>1272.92</ele><time>2026-08-23T08:46:43Z</time></trkpt><trkpt lat="40.8830373175" lon="-3.6607989762"><ele>1272.92</ele><time>2026-08-23T08:47:12Z</time></trkpt><trkpt lat="40.8829712681" lon="-3.6608551349"><ele>1271.96</ele><time>2026-08-23T08:47:17Z</time></trkpt><trkpt lat="40.8829490561" lon="-3.6608534586"><ele>1271.96</ele><time>2026-08-23T08:47:18Z</time></trkpt><trkpt lat="40.8828793187" lon="-3.6608470045"><ele>1271.48</ele><time>2026-08-23T08:47:21Z</time></trkpt><trkpt lat="40.8828595374" lon="-3.6608588230"><ele>1271.48</ele><time>2026-08-23T08:47:22Z</time></trkpt><trkpt lat="40.8828291111" lon="-3.6608870700"><ele>1270.04</ele><time>2026-08-23T08:47:24Z</time></trkpt><trkpt lat="40.8828229923" lon="-3.6608962063"><ele>1270.04</ele><time>2026-08-23T08:47:25Z</time></trkpt><trkpt lat="40.8827827591" lon="-3.6609291472"><ele>1269.08</ele><time>2026-08-23T08:47:38Z</time></trkpt><trkpt lat="40.8827375807" lon="-3.6609332543"><ele>1268.60</ele><time>2026-08-23T08:47:46Z</time></trkpt><trkpt lat="40.8826821763" lon="-3.6609369423"><ele>1268.60</ele><time>2026-08-23T08:47:53Z</time></trkpt><trkpt lat="40.8826682623" lon="-3.6609477550"><ele>1268.60</ele><time>2026-08-23T08:47:54Z</time></trkpt><trkpt lat="40.8826520853" lon="-3.6609668657"><ele>1268.60</ele><time>2026-08-23T08:47:55Z</time></trkpt><trkpt lat="40.8826266881" lon="-3.6609800253"><ele>1268.60</ele><time>2026-08-23T08:47:56Z</time></trkpt><trkpt lat="40.8825976029" lon="-3.6609794386"><ele>1268.60</ele><time>2026-08-23T08:47:57Z</time></trkpt><trkpt lat="40.8825675957" lon="-3.6609718110"><ele>1268.60</ele><time>2026-08-23T08:47:58Z</time></trkpt><trkpt lat="40.8825387619" lon="-3.6609598249"><ele>1268.60</ele><time>2026-08-23T08:47:59Z</time></trkpt><trkpt lat="40.8824304678" lon="-3.6608582363"><ele>1268.12</ele><time>2026-08-23T08:48:03Z</time></trkpt><trkpt lat="40.8823966887" lon="-3.6608512793"><ele>1268.12</ele><time>2026-08-23T08:48:04Z</time></trkpt><trkpt lat="40.8823623229" lon="-3.6608610861"><ele>1268.12</ele><time>2026-08-23T08:48:05Z</time></trkpt><trkpt lat="40.8823299687" lon="-3.6608809512"><ele>1268.12</ele><time>2026-08-23T08:48:06Z</time></trkpt><trkpt lat="40.8822991233" lon="-3.6609128024"><ele>1268.12</ele><time>2026-08-23T08:48:07Z</time></trkpt><trkpt lat="40.8822695352" lon="-3.6609534547"><ele>1267.64</ele><time>2026-08-23T08:48:08Z</time></trkpt><trkpt lat="40.8821796812" lon="-3.6610287242"><ele>1265.71</ele><time>2026-08-23T08:48:11Z</time></trkpt><trkpt lat="40.8820303995" lon="-3.6611101963"><ele>1263.31</ele><time>2026-08-23T08:48:17Z</time></trkpt><trkpt lat="40.8818891644" lon="-3.6610900797"><ele>1263.31</ele><time>2026-08-23T08:48:24Z</time></trkpt><trkpt lat="40.8818434831" lon="-3.6610677000"><ele>1263.31</ele><time>2026-08-23T08:48:25Z</time></trkpt><trkpt lat="40.8818055969" lon="-3.6610267125"><ele>1263.31</ele><time>2026-08-23T08:48:26Z</time></trkpt><trkpt lat="40.8817791101" lon="-3.6609668657"><ele>1262.83</ele><time>2026-08-23T08:48:27Z</time></trkpt><trkpt lat="40.8817559760" lon="-3.6609123833"><ele>1262.35</ele><time>2026-08-23T08:48:28Z</time></trkpt><trkpt lat="40.8817246277" lon="-3.6608690489"><ele>1261.87</ele><time>2026-08-23T08:48:29Z</time></trkpt><trkpt lat="40.8816812094" lon="-3.6608371139"><ele>1261.87</ele><time>2026-08-23T08:48:30Z</time></trkpt><trkpt lat="40.8816363662" lon="-3.6608188413"><ele>1261.87</ele><time>2026-08-23T08:48:31Z</time></trkpt><trkpt lat="40.8815916907" lon="-3.6608001497"><ele>1261.87</ele><time>2026-08-23T08:48:32Z</time></trkpt><trkpt lat="40.8815037645" lon="-3.6607489362"><ele>1261.87</ele><time>2026-08-23T08:48:34Z</time></trkpt><trkpt lat="40.8814659622" lon="-3.6607124750"><ele>1261.87</ele><time>2026-08-23T08:48:35Z</time></trkpt><trkpt lat="40.8814307582" lon="-3.6606688891"><ele>1261.39</ele><time>2026-08-23T08:48:36Z</time></trkpt><trkpt lat="40.8813971467" lon="-3.6606152449"><ele>1261.39</ele><time>2026-08-23T08:48:37Z</time></trkpt><trkpt lat="40.8813670557" lon="-3.6605555657"><ele>1261.39</ele><time>2026-08-23T08:48:38Z</time></trkpt><trkpt lat="40.8812539838" lon="-3.6603112333"><ele>1261.39</ele><time>2026-08-23T08:48:42Z</time></trkpt><trkpt lat="40.8812353760" lon="-3.6602482013"><ele>1261.39</ele><time>2026-08-23T08:48:43Z</time></trkpt><trkpt lat="40.8812241443" lon="-3.6601842474"><ele>1260.91</ele><time>2026-08-23T08:48:44Z</time></trkpt><trkpt lat="40.8812228870" lon="-3.6601176951"><ele>1260.43</ele><time>2026-08-23T08:48:45Z</time></trkpt><trkpt lat="40.8812316880" lon="-3.6600579321"><ele>1260.43</ele><time>2026-08-23T08:48:46Z</time></trkpt><trkpt lat="40.8812487032" lon="-3.6599995103"><ele>1260.43</ele><time>2026-08-23T08:48:47Z</time></trkpt><trkpt lat="40.8812702447" lon="-3.6599406693"><ele>1260.43</ele><time>2026-08-23T08:48:48Z</time></trkpt><trkpt lat="40.8812872600" lon="-3.6598778050"><ele>1260.43</ele><time>2026-08-23T08:48:49Z</time></trkpt><trkpt lat="40.8812934626" lon="-3.6598247476"><ele>1260.43</ele><time>2026-08-23T08:48:50Z</time></trkpt><trkpt lat="40.8812886849" lon="-3.6597804073"><ele>1259.46</ele><time>2026-08-23T08:48:51Z</time></trkpt><trkpt lat="40.8812827338" lon="-3.6597393360"><ele>1259.46</ele><time>2026-08-23T08:48:52Z</time></trkpt><trkpt lat="40.8812834881" lon="-3.6596962530"><ele>1258.98</ele><time>2026-08-23T08:48:53Z</time></trkpt><trkpt lat="40.8812872600" lon="-3.6596604623"><ele>1258.98</ele><time>2026-08-23T08:48:54Z</time></trkpt><trkpt lat="40.8812892716" lon="-3.6596120987"><ele>1258.50</ele><time>2026-08-23T08:49:03Z</time></trkpt><trkpt lat="40.8812730107" lon="-3.6595724523"><ele>1258.50</ele><time>2026-08-23T08:49:08Z</time></trkpt><trkpt lat="40.8812671434" lon="-3.6595530901"><ele>1258.50</ele><time>2026-08-23T08:49:09Z</time></trkpt><trkpt lat="40.8812613599" lon="-3.6595310457"><ele>1258.50</ele><time>2026-08-23T08:49:10Z</time></trkpt><trkpt lat="40.8811513055" lon="-3.6591640022"><ele>1258.50</ele><time>2026-08-23T08:49:21Z</time></trkpt><trkpt lat="40.8811214659" lon="-3.6591016408"><ele>1258.50</ele><time>2026-08-23T08:49:32Z</time></trkpt><trkpt lat="40.8810731862" lon="-3.6590528581"><ele>1258.50</ele><time>2026-08-23T08:49:35Z</time></trkpt><trkpt lat="40.8810457774" lon="-3.6590407882"><ele>1258.50</ele><time>2026-08-23T08:49:36Z</time></trkpt><trkpt lat="40.8810158540" lon="-3.6590272095"><ele>1258.50</ele><time>2026-08-23T08:49:37Z</time></trkpt><trkpt lat="40.8809893671" lon="-3.6590106972"><ele>1258.50</ele><time>2026-08-23T08:49:38Z</time></trkpt><trkpt lat="40.8809648920" lon="-3.6589972861"><ele>1258.50</ele><time>2026-08-23T08:49:39Z</time></trkpt><trkpt lat="40.8809397463" lon="-3.6589946039"><ele>1258.50</ele><time>2026-08-23T08:49:40Z</time></trkpt><trkpt lat="40.8809130918" lon="-3.6589971185"><ele>1258.50</ele><time>2026-08-23T08:49:41Z</time></trkpt><trkpt lat="40.8808817435" lon="-3.6589985434"><ele>1258.50</ele><time>2026-08-23T08:49:42Z</time></trkpt><trkpt lat="40.8808449470" lon="-3.6589896586"><ele>1258.50</ele><time>2026-08-23T08:49:43Z</time></trkpt><trkpt lat="40.8808118384" lon="-3.6589728110"><ele>1258.50</ele><time>2026-08-23T08:49:44Z</time></trkpt><trkpt lat="40.8807833400" lon="-3.6589539517"><ele>1258.50</ele><time>2026-08-23T08:49:45Z</time></trkpt><trkpt lat="40.8805264346" lon="-3.6589601543"><ele>1258.50</ele><time>2026-08-23T08:49:54Z</time></trkpt><trkpt lat="40.8803956769" lon="-3.6590256169"><ele>1258.50</ele><time>2026-08-23T08:49:58Z</time></trkpt><trkpt lat="40.8803603891" lon="-3.6590313166"><ele>1258.50</ele><time>2026-08-23T08:49:59Z</time></trkpt><trkpt lat="40.8800941799" lon="-3.6590482481"><ele>1257.06</ele><time>2026-08-23T08:50:11Z</time></trkpt><trkpt lat="40.8799283858" lon="-3.6590726394"><ele>1257.06</ele><time>2026-08-23T08:50:23Z</time></trkpt><trkpt lat="40.8795299940" lon="-3.6590165645"><ele>1257.54</ele><time>2026-08-23T08:50:35Z</time></trkpt><trkpt lat="40.8793594223" lon="-3.6589033250"><ele>1257.06</ele><time>2026-08-23T08:50:43Z</time></trkpt><trkpt lat="40.8791459352" lon="-3.6589075997"><ele>1257.54</ele><time>2026-08-23T08:50:54Z</time></trkpt><trkpt lat="40.8791306801" lon="-3.6589112040"><ele>1257.54</ele><time>2026-08-23T08:50:55Z</time></trkpt><trkpt lat="40.8788741939" lon="-3.6589031573"><ele>1257.54</ele><time>2026-08-23T08:51:06Z</time></trkpt><trkpt lat="40.8787692524" lon="-3.6588770058"><ele>1257.54</ele><time>2026-08-23T08:51:11Z</time></trkpt><trkpt lat="40.8787447773" lon="-3.6588977091"><ele>1257.06</ele><time>2026-08-23T08:51:12Z</time></trkpt><trkpt lat="40.8787398320" lon="-3.6589091923"><ele>1256.10</ele><time>2026-08-23T08:51:13Z</time></trkpt><trkpt lat="40.8787383232" lon="-3.6589350924"><ele>1256.10</ele><time>2026-08-23T08:51:14Z</time></trkpt><trkpt lat="40.8787435200" lon="-3.6589662731"><ele>1255.62</ele><time>2026-08-23T08:51:15Z</time></trkpt><trkpt lat="40.8787426818" lon="-3.6589988787"><ele>1255.62</ele><time>2026-08-23T08:51:16Z</time></trkpt><trkpt lat="40.8787323721" lon="-3.6590285506"><ele>1255.62</ele><time>2026-08-23T08:51:17Z</time></trkpt><trkpt lat="40.8787177876" lon="-3.6590491701"><ele>1255.62</ele><time>2026-08-23T08:51:18Z</time></trkpt><trkpt lat="40.8787001017" lon="-3.6590656824"><ele>1255.62</ele><time>2026-08-23T08:51:19Z</time></trkpt><trkpt lat="40.8786788955" lon="-3.6590772495"><ele>1255.14</ele><time>2026-08-23T08:51:20Z</time></trkpt><trkpt lat="40.8786548395" lon="-3.6590842903"><ele>1255.14</ele><time>2026-08-23T08:51:21Z</time></trkpt><trkpt lat="40.8786249999" lon="-3.6590942647"><ele>1255.14</ele><time>2026-08-23T08:51:22Z</time></trkpt><trkpt lat="40.8785203937" lon="-3.6591742281"><ele>1255.14</ele><time>2026-08-23T08:51:27Z</time></trkpt><trkpt lat="40.8785211481" lon="-3.6592298001"><ele>1255.14</ele><time>2026-08-23T08:51:29Z</time></trkpt><trkpt lat="40.8785066474" lon="-3.6592833605"><ele>1254.66</ele><time>2026-08-23T08:51:30Z</time></trkpt><trkpt lat="40.8784947451" lon="-3.6593235936"><ele>1253.70</ele><time>2026-08-23T08:51:31Z</time></trkpt><trkpt lat="40.8784866147" lon="-3.6593687721"><ele>1253.70</ele><time>2026-08-23T08:51:32Z</time></trkpt><trkpt lat="40.8784806635" lon="-3.6594142858"><ele>1253.22</ele><time>2026-08-23T08:51:33Z</time></trkpt><trkpt lat="40.8784768917" lon="-3.6594605539"><ele>1253.22</ele><time>2026-08-23T08:51:34Z</time></trkpt><trkpt lat="40.8784834296" lon="-3.6597440299"><ele>1250.81</ele><time>2026-08-23T08:51:44Z</time></trkpt><trkpt lat="40.8784733713" lon="-3.6597663257"><ele>1250.81</ele><time>2026-08-23T08:51:45Z</time></trkpt><trkpt lat="40.8784557693" lon="-3.6597789824"><ele>1249.37</ele><time>2026-08-23T08:51:55Z</time></trkpt><trkpt lat="40.8784326352" lon="-3.6597849336"><ele>1249.37</ele><time>2026-08-23T08:52:07Z</time></trkpt><trkpt lat="40.8784138598" lon="-3.6597877834"><ele>1249.37</ele><time>2026-08-23T08:52:09Z</time></trkpt><trkpt lat="40.8783990238" lon="-3.6597885378"><ele>1249.37</ele><time>2026-08-23T08:52:10Z</time></trkpt><trkpt lat="40.8782768995" lon="-3.6597788148"><ele>1248.41</ele><time>2026-08-23T08:52:24Z</time></trkpt><trkpt lat="40.8782238420" lon="-3.6597959138"><ele>1247.93</ele><time>2026-08-23T08:52:34Z</time></trkpt><trkpt lat="40.8782199025" lon="-3.6598019488"><ele>1247.93</ele><time>2026-08-23T08:52:35Z</time></trkpt><trkpt lat="40.8782076649" lon="-3.6598225683"><ele>1247.93</ele><time>2026-08-23T08:52:51Z</time></trkpt><trkpt lat="40.8780966047" lon="-3.6600029469"><ele>1246.97</ele><time>2026-08-23T08:53:05Z</time></trkpt><trkpt lat="40.8780788351" lon="-3.6600333732"><ele>1246.97</ele><time>2026-08-23T08:53:06Z</time></trkpt><trkpt lat="40.8780555334" lon="-3.6600492988"><ele>1246.97</ele><time>2026-08-23T08:53:07Z</time></trkpt><trkpt lat="40.8780312259" lon="-3.6600665655"><ele>1246.97</ele><time>2026-08-23T08:53:08Z</time></trkpt><trkpt lat="40.8780050743" lon="-3.6600845028"><ele>1246.49</ele><time>2026-08-23T08:53:09Z</time></trkpt><trkpt lat="40.8779795934" lon="-3.6600936390"><ele>1246.49</ele><time>2026-08-23T08:53:10Z</time></trkpt><trkpt lat="40.8779507596" lon="-3.6601010989"><ele>1246.49</ele><time>2026-08-23T08:53:11Z</time></trkpt><trkpt lat="40.8778554574" lon="-3.6601333693"><ele>1245.53</ele><time>2026-08-23T08:53:14Z</time></trkpt><trkpt lat="40.8778399508" lon="-3.6601593532"><ele>1245.53</ele><time>2026-08-23T08:53:15Z</time></trkpt><trkpt lat="40.8778324910" lon="-3.6601922940"><ele>1245.53</ele><time>2026-08-23T08:53:16Z</time></trkpt><trkpt lat="40.8778322395" lon="-3.6602221336"><ele>1245.53</ele><time>2026-08-23T08:53:17Z</time></trkpt><trkpt lat="40.8778372686" lon="-3.6602445971"><ele>1245.53</ele><time>2026-08-23T08:53:18Z</time></trkpt><trkpt lat="40.8778472431" lon="-3.6602731794"><ele>1245.53</ele><time>2026-08-23T08:53:19Z</time></trkpt><trkpt lat="40.8779034857" lon="-3.6605307553"><ele>1245.04</ele><time>2026-08-23T08:53:28Z</time></trkpt><trkpt lat="40.8778855484" lon="-3.6610003933"><ele>1241.68</ele><time>2026-08-23T08:53:38Z</time></trkpt><trkpt lat="40.8778986242" lon="-3.6610339209"><ele>1241.68</ele><time>2026-08-23T08:53:39Z</time></trkpt><trkpt lat="40.8779199142" lon="-3.6610785965"><ele>1241.20</ele><time>2026-08-23T08:53:40Z</time></trkpt><trkpt lat="40.8779614046" lon="-3.6611769162"><ele>1240.72</ele><time>2026-08-23T08:53:42Z</time></trkpt><trkpt lat="40.8779812697" lon="-3.6612329911"><ele>1240.24</ele><time>2026-08-23T08:53:43Z</time></trkpt><trkpt lat="40.8781218342" lon="-3.6615416966"><ele>1238.32</ele><time>2026-08-23T08:53:51Z</time></trkpt><trkpt lat="40.8782007080" lon="-3.6616442911"><ele>1237.35</ele><time>2026-08-23T08:53:55Z</time></trkpt><trkpt lat="40.8781908173" lon="-3.6616261862"><ele>1237.83</ele><time>2026-08-23T08:54:11Z</time></trkpt><trkpt lat="40.8781757299" lon="-3.6616214085"><ele>1237.35</ele><time>2026-08-23T08:54:29Z</time></trkpt><trkpt lat="40.8781990316" lon="-3.6616532598"><ele>1237.35</ele><time>2026-08-23T08:54:37Z</time></trkpt><trkpt lat="40.8782105148" lon="-3.6616726220"><ele>1237.35</ele><time>2026-08-23T08:54:38Z</time></trkpt><trkpt lat="40.8784709405" lon="-3.6618499830"><ele>1237.35</ele><time>2026-08-23T08:54:47Z</time></trkpt><trkpt lat="40.8788171131" lon="-3.6620021984"><ele>1237.35</ele><time>2026-08-23T08:54:57Z</time></trkpt><trkpt lat="40.8791959751" lon="-3.6620544177"><ele>1238.80</ele><time>2026-08-23T08:55:08Z</time></trkpt><trkpt lat="40.8795354422" lon="-3.6622933857"><ele>1241.68</ele><time>2026-08-23T08:55:19Z</time></trkpt><trkpt lat="40.8798074350" lon="-3.6625852436"><ele>1243.60</ele><time>2026-08-23T08:55:29Z</time></trkpt><trkpt lat="40.8798902482" lon="-3.6627108045"><ele>1244.08</ele><time>2026-08-23T08:55:32Z</time></trkpt><trkpt lat="40.8799179923" lon="-3.6627556477"><ele>1244.08</ele><time>2026-08-23T08:55:33Z</time></trkpt><trkpt lat="40.8802662604" lon="-3.6630783509"><ele>1245.53</ele><time>2026-08-23T08:55:45Z</time></trkpt><trkpt lat="40.8806568570" lon="-3.6633583903"><ele>1248.89</ele><time>2026-08-23T08:55:58Z</time></trkpt><trkpt lat="40.8806820866" lon="-3.6633866373"><ele>1248.89</ele><time>2026-08-23T08:55:59Z</time></trkpt><trkpt lat="40.8807058912" lon="-3.6634177342"><ele>1249.37</ele><time>2026-08-23T08:56:00Z</time></trkpt><trkpt lat="40.8807273488" lon="-3.6634467356"><ele>1249.85</ele><time>2026-08-23T08:56:01Z</time></trkpt><trkpt lat="40.8810026105" lon="-3.6636069976"><ele>1253.70</ele><time>2026-08-23T08:56:13Z</time></trkpt><trkpt lat="40.8813579194" lon="-3.6638216581"><ele>1256.58</ele><time>2026-08-23T08:56:24Z</time></trkpt><trkpt lat="40.8814482763" lon="-3.6638812535"><ele>1258.02</ele><time>2026-08-23T08:56:27Z</time></trkpt><trkpt lat="40.8814744279" lon="-3.6639023758"><ele>1258.50</ele><time>2026-08-23T08:56:28Z</time></trkpt><trkpt lat="40.8815041836" lon="-3.6639329698"><ele>1258.50</ele><time>2026-08-23T08:56:29Z</time></trkpt><trkpt lat="40.8815724961" lon="-3.6639887094"><ele>1258.98</ele><time>2026-08-23T08:56:31Z</time></trkpt><trkpt lat="40.8816496935" lon="-3.6640410963"><ele>1258.98</ele><time>2026-08-23T08:56:33Z</time></trkpt><trkpt lat="40.8816837240" lon="-3.6640654877"><ele>1258.98</ele><time>2026-08-23T08:56:34Z</time></trkpt><trkpt lat="40.8817847259" lon="-3.6641483009"><ele>1259.94</ele><time>2026-08-23T08:56:37Z</time></trkpt><trkpt lat="40.8818283118" lon="-3.6641951557"><ele>1259.94</ele><time>2026-08-23T08:56:38Z</time></trkpt><trkpt lat="40.8819321636" lon="-3.6642984208"><ele>1259.94</ele><time>2026-08-23T08:56:41Z</time></trkpt><trkpt lat="40.8819656912" lon="-3.6643210519"><ele>1259.94</ele><time>2026-08-23T08:56:42Z</time></trkpt><trkpt lat="40.8819990512" lon="-3.6643375643"><ele>1260.43</ele><time>2026-08-23T08:56:43Z</time></trkpt><trkpt lat="40.8822412882" lon="-3.6643308587"><ele>1261.39</ele><time>2026-08-23T08:56:51Z</time></trkpt><trkpt lat="40.8823055774" lon="-3.6643679906"><ele>1261.87</ele><time>2026-08-23T08:56:54Z</time></trkpt><trkpt lat="40.8823163062" lon="-3.6644031946"><ele>1262.83</ele><time>2026-08-23T08:56:56Z</time></trkpt><trkpt lat="40.8823237661" lon="-3.6644405778"><ele>1262.35</ele><time>2026-08-23T08:56:57Z</time></trkpt><trkpt lat="40.8823318966" lon="-3.6644637957"><ele>1262.35</ele><time>2026-08-23T08:56:58Z</time></trkpt><trkpt lat="40.8823374286" lon="-3.6644842476"><ele>1262.35</ele><time>2026-08-23T08:56:59Z</time></trkpt><trkpt lat="40.8823342435" lon="-3.6645086389"><ele>1262.35</ele><time>2026-08-23T08:57:00Z</time></trkpt><trkpt lat="40.8823276218" lon="-3.6645303480"><ele>1262.35</ele><time>2026-08-23T08:57:01Z</time></trkpt><trkpt lat="40.8823243529" lon="-3.6645490397"><ele>1262.35</ele><time>2026-08-23T08:57:02Z</time></trkpt><trkpt lat="40.8823176473" lon="-3.6645741854"><ele>1262.35</ele><time>2026-08-23T08:57:03Z</time></trkpt><trkpt lat="40.8820405416" lon="-3.6648474354"><ele>1263.31</ele><time>2026-08-23T08:57:12Z</time></trkpt><trkpt lat="40.8816733304" lon="-3.6652958672"><ele>1259.94</ele><time>2026-08-23T08:57:21Z</time></trkpt><trkpt lat="40.8814383019" lon="-3.6657187343"><ele>1256.58</ele><time>2026-08-23T08:57:27Z</time></trkpt><trkpt lat="40.8812371362" lon="-3.6660525855"><ele>1254.66</ele><time>2026-08-23T08:57:31Z</time></trkpt><trkpt lat="40.8811611962" lon="-3.6661079898"><ele>1253.70</ele><time>2026-08-23T08:57:32Z</time></trkpt><trkpt lat="40.8810766228" lon="-3.6661364045"><ele>1253.70</ele><time>2026-08-23T08:57:33Z</time></trkpt><trkpt lat="40.8807421010" lon="-3.6661930662"><ele>1251.77</ele><time>2026-08-23T08:57:37Z</time></trkpt><trkpt lat="40.8806672506" lon="-3.6662184633"><ele>1251.77</ele><time>2026-08-23T08:57:38Z</time></trkpt><trkpt lat="40.8805967588" lon="-3.6662607081"><ele>1250.81</ele><time>2026-08-23T08:57:39Z</time></trkpt><trkpt lat="40.8805343974" lon="-3.6663151905"><ele>1250.33</ele><time>2026-08-23T08:57:40Z</time></trkpt><trkpt lat="40.8804781549" lon="-3.6663765460"><ele>1250.33</ele><time>2026-08-23T08:57:41Z</time></trkpt><trkpt lat="40.8802258596" lon="-3.6667282507"><ele>1247.93</ele><time>2026-08-23T08:57:46Z</time></trkpt><trkpt lat="40.8800144680" lon="-3.6669999920"><ele>1246.97</ele><time>2026-08-23T08:57:50Z</time></trkpt><trkpt lat="40.8798777591" lon="-3.6671200208"><ele>1245.53</ele><time>2026-08-23T08:57:52Z</time></trkpt><trkpt lat="40.8798112068" lon="-3.6671842262"><ele>1245.53</ele><time>2026-08-23T08:57:53Z</time></trkpt><trkpt lat="40.8797408827" lon="-3.6672384571"><ele>1245.04</ele><time>2026-08-23T08:57:54Z</time></trkpt><trkpt lat="40.8796619251" lon="-3.6672784388"><ele>1245.04</ele><time>2026-08-23T08:57:55Z</time></trkpt><trkpt lat="40.8795824647" lon="-3.6673060153"><ele>1244.56</ele><time>2026-08-23T08:57:56Z</time></trkpt><trkpt lat="40.8795009088" lon="-3.6673241202"><ele>1244.08</ele><time>2026-08-23T08:57:57Z</time></trkpt><trkpt lat="40.8794165868" lon="-3.6673414707"><ele>1244.08</ele><time>2026-08-23T08:57:58Z</time></trkpt><trkpt lat="40.8791922033" lon="-3.6674019881"><ele>1241.68</ele><time>2026-08-23T08:58:01Z</time></trkpt><trkpt lat="40.8788928855" lon="-3.6674837116"><ele>1236.39</ele><time>2026-08-23T08:58:05Z</time></trkpt><trkpt lat="40.8788312785" lon="-3.6674970388"><ele>1236.39</ele><time>2026-08-23T08:58:06Z</time></trkpt><trkpt lat="40.8787763771" lon="-3.6675150599"><ele>1235.43</ele><time>2026-08-23T08:58:07Z</time></trkpt><trkpt lat="40.8787148539" lon="-3.6675486714"><ele>1234.47</ele><time>2026-08-23T08:58:08Z</time></trkpt><trkpt lat="40.8785845153" lon="-3.6676633358"><ele>1233.51</ele><time>2026-08-23T08:58:11Z</time></trkpt><trkpt lat="40.8785501495" lon="-3.6676864699"><ele>1233.51</ele><time>2026-08-23T08:58:12Z</time></trkpt><trkpt lat="40.8784768078" lon="-3.6677412875"><ele>1233.51</ele><time>2026-08-23T08:58:14Z</time></trkpt><trkpt lat="40.8782476466" lon="-3.6679891404"><ele>1234.95</ele><time>2026-08-23T08:58:23Z</time></trkpt><trkpt lat="40.8781755622" lon="-3.6681418587"><ele>1235.43</ele><time>2026-08-23T08:58:36Z</time></trkpt><trkpt lat="40.8781746402" lon="-3.6681567784"><ele>1235.43</ele><time>2026-08-23T08:59:10Z</time></trkpt><trkpt lat="40.8781603072" lon="-3.6681717820"><ele>1235.43</ele><time>2026-08-23T08:59:31Z</time></trkpt><trkpt lat="40.8781582117" lon="-3.6681726202"><ele>1235.43</ele><time>2026-08-23T09:00:05Z</time></trkpt><trkpt lat="40.8781593014" lon="-3.6681559402"><ele>1235.91</ele><time>2026-08-23T09:00:43Z</time></trkpt><trkpt lat="40.8781666774" lon="-3.6681574490"><ele>1235.91</ele><time>2026-08-23T09:01:26Z</time></trkpt><trkpt lat="40.8781857044" lon="-3.6681139469"><ele>1235.91</ele><time>2026-08-23T09:01:36Z</time></trkpt><trkpt lat="40.8782092575" lon="-3.6680623144"><ele>1235.91</ele><time>2026-08-23T09:01:38Z</time></trkpt><trkpt lat="40.8783276100" lon="-3.6678984482"><ele>1235.91</ele><time>2026-08-23T09:01:43Z</time></trkpt><trkpt lat="40.8784844354" lon="-3.6677530222"><ele>1234.47</ele><time>2026-08-23T09:01:47Z</time></trkpt><trkpt lat="40.8785260934" lon="-3.6677252781"><ele>1234.47</ele><time>2026-08-23T09:01:48Z</time></trkpt><trkpt lat="40.8786505647" lon="-3.6676105298"><ele>1233.03</ele><time>2026-08-23T09:01:52Z</time></trkpt><trkpt lat="40.8786414284" lon="-3.6675767507"><ele>1233.03</ele><time>2026-08-23T09:01:53Z</time></trkpt><trkpt lat="40.8786167018" lon="-3.6675543711"><ele>1232.55</ele><time>2026-08-23T09:01:54Z</time></trkpt><trkpt lat="40.8785659913" lon="-3.6675417982"><ele>1232.07</ele><time>2026-08-23T09:01:56Z</time></trkpt><trkpt lat="40.8785206452" lon="-3.6675593164"><ele>1232.07</ele><time>2026-08-23T09:01:57Z</time></trkpt><trkpt lat="40.8784774784" lon="-3.6675793491"><ele>1231.59</ele><time>2026-08-23T09:01:58Z</time></trkpt><trkpt lat="40.8784278575" lon="-3.6676001363"><ele>1231.59</ele><time>2026-08-23T09:01:59Z</time></trkpt><trkpt lat="40.8783778176" lon="-3.6676124576"><ele>1231.59</ele><time>2026-08-23T09:02:00Z</time></trkpt><trkpt lat="40.8782748878" lon="-3.6676231865"><ele>1231.11</ele><time>2026-08-23T09:02:02Z</time></trkpt><trkpt lat="40.8782213274" lon="-3.6676122062"><ele>1230.62</ele><time>2026-08-23T09:02:03Z</time></trkpt><trkpt lat="40.8781709522" lon="-3.6675929278"><ele>1229.66</ele><time>2026-08-23T09:02:04Z</time></trkpt><trkpt lat="40.8781237621" lon="-3.6675622500"><ele>1230.14</ele><time>2026-08-23T09:02:05Z</time></trkpt><trkpt lat="40.8780782484" lon="-3.6675182451"><ele>1229.66</ele><time>2026-08-23T09:02:06Z</time></trkpt><trkpt lat="40.8780386858" lon="-3.6674680375"><ele>1229.18</ele><time>2026-08-23T09:02:07Z</time></trkpt><trkpt lat="40.8780028112" lon="-3.6674063466"><ele>1228.70</ele><time>2026-08-23T09:02:08Z</time></trkpt><trkpt lat="40.8779717144" lon="-3.6673239525"><ele>1227.26</ele><time>2026-08-23T09:02:09Z</time></trkpt><trkpt lat="40.8779476583" lon="-3.6672579870"><ele>1226.78</ele><time>2026-08-23T09:02:10Z</time></trkpt><trkpt lat="40.8779159747" lon="-3.6671854835"><ele>1225.82</ele><time>2026-08-23T09:02:11Z</time></trkpt><trkpt lat="40.8778746519" lon="-3.6671224516"><ele>1224.86</ele><time>2026-08-23T09:02:12Z</time></trkpt><trkpt lat="40.8778353408" lon="-3.6670821346"><ele>1223.90</ele><time>2026-08-23T09:02:13Z</time></trkpt><trkpt lat="40.8777855523" lon="-3.6670536362"><ele>1223.90</ele><time>2026-08-23T09:02:14Z</time></trkpt><trkpt lat="40.8777334169" lon="-3.6670403089"><ele>1223.90</ele><time>2026-08-23T09:02:15Z</time></trkpt><trkpt lat="40.8776743244" lon="-3.6670394707"><ele>1223.42</ele><time>2026-08-23T09:02:16Z</time></trkpt><trkpt lat="40.8776153997" lon="-3.6670480203"><ele>1222.45</ele><time>2026-08-23T09:02:17Z</time></trkpt><trkpt lat="40.8775590733" lon="-3.6670724116"><ele>1221.97</ele><time>2026-08-23T09:02:18Z</time></trkpt><trkpt lat="40.8775024116" lon="-3.6671122257"><ele>1221.01</ele><time>2026-08-23T09:02:19Z</time></trkpt><trkpt lat="40.8774449956" lon="-3.6671623494"><ele>1220.05</ele><time>2026-08-23T09:02:20Z</time></trkpt><trkpt lat="40.8773905132" lon="-3.6672024149"><ele>1219.57</ele><time>2026-08-23T09:02:21Z</time></trkpt><trkpt lat="40.8773372043" lon="-3.6672262195"><ele>1218.61</ele><time>2026-08-23T09:02:22Z</time></trkpt><trkpt lat="40.8772704005" lon="-3.6672396306"><ele>1217.65</ele><time>2026-08-23T09:02:23Z</time></trkpt><trkpt lat="40.8772126492" lon="-3.6672373675"><ele>1217.65</ele><time>2026-08-23T09:02:24Z</time></trkpt><trkpt lat="40.8771532215" lon="-3.6672278959"><ele>1217.65</ele><time>2026-08-23T09:02:25Z</time></trkpt><trkpt lat="40.8768667281" lon="-3.6671989784"><ele>1213.80</ele><time>2026-08-23T09:02:29Z</time></trkpt><trkpt lat="40.8767907042" lon="-3.6671921052"><ele>1213.80</ele><time>2026-08-23T09:02:30Z</time></trkpt><trkpt lat="40.8765641414" lon="-3.6671849806"><ele>1209.96</ele><time>2026-08-23T09:02:33Z</time></trkpt><trkpt lat="40.8765033726" lon="-3.6671763472"><ele>1208.03</ele><time>2026-08-23T09:02:34Z</time></trkpt><trkpt lat="40.8764621336" lon="-3.6671491899"><ele>1206.11</ele><time>2026-08-23T09:02:35Z</time></trkpt><trkpt lat="40.8764276002" lon="-3.6670782790"><ele>1203.71</ele><time>2026-08-23T09:02:36Z</time></trkpt><trkpt lat="40.8764187153" lon="-3.6670020036"><ele>1203.71</ele><time>2026-08-23T09:02:37Z</time></trkpt><trkpt lat="40.8764184639" lon="-3.6669395585"><ele>1203.23</ele><time>2026-08-23T09:02:38Z</time></trkpt><trkpt lat="40.8764188830" lon="-3.6668761913"><ele>1202.75</ele><time>2026-08-23T09:02:39Z</time></trkpt><trkpt lat="40.8764173742" lon="-3.6668159254"><ele>1201.30</ele><time>2026-08-23T09:02:40Z</time></trkpt><trkpt lat="40.8764076512" lon="-3.6667745188"><ele>1200.34</ele><time>2026-08-23T09:02:41Z</time></trkpt><trkpt lat="40.8763813321" lon="-3.6667314358"><ele>1200.34</ele><time>2026-08-23T09:02:42Z</time></trkpt><trkpt lat="40.8763601258" lon="-3.6667100620"><ele>1199.86</ele><time>2026-08-23T09:02:43Z</time></trkpt><trkpt lat="40.8763384167" lon="-3.6666947231"><ele>1199.38</ele><time>2026-08-23T09:02:44Z</time></trkpt><trkpt lat="40.8763025422" lon="-3.6666638777"><ele>1197.94</ele><time>2026-08-23T09:02:45Z</time></trkpt><trkpt lat="40.8762721159" lon="-3.6666303501"><ele>1198.42</ele><time>2026-08-23T09:02:47Z</time></trkpt><trkpt lat="40.8761919849" lon="-3.6665424239"><ele>1197.46</ele><time>2026-08-23T09:02:49Z</time></trkpt><trkpt lat="40.8761551045" lon="-3.6665160209"><ele>1197.46</ele><time>2026-08-23T09:02:50Z</time></trkpt><trkpt lat="40.8761236724" lon="-3.6664914619"><ele>1196.02</ele><time>2026-08-23T09:02:51Z</time></trkpt><trkpt lat="40.8760976885" lon="-3.6664656457"><ele>1194.58</ele><time>2026-08-23T09:02:52Z</time></trkpt><trkpt lat="40.8760746382" lon="-3.6664430983"><ele>1194.09</ele><time>2026-08-23T09:02:53Z</time></trkpt><trkpt lat="40.8760506660" lon="-3.6664106604"><ele>1193.61</ele><time>2026-08-23T09:02:54Z</time></trkpt><trkpt lat="40.8760294598" lon="-3.6663669068"><ele>1193.61</ele><time>2026-08-23T09:02:55Z</time></trkpt><trkpt lat="40.8760110196" lon="-3.6663164478"><ele>1193.13</ele><time>2026-08-23T09:02:56Z</time></trkpt><trkpt lat="40.8759952616" lon="-3.6662483867"><ele>1192.17</ele><time>2026-08-23T09:02:57Z</time></trkpt><trkpt lat="40.8759720437" lon="-3.6661809962"><ele>1191.69</ele><time>2026-08-23T09:02:58Z</time></trkpt><trkpt lat="40.8759560343" lon="-3.6661582813"><ele>1191.21</ele><time>2026-08-23T09:02:59Z</time></trkpt><trkpt lat="40.8759163041" lon="-3.6661190540"><ele>1191.21</ele><time>2026-08-23T09:03:00Z</time></trkpt><trkpt lat="40.8758738916" lon="-3.6660856940"><ele>1190.73</ele><time>2026-08-23T09:03:01Z</time></trkpt><trkpt lat="40.8758302219" lon="-3.6660439521"><ele>1189.29</ele><time>2026-08-23T09:03:02Z</time></trkpt><trkpt lat="40.8757867198" lon="-3.6659986060"><ele>1187.85</ele><time>2026-08-23T09:03:03Z</time></trkpt><trkpt lat="40.8756141365" lon="-3.6658184789"><ele>1184.96</ele><time>2026-08-23T09:03:07Z</time></trkpt><trkpt lat="40.8755448181" lon="-3.6657464784"><ele>1183.52</ele><time>2026-08-23T09:03:09Z</time></trkpt><trkpt lat="40.8755101170" lon="-3.6657048203"><ele>1182.56</ele><time>2026-08-23T09:03:10Z</time></trkpt><trkpt lat="40.8754568081" lon="-3.6656126194"><ele>1182.08</ele><time>2026-08-23T09:03:12Z</time></trkpt><trkpt lat="40.8753495198" lon="-3.6654439755"><ele>1179.19</ele><time>2026-08-23T09:03:14Z</time></trkpt><trkpt lat="40.8753086161" lon="-3.6654096935"><ele>1178.71</ele><time>2026-08-23T09:03:15Z</time></trkpt><trkpt lat="40.8752530441" lon="-3.6653844640"><ele>1177.75</ele><time>2026-08-23T09:03:16Z</time></trkpt><trkpt lat="40.8751750086" lon="-3.6653791834"><ele>1176.79</ele><time>2026-08-23T09:03:17Z</time></trkpt><trkpt lat="40.8751172572" lon="-3.6653896607"><ele>1176.31</ele><time>2026-08-23T09:03:18Z</time></trkpt><trkpt lat="40.8750608470" lon="-3.6653885711"><ele>1175.35</ele><time>2026-08-23T09:03:19Z</time></trkpt><trkpt lat="40.8749758545" lon="-3.6653544568"><ele>1173.91</ele><time>2026-08-23T09:03:20Z</time></trkpt><trkpt lat="40.8749176003" lon="-3.6653063446"><ele>1173.43</ele><time>2026-08-23T09:03:21Z</time></trkpt><trkpt lat="40.8748751041" lon="-3.6652640160"><ele>1172.95</ele><time>2026-08-23T09:03:22Z</time></trkpt><trkpt lat="40.8748310152" lon="-3.6652117129"><ele>1171.50</ele><time>2026-08-23T09:03:23Z</time></trkpt><trkpt lat="40.8747911174" lon="-3.6651567277"><ele>1170.54</ele><time>2026-08-23T09:03:24Z</time></trkpt><trkpt lat="40.8747598529" lon="-3.6651040893"><ele>1169.58</ele><time>2026-08-23T09:03:25Z</time></trkpt><trkpt lat="40.8747364674" lon="-3.6650532950"><ele>1169.10</ele><time>2026-08-23T09:03:26Z</time></trkpt><trkpt lat="40.8747228887" lon="-3.6650026683"><ele>1169.10</ele><time>2026-08-23T09:03:27Z</time></trkpt><trkpt lat="40.8747228049" lon="-3.6649406422"><ele>1168.14</ele><time>2026-08-23T09:03:28Z</time></trkpt><trkpt lat="40.8747262415" lon="-3.6648988165"><ele>1167.66</ele><time>2026-08-23T09:03:29Z</time></trkpt><trkpt lat="40.8747347910" lon="-3.6648565717"><ele>1167.66</ele><time>2026-08-23T09:03:30Z</time></trkpt><trkpt lat="40.8747445140" lon="-3.6648152489"><ele>1166.70</ele><time>2026-08-23T09:03:31Z</time></trkpt><trkpt lat="40.8747476991" lon="-3.6647725012"><ele>1166.70</ele><time>2026-08-23T09:03:32Z</time></trkpt><trkpt lat="40.8747446816" lon="-3.6647282448"><ele>1166.22</ele><time>2026-08-23T09:03:33Z</time></trkpt><trkpt lat="40.8747352101" lon="-3.6646806356"><ele>1166.22</ele><time>2026-08-23T09:03:34Z</time></trkpt><trkpt lat="40.8747176081" lon="-3.6646365467"><ele>1164.77</ele><time>2026-08-23T09:03:35Z</time></trkpt><trkpt lat="40.8746808954" lon="-3.6645949725"><ele>1163.81</ele><time>2026-08-23T09:03:36Z</time></trkpt><trkpt lat="40.8746547438" lon="-3.6645824835"><ele>1163.81</ele><time>2026-08-23T09:03:37Z</time></trkpt><trkpt lat="40.8745040372" lon="-3.6645756103"><ele>1161.41</ele><time>2026-08-23T09:03:47Z</time></trkpt><trkpt lat="40.8745257463" lon="-3.6645719223"><ele>1161.89</ele><time>2026-08-23T09:03:53Z</time></trkpt><trkpt lat="40.8746672329" lon="-3.6645873450"><ele>1162.85</ele><time>2026-08-23T09:04:01Z</time></trkpt><trkpt lat="40.8746820688" lon="-3.6645981576"><ele>1162.85</ele><time>2026-08-23T09:04:02Z</time></trkpt><trkpt lat="40.8747000061" lon="-3.6646248959"><ele>1163.81</ele><time>2026-08-23T09:04:03Z</time></trkpt><trkpt lat="40.8747118246" lon="-3.6646580882"><ele>1164.29</ele><time>2026-08-23T09:04:04Z</time></trkpt><trkpt lat="40.8747201227" lon="-3.6647052784"><ele>1165.26</ele><time>2026-08-23T09:04:05Z</time></trkpt><trkpt lat="40.8747203741" lon="-3.6647502892"><ele>1165.74</ele><time>2026-08-23T09:04:07Z</time></trkpt><trkpt lat="40.8747251518" lon="-3.6648041010"><ele>1166.70</ele><time>2026-08-23T09:04:08Z</time></trkpt><trkpt lat="40.8747265767" lon="-3.6648383830"><ele>1166.70</ele><time>2026-08-23T09:04:09Z</time></trkpt><trkpt lat="40.8747257385" lon="-3.6648650374"><ele>1166.70</ele><time>2026-08-23T09:04:10Z</time></trkpt><trkpt lat="40.8747229725" lon="-3.6648963019"><ele>1167.18</ele><time>2026-08-23T09:04:11Z</time></trkpt><trkpt lat="40.8746942226" lon="-3.6651595775"><ele>1168.62</ele><time>2026-08-23T09:04:23Z</time></trkpt><trkpt lat="40.8746451046" lon="-3.6656615697"><ele>1170.06</ele><time>2026-08-23T09:04:37Z</time></trkpt><trkpt lat="40.8745542448" lon="-3.6658680998"><ele>1170.06</ele><time>2026-08-23T09:04:42Z</time></trkpt><trkpt lat="40.8745204657" lon="-3.6659131944"><ele>1170.06</ele><time>2026-08-23T09:04:43Z</time></trkpt><trkpt lat="40.8744480461" lon="-3.6660085805"><ele>1167.66</ele><time>2026-08-23T09:04:45Z</time></trkpt><trkpt lat="40.8744104113" lon="-3.6660606321"><ele>1167.66</ele><time>2026-08-23T09:04:46Z</time></trkpt><trkpt lat="40.8742817491" lon="-3.6662193853"><ele>1166.22</ele><time>2026-08-23T09:04:49Z</time></trkpt><trkpt lat="40.8742478024" lon="-3.6662778910"><ele>1165.26</ele><time>2026-08-23T09:04:50Z</time></trkpt><trkpt lat="40.8742230758" lon="-3.6663425993"><ele>1165.26</ele><time>2026-08-23T09:04:51Z</time></trkpt><trkpt lat="40.8742090780" lon="-3.6664085649"><ele>1165.26</ele><time>2026-08-23T09:04:52Z</time></trkpt><trkpt lat="40.8741989359" lon="-3.6664726865"><ele>1164.77</ele><time>2026-08-23T09:04:53Z</time></trkpt><trkpt lat="40.8741917275" lon="-3.6665278394"><ele>1164.77</ele><time>2026-08-23T09:04:54Z</time></trkpt><trkpt lat="40.8740872890" lon="-3.6669828929"><ele>1163.33</ele><time>2026-08-23T09:05:06Z</time></trkpt><trkpt lat="40.8739754744" lon="-3.6672882456"><ele>1163.81</ele><time>2026-08-23T09:05:21Z</time></trkpt><trkpt lat="40.8737937547" lon="-3.6675227713"><ele>1163.81</ele><time>2026-08-23T09:05:32Z</time></trkpt><trkpt lat="40.8737784158" lon="-3.6675547063"><ele>1165.26</ele><time>2026-08-23T09:05:33Z</time></trkpt><trkpt lat="40.8737581316" lon="-3.6675897427"><ele>1165.26</ele><time>2026-08-23T09:05:34Z</time></trkpt><trkpt lat="40.8737292979" lon="-3.6676207557"><ele>1165.26</ele><time>2026-08-23T09:05:35Z</time></trkpt><trkpt lat="40.8736956026" lon="-3.6676526908"><ele>1165.74</ele><time>2026-08-23T09:05:36Z</time></trkpt><trkpt lat="40.8735497575" lon="-3.6678083427"><ele>1164.29</ele><time>2026-08-23T09:05:40Z</time></trkpt><trkpt lat="40.8735112008" lon="-3.6678503361"><ele>1164.29</ele><time>2026-08-23T09:05:41Z</time></trkpt><trkpt lat="40.8732799441" lon="-3.6681241728"><ele>1164.29</ele><time>2026-08-23T09:05:49Z</time></trkpt><trkpt lat="40.8732595760" lon="-3.6681601312"><ele>1164.29</ele><time>2026-08-23T09:05:50Z</time></trkpt><trkpt lat="40.8732354362" lon="-3.6682083271"><ele>1165.74</ele><time>2026-08-23T09:05:51Z</time></trkpt><trkpt lat="40.8732177503" lon="-3.6682558525"><ele>1165.74</ele><time>2026-08-23T09:05:52Z</time></trkpt><trkpt lat="40.8732044231" lon="-3.6683043838"><ele>1165.74</ele><time>2026-08-23T09:05:53Z</time></trkpt><trkpt lat="40.8731173351" lon="-3.6688937992"><ele>1167.66</ele><time>2026-08-23T09:06:06Z</time></trkpt><trkpt lat="40.8729675505" lon="-3.6694816221"><ele>1170.06</ele><time>2026-08-23T09:06:18Z</time></trkpt><trkpt lat="40.8728997409" lon="-3.6696360167"><ele>1170.06</ele><time>2026-08-23T09:06:21Z</time></trkpt><trkpt lat="40.8728881739" lon="-3.6696899123"><ele>1170.06</ele><time>2026-08-23T09:06:22Z</time></trkpt><trkpt lat="40.8728184365" lon="-3.6700663436"><ele>1173.43</ele><time>2026-08-23T09:06:30Z</time></trkpt><trkpt lat="40.8728523832" lon="-3.6707105767"><ele>1176.79</ele><time>2026-08-23T09:06:43Z</time></trkpt><trkpt lat="40.8728353679" lon="-3.6710557435"><ele>1179.67</ele><time>2026-08-23T09:06:51Z</time></trkpt><trkpt lat="40.8728084620" lon="-3.6711318512"><ele>1181.12</ele><time>2026-08-23T09:06:53Z</time></trkpt><trkpt lat="40.8727851603" lon="-3.6711539794"><ele>1181.12</ele><time>2026-08-23T09:06:54Z</time></trkpt><trkpt lat="40.8727551531" lon="-3.6711732578"><ele>1182.08</ele><time>2026-08-23T09:06:55Z</time></trkpt><trkpt lat="40.8727269061" lon="-3.6711853277"><ele>1181.60</ele><time>2026-08-23T09:06:56Z</time></trkpt><trkpt lat="40.8726919536" lon="-3.6711933743"><ele>1182.56</ele><time>2026-08-23T09:06:57Z</time></trkpt><trkpt lat="40.8726535644" lon="-3.6711972300"><ele>1182.56</ele><time>2026-08-23T09:06:58Z</time></trkpt><trkpt lat="40.8723410871" lon="-3.6714835558"><ele>1185.44</ele><time>2026-08-23T09:07:09Z</time></trkpt><trkpt lat="40.8720096666" lon="-3.6718309019"><ele>1189.29</ele><time>2026-08-23T09:07:21Z</time></trkpt><trkpt lat="40.8718491532" lon="-3.6720418744"><ele>1192.65</ele><time>2026-08-23T09:07:29Z</time></trkpt><trkpt lat="40.8716783300" lon="-3.6724365782"><ele>1194.09</ele><time>2026-08-23T09:07:40Z</time></trkpt><trkpt lat="40.8714816067" lon="-3.6729808990"><ele>1196.98</ele><time>2026-08-23T09:07:54Z</time></trkpt><trkpt lat="40.8713627513" lon="-3.6734689772"><ele>1200.34</ele><time>2026-08-23T09:08:07Z</time></trkpt><trkpt lat="40.8712961152" lon="-3.6738615017"><ele>1203.71</ele><time>2026-08-23T09:08:17Z</time></trkpt><trkpt lat="40.8712829556" lon="-3.6740595661"><ele>1205.63</ele><time>2026-08-23T09:08:22Z</time></trkpt><trkpt lat="40.8712144755" lon="-3.6744938325"><ele>1205.63</ele><time>2026-08-23T09:08:33Z</time></trkpt><trkpt lat="40.8711940236" lon="-3.6750094872"><ele>1209.00</ele><time>2026-08-23T09:08:46Z</time></trkpt><trkpt lat="40.8711727336" lon="-3.6753442604"><ele>1211.40</ele><time>2026-08-23T09:08:57Z</time></trkpt><trkpt lat="40.8711392060" lon="-3.6757551413"><ele>1214.76</ele><time>2026-08-23T09:09:09Z</time></trkpt><trkpt lat="40.8710628469" lon="-3.6762743164"><ele>1217.17</ele><time>2026-08-23T09:09:25Z</time></trkpt><trkpt lat="40.8710419759" lon="-3.6762954388"><ele>1217.65</ele><time>2026-08-23T09:09:47Z</time></trkpt><trkpt lat="40.8710616734" lon="-3.6763103586"><ele>1217.65</ele><time>2026-08-23T09:10:12Z</time></trkpt><trkpt lat="40.8710961230" lon="-3.6764582153"><ele>1217.65</ele><time>2026-08-23T09:10:23Z</time></trkpt><trkpt lat="40.8712344244" lon="-3.6769030429"><ele>1218.13</ele><time>2026-08-23T09:10:36Z</time></trkpt><trkpt lat="40.8712707181" lon="-3.6771614570"><ele>1218.61</ele><time>2026-08-23T09:10:48Z</time></trkpt><trkpt lat="40.8712827042" lon="-3.6771606188"><ele>1218.61</ele><time>2026-08-23T09:11:16Z</time></trkpt><trkpt lat="40.8712809440" lon="-3.6771576852"><ele>1218.61</ele><time>2026-08-23T09:11:43Z</time></trkpt><trkpt lat="40.8712718915" lon="-3.6771657318"><ele>1219.09</ele><time>2026-08-23T09:12:16Z</time></trkpt><trkpt lat="40.8712822013" lon="-3.6771823280"><ele>1219.57</ele><time>2026-08-23T09:12:33Z</time></trkpt><trkpt lat="40.8713205066" lon="-3.6775037739"><ele>1220.53</ele><time>2026-08-23T09:12:45Z</time></trkpt><trkpt lat="40.8713445626" lon="-3.6779549718"><ele>1221.01</ele><time>2026-08-23T09:12:56Z</time></trkpt><trkpt lat="40.8713071793" lon="-3.6782279704"><ele>1222.45</ele><time>2026-08-23T09:13:02Z</time></trkpt><trkpt lat="40.8711451571" lon="-3.6786836106"><ele>1225.34</ele><time>2026-08-23T09:13:15Z</time></trkpt><trkpt lat="40.8711109590" lon="-3.6787879653"><ele>1225.34</ele><time>2026-08-23T09:13:26Z</time></trkpt><trkpt lat="40.8710017428" lon="-3.6788977683"><ele>1223.90</ele><time>2026-08-23T09:13:40Z</time></trkpt><trkpt lat="40.8709723223" lon="-3.6789321341"><ele>1223.42</ele><time>2026-08-23T09:13:41Z</time></trkpt><trkpt lat="40.8709460031" lon="-3.6789668351"><ele>1223.42</ele><time>2026-08-23T09:13:42Z</time></trkpt><trkpt lat="40.8709190134" lon="-3.6789941601"><ele>1223.42</ele><time>2026-08-23T09:13:43Z</time></trkpt><trkpt lat="40.8708839770" lon="-3.6790149473"><ele>1223.42</ele><time>2026-08-23T09:13:44Z</time></trkpt><trkpt lat="40.8708548918" lon="-3.6790245026"><ele>1223.42</ele><time>2026-08-23T09:13:45Z</time></trkpt><trkpt lat="40.8708184306" lon="-3.6790314596"><ele>1223.42</ele><time>2026-08-23T09:13:46Z</time></trkpt><trkpt lat="40.8707863279" lon="-3.6790361535"><ele>1223.42</ele><time>2026-08-23T09:13:47Z</time></trkpt><trkpt lat="40.8707570750" lon="-3.6790457089"><ele>1223.42</ele><time>2026-08-23T09:13:48Z</time></trkpt><trkpt lat="40.8707224578" lon="-3.6790673342"><ele>1223.42</ele><time>2026-08-23T09:13:49Z</time></trkpt><trkpt lat="40.8707031794" lon="-3.6790813319"><ele>1223.42</ele><time>2026-08-23T09:13:50Z</time></trkpt><trkpt lat="40.8706760220" lon="-3.6791014485"><ele>1223.42</ele><time>2026-08-23T09:13:51Z</time></trkpt><trkpt lat="40.8706461824" lon="-3.6791250855"><ele>1223.42</ele><time>2026-08-23T09:13:52Z</time></trkpt><trkpt lat="40.8706135768" lon="-3.6791503988"><ele>1223.42</ele><time>2026-08-23T09:13:53Z</time></trkpt><trkpt lat="40.8705818094" lon="-3.6791799031"><ele>1223.42</ele><time>2026-08-23T09:13:54Z</time></trkpt><trkpt lat="40.8705498744" lon="-3.6792118382"><ele>1223.42</ele><time>2026-08-23T09:13:55Z</time></trkpt><trkpt lat="40.8704841603" lon="-3.6792704277"><ele>1224.38</ele><time>2026-08-23T09:13:57Z</time></trkpt><trkpt lat="40.8704466093" lon="-3.6792954896"><ele>1224.38</ele><time>2026-08-23T09:13:58Z</time></trkpt><trkpt lat="40.8704112377" lon="-3.6793209706"><ele>1224.38</ele><time>2026-08-23T09:13:59Z</time></trkpt><trkpt lat="40.8703738544" lon="-3.6793443561"><ele>1224.38</ele><time>2026-08-23T09:14:00Z</time></trkpt><trkpt lat="40.8703392372" lon="-3.6793658976"><ele>1224.38</ele><time>2026-08-23T09:14:01Z</time></trkpt><trkpt lat="40.8703073859" lon="-3.6793891992"><ele>1224.38</ele><time>2026-08-23T09:14:02Z</time></trkpt><trkpt lat="40.8700581919" lon="-3.6795784626"><ele>1223.42</ele><time>2026-08-23T09:14:10Z</time></trkpt><trkpt lat="40.8698686771" lon="-3.6797390599"><ele>1223.42</ele><time>2026-08-23T09:14:15Z</time></trkpt><trkpt lat="40.8697715309" lon="-3.6798522994"><ele>1222.93</ele><time>2026-08-23T09:14:18Z</time></trkpt><trkpt lat="40.8697442058" lon="-3.6798939575"><ele>1222.93</ele><time>2026-08-23T09:14:19Z</time></trkpt><trkpt lat="40.8697194792" lon="-3.6799408961"><ele>1222.93</ele><time>2026-08-23T09:14:20Z</time></trkpt><trkpt lat="40.8696690202" lon="-3.6800345220"><ele>1224.38</ele><time>2026-08-23T09:14:22Z</time></trkpt><trkpt lat="40.8696430363" lon="-3.6800756771"><ele>1224.38</ele><time>2026-08-23T09:14:23Z</time></trkpt><trkpt lat="40.8696104307" lon="-3.6801141500"><ele>1224.38</ele><time>2026-08-23T09:14:24Z</time></trkpt><trkpt lat="40.8695700299" lon="-3.6801584065"><ele>1224.38</ele><time>2026-08-23T09:14:25Z</time></trkpt><trkpt lat="40.8695482370" lon="-3.6801880784"><ele>1224.86</ele><time>2026-08-23T09:14:26Z</time></trkpt><trkpt lat="40.8695203252" lon="-3.6802302394"><ele>1224.86</ele><time>2026-08-23T09:14:27Z</time></trkpt><trkpt lat="40.8694625739" lon="-3.6803177465"><ele>1224.86</ele><time>2026-08-23T09:14:29Z</time></trkpt><trkpt lat="40.8694282081" lon="-3.6803564709"><ele>1224.86</ele><time>2026-08-23T09:14:30Z</time></trkpt><trkpt lat="40.8693930879" lon="-3.6803907529"><ele>1224.86</ele><time>2026-08-23T09:14:31Z</time></trkpt><trkpt lat="40.8693590574" lon="-3.6804182455"><ele>1224.86</ele><time>2026-08-23T09:14:32Z</time></trkpt><trkpt lat="40.8693219256" lon="-3.6804449838"><ele>1224.86</ele><time>2026-08-23T09:14:33Z</time></trkpt><trkpt lat="40.8692880627" lon="-3.6804767512"><ele>1224.86</ele><time>2026-08-23T09:14:34Z</time></trkpt><trkpt lat="40.8692598157" lon="-3.6805388611"><ele>1224.86</ele><time>2026-08-23T09:14:36Z</time></trkpt><trkpt lat="40.8692873921" lon="-3.6806459818"><ele>1224.86</ele><time>2026-08-23T09:14:38Z</time></trkpt><trkpt lat="40.8693084307" lon="-3.6806811020"><ele>1225.34</ele><time>2026-08-23T09:14:39Z</time></trkpt><trkpt lat="40.8693290502" lon="-3.6807151325"><ele>1225.34</ele><time>2026-08-23T09:14:40Z</time></trkpt><trkpt lat="40.8695083391" lon="-3.6809812579"><ele>1228.70</ele><time>2026-08-23T09:14:49Z</time></trkpt><trkpt lat="40.8697516657" lon="-3.6811851058"><ele>1231.59</ele><time>2026-08-23T09:14:58Z</time></trkpt><trkpt lat="40.8699442819" lon="-3.6814871058"><ele>1234.95</ele><time>2026-08-23T09:15:07Z</time></trkpt><trkpt lat="40.8700617962" lon="-3.6818148382"><ele>1237.83</ele><time>2026-08-23T09:15:16Z</time></trkpt><trkpt lat="40.8699535020" lon="-3.6823207699"><ele>1239.28</ele><time>2026-08-23T09:15:28Z</time></trkpt><trkpt lat="40.8698154520" lon="-3.6825575586"><ele>1243.12</ele><time>2026-08-23T09:15:35Z</time></trkpt><trkpt lat="40.8697302081" lon="-3.6826598179"><ele>1245.04</ele><time>2026-08-23T09:15:39Z</time></trkpt><trkpt lat="40.8696700260" lon="-3.6827421281"><ele>1246.97</ele><time>2026-08-23T09:15:42Z</time></trkpt><trkpt lat="40.8695070818" lon="-3.6830504984"><ele>1250.33</ele><time>2026-08-23T09:15:51Z</time></trkpt><trkpt lat="40.8692786749" lon="-3.6836273409"><ele>1250.81</ele><time>2026-08-23T09:16:05Z</time></trkpt><trkpt lat="40.8692091051" lon="-3.6838864256"><ele>1251.29</ele><time>2026-08-23T09:16:10Z</time></trkpt><trkpt lat="40.8691940177" lon="-3.6839385610"><ele>1251.29</ele><time>2026-08-23T09:16:11Z</time></trkpt><trkpt lat="40.8689510264" lon="-3.6844737455"><ele>1252.25</ele><time>2026-08-23T09:16:22Z</time></trkpt><trkpt lat="40.8689283952" lon="-3.6845182534"><ele>1252.25</ele><time>2026-08-23T09:16:23Z</time></trkpt><trkpt lat="40.8687490225" lon="-3.6849281285"><ele>1252.25</ele><time>2026-08-23T09:16:31Z</time></trkpt><trkpt lat="40.8686717413" lon="-3.6851365026"><ele>1250.81</ele><time>2026-08-23T09:16:34Z</time></trkpt><trkpt lat="40.8684590925" lon="-3.6859347112"><ele>1249.37</ele><time>2026-08-23T09:16:46Z</time></trkpt><trkpt lat="40.8684451785" lon="-3.6859902833"><ele>1248.89</ele><time>2026-08-23T09:16:47Z</time></trkpt><trkpt lat="40.8684299234" lon="-3.6860454362"><ele>1248.89</ele><time>2026-08-23T09:16:48Z</time></trkpt><trkpt lat="40.8684090525" lon="-3.6861029360"><ele>1248.89</ele><time>2026-08-23T09:16:49Z</time></trkpt><trkpt lat="40.8683863375" lon="-3.6861651298"><ele>1248.89</ele><time>2026-08-23T09:16:50Z</time></trkpt><trkpt lat="40.8683620300" lon="-3.6862330232"><ele>1248.89</ele><time>2026-08-23T09:16:51Z</time></trkpt><trkpt lat="40.8681819867" lon="-3.6866748333"><ele>1248.89</ele><time>2026-08-23T09:16:57Z</time></trkpt><trkpt lat="40.8681442682" lon="-3.6867386196"><ele>1248.89</ele><time>2026-08-23T09:16:58Z</time></trkpt><trkpt lat="40.8677168749" lon="-3.6874329764"><ele>1245.53</ele><time>2026-08-23T09:17:10Z</time></trkpt><trkpt lat="40.8677017875" lon="-3.6874941643"><ele>1245.53</ele><time>2026-08-23T09:17:11Z</time></trkpt><trkpt lat="40.8676959202" lon="-3.6875274405"><ele>1245.53</ele><time>2026-08-23T09:17:12Z</time></trkpt><trkpt lat="40.8676609676" lon="-3.6877185479"><ele>1244.08</ele><time>2026-08-23T09:17:21Z</time></trkpt><trkpt lat="40.8676220756" lon="-3.6878615431"><ele>1244.08</ele><time>2026-08-23T09:17:41Z</time></trkpt><trkpt lat="40.8675002027" lon="-3.6882474460"><ele>1242.64</ele><time>2026-08-23T09:17:51Z</time></trkpt><trkpt lat="40.8674832713" lon="-3.6883099750"><ele>1241.68</ele><time>2026-08-23T09:17:52Z</time></trkpt><trkpt lat="40.8674649987" lon="-3.6883756053"><ele>1240.72</ele><time>2026-08-23T09:17:53Z</time></trkpt><trkpt lat="40.8674362488" lon="-3.6884326860"><ele>1240.24</ele><time>2026-08-23T09:17:54Z</time></trkpt><trkpt lat="40.8674004581" lon="-3.6884849053"><ele>1240.24</ele><time>2026-08-23T09:17:55Z</time></trkpt><trkpt lat="40.8673735522" lon="-3.6885444168"><ele>1239.76</ele><time>2026-08-23T09:17:56Z</time></trkpt><trkpt lat="40.8673589677" lon="-3.6886091251"><ele>1239.28</ele><time>2026-08-23T09:17:57Z</time></trkpt><trkpt lat="40.8673496637" lon="-3.6886713188"><ele>1239.28</ele><time>2026-08-23T09:17:58Z</time></trkpt><trkpt lat="40.8673424553" lon="-3.6887389608"><ele>1238.80</ele><time>2026-08-23T09:17:59Z</time></trkpt><trkpt lat="40.8673378453" lon="-3.6888025794"><ele>1238.32</ele><time>2026-08-23T09:18:00Z</time></trkpt><trkpt lat="40.8673155494" lon="-3.6895123590"><ele>1236.87</ele><time>2026-08-23T09:18:11Z</time></trkpt><trkpt lat="40.8672981150" lon="-3.6895721219"><ele>1236.87</ele><time>2026-08-23T09:18:12Z</time></trkpt><trkpt lat="40.8672823571" lon="-3.6896309629"><ele>1236.87</ele><time>2026-08-23T09:18:13Z</time></trkpt><trkpt lat="40.8672728017" lon="-3.6896919832"><ele>1236.87</ele><time>2026-08-23T09:18:14Z</time></trkpt><trkpt lat="40.8672652580" lon="-3.6897436157"><ele>1236.87</ele><time>2026-08-23T09:18:15Z</time></trkpt><trkpt lat="40.8672495000" lon="-3.6897870339"><ele>1236.87</ele><time>2026-08-23T09:18:16Z</time></trkpt><trkpt lat="40.8672255278" lon="-3.6898216512"><ele>1236.39</ele><time>2026-08-23T09:18:17Z</time></trkpt><trkpt lat="40.8672007173" lon="-3.6898563523"><ele>1236.39</ele><time>2026-08-23T09:18:18Z</time></trkpt><trkpt lat="40.8671768289" lon="-3.6899037100"><ele>1236.39</ele><time>2026-08-23T09:18:19Z</time></trkpt><trkpt lat="40.8671541978" lon="-3.6899579410"><ele>1236.39</ele><time>2026-08-23T09:18:20Z</time></trkpt><trkpt lat="40.8671267889" lon="-3.6900104955"><ele>1236.39</ele><time>2026-08-23T09:18:21Z</time></trkpt><trkpt lat="40.8670970332" lon="-3.6900482140"><ele>1236.39</ele><time>2026-08-23T09:18:22Z</time></trkpt><trkpt lat="40.8670645952" lon="-3.6900819931"><ele>1236.39</ele><time>2026-08-23T09:18:23Z</time></trkpt><trkpt lat="40.8670365158" lon="-3.6901100725"><ele>1236.39</ele><time>2026-08-23T09:18:24Z</time></trkpt><trkpt lat="40.8670097776" lon="-3.6901342124"><ele>1236.39</ele><time>2026-08-23T09:18:25Z</time></trkpt><trkpt lat="40.8666652814" lon="-3.6903073825"><ele>1236.39</ele><time>2026-08-23T09:18:36Z</time></trkpt><trkpt lat="40.8666296583" lon="-3.6903225537"><ele>1236.39</ele><time>2026-08-23T09:18:37Z</time></trkpt><trkpt lat="40.8665922750" lon="-3.6903470289"><ele>1236.39</ele><time>2026-08-23T09:18:38Z</time></trkpt><trkpt lat="40.8665516227" lon="-3.6903940514"><ele>1236.39</ele><time>2026-08-23T09:18:39Z</time></trkpt><trkpt lat="40.8665360324" lon="-3.6904378887"><ele>1236.39</ele><time>2026-08-23T09:18:41Z</time></trkpt><trkpt lat="40.8665299136" lon="-3.6904868390"><ele>1236.39</ele><time>2026-08-23T09:18:42Z</time></trkpt><trkpt lat="40.8665222861" lon="-3.6905205343"><ele>1236.39</ele><time>2026-08-23T09:18:43Z</time></trkpt><trkpt lat="40.8665144909" lon="-3.6905587558"><ele>1236.39</ele><time>2026-08-23T09:18:44Z</time></trkpt><trkpt lat="40.8665125631" lon="-3.6906002462"><ele>1236.39</ele><time>2026-08-23T09:18:45Z</time></trkpt><trkpt lat="40.8665149100" lon="-3.6906499509"><ele>1236.39</ele><time>2026-08-23T09:18:46Z</time></trkpt><trkpt lat="40.8665481023" lon="-3.6907822173"><ele>1237.35</ele><time>2026-08-23T09:18:53Z</time></trkpt><trkpt lat="40.8665447496" lon="-3.6907713208"><ele>1237.35</ele><time>2026-08-23T09:18:54Z</time></trkpt><trkpt lat="40.8665295783" lon="-3.6907484382"><ele>1237.35</ele><time>2026-08-23T09:18:55Z</time></trkpt><trkpt lat="40.8665235434" lon="-3.6907434091"><ele>1237.35</ele><time>2026-08-23T09:19:04Z</time></trkpt><trkpt lat="40.8665176760" lon="-3.6907228734"><ele>1237.35</ele><time>2026-08-23T09:19:05Z</time></trkpt><trkpt lat="40.8665129822" lon="-3.6907014158"><ele>1237.35</ele><time>2026-08-23T09:19:06Z</time></trkpt><trkpt lat="40.8665056899" lon="-3.6906618532"><ele>1237.35</ele><time>2026-08-23T09:19:07Z</time></trkpt><trkpt lat="40.8665024210" lon="-3.6906207819"><ele>1237.35</ele><time>2026-08-23T09:19:08Z</time></trkpt><trkpt lat="40.8665059414" lon="-3.6905781180"><ele>1237.35</ele><time>2026-08-23T09:19:09Z</time></trkpt><trkpt lat="40.8665136527" lon="-3.6905435845"><ele>1237.35</ele><time>2026-08-23T09:19:10Z</time></trkpt><trkpt lat="40.8665265609" lon="-3.6904574186"><ele>1235.43</ele><time>2026-08-23T09:19:13Z</time></trkpt><trkpt lat="40.8665119763" lon="-3.6904369667"><ele>1235.43</ele><time>2026-08-23T09:19:14Z</time></trkpt><trkpt lat="40.8665009122" lon="-3.6904352903"><ele>1235.43</ele><time>2026-08-23T09:19:15Z</time></trkpt><trkpt lat="40.8664913569" lon="-3.6904404033"><ele>1235.43</ele><time>2026-08-23T09:19:16Z</time></trkpt><trkpt lat="40.8664776944" lon="-3.6904580891"><ele>1235.43</ele><time>2026-08-23T09:19:17Z</time></trkpt><trkpt lat="40.8664623555" lon="-3.6904883478"><ele>1235.43</ele><time>2026-08-23T09:19:18Z</time></trkpt><trkpt lat="40.8664407302" lon="-3.6905200314"><ele>1235.43</ele><time>2026-08-23T09:19:19Z</time></trkpt><trkpt lat="40.8664119802" lon="-3.6905561574"><ele>1235.43</ele><time>2026-08-23T09:19:20Z</time></trkpt><trkpt lat="40.8663884271" lon="-3.6905968096"><ele>1235.43</ele><time>2026-08-23T09:19:21Z</time></trkpt><trkpt lat="40.8663689811" lon="-3.6906350311"><ele>1235.43</ele><time>2026-08-23T09:19:22Z</time></trkpt><trkpt lat="40.8662687335" lon="-3.6909734085"><ele>1236.87</ele><time>2026-08-23T09:19:30Z</time></trkpt><trkpt lat="40.8662450127" lon="-3.6910070200"><ele>1236.87</ele><time>2026-08-23T09:19:31Z</time></trkpt><trkpt lat="40.8662138321" lon="-3.6910171621"><ele>1236.87</ele><time>2026-08-23T09:19:32Z</time></trkpt><trkpt lat="40.8659044560" lon="-3.6912255362"><ele>1236.87</ele><time>2026-08-23T09:19:43Z</time></trkpt><trkpt lat="40.8657347225" lon="-3.6914189905"><ele>1236.87</ele><time>2026-08-23T09:19:50Z</time></trkpt><trkpt lat="40.8657101635" lon="-3.6914360058"><ele>1236.87</ele><time>2026-08-23T09:19:51Z</time></trkpt><trkpt lat="40.8653302956" lon="-3.6917274445"><ele>1234.47</ele><time>2026-08-23T09:20:03Z</time></trkpt><trkpt lat="40.8649450634" lon="-3.6920139380"><ele>1233.51</ele><time>2026-08-23T09:20:12Z</time></trkpt><trkpt lat="40.8648073487" lon="-3.6921109166"><ele>1233.03</ele><time>2026-08-23T09:20:15Z</time></trkpt><trkpt lat="40.8647583984" lon="-3.6921353918"><ele>1233.03</ele><time>2026-08-23T09:20:16Z</time></trkpt><trkpt lat="40.8645290695" lon="-3.6923001800"><ele>1232.55</ele><time>2026-08-23T09:20:21Z</time></trkpt><trkpt lat="40.8644896746" lon="-3.6923456937"><ele>1232.07</ele><time>2026-08-23T09:20:22Z</time></trkpt><trkpt lat="40.8644528780" lon="-3.6923963204"><ele>1232.07</ele><time>2026-08-23T09:20:23Z</time></trkpt><trkpt lat="40.8644170035" lon="-3.6924482882"><ele>1232.07</ele><time>2026-08-23T09:20:24Z</time></trkpt><trkpt lat="40.8643802069" lon="-3.6924984958"><ele>1232.07</ele><time>2026-08-23T09:20:25Z</time></trkpt><trkpt lat="40.8643460926" lon="-3.6925499607"><ele>1232.07</ele><time>2026-08-23T09:20:26Z</time></trkpt><trkpt lat="40.8643101342" lon="-3.6925989948"><ele>1231.59</ele><time>2026-08-23T09:20:27Z</time></trkpt><trkpt lat="40.8642429113" lon="-3.6926984042"><ele>1231.59</ele><time>2026-08-23T09:20:29Z</time></trkpt><trkpt lat="40.8642188553" lon="-3.6927472707"><ele>1231.59</ele><time>2026-08-23T09:20:30Z</time></trkpt><trkpt lat="40.8641912788" lon="-3.6928013340"><ele>1231.59</ele><time>2026-08-23T09:20:31Z</time></trkpt><trkpt lat="40.8641620260" lon="-3.6928599235"><ele>1231.59</ele><time>2026-08-23T09:20:32Z</time></trkpt><trkpt lat="40.8641325217" lon="-3.6929196026"><ele>1231.59</ele><time>2026-08-23T09:20:33Z</time></trkpt><trkpt lat="40.8638628758" lon="-3.6933483370"><ele>1229.66</ele><time>2026-08-23T09:20:43Z</time></trkpt><trkpt lat="40.8638362214" lon="-3.6934009753"><ele>1229.66</ele><time>2026-08-23T09:20:44Z</time></trkpt><trkpt lat="40.8637725189" lon="-3.6935690325"><ele>1227.74</ele><time>2026-08-23T09:20:49Z</time></trkpt><trkpt lat="40.8637534082" lon="-3.6935963575"><ele>1227.26</ele><time>2026-08-23T09:20:50Z</time></trkpt><trkpt lat="40.8637349680" lon="-3.6936282087"><ele>1226.30</ele><time>2026-08-23T09:20:51Z</time></trkpt><trkpt lat="40.8637179527" lon="-3.6936639156"><ele>1225.82</ele><time>2026-08-23T09:20:52Z</time></trkpt><trkpt lat="40.8637014404" lon="-3.6937012989"><ele>1225.34</ele><time>2026-08-23T09:20:53Z</time></trkpt><trkpt lat="40.8636833355" lon="-3.6937381793"><ele>1224.86</ele><time>2026-08-23T09:20:54Z</time></trkpt><trkpt lat="40.8636655658" lon="-3.6937835254"><ele>1224.86</ele><time>2026-08-23T09:20:55Z</time></trkpt><trkpt lat="40.8636361454" lon="-3.6938732117"><ele>1223.42</ele><time>2026-08-23T09:20:57Z</time></trkpt><trkpt lat="40.8636272606" lon="-3.6940153688"><ele>1220.53</ele><time>2026-08-23T09:21:01Z</time></trkpt><trkpt lat="40.8635877818" lon="-3.6941051390"><ele>1220.05</ele><time>2026-08-23T09:21:10Z</time></trkpt><trkpt lat="40.8635609597" lon="-3.6941763852"><ele>1218.61</ele><time>2026-08-23T09:21:19Z</time></trkpt><trkpt lat="40.8635634743" lon="-3.6941946577"><ele>1218.61</ele><time>2026-08-23T09:21:20Z</time></trkpt><trkpt lat="40.8635699283" lon="-3.6942125112"><ele>1218.13</ele><time>2026-08-23T09:21:21Z</time></trkpt><trkpt lat="40.8635787293" lon="-3.6942664906"><ele>1218.13</ele><time>2026-08-23T09:21:23Z</time></trkpt><trkpt lat="40.8635674976" lon="-3.6942970846"><ele>1218.13</ele><time>2026-08-23T09:21:24Z</time></trkpt><trkpt lat="40.8635499794" lon="-3.6943263374"><ele>1218.13</ele><time>2026-08-23T09:21:25Z</time></trkpt><trkpt lat="40.8635320421" lon="-3.6943479627"><ele>1218.13</ele><time>2026-08-23T09:21:26Z</time></trkpt><trkpt lat="40.8635147754" lon="-3.6943691690"><ele>1219.57</ele><time>2026-08-23T09:21:27Z</time></trkpt><trkpt lat="40.8634983469" lon="-3.6943967454"><ele>1219.57</ele><time>2026-08-23T09:21:28Z</time></trkpt><trkpt lat="40.8634848520" lon="-3.6944171134"><ele>1219.57</ele><time>2026-08-23T09:21:29Z</time></trkpt><trkpt lat="40.8634711895" lon="-3.6944285966"><ele>1219.57</ele><time>2026-08-23T09:21:30Z</time></trkpt><trkpt lat="40.8634498157" lon="-3.6944420077"><ele>1219.57</ele><time>2026-08-23T09:21:31Z</time></trkpt><trkpt lat="40.8634265140" lon="-3.6944607832"><ele>1220.53</ele><time>2026-08-23T09:21:32Z</time></trkpt><trkpt lat="40.8634004463" lon="-3.6944798101"><ele>1221.01</ele><time>2026-08-23T09:21:33Z</time></trkpt><trkpt lat="40.8633732051" lon="-3.6945000105"><ele>1221.49</ele><time>2026-08-23T09:21:34Z</time></trkpt><trkpt lat="40.8633535076" lon="-3.6945199594"><ele>1221.49</ele><time>2026-08-23T09:21:35Z</time></trkpt><trkpt lat="40.8633335587" lon="-3.6945297662"><ele>1221.97</ele><time>2026-08-23T09:21:46Z</time></trkpt><trkpt lat="40.8632374182" lon="-3.6947165988"><ele>1222.45</ele><time>2026-08-23T09:21:59Z</time></trkpt><trkpt lat="40.8631675970" lon="-3.6950244661"><ele>1221.01</ele><time>2026-08-23T09:22:06Z</time></trkpt><trkpt lat="40.8631593827" lon="-3.6951421481"><ele>1220.05</ele><time>2026-08-23T09:22:08Z</time></trkpt><trkpt lat="40.8631527610" lon="-3.6952060182"><ele>1220.05</ele><time>2026-08-23T09:22:09Z</time></trkpt><trkpt lat="40.8631080016" lon="-3.6953981314"><ele>1219.57</ele><time>2026-08-23T09:22:12Z</time></trkpt><trkpt lat="40.8630988654" lon="-3.6954673659"><ele>1219.09</ele><time>2026-08-23T09:22:13Z</time></trkpt><trkpt lat="40.8630926628" lon="-3.6955336668"><ele>1219.09</ele><time>2026-08-23T09:22:14Z</time></trkpt><trkpt lat="40.8630903158" lon="-3.6955978721"><ele>1218.61</ele><time>2026-08-23T09:22:15Z</time></trkpt><trkpt lat="40.8630935848" lon="-3.6956681125"><ele>1217.65</ele><time>2026-08-23T09:22:16Z</time></trkpt><trkpt lat="40.8630950935" lon="-3.6957325693"><ele>1217.65</ele><time>2026-08-23T09:22:17Z</time></trkpt><trkpt lat="40.8630925789" lon="-3.6958030611"><ele>1217.65</ele><time>2026-08-23T09:22:18Z</time></trkpt><trkpt lat="40.8630891424" lon="-3.6959308013"><ele>1216.69</ele><time>2026-08-23T09:22:20Z</time></trkpt><trkpt lat="40.8630911540" lon="-3.6959875468"><ele>1216.69</ele><time>2026-08-23T09:22:21Z</time></trkpt><trkpt lat="40.8630815987" lon="-3.6960454658"><ele>1216.21</ele><time>2026-08-23T09:22:22Z</time></trkpt><trkpt lat="40.8630722947" lon="-3.6961053126"><ele>1216.21</ele><time>2026-08-23T09:22:23Z</time></trkpt><trkpt lat="40.8630662598" lon="-3.6961646564"><ele>1216.21</ele><time>2026-08-23T09:22:24Z</time></trkpt><trkpt lat="40.8630562853" lon="-3.6962268502"><ele>1216.21</ele><time>2026-08-23T09:22:25Z</time></trkpt><trkpt lat="40.8630464785" lon="-3.6962925643"><ele>1216.21</ele><time>2026-08-23T09:22:26Z</time></trkpt><trkpt lat="40.8630423713" lon="-3.6963488068"><ele>1215.24</ele><time>2026-08-23T09:22:27Z</time></trkpt><trkpt lat="40.8630440477" lon="-3.6964092404"><ele>1215.24</ele><time>2026-08-23T09:22:28Z</time></trkpt><trkpt lat="40.8630494121" lon="-3.6964678299"><ele>1215.24</ele><time>2026-08-23T09:22:29Z</time></trkpt><trkpt lat="40.8630516753" lon="-3.6965266708"><ele>1215.24</ele><time>2026-08-23T09:22:30Z</time></trkpt><trkpt lat="40.8630546089" lon="-3.6966464482"><ele>1214.76</ele><time>2026-08-23T09:22:32Z</time></trkpt><trkpt lat="40.8630553633" lon="-3.6966985837"><ele>1214.76</ele><time>2026-08-23T09:22:33Z</time></trkpt><trkpt lat="40.8630468976" lon="-3.6967529822"><ele>1214.76</ele><time>2026-08-23T09:22:34Z</time></trkpt><trkpt lat="40.8630348276" lon="-3.6967948079"><ele>1213.80</ele><time>2026-08-23T09:22:35Z</time></trkpt><trkpt lat="40.8630189020" lon="-3.6968249828"><ele>1213.80</ele><time>2026-08-23T09:22:36Z</time></trkpt><trkpt lat="40.8629987016" lon="-3.6968487874"><ele>1213.80</ele><time>2026-08-23T09:22:37Z</time></trkpt><trkpt lat="40.8629797585" lon="-3.6968736816"><ele>1213.32</ele><time>2026-08-23T09:22:38Z</time></trkpt><trkpt lat="40.8629620727" lon="-3.6968980730"><ele>1213.32</ele><time>2026-08-23T09:22:39Z</time></trkpt><trkpt lat="40.8628378529" lon="-3.6971466802"><ele>1213.32</ele><time>2026-08-23T09:22:46Z</time></trkpt><trkpt lat="40.8627780899" lon="-3.6972932797"><ele>1215.24</ele><time>2026-08-23T09:22:50Z</time></trkpt><trkpt lat="40.8627155609" lon="-3.6975421384"><ele>1215.72</ele><time>2026-08-23T09:22:57Z</time></trkpt><trkpt lat="40.8627065923" lon="-3.6975623388"><ele>1215.72</ele><time>2026-08-23T09:23:09Z</time></trkpt><trkpt lat="40.8627091069" lon="-3.6975556333"><ele>1216.21</ele><time>2026-08-23T09:23:33Z</time></trkpt><trkpt lat="40.8626696281" lon="-3.6975828744"><ele>1216.21</ele><time>2026-08-23T09:23:49Z</time></trkpt><trkpt lat="40.8626521099" lon="-3.6975970399"><ele>1216.21</ele><time>2026-08-23T09:23:50Z</time></trkpt><trkpt lat="40.8625496831" lon="-3.6978053302"><ele>1214.76</ele><time>2026-08-23T09:23:54Z</time></trkpt><trkpt lat="40.8623562288" lon="-3.6980656721"><ele>1213.80</ele><time>2026-08-23T09:23:59Z</time></trkpt><trkpt lat="40.8621961344" lon="-3.6983339768"><ele>1211.88</ele><time>2026-08-23T09:24:02Z</time></trkpt><trkpt lat="40.8621291630" lon="-3.6984610464"><ele>1211.88</ele><time>2026-08-23T09:24:04Z</time></trkpt><trkpt lat="40.8620241378" lon="-3.6986564286"><ele>1211.40</ele><time>2026-08-23T09:24:06Z</time></trkpt><trkpt lat="40.8619798813" lon="-3.6987308599"><ele>1210.92</ele><time>2026-08-23T09:24:07Z</time></trkpt><trkpt lat="40.8619383071" lon="-3.6988013517"><ele>1210.92</ele><time>2026-08-23T09:24:08Z</time></trkpt><trkpt lat="40.8618199546" lon="-3.6989809759"><ele>1209.96</ele><time>2026-08-23T09:24:11Z</time></trkpt><trkpt lat="40.8617167734" lon="-3.6991841532"><ele>1210.92</ele><time>2026-08-23T09:24:15Z</time></trkpt><trkpt lat="40.8616670687" lon="-3.6992802937"><ele>1211.40</ele><time>2026-08-23T09:24:17Z</time></trkpt><trkpt lat="40.8616384864" lon="-3.6993222870"><ele>1211.40</ele><time>2026-08-23T09:24:18Z</time></trkpt><trkpt lat="40.8613809943" lon="-3.6996674538"><ele>1209.00</ele><time>2026-08-23T09:24:25Z</time></trkpt><trkpt lat="40.8612469677" lon="-3.6997983791"><ele>1205.63</ele><time>2026-08-23T09:24:29Z</time></trkpt><trkpt lat="40.8611719497" lon="-3.6998531129"><ele>1205.15</ele><time>2026-08-23T09:24:35Z</time></trkpt><trkpt lat="40.8609867096" lon="-3.7001119461"><ele>1205.15</ele><time>2026-08-23T09:24:46Z</time></trkpt><trkpt lat="40.8608751465" lon="-3.7002722081"><ele>1206.11</ele><time>2026-08-23T09:24:52Z</time></trkpt><trkpt lat="40.8605719730" lon="-3.7007512338"><ele>1206.11</ele><time>2026-08-23T09:25:05Z</time></trkpt><trkpt lat="40.8604392875" lon="-3.7009728514"><ele>1204.67</ele><time>2026-08-23T09:25:10Z</time></trkpt><trkpt lat="40.8602830488" lon="-3.7012523878"><ele>1201.79</ele><time>2026-08-23T09:25:16Z</time></trkpt><trkpt lat="40.8601377066" lon="-3.7014170084"><ele>1200.82</ele><time>2026-08-23T09:25:22Z</time></trkpt><trkpt lat="40.8601153269" lon="-3.7014748435"><ele>1200.82</ele><time>2026-08-23T09:25:23Z</time></trkpt><trkpt lat="40.8597891033" lon="-3.7023578770"><ele>1199.38</ele><time>2026-08-23T09:25:38Z</time></trkpt><trkpt lat="40.8596884366" lon="-3.7026042212"><ele>1199.38</ele><time>2026-08-23T09:25:42Z</time></trkpt><trkpt lat="40.8596528973" lon="-3.7026549317"><ele>1199.38</ele><time>2026-08-23T09:25:43Z</time></trkpt><trkpt lat="40.8595966548" lon="-3.7026773952"><ele>1198.90</ele><time>2026-08-23T09:25:44Z</time></trkpt><trkpt lat="40.8595444355" lon="-3.7026632298"><ele>1198.90</ele><time>2026-08-23T09:25:46Z</time></trkpt><trkpt lat="40.8594727702" lon="-3.7026449572"><ele>1198.42</ele><time>2026-08-23T09:25:47Z</time></trkpt><trkpt lat="40.8594099898" lon="-3.7026466336"><ele>1198.42</ele><time>2026-08-23T09:25:48Z</time></trkpt><trkpt lat="40.8593529928" lon="-3.7026601285"><ele>1198.42</ele><time>2026-08-23T09:25:49Z</time></trkpt><trkpt lat="40.8593021985" lon="-3.7026851904"><ele>1197.94</ele><time>2026-08-23T09:25:50Z</time></trkpt><trkpt lat="40.8592586126" lon="-3.7027253397"><ele>1197.94</ele><time>2026-08-23T09:25:51Z</time></trkpt><trkpt lat="40.8592229895" lon="-3.7027738709"><ele>1197.46</ele><time>2026-08-23T09:25:52Z</time></trkpt><trkpt lat="40.8591949940" lon="-3.7028215639"><ele>1197.94</ele><time>2026-08-23T09:25:53Z</time></trkpt><trkpt lat="40.8591668308" lon="-3.7028719392"><ele>1197.46</ele><time>2026-08-23T09:25:54Z</time></trkpt><trkpt lat="40.8591426071" lon="-3.7029227335"><ele>1196.98</ele><time>2026-08-23T09:25:55Z</time></trkpt><trkpt lat="40.8591193892" lon="-3.7029708456"><ele>1196.98</ele><time>2026-08-23T09:25:56Z</time></trkpt><trkpt lat="40.8587657567" lon="-3.7036847323"><ele>1196.98</ele><time>2026-08-23T09:26:12Z</time></trkpt><trkpt lat="40.8583813626" lon="-3.7042446434"><ele>1194.58</ele><time>2026-08-23T09:26:26Z</time></trkpt><trkpt lat="40.8583611622" lon="-3.7043034844"><ele>1194.09</ele><time>2026-08-23T09:26:27Z</time></trkpt><trkpt lat="40.8583425544" lon="-3.7043585535"><ele>1194.09</ele><time>2026-08-23T09:26:28Z</time></trkpt><trkpt lat="40.8582659438" lon="-3.7045235932"><ele>1193.61</ele><time>2026-08-23T09:26:31Z</time></trkpt><trkpt lat="40.8582336735" lon="-3.7045711186"><ele>1193.61</ele><time>2026-08-23T09:26:32Z</time></trkpt><trkpt lat="40.8581977151" lon="-3.7046172190"><ele>1193.61</ele><time>2026-08-23T09:26:33Z</time></trkpt><trkpt lat="40.8581232838" lon="-3.7047095876"><ele>1193.13</ele><time>2026-08-23T09:26:35Z</time></trkpt><trkpt lat="40.8580911811" lon="-3.7047680933"><ele>1193.13</ele><time>2026-08-23T09:26:36Z</time></trkpt><trkpt lat="40.8580696397" lon="-3.7048291136"><ele>1193.13</ele><time>2026-08-23T09:26:37Z</time></trkpt><trkpt lat="40.8580530435" lon="-3.7048957497"><ele>1192.17</ele><time>2026-08-23T09:26:38Z</time></trkpt><trkpt lat="40.8580398001" lon="-3.7049656548"><ele>1192.17</ele><time>2026-08-23T09:26:39Z</time></trkpt><trkpt lat="40.8579924423" lon="-3.7052394077"><ele>1191.21</ele><time>2026-08-23T09:26:43Z</time></trkpt><trkpt lat="40.8579768520" lon="-3.7052890286"><ele>1191.21</ele><time>2026-08-23T09:26:44Z</time></trkpt><trkpt lat="40.8579532150" lon="-3.7053447682"><ele>1191.21</ele><time>2026-08-23T09:26:45Z</time></trkpt><trkpt lat="40.8576103114" lon="-3.7059435714"><ele>1188.81</ele><time>2026-08-23T09:26:55Z</time></trkpt><trkpt lat="40.8575865906" lon="-3.7060092017"><ele>1187.85</ele><time>2026-08-23T09:26:56Z</time></trkpt><trkpt lat="40.8575671446" lon="-3.7060441542"><ele>1187.85</ele><time>2026-08-23T09:26:57Z</time></trkpt><trkpt lat="40.8574979939" lon="-3.7061316613"><ele>1186.88</ele><time>2026-08-23T09:26:59Z</time></trkpt><trkpt lat="40.8574575931" lon="-3.7061608303"><ele>1185.92</ele><time>2026-08-23T09:27:00Z</time></trkpt><trkpt lat="40.8574089780" lon="-3.7061861437"><ele>1185.92</ele><time>2026-08-23T09:27:01Z</time></trkpt><trkpt lat="40.8573548310" lon="-3.7062024046"><ele>1185.44</ele><time>2026-08-23T09:27:02Z</time></trkpt><trkpt lat="40.8573023602" lon="-3.7062074337"><ele>1185.44</ele><time>2026-08-23T09:27:03Z</time></trkpt><trkpt lat="40.8572593611" lon="-3.7062122114"><ele>1185.44</ele><time>2026-08-23T09:27:04Z</time></trkpt><trkpt lat="40.8572242409" lon="-3.7062223535"><ele>1184.48</ele><time>2026-08-23T09:27:05Z</time></trkpt><trkpt lat="40.8571934793" lon="-3.7062332500"><ele>1184.48</ele><time>2026-08-23T09:27:06Z</time></trkpt><trkpt lat="40.8571519889" lon="-3.7062540371"><ele>1184.48</ele><time>2026-08-23T09:27:08Z</time></trkpt><trkpt lat="40.8571434394" lon="-3.7062825356"><ele>1184.00</ele><time>2026-08-23T09:27:09Z</time></trkpt><trkpt lat="40.8571510669" lon="-3.7063558772"><ele>1184.00</ele><time>2026-08-23T09:27:11Z</time></trkpt><trkpt lat="40.8571648970" lon="-3.7064259499"><ele>1184.00</ele><time>2026-08-23T09:27:12Z</time></trkpt><trkpt lat="40.8571612928" lon="-3.7067670096"><ele>1185.44</ele><time>2026-08-23T09:27:18Z</time></trkpt><trkpt lat="40.8570704330" lon="-3.7070483062"><ele>1186.40</ele><time>2026-08-23T09:27:24Z</time></trkpt><trkpt lat="40.8570237458" lon="-3.7070487253"><ele>1186.88</ele><time>2026-08-23T09:27:26Z</time></trkpt><trkpt lat="40.8569687605" lon="-3.7070253398"><ele>1186.88</ele><time>2026-08-23T09:27:27Z</time></trkpt><trkpt lat="40.8569412678" lon="-3.7070094142"><ele>1186.88</ele><time>2026-08-23T09:27:28Z</time></trkpt><trkpt lat="40.8569082431" lon="-3.7069914769"><ele>1186.88</ele><time>2026-08-23T09:27:29Z</time></trkpt><trkpt lat="40.8568737097" lon="-3.7069741264"><ele>1186.88</ele><time>2026-08-23T09:27:30Z</time></trkpt><trkpt lat="40.8565088455" lon="-3.7067871261"><ele>1187.37</ele><time>2026-08-23T09:27:40Z</time></trkpt><trkpt lat="40.8564652596" lon="-3.7067774031"><ele>1187.37</ele><time>2026-08-23T09:27:41Z</time></trkpt><trkpt lat="40.8562409598" lon="-3.7067542691"><ele>1185.92</ele><time>2026-08-23T09:27:46Z</time></trkpt><trkpt lat="40.8557483554" lon="-3.7066147104"><ele>1184.96</ele><time>2026-08-23T09:27:56Z</time></trkpt><trkpt lat="40.8556977287" lon="-3.7065829430"><ele>1184.96</ele><time>2026-08-23T09:27:57Z</time></trkpt><trkpt lat="40.8556635305" lon="-3.7065546960"><ele>1184.96</ele><time>2026-08-23T09:27:58Z</time></trkpt><trkpt lat="40.8555455972" lon="-3.7064673565"><ele>1184.96</ele><time>2026-08-23T09:28:01Z</time></trkpt><trkpt lat="40.8555010054" lon="-3.7064460665"><ele>1184.96</ele><time>2026-08-23T09:28:02Z</time></trkpt><trkpt lat="40.8554472774" lon="-3.7064264528"><ele>1184.96</ele><time>2026-08-23T09:28:03Z</time></trkpt><trkpt lat="40.8552892786" lon="-3.7063776702"><ele>1186.40</ele><time>2026-08-23T09:28:07Z</time></trkpt><trkpt lat="40.8548669145" lon="-3.7061986327"><ele>1188.81</ele><time>2026-08-23T09:28:21Z</time></trkpt><trkpt lat="40.8548477199" lon="-3.7061475869"><ele>1188.81</ele><time>2026-08-23T09:28:23Z</time></trkpt><trkpt lat="40.8548169583" lon="-3.7061024085"><ele>1189.29</ele><time>2026-08-23T09:28:24Z</time></trkpt><trkpt lat="40.8547911420" lon="-3.7060724851"><ele>1188.81</ele><time>2026-08-23T09:28:25Z</time></trkpt><trkpt lat="40.8547629789" lon="-3.7060474232"><ele>1189.29</ele><time>2026-08-23T09:28:26Z</time></trkpt><trkpt lat="40.8546357416" lon="-3.7058776896"><ele>1189.29</ele><time>2026-08-23T09:28:31Z</time></trkpt><trkpt lat="40.8545595501" lon="-3.7055173516"><ele>1188.81</ele><time>2026-08-23T09:28:39Z</time></trkpt><trkpt lat="40.8545269445" lon="-3.7054085545"><ele>1187.85</ele><time>2026-08-23T09:28:41Z</time></trkpt><trkpt lat="40.8544577938" lon="-3.7051392440"><ele>1186.40</ele><time>2026-08-23T09:28:45Z</time></trkpt><trkpt lat="40.8544393536" lon="-3.7050779723"><ele>1185.44</ele><time>2026-08-23T09:28:46Z</time></trkpt><trkpt lat="40.8544188179" lon="-3.7050104141"><ele>1184.96</ele><time>2026-08-23T09:28:47Z</time></trkpt><trkpt lat="40.8543735556" lon="-3.7048816681"><ele>1184.00</ele><time>2026-08-23T09:28:49Z</time></trkpt><trkpt lat="40.8543486614" lon="-3.7048295327"><ele>1184.00</ele><time>2026-08-23T09:28:50Z</time></trkpt><trkpt lat="40.8543225937" lon="-3.7047857791"><ele>1184.00</ele><time>2026-08-23T09:28:51Z</time></trkpt><trkpt lat="40.8542953525" lon="-3.7047430314"><ele>1183.04</ele><time>2026-08-23T09:28:52Z</time></trkpt><trkpt lat="40.8542490844" lon="-3.7046556920"><ele>1182.56</ele><time>2026-08-23T09:28:54Z</time></trkpt><trkpt lat="40.8542273752" lon="-3.7046022154"><ele>1182.56</ele><time>2026-08-23T09:28:55Z</time></trkpt><trkpt lat="40.8542090189" lon="-3.7045471463"><ele>1181.60</ele><time>2026-08-23T09:28:56Z</time></trkpt><trkpt lat="40.8541924227" lon="-3.7044971064"><ele>1180.64</ele><time>2026-08-23T09:28:57Z</time></trkpt><trkpt lat="40.8541751560" lon="-3.7044511735"><ele>1180.16</ele><time>2026-08-23T09:28:58Z</time></trkpt><trkpt lat="40.8541305643" lon="-3.7043042388"><ele>1177.75</ele><time>2026-08-23T09:29:02Z</time></trkpt><trkpt lat="40.8541141357" lon="-3.7042793445"><ele>1177.75</ele><time>2026-08-23T09:29:03Z</time></trkpt><trkpt lat="40.8539803606" lon="-3.7041065097"><ele>1174.39</ele><time>2026-08-23T09:29:08Z</time></trkpt><trkpt lat="40.8537526242" lon="-3.7038288172"><ele>1172.47</ele><time>2026-08-23T09:29:15Z</time></trkpt><trkpt lat="40.8536042646" lon="-3.7036723271"><ele>1171.02</ele><time>2026-08-23T09:29:18Z</time></trkpt><trkpt lat="40.8535411488" lon="-3.7036277354"><ele>1170.54</ele><time>2026-08-23T09:29:19Z</time></trkpt><trkpt lat="40.8530940581" lon="-3.7032637093"><ele>1167.18</ele><time>2026-08-23T09:29:26Z</time></trkpt><trkpt lat="40.8527203929" lon="-3.7028508168"><ele>1165.74</ele><time>2026-08-23T09:29:32Z</time></trkpt><trkpt lat="40.8524771500" lon="-3.7026047241"><ele>1163.81</ele><time>2026-08-23T09:29:36Z</time></trkpt><trkpt lat="40.8524126932" lon="-3.7025642395"><ele>1163.81</ele><time>2026-08-23T09:29:37Z</time></trkpt><trkpt lat="40.8522262797" lon="-3.7024578732"><ele>1163.33</ele><time>2026-08-23T09:29:40Z</time></trkpt><trkpt lat="40.8521873038" lon="-3.7024111021"><ele>1162.85</ele><time>2026-08-23T09:29:41Z</time></trkpt><trkpt lat="40.8521357551" lon="-3.7023299653"><ele>1162.85</ele><time>2026-08-23T09:29:42Z</time></trkpt><trkpt lat="40.8520935941" lon="-3.7022490799"><ele>1162.85</ele><time>2026-08-23T09:29:44Z</time></trkpt><trkpt lat="40.8520463202" lon="-3.7021851260"><ele>1162.85</ele><time>2026-08-23T09:29:45Z</time></trkpt><trkpt lat="40.8520034887" lon="-3.7021405343"><ele>1161.89</ele><time>2026-08-23T09:29:46Z</time></trkpt><trkpt lat="40.8519595675" lon="-3.7020942662"><ele>1161.89</ele><time>2026-08-23T09:29:47Z</time></trkpt><trkpt lat="40.8519158978" lon="-3.7020378560"><ele>1161.89</ele><time>2026-08-23T09:29:48Z</time></trkpt><trkpt lat="40.8518732339" lon="-3.7019765005"><ele>1161.89</ele><time>2026-08-23T09:29:49Z</time></trkpt><trkpt lat="40.8517840505" lon="-3.7018484250"><ele>1161.41</ele><time>2026-08-23T09:29:51Z</time></trkpt><trkpt lat="40.8517337590" lon="-3.7017962057"><ele>1161.41</ele><time>2026-08-23T09:29:52Z</time></trkpt><trkpt lat="40.8516752534" lon="-3.7017552182"><ele>1159.97</ele><time>2026-08-23T09:29:53Z</time></trkpt><trkpt lat="40.8516139816" lon="-3.7017186731"><ele>1159.97</ele><time>2026-08-23T09:29:54Z</time></trkpt><trkpt lat="40.8514434937" lon="-3.7016123068"><ele>1162.37</ele><time>2026-08-23T09:29:57Z</time></trkpt><trkpt lat="40.8513855748" lon="-3.7015618477"><ele>1162.37</ele><time>2026-08-23T09:29:58Z</time></trkpt><trkpt lat="40.8513360377" lon="-3.7015076168"><ele>1162.37</ele><time>2026-08-23T09:29:59Z</time></trkpt><trkpt lat="40.8512466867" lon="-3.7013849895"><ele>1160.45</ele><time>2026-08-23T09:30:01Z</time></trkpt><trkpt lat="40.8511652984" lon="-3.7012818921"><ele>1160.45</ele><time>2026-08-23T09:30:03Z</time></trkpt><trkpt lat="40.8511193655" lon="-3.7012570817"><ele>1162.37</ele><time>2026-08-23T09:30:04Z</time></trkpt><trkpt lat="40.8510677330" lon="-3.7012411561"><ele>1162.37</ele><time>2026-08-23T09:30:05Z</time></trkpt><trkpt lat="40.8510169387" lon="-3.7012225483"><ele>1162.37</ele><time>2026-08-23T09:30:06Z</time></trkpt><trkpt lat="40.8509653900" lon="-3.7011939660"><ele>1162.37</ele><time>2026-08-23T09:30:07Z</time></trkpt><trkpt lat="40.8509145956" lon="-3.7011523079"><ele>1162.37</ele><time>2026-08-23T09:30:08Z</time></trkpt><trkpt lat="40.8507709298" lon="-3.7010139227"><ele>1162.37</ele><time>2026-08-23T09:30:11Z</time></trkpt><trkpt lat="40.8507329598" lon="-3.7009634636"><ele>1162.37</ele><time>2026-08-23T09:30:12Z</time></trkpt><trkpt lat="40.8506930619" lon="-3.7009112444"><ele>1162.37</ele><time>2026-08-23T09:30:13Z</time></trkpt><trkpt lat="40.8506482188" lon="-3.7008668203"><ele>1162.37</ele><time>2026-08-23T09:30:14Z</time></trkpt><trkpt lat="40.8506004419" lon="-3.7008337118"><ele>1162.37</ele><time>2026-08-23T09:30:15Z</time></trkpt><trkpt lat="40.8505502343" lon="-3.7008089852"><ele>1162.37</ele><time>2026-08-23T09:30:16Z</time></trkpt><trkpt lat="40.8504990209" lon="-3.7007873598"><ele>1162.37</ele><time>2026-08-23T09:30:17Z</time></trkpt><trkpt lat="40.8504492324" lon="-3.7007636391"><ele>1162.37</ele><time>2026-08-23T09:30:18Z</time></trkpt><trkpt lat="40.8501344919" lon="-3.7005860265"><ele>1159.01</ele><time>2026-08-23T09:30:24Z</time></trkpt><trkpt lat="40.8500074223" lon="-3.7005309574"><ele>1158.53</ele><time>2026-08-23T09:30:26Z</time></trkpt><trkpt lat="40.8498728927" lon="-3.7004885450"><ele>1158.53</ele><time>2026-08-23T09:30:28Z</time></trkpt><trkpt lat="40.8498083521" lon="-3.7004830968"><ele>1158.53</ele><time>2026-08-23T09:30:29Z</time></trkpt><trkpt lat="40.8496894129" lon="-3.7004666682"><ele>1157.56</ele><time>2026-08-23T09:30:31Z</time></trkpt><trkpt lat="40.8496385347" lon="-3.7004395947"><ele>1157.56</ele><time>2026-08-23T09:30:32Z</time></trkpt><trkpt lat="40.8495060168" lon="-3.7003421970"><ele>1157.08</ele><time>2026-08-23T09:30:35Z</time></trkpt><trkpt lat="40.8494746685" lon="-3.7003029697"><ele>1157.08</ele><time>2026-08-23T09:30:36Z</time></trkpt><trkpt lat="40.8494048472" lon="-3.7002077512"><ele>1157.08</ele><time>2026-08-23T09:30:38Z</time></trkpt><trkpt lat="40.8493838087" lon="-3.7001667637"><ele>1156.12</ele><time>2026-08-23T09:30:39Z</time></trkpt><trkpt lat="40.8493681345" lon="-3.7001261115"><ele>1155.16</ele><time>2026-08-23T09:30:40Z</time></trkpt><trkpt lat="40.8493572380" lon="-3.7000881415"><ele>1154.20</ele><time>2026-08-23T09:30:41Z</time></trkpt><trkpt lat="40.8493487723" lon="-3.7000496686"><ele>1153.72</ele><time>2026-08-23T09:30:42Z</time></trkpt><trkpt lat="40.8493450843" lon="-3.7000112794"><ele>1153.72</ele><time>2026-08-23T09:30:43Z</time></trkpt><trkpt lat="40.8493462577" lon="-3.6999769136"><ele>1152.76</ele><time>2026-08-23T09:30:44Z</time></trkpt><trkpt lat="40.8493486047" lon="-3.6999415420"><ele>1152.28</ele><time>2026-08-23T09:30:45Z</time></trkpt><trkpt lat="40.8493478503" lon="-3.6999083497"><ele>1151.32</ele><time>2026-08-23T09:30:46Z</time></trkpt><trkpt lat="40.8493461739" lon="-3.6998788454"><ele>1151.32</ele><time>2026-08-23T09:30:47Z</time></trkpt><trkpt lat="40.8493464254" lon="-3.6998490058"><ele>1150.84</ele><time>2026-08-23T09:30:48Z</time></trkpt><trkpt lat="40.8492217027" lon="-3.6995170824"><ele>1147.95</ele><time>2026-08-23T09:30:57Z</time></trkpt><trkpt lat="40.8491381351" lon="-3.6994147394"><ele>1146.03</ele><time>2026-08-23T09:31:01Z</time></trkpt><trkpt lat="40.8491129056" lon="-3.6993955448"><ele>1146.03</ele><time>2026-08-23T09:31:02Z</time></trkpt><trkpt lat="40.8490810543" lon="-3.6993522942"><ele>1145.55</ele><time>2026-08-23T09:31:03Z</time></trkpt><trkpt lat="40.8490683138" lon="-3.6993174255"><ele>1145.55</ele><time>2026-08-23T09:31:04Z</time></trkpt><trkpt lat="40.8490534779" lon="-3.6992662959"><ele>1145.55</ele><time>2026-08-23T09:31:05Z</time></trkpt><trkpt lat="40.8490414079" lon="-3.6992166750"><ele>1144.59</ele><time>2026-08-23T09:31:06Z</time></trkpt><trkpt lat="40.8490306791" lon="-3.6990799662"><ele>1144.11</ele><time>2026-08-23T09:31:09Z</time></trkpt><trkpt lat="40.8490566630" lon="-3.6990376376"><ele>1143.63</ele><time>2026-08-23T09:31:11Z</time></trkpt><trkpt lat="40.8490952197" lon="-3.6989919562"><ele>1143.63</ele><time>2026-08-23T09:31:12Z</time></trkpt><trkpt lat="40.8491124865" lon="-3.6989601050"><ele>1143.63</ele><time>2026-08-23T09:31:13Z</time></trkpt><trkpt lat="40.8491310105" lon="-3.6989185307"><ele>1143.63</ele><time>2026-08-23T09:31:14Z</time></trkpt><trkpt lat="40.8491521329" lon="-3.6988731008"><ele>1143.14</ele><time>2026-08-23T09:31:15Z</time></trkpt><trkpt lat="40.8491779491" lon="-3.6988265812"><ele>1142.18</ele><time>2026-08-23T09:31:16Z</time></trkpt><trkpt lat="40.8492521290" lon="-3.6987111624"><ele>1140.26</ele><time>2026-08-23T09:31:19Z</time></trkpt><trkpt lat="40.8493196871" lon="-3.6986336298"><ele>1138.82</ele><time>2026-08-23T09:31:22Z</time></trkpt><trkpt lat="40.8493255544" lon="-3.6986033712"><ele>1138.82</ele><time>2026-08-23T09:31:23Z</time></trkpt><trkpt lat="40.8493231237" lon="-3.6985815782"><ele>1138.82</ele><time>2026-08-23T09:31:24Z</time></trkpt><trkpt lat="40.8493114728" lon="-3.6985604558"><ele>1141.22</ele><time>2026-08-23T09:31:25Z</time></trkpt><trkpt lat="40.8492897637" lon="-3.6985421833"><ele>1141.22</ele><time>2026-08-23T09:31:27Z</time></trkpt><trkpt lat="40.8492094651" lon="-3.6985042132"><ele>1142.18</ele><time>2026-08-23T09:31:29Z</time></trkpt><trkpt lat="40.8491718303" lon="-3.6984921433"><ele>1142.18</ele><time>2026-08-23T09:31:30Z</time></trkpt><trkpt lat="40.8490593452" lon="-3.6984409299"><ele>1141.22</ele><time>2026-08-23T09:31:33Z</time></trkpt><trkpt lat="40.8488375600" lon="-3.6983279418"><ele>1138.34</ele><time>2026-08-23T09:31:44Z</time></trkpt><trkpt lat="40.8486643899" lon="-3.6982634012"><ele>1138.34</ele><time>2026-08-23T09:31:53Z</time></trkpt><trkpt lat="40.8483314607" lon="-3.6980363354"><ele>1136.90</ele><time>2026-08-23T09:32:08Z</time></trkpt><trkpt lat="40.8478748985" lon="-3.6976277176"><ele>1134.97</ele><time>2026-08-23T09:32:22Z</time></trkpt><trkpt lat="40.8477176540" lon="-3.6973683815"><ele>1133.05</ele><time>2026-08-23T09:32:28Z</time></trkpt><trkpt lat="40.8474941924" lon="-3.6968659703"><ele>1131.61</ele><time>2026-08-23T09:32:37Z</time></trkpt><trkpt lat="40.8474646043" lon="-3.6968077999"><ele>1131.13</ele><time>2026-08-23T09:32:38Z</time></trkpt><trkpt lat="40.8474343456" lon="-3.6967492104"><ele>1131.13</ele><time>2026-08-23T09:32:39Z</time></trkpt><trkpt lat="40.8474096190" lon="-3.6966922972"><ele>1131.13</ele><time>2026-08-23T09:32:40Z</time></trkpt><trkpt lat="40.8473864850" lon="-3.6966265831"><ele>1131.13</ele><time>2026-08-23T09:32:41Z</time></trkpt><trkpt lat="40.8473706432" lon="-3.6965621263"><ele>1130.17</ele><time>2026-08-23T09:32:42Z</time></trkpt><trkpt lat="40.8473584894" lon="-3.6964975018"><ele>1130.17</ele><time>2026-08-23T09:32:43Z</time></trkpt><trkpt lat="40.8473009057" lon="-3.6962960847"><ele>1130.17</ele><time>2026-08-23T09:32:46Z</time></trkpt><trkpt lat="40.8472462557" lon="-3.6961678416"><ele>1129.69</ele><time>2026-08-23T09:32:48Z</time></trkpt><trkpt lat="40.8471601736" lon="-3.6959303822"><ele>1131.13</ele><time>2026-08-23T09:32:52Z</time></trkpt><trkpt lat="40.8471281547" lon="-3.6958728824"><ele>1131.13</ele><time>2026-08-23T09:32:53Z</time></trkpt><trkpt lat="40.8470906038" lon="-3.6958278716"><ele>1131.13</ele><time>2026-08-23T09:32:54Z</time></trkpt><trkpt lat="40.8470472693" lon="-3.6957879737"><ele>1129.69</ele><time>2026-08-23T09:32:55Z</time></trkpt><trkpt lat="40.8470021747" lon="-3.6957469862"><ele>1129.69</ele><time>2026-08-23T09:32:56Z</time></trkpt><trkpt lat="40.8469632827" lon="-3.6957061663"><ele>1129.21</ele><time>2026-08-23T09:32:57Z</time></trkpt><trkpt lat="40.8469243068" lon="-3.6956580542"><ele>1129.21</ele><time>2026-08-23T09:32:58Z</time></trkpt><trkpt lat="40.8468881808" lon="-3.6956041586"><ele>1128.73</ele><time>2026-08-23T09:32:59Z</time></trkpt><trkpt lat="40.8468564134" lon="-3.6955436412"><ele>1128.73</ele><time>2026-08-23T09:33:00Z</time></trkpt><trkpt lat="40.8468268253" lon="-3.6954797711"><ele>1130.17</ele><time>2026-08-23T09:33:01Z</time></trkpt><trkpt lat="40.8467970695" lon="-3.6954152305"><ele>1130.17</ele><time>2026-08-23T09:33:02Z</time></trkpt><trkpt lat="40.8467275836" lon="-3.6952883285"><ele>1127.76</ele><time>2026-08-23T09:33:04Z</time></trkpt><trkpt lat="40.8466948941" lon="-3.6952149030"><ele>1127.76</ele><time>2026-08-23T09:33:05Z</time></trkpt><trkpt lat="40.8466663118" lon="-3.6951265577"><ele>1127.76</ele><time>2026-08-23T09:33:06Z</time></trkpt><trkpt lat="40.8466462791" lon="-3.6950386316"><ele>1125.84</ele><time>2026-08-23T09:33:07Z</time></trkpt><trkpt lat="40.8466322813" lon="-3.6949437484"><ele>1124.40</ele><time>2026-08-23T09:33:08Z</time></trkpt><trkpt lat="40.8466177806" lon="-3.6948497873"><ele>1126.80</ele><time>2026-08-23T09:33:09Z</time></trkpt><trkpt lat="40.8465985861" lon="-3.6947596818"><ele>1124.88</ele><time>2026-08-23T09:33:10Z</time></trkpt><trkpt lat="40.8465713449" lon="-3.6946749408"><ele>1124.40</ele><time>2026-08-23T09:33:11Z</time></trkpt><trkpt lat="40.8465373982" lon="-3.6945922114"><ele>1124.40</ele><time>2026-08-23T09:33:12Z</time></trkpt><trkpt lat="40.8465061337" lon="-3.6945069674"><ele>1122.48</ele><time>2026-08-23T09:33:13Z</time></trkpt><trkpt lat="40.8463739511" lon="-3.6940547638"><ele>1120.07</ele><time>2026-08-23T09:33:18Z</time></trkpt><trkpt lat="40.8463349752" lon="-3.6939753871"><ele>1119.11</ele><time>2026-08-23T09:33:19Z</time></trkpt><trkpt lat="40.8462908026" lon="-3.6939033028"><ele>1119.11</ele><time>2026-08-23T09:33:20Z</time></trkpt><trkpt lat="40.8462400921" lon="-3.6938400194"><ele>1119.11</ele><time>2026-08-23T09:33:21Z</time></trkpt><trkpt lat="40.8461851068" lon="-3.6937841959"><ele>1118.15</ele><time>2026-08-23T09:33:22Z</time></trkpt><trkpt lat="40.8461275231" lon="-3.6937376764"><ele>1118.15</ele><time>2026-08-23T09:33:23Z</time></trkpt><trkpt lat="40.8460671734" lon="-3.6936980300"><ele>1118.15</ele><time>2026-08-23T09:33:24Z</time></trkpt><trkpt lat="40.8459963463" lon="-3.6936583836"><ele>1118.15</ele><time>2026-08-23T09:33:25Z</time></trkpt><trkpt lat="40.8459388465" lon="-3.6936327349"><ele>1118.15</ele><time>2026-08-23T09:33:26Z</time></trkpt><trkpt lat="40.8458926622" lon="-3.6936178152"><ele>1118.15</ele><time>2026-08-23T09:33:27Z</time></trkpt><trkpt lat="40.8458375931" lon="-3.6936039012"><ele>1118.15</ele><time>2026-08-23T09:33:28Z</time></trkpt><trkpt lat="40.8454616647" lon="-3.6935677752"><ele>1117.19</ele><time>2026-08-23T09:33:39Z</time></trkpt><trkpt lat="40.8452226967" lon="-3.6935495026"><ele>1116.71</ele><time>2026-08-23T09:33:52Z</time></trkpt><trkpt lat="40.8451996464" lon="-3.6935439706"><ele>1114.79</ele><time>2026-08-23T09:33:57Z</time></trkpt><trkpt lat="40.8451880794" lon="-3.6935434677"><ele>1114.79</ele><time>2026-08-23T09:33:58Z</time></trkpt><trkpt lat="40.8451708127" lon="-3.6935451441"><ele>1116.23</ele><time>2026-08-23T09:33:59Z</time></trkpt><trkpt lat="40.8451453317" lon="-3.6935438868"><ele>1116.23</ele><time>2026-08-23T09:34:00Z</time></trkpt><trkpt lat="40.8451159112" lon="-3.6935413722"><ele>1116.71</ele><time>2026-08-23T09:34:01Z</time></trkpt><trkpt lat="40.8450861555" lon="-3.6935398635"><ele>1116.71</ele><time>2026-08-23T09:34:02Z</time></trkpt><trkpt lat="40.8450564835" lon="-3.6935367621"><ele>1116.71</ele><time>2026-08-23T09:34:03Z</time></trkpt><trkpt lat="40.8450293262" lon="-3.6935337447"><ele>1116.71</ele><time>2026-08-23T09:34:04Z</time></trkpt><trkpt lat="40.8450020012" lon="-3.6935310625"><ele>1116.71</ele><time>2026-08-23T09:34:05Z</time></trkpt><trkpt lat="40.8449462615" lon="-3.6935335770"><ele>1115.27</ele><time>2026-08-23T09:34:07Z</time></trkpt><trkpt lat="40.8447933756" lon="-3.6935267039"><ele>1114.79</ele><time>2026-08-23T09:34:11Z</time></trkpt><trkpt lat="40.8447445091" lon="-3.6935306434"><ele>1114.31</ele><time>2026-08-23T09:34:12Z</time></trkpt><trkpt lat="40.8446316887" lon="-3.6935467366"><ele>1113.34</ele><time>2026-08-23T09:34:14Z</time></trkpt><trkpt lat="40.8440042194" lon="-3.6934775021"><ele>1109.50</ele><time>2026-08-23T09:34:25Z</time></trkpt><trkpt lat="40.8439458814" lon="-3.6934497580"><ele>1109.02</ele><time>2026-08-23T09:34:26Z</time></trkpt><trkpt lat="40.8438908122" lon="-3.6934166495"><ele>1109.02</ele><time>2026-08-23T09:34:27Z</time></trkpt><trkpt lat="40.8438349050" lon="-3.6933744047"><ele>1110.94</ele><time>2026-08-23T09:34:28Z</time></trkpt><trkpt lat="40.8437852841" lon="-3.6933271307"><ele>1108.54</ele><time>2026-08-23T09:34:29Z</time></trkpt><trkpt lat="40.8437357470" lon="-3.6932757497"><ele>1108.06</ele><time>2026-08-23T09:34:30Z</time></trkpt><trkpt lat="40.8436859585" lon="-3.6932186689"><ele>1108.06</ele><time>2026-08-23T09:34:31Z</time></trkpt><trkpt lat="40.8433836233" lon="-3.6928943731"><ele>1106.13</ele><time>2026-08-23T09:34:37Z</time></trkpt><trkpt lat="40.8433239441" lon="-3.6928644497"><ele>1105.17</ele><time>2026-08-23T09:34:38Z</time></trkpt><trkpt lat="40.8432581462" lon="-3.6928491108"><ele>1104.69</ele><time>2026-08-23T09:34:39Z</time></trkpt><trkpt lat="40.8431929350" lon="-3.6928521283"><ele>1103.73</ele><time>2026-08-23T09:34:40Z</time></trkpt><trkpt lat="40.8431256283" lon="-3.6928638630"><ele>1103.25</ele><time>2026-08-23T09:34:41Z</time></trkpt><trkpt lat="40.8430627640" lon="-3.6928714067"><ele>1103.25</ele><time>2026-08-23T09:34:42Z</time></trkpt><trkpt lat="40.8429974690" lon="-3.6928712390"><ele>1103.25</ele><time>2026-08-23T09:34:43Z</time></trkpt><trkpt lat="40.8429372869" lon="-3.6928623542"><ele>1103.25</ele><time>2026-08-23T09:34:44Z</time></trkpt><trkpt lat="40.8428131510" lon="-3.6928434949"><ele>1103.25</ele><time>2026-08-23T09:34:46Z</time></trkpt><trkpt lat="40.8427539747" lon="-3.6928460933"><ele>1103.25</ele><time>2026-08-23T09:34:47Z</time></trkpt><trkpt lat="40.8424052037" lon="-3.6928339396"><ele>1102.29</ele><time>2026-08-23T09:34:53Z</time></trkpt><trkpt lat="40.8423419204" lon="-3.6928091291"><ele>1102.29</ele><time>2026-08-23T09:34:54Z</time></trkpt><trkpt lat="40.8422824088" lon="-3.6927731708"><ele>1101.81</ele><time>2026-08-23T09:34:55Z</time></trkpt><trkpt lat="40.8422263339" lon="-3.6927304231"><ele>1101.81</ele><time>2026-08-23T09:34:56Z</time></trkpt><trkpt lat="40.8421695884" lon="-3.6926802155"><ele>1101.81</ele><time>2026-08-23T09:34:57Z</time></trkpt><trkpt lat="40.8417608030" lon="-3.6924285907"><ele>1100.85</ele><time>2026-08-23T09:35:04Z</time></trkpt><trkpt lat="40.8417004533" lon="-3.6924139224"><ele>1100.85</ele><time>2026-08-23T09:35:05Z</time></trkpt><trkpt lat="40.8415229246" lon="-3.6923784669"><ele>1102.29</ele><time>2026-08-23T09:35:08Z</time></trkpt><trkpt lat="40.8414674364" lon="-3.6923649721"><ele>1102.29</ele><time>2026-08-23T09:35:09Z</time></trkpt><trkpt lat="40.8414127864" lon="-3.6923429277"><ele>1102.29</ele><time>2026-08-23T09:35:10Z</time></trkpt><trkpt lat="40.8413163945" lon="-3.6922881100"><ele>1101.33</ele><time>2026-08-23T09:35:12Z</time></trkpt><trkpt lat="40.8410988003" lon="-3.6921200529"><ele>1101.33</ele><time>2026-08-23T09:35:16Z</time></trkpt><trkpt lat="40.8410526998" lon="-3.6920602899"><ele>1100.85</ele><time>2026-08-23T09:35:17Z</time></trkpt><trkpt lat="40.8410137240" lon="-3.6919931509"><ele>1100.85</ele><time>2026-08-23T09:35:18Z</time></trkpt><trkpt lat="40.8408232033" lon="-3.6916313879"><ele>1099.89</ele><time>2026-08-23T09:35:23Z</time></trkpt><trkpt lat="40.8405714948" lon="-3.6912336666"><ele>1101.33</ele><time>2026-08-23T09:35:29Z</time></trkpt><trkpt lat="40.8405327704" lon="-3.6911775079"><ele>1101.33</ele><time>2026-08-23T09:35:30Z</time></trkpt><trkpt lat="40.8404870052" lon="-3.6911262106"><ele>1101.33</ele><time>2026-08-23T09:35:31Z</time></trkpt><trkpt lat="40.8398607932" lon="-3.6904559098"><ele>1101.33</ele><time>2026-08-23T09:35:45Z</time></trkpt><trkpt lat="40.8398186322" lon="-3.6904269084"><ele>1101.33</ele><time>2026-08-23T09:35:46Z</time></trkpt><trkpt lat="40.8397737052" lon="-3.6904036906"><ele>1101.33</ele><time>2026-08-23T09:35:47Z</time></trkpt><trkpt lat="40.8396867011" lon="-3.6903557461"><ele>1101.33</ele><time>2026-08-23T09:35:49Z</time></trkpt><trkpt lat="40.8391026501" lon="-3.6899749562"><ele>1103.25</ele><time>2026-08-23T09:36:02Z</time></trkpt><trkpt lat="40.8384574950" lon="-3.6894393526"><ele>1101.81</ele><time>2026-08-23T09:36:17Z</time></trkpt><trkpt lat="40.8379891980" lon="-3.6890149768"><ele>1101.81</ele><time>2026-08-23T09:36:28Z</time></trkpt><trkpt lat="40.8377894573" lon="-3.6888575647"><ele>1101.81</ele><time>2026-08-23T09:36:32Z</time></trkpt><trkpt lat="40.8376562688" lon="-3.6887308303"><ele>1101.81</ele><time>2026-08-23T09:36:35Z</time></trkpt><trkpt lat="40.8376161195" lon="-3.6886897590"><ele>1101.81</ele><time>2026-08-23T09:36:36Z</time></trkpt><trkpt lat="40.8375725336" lon="-3.6886506993"><ele>1101.81</ele><time>2026-08-23T09:36:37Z</time></trkpt><trkpt lat="40.8372388501" lon="-3.6884208675"><ele>1101.81</ele><time>2026-08-23T09:36:44Z</time></trkpt><trkpt lat="40.8371921629" lon="-3.6884049419"><ele>1101.81</ele><time>2026-08-23T09:36:45Z</time></trkpt><trkpt lat="40.8367697150" lon="-3.6882423330"><ele>1103.25</ele><time>2026-08-23T09:36:54Z</time></trkpt><trkpt lat="40.8364846464" lon="-3.6880958173"><ele>1104.21</ele><time>2026-08-23T09:37:01Z</time></trkpt><trkpt lat="40.8364454191" lon="-3.6880633794"><ele>1104.69</ele><time>2026-08-23T09:37:02Z</time></trkpt><trkpt lat="40.8364080358" lon="-3.6880239844"><ele>1104.69</ele><time>2026-08-23T09:37:03Z</time></trkpt><trkpt lat="40.8363744244" lon="-3.6879817396"><ele>1105.17</ele><time>2026-08-23T09:37:04Z</time></trkpt><trkpt lat="40.8363395557" lon="-3.6879347172"><ele>1105.17</ele><time>2026-08-23T09:37:05Z</time></trkpt><trkpt lat="40.8360739332" lon="-3.6875142809"><ele>1106.13</ele><time>2026-08-23T09:37:13Z</time></trkpt><trkpt lat="40.8360544033" lon="-3.6874616425"><ele>1106.13</ele><time>2026-08-23T09:37:14Z</time></trkpt><trkpt lat="40.8360393159" lon="-3.6874036398"><ele>1106.13</ele><time>2026-08-23T09:37:15Z</time></trkpt><trkpt lat="40.8359414991" lon="-3.6866766773"><ele>1107.10</ele><time>2026-08-23T09:37:27Z</time></trkpt><trkpt lat="40.8359442651" lon="-3.6865366157"><ele>1107.10</ele><time>2026-08-23T09:37:29Z</time></trkpt><trkpt lat="40.8359503839" lon="-3.6864678003"><ele>1107.10</ele><time>2026-08-23T09:37:30Z</time></trkpt><trkpt lat="40.8359726798" lon="-3.6863310076"><ele>1106.13</ele><time>2026-08-23T09:37:32Z</time></trkpt><trkpt lat="40.8360368013" lon="-3.6860137526"><ele>1104.69</ele><time>2026-08-23T09:37:36Z</time></trkpt><trkpt lat="40.8360440936" lon="-3.6859325320"><ele>1103.73</ele><time>2026-08-23T09:37:37Z</time></trkpt><trkpt lat="40.8360487875" lon="-3.6858470365"><ele>1103.73</ele><time>2026-08-23T09:37:38Z</time></trkpt><trkpt lat="40.8360803872" lon="-3.6854296178"><ele>1102.29</ele><time>2026-08-23T09:37:43Z</time></trkpt><trkpt lat="40.8360777888" lon="-3.6853421107"><ele>1101.81</ele><time>2026-08-23T09:37:44Z</time></trkpt><trkpt lat="40.8360741008" lon="-3.6852506641"><ele>1101.33</ele><time>2026-08-23T09:37:45Z</time></trkpt><trkpt lat="40.8360704128" lon="-3.6851606425"><ele>1100.85</ele><time>2026-08-23T09:37:46Z</time></trkpt><trkpt lat="40.8360641263" lon="-3.6850663461"><ele>1101.33</ele><time>2026-08-23T09:37:47Z</time></trkpt><trkpt lat="40.8360318560" lon="-3.6847956944"><ele>1099.89</ele><time>2026-08-23T09:37:50Z</time></trkpt><trkpt lat="40.8360057883" lon="-3.6847144738"><ele>1099.40</ele><time>2026-08-23T09:37:51Z</time></trkpt><trkpt lat="40.8359747753" lon="-3.6846403778"><ele>1099.40</ele><time>2026-08-23T09:37:52Z</time></trkpt><trkpt lat="40.8357012738" lon="-3.6840665527"><ele>1097.00</ele><time>2026-08-23T09:38:01Z</time></trkpt><trkpt lat="40.8356754575" lon="-3.6839905288"><ele>1097.00</ele><time>2026-08-23T09:38:02Z</time></trkpt><trkpt lat="40.8356539160" lon="-3.6839149240"><ele>1096.04</ele><time>2026-08-23T09:38:03Z</time></trkpt><trkpt lat="40.8356156945" lon="-3.6837510578"><ele>1095.56</ele><time>2026-08-23T09:38:05Z</time></trkpt><trkpt lat="40.8355773892" lon="-3.6834893748"><ele>1094.12</ele><time>2026-08-23T09:38:08Z</time></trkpt><trkpt lat="40.8355456218" lon="-3.6830147076"><ele>1092.20</ele><time>2026-08-23T09:38:13Z</time></trkpt><trkpt lat="40.8355270978" lon="-3.6827434693"><ele>1090.27</ele><time>2026-08-23T09:38:16Z</time></trkpt><trkpt lat="40.8354998566" lon="-3.6825648509"><ele>1088.83</ele><time>2026-08-23T09:38:18Z</time></trkpt><trkpt lat="40.8354917262" lon="-3.6824649386"><ele>1088.35</ele><time>2026-08-23T09:38:19Z</time></trkpt><trkpt lat="40.8354835119" lon="-3.6823698878"><ele>1088.35</ele><time>2026-08-23T09:38:20Z</time></trkpt><trkpt lat="40.8354708552" lon="-3.6822718196"><ele>1088.35</ele><time>2026-08-23T09:38:21Z</time></trkpt><trkpt lat="40.8354530856" lon="-3.6821738351"><ele>1088.35</ele><time>2026-08-23T09:38:22Z</time></trkpt><trkpt lat="40.8354282752" lon="-3.6820710730"><ele>1088.35</ele><time>2026-08-23T09:38:23Z</time></trkpt><trkpt lat="40.8353979327" lon="-3.6819774471"><ele>1087.39</ele><time>2026-08-23T09:38:24Z</time></trkpt><trkpt lat="40.8353566099" lon="-3.6818865035"><ele>1087.39</ele><time>2026-08-23T09:38:25Z</time></trkpt><trkpt lat="40.8353112638" lon="-3.6818058696"><ele>1087.39</ele><time>2026-08-23T09:38:26Z</time></trkpt><trkpt lat="40.8352514170" lon="-3.6817205418"><ele>1085.95</ele><time>2026-08-23T09:38:27Z</time></trkpt><trkpt lat="40.8351958450" lon="-3.6816538218"><ele>1085.95</ele><time>2026-08-23T09:38:28Z</time></trkpt><trkpt lat="40.8351490740" lon="-3.6815941427"><ele>1084.99</ele><time>2026-08-23T09:38:29Z</time></trkpt><trkpt lat="40.8350982796" lon="-3.6815240700"><ele>1084.02</ele><time>2026-08-23T09:38:30Z</time></trkpt><trkpt lat="40.8348678611" lon="-3.6812164541"><ele>1083.06</ele><time>2026-08-23T09:38:39Z</time></trkpt><trkpt lat="40.8346770052" lon="-3.6810095049"><ele>1082.58</ele><time>2026-08-23T09:38:51Z</time></trkpt><trkpt lat="40.8342429064" lon="-3.6806202494"><ele>1083.54</ele><time>2026-08-23T09:39:04Z</time></trkpt><trkpt lat="40.8339383081" lon="-3.6805535294"><ele>1084.02</ele><time>2026-08-23T09:39:11Z</time></trkpt><trkpt lat="40.8338764496" lon="-3.6805505957"><ele>1084.02</ele><time>2026-08-23T09:39:12Z</time></trkpt><trkpt lat="40.8337477036" lon="-3.6805503443"><ele>1082.58</ele><time>2026-08-23T09:39:14Z</time></trkpt><trkpt lat="40.8336824924" lon="-3.6805698741"><ele>1082.58</ele><time>2026-08-23T09:39:15Z</time></trkpt><trkpt lat="40.8336230647" lon="-3.6806002166"><ele>1082.10</ele><time>2026-08-23T09:39:16Z</time></trkpt><trkpt lat="40.8335627150" lon="-3.6806396954"><ele>1082.10</ele><time>2026-08-23T09:39:17Z</time></trkpt><trkpt lat="40.8335018624" lon="-3.6806764919"><ele>1082.10</ele><time>2026-08-23T09:39:18Z</time></trkpt><trkpt lat="40.8334395010" lon="-3.6807007156"><ele>1081.14</ele><time>2026-08-23T09:39:19Z</time></trkpt><trkpt lat="40.8333721105" lon="-3.6807266157"><ele>1080.66</ele><time>2026-08-23T09:39:20Z</time></trkpt><trkpt lat="40.8333094139" lon="-3.6807631608"><ele>1080.18</ele><time>2026-08-23T09:39:21Z</time></trkpt><trkpt lat="40.8332536742" lon="-3.6808008794"><ele>1080.66</ele><time>2026-08-23T09:39:22Z</time></trkpt><trkpt lat="40.8330353256" lon="-3.6809551064"><ele>1079.70</ele><time>2026-08-23T09:39:26Z</time></trkpt><trkpt lat="40.8329811785" lon="-3.6810008716"><ele>1079.22</ele><time>2026-08-23T09:39:27Z</time></trkpt><trkpt lat="40.8329282887" lon="-3.6810365785"><ele>1079.22</ele><time>2026-08-23T09:39:28Z</time></trkpt><trkpt lat="40.8328806795" lon="-3.6810696870"><ele>1079.22</ele><time>2026-08-23T09:39:29Z</time></trkpt><trkpt lat="40.8328324836" lon="-3.6811130214"><ele>1079.22</ele><time>2026-08-23T09:39:30Z</time></trkpt><trkpt lat="40.8327865507" lon="-3.6811562721"><ele>1079.22</ele><time>2026-08-23T09:39:31Z</time></trkpt><trkpt lat="40.8326529432" lon="-3.6812791508"><ele>1079.22</ele><time>2026-08-23T09:39:34Z</time></trkpt><trkpt lat="40.8326115366" lon="-3.6813286040"><ele>1079.22</ele><time>2026-08-23T09:39:35Z</time></trkpt><trkpt lat="40.8325761650" lon="-3.6813850980"><ele>1079.22</ele><time>2026-08-23T09:39:36Z</time></trkpt><trkpt lat="40.8325488400" lon="-3.6814431008"><ele>1078.26</ele><time>2026-08-23T09:39:37Z</time></trkpt><trkpt lat="40.8325249515" lon="-3.6815104075"><ele>1078.26</ele><time>2026-08-23T09:39:38Z</time></trkpt><trkpt lat="40.8325033262" lon="-3.6815751158"><ele>1078.26</ele><time>2026-08-23T09:39:39Z</time></trkpt><trkpt lat="40.8323900867" lon="-3.6819574982"><ele>1078.26</ele><time>2026-08-23T09:39:45Z</time></trkpt><trkpt lat="40.8323523682" lon="-3.6820830591"><ele>1079.70</ele><time>2026-08-23T09:39:47Z</time></trkpt><trkpt lat="40.8323133085" lon="-3.6822777707"><ele>1079.70</ele><time>2026-08-23T09:39:50Z</time></trkpt><trkpt lat="40.8322712313" lon="-3.6825386155"><ele>1080.18</ele><time>2026-08-23T09:39:54Z</time></trkpt><trkpt lat="40.8322629333" lon="-3.6831801664"><ele>1080.66</ele><time>2026-08-23T09:40:07Z</time></trkpt><trkpt lat="40.8322304953" lon="-3.6836538278"><ele>1081.14</ele><time>2026-08-23T09:40:16Z</time></trkpt><trkpt lat="40.8322032541" lon="-3.6839039437"><ele>1081.14</ele><time>2026-08-23T09:40:20Z</time></trkpt><trkpt lat="40.8321916871" lon="-3.6840264872"><ele>1081.62</ele><time>2026-08-23T09:40:22Z</time></trkpt><trkpt lat="40.8321793657" lon="-3.6840917822"><ele>1081.62</ele><time>2026-08-23T09:40:23Z</time></trkpt><trkpt lat="40.8321609255" lon="-3.6841569096"><ele>1081.62</ele><time>2026-08-23T09:40:24Z</time></trkpt><trkpt lat="40.8319125697" lon="-3.6847495101"><ele>1081.62</ele><time>2026-08-23T09:40:33Z</time></trkpt><trkpt lat="40.8317704126" lon="-3.6850671005"><ele>1081.62</ele><time>2026-08-23T09:40:38Z</time></trkpt><trkpt lat="40.8317508828" lon="-3.6851360835"><ele>1081.62</ele><time>2026-08-23T09:40:39Z</time></trkpt><trkpt lat="40.8317078836" lon="-3.6854354013"><ele>1081.62</ele><time>2026-08-23T09:40:43Z</time></trkpt><trkpt lat="40.8317064587" lon="-3.6855170410"><ele>1081.62</ele><time>2026-08-23T09:40:44Z</time></trkpt><trkpt lat="40.8316910360" lon="-3.6857621279"><ele>1079.22</ele><time>2026-08-23T09:40:47Z</time></trkpt><trkpt lat="40.8316616155" lon="-3.6858451087"><ele>1079.22</ele><time>2026-08-23T09:40:48Z</time></trkpt><trkpt lat="40.8316197060" lon="-3.6859141756"><ele>1079.22</ele><time>2026-08-23T09:40:49Z</time></trkpt><trkpt lat="40.8315647207" lon="-3.6859726813"><ele>1079.22</ele><time>2026-08-23T09:40:50Z</time></trkpt><trkpt lat="40.8314993419" lon="-3.6860219669"><ele>1079.22</ele><time>2026-08-23T09:40:51Z</time></trkpt><trkpt lat="40.8314367291" lon="-3.6860716715"><ele>1078.74</ele><time>2026-08-23T09:40:52Z</time></trkpt><trkpt lat="40.8313741162" lon="-3.6861305125"><ele>1078.74</ele><time>2026-08-23T09:40:53Z</time></trkpt><trkpt lat="40.8313184604" lon="-3.6861968134"><ele>1077.78</ele><time>2026-08-23T09:40:54Z</time></trkpt><trkpt lat="40.8312695939" lon="-3.6862820573"><ele>1076.81</ele><time>2026-08-23T09:40:55Z</time></trkpt><trkpt lat="40.8312223200" lon="-3.6863648705"><ele>1076.81</ele><time>2026-08-23T09:40:56Z</time></trkpt><trkpt lat="40.8311581984" lon="-3.6864481866"><ele>1076.81</ele><time>2026-08-23T09:40:57Z</time></trkpt><trkpt lat="40.8311044704" lon="-3.6865062732"><ele>1074.41</ele><time>2026-08-23T09:40:58Z</time></trkpt><trkpt lat="40.8310271055" lon="-3.6865931097"><ele>1071.05</ele><time>2026-08-23T09:40:59Z</time></trkpt><trkpt lat="40.8309778199" lon="-3.6866532080"><ele>1071.05</ele><time>2026-08-23T09:41:00Z</time></trkpt><trkpt lat="40.8306996245" lon="-3.6869746540"><ele>1068.16</ele><time>2026-08-23T09:41:04Z</time></trkpt><trkpt lat="40.8304879814" lon="-3.6872132868"><ele>1066.72</ele><time>2026-08-23T09:41:07Z</time></trkpt><trkpt lat="40.8300210256" lon="-3.6877697613"><ele>1062.87</ele><time>2026-08-23T09:41:14Z</time></trkpt><trkpt lat="40.8299605083" lon="-3.6878564302"><ele>1062.87</ele><time>2026-08-23T09:41:15Z</time></trkpt><trkpt lat="40.8298592549" lon="-3.6880368087"><ele>1062.39</ele><time>2026-08-23T09:41:17Z</time></trkpt><trkpt lat="40.8298130706" lon="-3.6881308537"><ele>1062.39</ele><time>2026-08-23T09:41:18Z</time></trkpt><trkpt lat="40.8297636174" lon="-3.6882137507"><ele>1061.91</ele><time>2026-08-23T09:41:19Z</time></trkpt><trkpt lat="40.8297055308" lon="-3.6882940494"><ele>1061.43</ele><time>2026-08-23T09:41:20Z</time></trkpt><trkpt lat="40.8296460193" lon="-3.6883619428"><ele>1061.43</ele><time>2026-08-23T09:41:21Z</time></trkpt><trkpt lat="40.8295831550" lon="-3.6884205323"><ele>1061.43</ele><time>2026-08-23T09:41:22Z</time></trkpt><trkpt lat="40.8295218833" lon="-3.6884669680"><ele>1061.43</ele><time>2026-08-23T09:41:23Z</time></trkpt><trkpt lat="40.8294566721" lon="-3.6885134038"><ele>1061.43</ele><time>2026-08-23T09:41:24Z</time></trkpt><trkpt lat="40.8293969929" lon="-3.6885654554"><ele>1061.43</ele><time>2026-08-23T09:41:25Z</time></trkpt><trkpt lat="40.8293468691" lon="-3.6886214465"><ele>1061.43</ele><time>2026-08-23T09:41:26Z</time></trkpt><trkpt lat="40.8293040376" lon="-3.6886775214"><ele>1061.43</ele><time>2026-08-23T09:41:27Z</time></trkpt><trkpt lat="40.8290445339" lon="-3.6890195031"><ele>1061.43</ele><time>2026-08-23T09:41:33Z</time></trkpt><trkpt lat="40.8289379161" lon="-3.6891037412"><ele>1060.47</ele><time>2026-08-23T09:41:35Z</time></trkpt><trkpt lat="40.8288760576" lon="-3.6891429685"><ele>1059.99</ele><time>2026-08-23T09:41:36Z</time></trkpt><trkpt lat="40.8288191445" lon="-3.6891992949"><ele>1059.99</ele><time>2026-08-23T09:41:37Z</time></trkpt><trkpt lat="40.8287735470" lon="-3.6892686132"><ele>1059.51</ele><time>2026-08-23T09:41:38Z</time></trkpt><trkpt lat="40.8287286200" lon="-3.6893467326"><ele>1059.51</ele><time>2026-08-23T09:41:39Z</time></trkpt><trkpt lat="40.8286816813" lon="-3.6894180626"><ele>1059.51</ele><time>2026-08-23T09:41:40Z</time></trkpt><trkpt lat="40.8286330663" lon="-3.6894873809"><ele>1059.51</ele><time>2026-08-23T09:41:41Z</time></trkpt><trkpt lat="40.8285885584" lon="-3.6895573698"><ele>1058.07</ele><time>2026-08-23T09:41:42Z</time></trkpt><trkpt lat="40.8285386860" lon="-3.6896342319"><ele>1058.07</ele><time>2026-08-23T09:41:43Z</time></trkpt><trkpt lat="40.8284899872" lon="-3.6897079088"><ele>1058.07</ele><time>2026-08-23T09:41:44Z</time></trkpt><trkpt lat="40.8284365945" lon="-3.6897896323"><ele>1057.59</ele><time>2026-08-23T09:41:45Z</time></trkpt><trkpt lat="40.8283805195" lon="-3.6898649018"><ele>1056.63</ele><time>2026-08-23T09:41:46Z</time></trkpt><trkpt lat="40.8283233549" lon="-3.6899269279"><ele>1056.63</ele><time>2026-08-23T09:41:47Z</time></trkpt><trkpt lat="40.8282588981" lon="-3.6899839249"><ele>1056.63</ele><time>2026-08-23T09:41:48Z</time></trkpt><trkpt lat="40.8281938545" lon="-3.6900312826"><ele>1054.70</ele><time>2026-08-23T09:41:49Z</time></trkpt><trkpt lat="40.8281156514" lon="-3.6900757067"><ele>1052.30</ele><time>2026-08-23T09:41:50Z</time></trkpt><trkpt lat="40.8280357718" lon="-3.6901167780"><ele>1050.86</ele><time>2026-08-23T09:41:51Z</time></trkpt><trkpt lat="40.8279657830" lon="-3.6901588552"><ele>1049.90</ele><time>2026-08-23T09:41:52Z</time></trkpt><trkpt lat="40.8279083669" lon="-3.6902134214"><ele>1049.90</ele><time>2026-08-23T09:41:53Z</time></trkpt><trkpt lat="40.8278609253" lon="-3.6902770400"><ele>1049.42</ele><time>2026-08-23T09:41:54Z</time></trkpt><trkpt lat="40.8278253861" lon="-3.6903239787"><ele>1048.45</ele><time>2026-08-23T09:41:55Z</time></trkpt><trkpt lat="40.8277835604" lon="-3.6903703306"><ele>1047.97</ele><time>2026-08-23T09:41:56Z</time></trkpt><trkpt lat="40.8277368732" lon="-3.6904079653"><ele>1047.49</ele><time>2026-08-23T09:41:57Z</time></trkpt><trkpt lat="40.8277015015" lon="-3.6904333625"><ele>1047.01</ele><time>2026-08-23T09:41:58Z</time></trkpt><trkpt lat="40.8276215382" lon="-3.6905162595"><ele>1046.05</ele><time>2026-08-23T09:42:01Z</time></trkpt><trkpt lat="40.8275992423" lon="-3.6905134097"><ele>1045.57</ele><time>2026-08-23T09:42:02Z</time></trkpt><trkpt lat="40.8275853284" lon="-3.6904973164"><ele>1045.09</ele><time>2026-08-23T09:42:04Z</time></trkpt><trkpt lat="40.8275849931" lon="-3.6905018426"><ele>1044.61</ele><time>2026-08-23T09:42:15Z</time></trkpt><trkpt lat="40.8275558241" lon="-3.6904974002"><ele>1044.61</ele><time>2026-08-23T09:42:50Z</time></trkpt><trkpt lat="40.8275579195" lon="-3.6904936284"><ele>1044.61</ele><time>2026-08-23T09:43:17Z</time></trkpt><trkpt lat="40.8275539801" lon="-3.6904750206"><ele>1044.61</ele><time>2026-08-23T09:43:41Z</time></trkpt><trkpt lat="40.8275609370" lon="-3.6904745176"><ele>1044.61</ele><time>2026-08-23T09:44:09Z</time></trkpt><trkpt lat="40.8275512140" lon="-3.6904756911"><ele>1044.13</ele><time>2026-08-23T09:44:40Z</time></trkpt><trkpt lat="40.8275538124" lon="-3.6904786248"><ele>1044.13</ele><time>2026-08-23T09:45:09Z</time></trkpt><trkpt lat="40.8275512978" lon="-3.6904571671"><ele>1044.13</ele><time>2026-08-23T09:45:31Z</time></trkpt><trkpt lat="40.8275400661" lon="-3.6904326919"><ele>1044.13</ele><time>2026-08-23T09:45:32Z</time></trkpt><trkpt lat="40.8275196981" lon="-3.6904097255"><ele>1044.13</ele><time>2026-08-23T09:45:33Z</time></trkpt><trkpt lat="40.8274454344" lon="-3.6903703306"><ele>1043.65</ele><time>2026-08-23T09:45:35Z</time></trkpt><trkpt lat="40.8273502998" lon="-3.6903365515"><ele>1043.17</ele><time>2026-08-23T09:45:37Z</time></trkpt><trkpt lat="40.8273047023" lon="-3.6903296784"><ele>1042.69</ele><time>2026-08-23T09:45:38Z</time></trkpt><trkpt lat="40.8272596076" lon="-3.6903229728"><ele>1041.73</ele><time>2026-08-23T09:45:39Z</time></trkpt><trkpt lat="40.8272173628" lon="-3.6903214641"><ele>1041.25</ele><time>2026-08-23T09:45:40Z</time></trkpt><trkpt lat="40.8271712624" lon="-3.6903300136"><ele>1040.76</ele><time>2026-08-23T09:45:41Z</time></trkpt><trkpt lat="40.8271349687" lon="-3.6903387308"><ele>1039.32</ele><time>2026-08-23T09:45:42Z</time></trkpt><trkpt lat="40.8271021117" lon="-3.6903494596"><ele>1038.84</ele><time>2026-08-23T09:45:43Z</time></trkpt><trkpt lat="40.8270677458" lon="-3.6903714202"><ele>1038.84</ele><time>2026-08-23T09:45:44Z</time></trkpt><trkpt lat="40.8270335477" lon="-3.6904026009"><ele>1038.36</ele><time>2026-08-23T09:45:45Z</time></trkpt><trkpt lat="40.8269924764" lon="-3.6904347874"><ele>1038.36</ele><time>2026-08-23T09:45:46Z</time></trkpt><trkpt lat="40.8269422688" lon="-3.6904595979"><ele>1037.88</ele><time>2026-08-23T09:45:47Z</time></trkpt><trkpt lat="40.8268396743" lon="-3.6905032676"><ele>1037.40</ele><time>2026-08-23T09:45:49Z</time></trkpt><trkpt lat="40.8267869521" lon="-3.6905357894"><ele>1035.96</ele><time>2026-08-23T09:45:50Z</time></trkpt><trkpt lat="40.8266969305" lon="-3.6906028446"><ele>1034.04</ele><time>2026-08-23T09:45:52Z</time></trkpt><trkpt lat="40.8265186474" lon="-3.6907371227"><ele>1031.63</ele><time>2026-08-23T09:45:57Z</time></trkpt><trkpt lat="40.8264007978" lon="-3.6908373702"><ele>1030.19</ele><time>2026-08-23T09:46:00Z</time></trkpt><trkpt lat="40.8263609000" lon="-3.6908762623"><ele>1029.23</ele><time>2026-08-23T09:46:01Z</time></trkpt><trkpt lat="40.8262132946" lon="-3.6909980513"><ele>1028.27</ele><time>2026-08-23T09:46:04Z</time></trkpt><trkpt lat="40.8261643443" lon="-3.6910558026"><ele>1028.27</ele><time>2026-08-23T09:46:05Z</time></trkpt><trkpt lat="40.8261263743" lon="-3.6911156494"><ele>1027.31</ele><time>2026-08-23T09:46:06Z</time></trkpt><trkpt lat="40.8260909189" lon="-3.6911809444"><ele>1026.83</ele><time>2026-08-23T09:46:07Z</time></trkpt><trkpt lat="40.8260664437" lon="-3.6912538670"><ele>1026.34</ele><time>2026-08-23T09:46:08Z</time></trkpt><trkpt lat="40.8260494284" lon="-3.6913228501"><ele>1026.34</ele><time>2026-08-23T09:46:09Z</time></trkpt><trkpt lat="40.8260248695" lon="-3.6913930066"><ele>1025.86</ele><time>2026-08-23T09:46:10Z</time></trkpt><trkpt lat="40.8259892464" lon="-3.6914626602"><ele>1025.38</ele><time>2026-08-23T09:46:11Z</time></trkpt><trkpt lat="40.8259508573" lon="-3.6915222555"><ele>1025.38</ele><time>2026-08-23T09:46:12Z</time></trkpt><trkpt lat="40.8259037510" lon="-3.6915777437"><ele>1024.90</ele><time>2026-08-23T09:46:13Z</time></trkpt><trkpt lat="40.8258498553" lon="-3.6916239280"><ele>1024.90</ele><time>2026-08-23T09:46:14Z</time></trkpt><trkpt lat="40.8257985581" lon="-3.6916723754"><ele>1024.42</ele><time>2026-08-23T09:46:15Z</time></trkpt><trkpt lat="40.8257457521" lon="-3.6917240918"><ele>1024.42</ele><time>2026-08-23T09:46:16Z</time></trkpt><trkpt lat="40.8256927785" lon="-3.6917577870"><ele>1024.42</ele><time>2026-08-23T09:46:17Z</time></trkpt><trkpt lat="40.8256345242" lon="-3.6917808373"><ele>1023.94</ele><time>2026-08-23T09:46:18Z</time></trkpt><trkpt lat="40.8255757671" lon="-3.6918013729"><ele>1022.98</ele><time>2026-08-23T09:46:19Z</time></trkpt><trkpt lat="40.8254637849" lon="-3.6918375827"><ele>1022.50</ele><time>2026-08-23T09:46:21Z</time></trkpt><trkpt lat="40.8253745176" lon="-3.6918695178"><ele>1021.06</ele><time>2026-08-23T09:46:23Z</time></trkpt><trkpt lat="40.8251762856" lon="-3.6918707751"><ele>1017.69</ele><time>2026-08-23T09:46:28Z</time></trkpt><trkpt lat="40.8251385670" lon="-3.6918772291"><ele>1017.69</ele><time>2026-08-23T09:46:29Z</time></trkpt><trkpt lat="40.8251025248" lon="-3.6919011176"><ele>1016.73</ele><time>2026-08-23T09:46:30Z</time></trkpt><trkpt lat="40.8250679914" lon="-3.6919294484"><ele>1016.73</ele><time>2026-08-23T09:46:31Z</time></trkpt><trkpt lat="40.8248595335" lon="-3.6920846812"><ele>1015.77</ele><time>2026-08-23T09:46:37Z</time></trkpt><trkpt lat="40.8248382434" lon="-3.6921283510"><ele>1014.81</ele><time>2026-08-23T09:46:38Z</time></trkpt><trkpt lat="40.8248212282" lon="-3.6921748705"><ele>1014.81</ele><time>2026-08-23T09:46:39Z</time></trkpt><trkpt lat="40.8247953281" lon="-3.6922192946"><ele>1014.33</ele><time>2026-08-23T09:46:40Z</time></trkpt><trkpt lat="40.8247653209" lon="-3.6922589410"><ele>1014.33</ele><time>2026-08-23T09:46:41Z</time></trkpt><trkpt lat="40.8245567791" lon="-3.6926050298"><ele>1011.93</ele><time>2026-08-23T09:46:49Z</time></trkpt><trkpt lat="40.8245459665" lon="-3.6926642060"><ele>1010.96</ele><time>2026-08-23T09:46:50Z</time></trkpt><trkpt lat="40.8245338127" lon="-3.6927295849"><ele>1010.48</ele><time>2026-08-23T09:46:51Z</time></trkpt><trkpt lat="40.8245178871" lon="-3.6927915271"><ele>1010.48</ele><time>2026-08-23T09:46:52Z</time></trkpt><trkpt lat="40.8244952559" lon="-3.6928557325"><ele>1010.48</ele><time>2026-08-23T09:46:53Z</time></trkpt><trkpt lat="40.8244675957" lon="-3.6929205246"><ele>1009.52</ele><time>2026-08-23T09:46:54Z</time></trkpt><trkpt lat="40.8244411089" lon="-3.6929781921"><ele>1008.56</ele><time>2026-08-23T09:46:55Z</time></trkpt><trkpt lat="40.8243823517" lon="-3.6931467522"><ele>1008.08</ele><time>2026-08-23T09:46:59Z</time></trkpt><trkpt lat="40.8243565354" lon="-3.6931753345"><ele>1008.08</ele><time>2026-08-23T09:47:00Z</time></trkpt><trkpt lat="40.8243253548" lon="-3.6931988876"><ele>1007.60</ele><time>2026-08-23T09:47:01Z</time></trkpt><trkpt lat="40.8242932521" lon="-3.6932222731"><ele>1007.12</ele><time>2026-08-23T09:47:02Z</time></trkpt><trkpt lat="40.8242588863" lon="-3.6932449043"><ele>1006.64</ele><time>2026-08-23T09:47:03Z</time></trkpt><trkpt lat="40.8240618277" lon="-3.6934013944"><ele>1003.75</ele><time>2026-08-23T09:47:10Z</time></trkpt><trkpt lat="40.8239893243" lon="-3.6934940983"><ele>1003.27</ele><time>2026-08-23T09:47:13Z</time></trkpt><trkpt lat="40.8239557128" lon="-3.6935199983"><ele>1003.27</ele><time>2026-08-23T09:47:14Z</time></trkpt><trkpt lat="40.8239186648" lon="-3.6935448926"><ele>1002.79</ele><time>2026-08-23T09:47:15Z</time></trkpt><trkpt lat="40.8238739055" lon="-3.6935644224"><ele>1002.79</ele><time>2026-08-23T09:47:16Z</time></trkpt><trkpt lat="40.8238318283" lon="-3.6935837846"><ele>1002.31</ele><time>2026-08-23T09:47:17Z</time></trkpt><trkpt lat="40.8237892482" lon="-3.6936103553"><ele>1002.31</ele><time>2026-08-23T09:47:18Z</time></trkpt><trkpt lat="40.8237503562" lon="-3.6936412845"><ele>1001.35</ele><time>2026-08-23T09:47:19Z</time></trkpt><trkpt lat="40.8237125538" lon="-3.6936812662"><ele>1000.87</ele><time>2026-08-23T09:47:20Z</time></trkpt><trkpt lat="40.8236715663" lon="-3.6937273666"><ele>1000.39</ele><time>2026-08-23T09:47:21Z</time></trkpt><trkpt lat="40.8236274775" lon="-3.6937676836"><ele>1000.39</ele><time>2026-08-23T09:47:22Z</time></trkpt><trkpt lat="40.8235740010" lon="-3.6938007083"><ele>999.91</ele><time>2026-08-23T09:47:23Z</time></trkpt><trkpt lat="40.8235220332" lon="-3.6938359961"><ele>999.91</ele><time>2026-08-23T09:47:24Z</time></trkpt><trkpt lat="40.8234757651" lon="-3.6938825995"><ele>999.43</ele><time>2026-08-23T09:47:25Z</time></trkpt><trkpt lat="40.8234347776" lon="-3.6939390935"><ele>999.43</ele><time>2026-08-23T09:47:26Z</time></trkpt><trkpt lat="40.8233988192" lon="-3.6939893849"><ele>999.43</ele><time>2026-08-23T09:47:27Z</time></trkpt><trkpt lat="40.8233671356" lon="-3.6940418556"><ele>999.43</ele><time>2026-08-23T09:47:28Z</time></trkpt><trkpt lat="40.8233390562" lon="-3.6940852739"><ele>998.95</ele><time>2026-08-23T09:47:29Z</time></trkpt><trkpt lat="40.8233059477" lon="-3.6941178795"><ele>998.95</ele><time>2026-08-23T09:47:30Z</time></trkpt><trkpt lat="40.8231231384" lon="-3.6943109985"><ele>997.02</ele><time>2026-08-23T09:47:36Z</time></trkpt><trkpt lat="40.8230929635" lon="-3.6943500582"><ele>996.54</ele><time>2026-08-23T09:47:37Z</time></trkpt><trkpt lat="40.8230523951" lon="-3.6943859328"><ele>996.54</ele><time>2026-08-23T09:47:38Z</time></trkpt><trkpt lat="40.8230138384" lon="-3.6944242381"><ele>995.58</ele><time>2026-08-23T09:47:39Z</time></trkpt><trkpt lat="40.8229826577" lon="-3.6944715120"><ele>995.58</ele><time>2026-08-23T09:47:40Z</time></trkpt><trkpt lat="40.8229487110" lon="-3.6945235636"><ele>995.10</ele><time>2026-08-23T09:47:41Z</time></trkpt><trkpt lat="40.8229159378" lon="-3.6945724301"><ele>995.58</ele><time>2026-08-23T09:47:42Z</time></trkpt><trkpt lat="40.8228493854" lon="-3.6946720071"><ele>994.62</ele><time>2026-08-23T09:47:44Z</time></trkpt><trkpt lat="40.8228122536" lon="-3.6947197001"><ele>994.62</ele><time>2026-08-23T09:47:45Z</time></trkpt><trkpt lat="40.8227823302" lon="-3.6947676446"><ele>994.62</ele><time>2026-08-23T09:47:46Z</time></trkpt><trkpt lat="40.8227562625" lon="-3.6948142480"><ele>994.62</ele><time>2026-08-23T09:47:47Z</time></trkpt><trkpt lat="40.8227275126" lon="-3.6948622763"><ele>994.62</ele><time>2026-08-23T09:47:48Z</time></trkpt><trkpt lat="40.8225190546" lon="-3.6952281464"><ele>994.62</ele><time>2026-08-23T09:47:55Z</time></trkpt><trkpt lat="40.8224941604" lon="-3.6952777673"><ele>994.62</ele><time>2026-08-23T09:47:56Z</time></trkpt><trkpt lat="40.8224678412" lon="-3.6953212693"><ele>994.62</ele><time>2026-08-23T09:47:57Z</time></trkpt><trkpt lat="40.8224420249" lon="-3.6953576468"><ele>994.62</ele><time>2026-08-23T09:47:58Z</time></trkpt><trkpt lat="40.8224191424" lon="-3.6953895818"><ele>994.62</ele><time>2026-08-23T09:47:59Z</time></trkpt><trkpt lat="40.8224008698" lon="-3.6954177450"><ele>994.62</ele><time>2026-08-23T09:48:00Z</time></trkpt><trkpt lat="40.8223087527" lon="-3.6956122890"><ele>993.66</ele><time>2026-08-23T09:48:14Z</time></trkpt><trkpt lat="40.8222919051" lon="-3.6956060026"><ele>993.66</ele><time>2026-08-23T09:48:25Z</time></trkpt><trkpt lat="40.8222802542" lon="-3.6955926754"><ele>993.66</ele><time>2026-08-23T09:48:26Z</time></trkpt><trkpt lat="40.8222688548" lon="-3.6955576390"><ele>993.66</ele><time>2026-08-23T09:48:27Z</time></trkpt><trkpt lat="40.8222675975" lon="-3.6955288053"><ele>993.18</ele><time>2026-08-23T09:48:28Z</time></trkpt><trkpt lat="40.8222684357" lon="-3.6955089401"><ele>993.18</ele><time>2026-08-23T09:48:29Z</time></trkpt><trkpt lat="40.8222713694" lon="-3.6954800226"><ele>993.18</ele><time>2026-08-23T09:48:30Z</time></trkpt><trkpt lat="40.8222746383" lon="-3.6954598222"><ele>992.22</ele><time>2026-08-23T09:48:31Z</time></trkpt><trkpt lat="40.8222769853" lon="-3.6954390351"><ele>991.74</ele><time>2026-08-23T09:48:32Z</time></trkpt><trkpt lat="40.8223278634" lon="-3.6950373743"><ele>989.81</ele><time>2026-08-23T09:48:42Z</time></trkpt><trkpt lat="40.8224377502" lon="-3.6945605278"><ele>987.41</ele><time>2026-08-23T09:48:49Z</time></trkpt><trkpt lat="40.8225478046" lon="-3.6941763014"><ele>984.53</ele><time>2026-08-23T09:48:54Z</time></trkpt><trkpt lat="40.8225644007" lon="-3.6940992717"><ele>984.05</ele><time>2026-08-23T09:48:55Z</time></trkpt><trkpt lat="40.8225660771" lon="-3.6940273549"><ele>984.05</ele><time>2026-08-23T09:48:56Z</time></trkpt><trkpt lat="40.8225537557" lon="-3.6939464696"><ele>983.09</ele><time>2026-08-23T09:48:57Z</time></trkpt><trkpt lat="40.8225316275" lon="-3.6938577890"><ele>983.09</ele><time>2026-08-23T09:48:58Z</time></trkpt><trkpt lat="40.8225074876" lon="-3.6937546916"><ele>982.12</ele><time>2026-08-23T09:48:59Z</time></trkpt><trkpt lat="40.8224919811" lon="-3.6936554499"><ele>981.64</ele><time>2026-08-23T09:49:00Z</time></trkpt><trkpt lat="40.8224832639" lon="-3.6935412046"><ele>980.68</ele><time>2026-08-23T09:49:01Z</time></trkpt><trkpt lat="40.8224810846" lon="-3.6934382748"><ele>980.20</ele><time>2026-08-23T09:49:02Z</time></trkpt><trkpt lat="40.8224918135" lon="-3.6932262965"><ele>979.72</ele><time>2026-08-23T09:49:04Z</time></trkpt><trkpt lat="40.8225067332" lon="-3.6931118835"><ele>978.28</ele><time>2026-08-23T09:49:05Z</time></trkpt><trkpt lat="40.8225247543" lon="-3.6930079479"><ele>978.28</ele><time>2026-08-23T09:49:06Z</time></trkpt><trkpt lat="40.8225788176" lon="-3.6926812213"><ele>976.84</ele><time>2026-08-23T09:49:09Z</time></trkpt><trkpt lat="40.8225778118" lon="-3.6925838236"><ele>976.84</ele><time>2026-08-23T09:49:10Z</time></trkpt><trkpt lat="40.8225632273" lon="-3.6924820673"><ele>975.88</ele><time>2026-08-23T09:49:11Z</time></trkpt><trkpt lat="40.8224323858" lon="-3.6916282866"><ele>972.99</ele><time>2026-08-23T09:49:20Z</time></trkpt><trkpt lat="40.8224139456" lon="-3.6915324815"><ele>971.55</ele><time>2026-08-23T09:49:21Z</time></trkpt><trkpt lat="40.8223846089" lon="-3.6914277915"><ele>971.55</ele><time>2026-08-23T09:49:22Z</time></trkpt><trkpt lat="40.8223039750" lon="-3.6912052520"><ele>969.15</ele><time>2026-08-23T09:49:24Z</time></trkpt><trkpt lat="40.8222207427" lon="-3.6909568124"><ele>965.78</ele><time>2026-08-23T09:49:26Z</time></trkpt><trkpt lat="40.8220569603" lon="-3.6904383916"><ele>962.90</ele><time>2026-08-23T09:49:30Z</time></trkpt><trkpt lat="40.8217941877" lon="-3.6898199748"><ele>959.53</ele><time>2026-08-23T09:49:35Z</time></trkpt><trkpt lat="40.8215760067" lon="-3.6893281247"><ele>957.13</ele><time>2026-08-23T09:49:39Z</time></trkpt><trkpt lat="40.8213616814" lon="-3.6887049302"><ele>954.25</ele><time>2026-08-23T09:49:44Z</time></trkpt><trkpt lat="40.8212952130" lon="-3.6883425806"><ele>952.32</ele><time>2026-08-23T09:49:47Z</time></trkpt><trkpt lat="40.8212891780" lon="-3.6882127449"><ele>952.32</ele><time>2026-08-23T09:49:48Z</time></trkpt><trkpt lat="40.8212921117" lon="-3.6881005950"><ele>952.32</ele><time>2026-08-23T09:49:49Z</time></trkpt><trkpt lat="40.8214461710" lon="-3.6864882521"><ele>949.44</ele><time>2026-08-23T09:50:04Z</time></trkpt><trkpt lat="40.8214996476" lon="-3.6855893768"><ele>946.07</ele><time>2026-08-23T09:50:13Z</time></trkpt><trkpt lat="40.8216666151" lon="-3.6842816323"><ele>942.71</ele><time>2026-08-23T09:50:27Z</time></trkpt><trkpt lat="40.8218300622" lon="-3.6833965871"><ele>940.31</ele><time>2026-08-23T09:50:37Z</time></trkpt><trkpt lat="40.8220423758" lon="-3.6826732289"><ele>936.46</ele><time>2026-08-23T09:50:45Z</time></trkpt><trkpt lat="40.8222349081" lon="-3.6820027605"><ele>934.06</ele><time>2026-08-23T09:50:52Z</time></trkpt><trkpt lat="40.8222486544" lon="-3.6818888504"><ele>933.58</ele><time>2026-08-23T09:50:53Z</time></trkpt><trkpt lat="40.8222774882" lon="-3.6809504125"><ele>930.21</ele><time>2026-08-23T09:51:02Z</time></trkpt><trkpt lat="40.8222600538" lon="-3.6806737259"><ele>929.73</ele><time>2026-08-23T09:51:05Z</time></trkpt><trkpt lat="40.8221572917" lon="-3.6801591609"><ele>926.37</ele><time>2026-08-23T09:51:11Z</time></trkpt><trkpt lat="40.8221288770" lon="-3.6800853163"><ele>926.37</ele><time>2026-08-23T09:51:12Z</time></trkpt><trkpt lat="40.8217740711" lon="-3.6795045342"><ele>922.52</ele><time>2026-08-23T09:51:22Z</time></trkpt><trkpt lat="40.8217597380" lon="-3.6794136744"><ele>922.04</ele><time>2026-08-23T09:51:25Z</time></trkpt><trkpt lat="40.8219122887" lon="-3.6790012009"><ele>921.08</ele><time>2026-08-23T09:51:37Z</time></trkpt><trkpt lat="40.8221266977" lon="-3.6785574630"><ele>920.12</ele><time>2026-08-23T09:51:45Z</time></trkpt><trkpt lat="40.8221407793" lon="-3.6784815229"><ele>919.64</ele><time>2026-08-23T09:51:46Z</time></trkpt><trkpt lat="40.8221457247" lon="-3.6784295551"><ele>919.64</ele><time>2026-08-23T09:51:47Z</time></trkpt><trkpt lat="40.8222886361" lon="-3.6773405783"><ele>917.72</ele><time>2026-08-23T09:52:03Z</time></trkpt><trkpt lat="40.8224363253" lon="-3.6767821759"><ele>916.27</ele><time>2026-08-23T09:52:15Z</time></trkpt><trkpt lat="40.8225644007" lon="-3.6760660261"><ele>915.79</ele><time>2026-08-23T09:52:29Z</time></trkpt><trkpt lat="40.8225956652" lon="-3.6757184286"><ele>914.35</ele><time>2026-08-23T09:52:34Z</time></trkpt><trkpt lat="40.8225956652" lon="-3.6747854389"><ele>912.43</ele><time>2026-08-23T09:52:48Z</time></trkpt><trkpt lat="40.8226011973" lon="-3.6747255083"><ele>912.43</ele><time>2026-08-23T09:52:49Z</time></trkpt><trkpt lat="40.8226472978" lon="-3.6745206546"><ele>912.43</ele><time>2026-08-23T09:52:52Z</time></trkpt><trkpt lat="40.8226759639" lon="-3.6744534317"><ele>911.95</ele><time>2026-08-23T09:52:53Z</time></trkpt><trkpt lat="40.8227032050" lon="-3.6744042300"><ele>911.95</ele><time>2026-08-23T09:52:54Z</time></trkpt><trkpt lat="40.8229224756" lon="-3.6741376854"><ele>910.51</ele><time>2026-08-23T09:53:01Z</time></trkpt><trkpt lat="40.8229551651" lon="-3.6741406191"><ele>910.51</ele><time>2026-08-23T09:53:03Z</time></trkpt><trkpt lat="40.8229918778" lon="-3.6741672736"><ele>910.51</ele><time>2026-08-23T09:53:04Z</time></trkpt><trkpt lat="40.8230150957" lon="-3.6741894018"><ele>910.51</ele><time>2026-08-23T09:53:05Z</time></trkpt><trkpt lat="40.8230405767" lon="-3.6742144637"><ele>910.51</ele><time>2026-08-23T09:53:06Z</time></trkpt><trkpt lat="40.8230640460" lon="-3.6742298864"><ele>910.51</ele><time>2026-08-23T09:53:07Z</time></trkpt><trkpt lat="40.8230925445" lon="-3.6742438842"><ele>910.51</ele><time>2026-08-23T09:53:08Z</time></trkpt><trkpt lat="40.8232369646" lon="-3.6742432136"><ele>910.51</ele><time>2026-08-23T09:53:13Z</time></trkpt><trkpt lat="40.8232565783" lon="-3.6742247734"><ele>910.51</ele><time>2026-08-23T09:53:14Z</time></trkpt><trkpt lat="40.8232803829" lon="-3.6741995439"><ele>911.95</ele><time>2026-08-23T09:53:15Z</time></trkpt><trkpt lat="40.8233024273" lon="-3.6741766613"><ele>911.95</ele><time>2026-08-23T09:53:16Z</time></trkpt><trkpt lat="40.8233274054" lon="-3.6741537787"><ele>911.95</ele><time>2026-08-23T09:53:17Z</time></trkpt><trkpt lat="40.8233553171" lon="-3.6741322372"><ele>912.43</ele><time>2026-08-23T09:53:18Z</time></trkpt><trkpt lat="40.8233815525" lon="-3.6741158087"><ele>912.43</ele><time>2026-08-23T09:53:19Z</time></trkpt><trkpt lat="40.8234100509" lon="-3.6740963627"><ele>912.91</ele><time>2026-08-23T09:53:20Z</time></trkpt><trkpt lat="40.8234337717" lon="-3.6740776710"><ele>912.43</ele><time>2026-08-23T09:53:21Z</time></trkpt><trkpt lat="40.8234594204" lon="-3.6740516871"><ele>912.91</ele><time>2026-08-23T09:53:22Z</time></trkpt><trkpt lat="40.8234807104" lon="-3.6740255356"><ele>912.91</ele><time>2026-08-23T09:53:23Z</time></trkpt><trkpt lat="40.8235953748" lon="-3.6739358492"><ele>912.91</ele><time>2026-08-23T09:53:28Z</time></trkpt><trkpt lat="40.8236141503" lon="-3.6739425547"><ele>913.39</ele><time>2026-08-23T09:53:29Z</time></trkpt><trkpt lat="40.8236448281" lon="-3.6739552114"><ele>912.91</ele><time>2026-08-23T09:53:30Z</time></trkpt><trkpt lat="40.8236708120" lon="-3.6739678681"><ele>912.91</ele><time>2026-08-23T09:53:31Z</time></trkpt><trkpt lat="40.8236993104" lon="-3.6739760824"><ele>913.87</ele><time>2026-08-23T09:53:32Z</time></trkpt><trkpt lat="40.8237309940" lon="-3.6739837937"><ele>913.87</ele><time>2026-08-23T09:53:33Z</time></trkpt><trkpt lat="40.8237641864" lon="-3.6739879008"><ele>914.35</ele><time>2026-08-23T09:53:34Z</time></trkpt><trkpt lat="40.8237920143" lon="-3.6739904992"><ele>914.35</ele><time>2026-08-23T09:53:35Z</time></trkpt><trkpt lat="40.8238200098" lon="-3.6739934329"><ele>914.35</ele><time>2026-08-23T09:53:36Z</time></trkpt><trkpt lat="40.8238925971" lon="-3.6740525253"><ele>914.83</ele><time>2026-08-23T09:53:39Z</time></trkpt><trkpt lat="40.8241079282" lon="-3.6742764898"><ele>915.79</ele><time>2026-08-23T09:53:49Z</time></trkpt><trkpt lat="40.8241335768" lon="-3.6742448900"><ele>915.79</ele><time>2026-08-23T09:53:51Z</time></trkpt><trkpt lat="40.8242740575" lon="-3.6737486813"><ele>916.75</ele><time>2026-08-23T09:54:04Z</time></trkpt><trkpt lat="40.8243310545" lon="-3.6736663710"><ele>915.79</ele><time>2026-08-23T09:54:08Z</time></trkpt><trkpt lat="40.8243594691" lon="-3.6736599170"><ele>915.79</ele><time>2026-08-23T09:54:10Z</time></trkpt><trkpt lat="40.8243977744" lon="-3.6736511998"><ele>915.79</ele><time>2026-08-23T09:54:11Z</time></trkpt><trkpt lat="40.8244257700" lon="-3.6736496072"><ele>915.79</ele><time>2026-08-23T09:54:12Z</time></trkpt><trkpt lat="40.8246644866" lon="-3.6736445781"><ele>915.79</ele><time>2026-08-23T09:54:21Z</time></trkpt><trkpt lat="40.8246788196" lon="-3.6736514512"><ele>915.31</ele><time>2026-08-23T09:54:22Z</time></trkpt><trkpt lat="40.8247312065" lon="-3.6736693885"><ele>914.83</ele><time>2026-08-23T09:54:33Z</time></trkpt><trkpt lat="40.8247571066" lon="-3.6736667901"><ele>914.83</ele><time>2026-08-23T09:54:34Z</time></trkpt><trkpt lat="40.8247834258" lon="-3.6736634374"><ele>914.83</ele><time>2026-08-23T09:54:35Z</time></trkpt><trkpt lat="40.8252205420" lon="-3.6737354379"><ele>914.35</ele><time>2026-08-23T09:54:48Z</time></trkpt><trkpt lat="40.8253725898" lon="-3.6738076899"><ele>914.35</ele><time>2026-08-23T09:54:52Z</time></trkpt><trkpt lat="40.8254121523" lon="-3.6738147307"><ele>913.87</ele><time>2026-08-23T09:54:53Z</time></trkpt><trkpt lat="40.8254966419" lon="-3.6738205981"><ele>913.87</ele><time>2026-08-23T09:54:55Z</time></trkpt><trkpt lat="40.8255547285" lon="-3.6738082767"><ele>913.39</ele><time>2026-08-23T09:54:56Z</time></trkpt><trkpt lat="40.8255891781" lon="-3.6737931054"><ele>913.39</ele><time>2026-08-23T09:54:57Z</time></trkpt><trkpt lat="40.8256393019" lon="-3.6737718992"><ele>913.39</ele><time>2026-08-23T09:54:58Z</time></trkpt><trkpt lat="40.8256885037" lon="-3.6737562250"><ele>912.91</ele><time>2026-08-23T09:54:59Z</time></trkpt><trkpt lat="40.8257370349" lon="-3.6737466697"><ele>912.91</ele><time>2026-08-23T09:55:00Z</time></trkpt><trkpt lat="40.8257894218" lon="-3.6737370305"><ele>912.91</ele><time>2026-08-23T09:55:01Z</time></trkpt><trkpt lat="40.8258408029" lon="-3.6737300735"><ele>912.91</ele><time>2026-08-23T09:55:02Z</time></trkpt><trkpt lat="40.8265419491" lon="-3.6736423150"><ele>911.95</ele><time>2026-08-23T09:55:17Z</time></trkpt><trkpt lat="40.8269563504" lon="-3.6735843122"><ele>911.47</ele><time>2026-08-23T09:55:29Z</time></trkpt><trkpt lat="40.8270027861" lon="-3.6735789478"><ele>911.47</ele><time>2026-08-23T09:55:30Z</time></trkpt><trkpt lat="40.8273546584" lon="-3.6733642034"><ele>909.06</ele><time>2026-08-23T09:55:41Z</time></trkpt><trkpt lat="40.8273659740" lon="-3.6732901912"><ele>909.06</ele><time>2026-08-23T09:55:43Z</time></trkpt><trkpt lat="40.8273592684" lon="-3.6732211243"><ele>910.99</ele><time>2026-08-23T09:55:45Z</time></trkpt><trkpt lat="40.8273610286" lon="-3.6731833220"><ele>911.47</ele><time>2026-08-23T09:55:46Z</time></trkpt><trkpt lat="40.8273520600" lon="-3.6731502134"><ele>911.47</ele><time>2026-08-23T09:55:47Z</time></trkpt><trkpt lat="40.8273370564" lon="-3.6731192004"><ele>911.95</ele><time>2026-08-23T09:55:48Z</time></trkpt><trkpt lat="40.8273264952" lon="-3.6730925459"><ele>912.43</ele><time>2026-08-23T09:55:49Z</time></trkpt><trkpt lat="40.8273183648" lon="-3.6730576772"><ele>913.39</ele><time>2026-08-23T09:55:50Z</time></trkpt><trkpt lat="40.8273062110" lon="-3.6730119120"><ele>913.87</ele><time>2026-08-23T09:55:51Z</time></trkpt><trkpt lat="40.8272862621" lon="-3.6729803123"><ele>913.87</ele><time>2026-08-23T09:55:53Z</time></trkpt><trkpt lat="40.8272531535" lon="-3.6729390733"><ele>914.83</ele><time>2026-08-23T09:55:54Z</time></trkpt><trkpt lat="40.8269970026" lon="-3.6725264322"><ele>914.35</ele><time>2026-08-23T09:56:06Z</time></trkpt><trkpt lat="40.8269498963" lon="-3.6724540126"><ele>914.35</ele><time>2026-08-23T09:56:08Z</time></trkpt><trkpt lat="40.8267423604" lon="-3.6722442973"><ele>911.47</ele><time>2026-08-23T09:56:14Z</time></trkpt><trkpt lat="40.8266173024" lon="-3.6721047387"><ele>910.03</ele><time>2026-08-23T09:56:17Z</time></trkpt><trkpt lat="40.8263940085" lon="-3.6718175747"><ele>908.58</ele><time>2026-08-23T09:56:22Z</time></trkpt><trkpt lat="40.8263402805" lon="-3.6717579793"><ele>908.58</ele><time>2026-08-23T09:56:23Z</time></trkpt><trkpt lat="40.8261504304" lon="-3.6715351045"><ele>906.66</ele><time>2026-08-23T09:56:27Z</time></trkpt><trkpt lat="40.8259299863" lon="-3.6712931190"><ele>905.22</ele><time>2026-08-23T09:56:32Z</time></trkpt><trkpt lat="40.8258838858" lon="-3.6712629441"><ele>905.22</ele><time>2026-08-23T09:56:33Z</time></trkpt><trkpt lat="40.8258382883" lon="-3.6712384690"><ele>905.22</ele><time>2026-08-23T09:56:34Z</time></trkpt><trkpt lat="40.8257894218" lon="-3.6712196935"><ele>905.22</ele><time>2026-08-23T09:56:35Z</time></trkpt><trkpt lat="40.8257443272" lon="-3.6712114792"><ele>905.22</ele><time>2026-08-23T09:56:36Z</time></trkpt><trkpt lat="40.8256952092" lon="-3.6712056119"><ele>905.22</ele><time>2026-08-23T09:56:37Z</time></trkpt><trkpt lat="40.8256431576" lon="-3.6711951345"><ele>904.74</ele><time>2026-08-23T09:56:38Z</time></trkpt><trkpt lat="40.8255483583" lon="-3.6711637862"><ele>904.74</ele><time>2026-08-23T09:56:40Z</time></trkpt><trkpt lat="40.8255010005" lon="-3.6711357906"><ele>904.74</ele><time>2026-08-23T09:56:41Z</time></trkpt><trkpt lat="40.8254590072" lon="-3.6711037718"><ele>903.78</ele><time>2026-08-23T09:56:42Z</time></trkpt><trkpt lat="40.8247880358" lon="-3.6704563536"><ele>901.37</ele><time>2026-08-23T09:56:57Z</time></trkpt><trkpt lat="40.8242807630" lon="-3.6697017308"><ele>899.45</ele><time>2026-08-23T09:57:12Z</time></trkpt><trkpt lat="40.8240715507" lon="-3.6693611741"><ele>899.45</ele><time>2026-08-23T09:57:21Z</time></trkpt><trkpt lat="40.8238558844" lon="-3.6688954756"><ele>899.45</ele><time>2026-08-23T09:57:30Z</time></trkpt><trkpt lat="40.8238262963" lon="-3.6688566674"><ele>899.45</ele><time>2026-08-23T09:57:31Z</time></trkpt><trkpt lat="40.8237946127" lon="-3.6688243132"><ele>899.45</ele><time>2026-08-23T09:57:32Z</time></trkpt><trkpt lat="40.8237637673" lon="-3.6687933002"><ele>899.45</ele><time>2026-08-23T09:57:33Z</time></trkpt><trkpt lat="40.8237350173" lon="-3.6687575933"><ele>899.45</ele><time>2026-08-23T09:57:34Z</time></trkpt><trkpt lat="40.8237095363" lon="-3.6687159352"><ele>899.45</ele><time>2026-08-23T09:57:35Z</time></trkpt><trkpt lat="40.8236889169" lon="-3.6686710082"><ele>898.97</ele><time>2026-08-23T09:57:36Z</time></trkpt><trkpt lat="40.8236710634" lon="-3.6686221417"><ele>898.97</ele><time>2026-08-23T09:57:37Z</time></trkpt><trkpt lat="40.8236515336" lon="-3.6685664020"><ele>898.97</ele><time>2026-08-23T09:57:38Z</time></trkpt><trkpt lat="40.8234709036" lon="-3.6679002922"><ele>897.53</ele><time>2026-08-23T09:57:48Z</time></trkpt><trkpt lat="40.8234567381" lon="-3.6678478215"><ele>897.53</ele><time>2026-08-23T09:57:49Z</time></trkpt><trkpt lat="40.8234467637" lon="-3.6677966919"><ele>897.53</ele><time>2026-08-23T09:57:50Z</time></trkpt><trkpt lat="40.8234367892" lon="-3.6677492503"><ele>897.53</ele><time>2026-08-23T09:57:51Z</time></trkpt><trkpt lat="40.8234263118" lon="-3.6677018926"><ele>897.05</ele><time>2026-08-23T09:57:52Z</time></trkpt><trkpt lat="40.8232948836" lon="-3.6671247985"><ele>898.01</ele><time>2026-08-23T09:58:03Z</time></trkpt><trkpt lat="40.8231578395" lon="-3.6665819027"><ele>899.93</ele><time>2026-08-23T09:58:12Z</time></trkpt><trkpt lat="40.8231464401" lon="-3.6665197928"><ele>899.93</ele><time>2026-08-23T09:58:13Z</time></trkpt><trkpt lat="40.8230689913" lon="-3.6659498233"><ele>899.45</ele><time>2026-08-23T09:58:22Z</time></trkpt><trkpt lat="40.8229941409" lon="-3.6652671173"><ele>899.45</ele><time>2026-08-23T09:58:33Z</time></trkpt><trkpt lat="40.8228539117" lon="-3.6643328704"><ele>899.45</ele><time>2026-08-23T09:58:47Z</time></trkpt><trkpt lat="40.8227321226" lon="-3.6636667605"><ele>900.89</ele><time>2026-08-23T09:58:57Z</time></trkpt><trkpt lat="40.8226150274" lon="-3.6630645208"><ele>899.45</ele><time>2026-08-23T09:59:06Z</time></trkpt><trkpt lat="40.8224475570" lon="-3.6618682556"><ele>898.01</ele><time>2026-08-23T09:59:22Z</time></trkpt><trkpt lat="40.8224228304" lon="-3.6607673764"><ele>899.93</ele><time>2026-08-23T09:59:38Z</time></trkpt><trkpt lat="40.8225611318" lon="-3.6602311023"><ele>901.37</ele><time>2026-08-23T09:59:47Z</time></trkpt><trkpt lat="40.8227718528" lon="-3.6596188042"><ele>902.82</ele><time>2026-08-23T10:00:01Z</time></trkpt><trkpt lat="40.8229651395" lon="-3.6589050852"><ele>904.26</ele><time>2026-08-23T10:00:18Z</time></trkpt><trkpt lat="40.8230636269" lon="-3.6584318429"><ele>907.62</ele><time>2026-08-23T10:00:29Z</time></trkpt><trkpt lat="40.8230623696" lon="-3.6578114983"><ele>910.99</ele><time>2026-08-23T10:00:43Z</time></trkpt><trkpt lat="40.8230568375" lon="-3.6576267611"><ele>912.91</ele><time>2026-08-23T10:00:47Z</time></trkpt><trkpt lat="40.8231223840" lon="-3.6569430493"><ele>913.39</ele><time>2026-08-23T10:01:02Z</time></trkpt><trkpt lat="40.8231461886" lon="-3.6568758264"><ele>913.39</ele><time>2026-08-23T10:01:05Z</time></trkpt><trkpt lat="40.8231525589" lon="-3.6568770837"><ele>912.91</ele><time>2026-08-23T10:01:19Z</time></trkpt><trkpt lat="40.8231699932" lon="-3.6568599008"><ele>912.91</ele><time>2026-08-23T10:01:51Z</time></trkpt><trkpt lat="40.8231553249" lon="-3.6568404548"><ele>912.91</ele><time>2026-08-23T10:01:53Z</time></trkpt><trkpt lat="40.8231336158" lon="-3.6568228528"><ele>912.91</ele><time>2026-08-23T10:01:55Z</time></trkpt><trkpt lat="40.8230531495" lon="-3.6566905864"><ele>913.39</ele><time>2026-08-23T10:02:01Z</time></trkpt><trkpt lat="40.8230552450" lon="-3.6566585675"><ele>913.39</ele><time>2026-08-23T10:02:02Z</time></trkpt><trkpt lat="40.8230628725" lon="-3.6566235311"><ele>913.39</ele><time>2026-08-23T10:02:03Z</time></trkpt><trkpt lat="40.8230786305" lon="-3.6565888301"><ele>913.39</ele><time>2026-08-23T10:02:04Z</time></trkpt><trkpt lat="40.8230957296" lon="-3.6565623432"><ele>913.39</ele><time>2026-08-23T10:02:06Z</time></trkpt><trkpt lat="40.8231099788" lon="-3.6565341800"><ele>913.39</ele><time>2026-08-23T10:02:07Z</time></trkpt><trkpt lat="40.8231194504" lon="-3.6565092020"><ele>913.39</ele><time>2026-08-23T10:02:08Z</time></trkpt><trkpt lat="40.8231233060" lon="-3.6564862356"><ele>913.39</ele><time>2026-08-23T10:02:09Z</time></trkpt><trkpt lat="40.8231285028" lon="-3.6564628500"><ele>913.39</ele><time>2026-08-23T10:02:10Z</time></trkpt><trkpt lat="40.8231348731" lon="-3.6564283166"><ele>913.39</ele><time>2026-08-23T10:02:11Z</time></trkpt><trkpt lat="40.8231393993" lon="-3.6563926935"><ele>913.39</ele><time>2026-08-23T10:02:12Z</time></trkpt><trkpt lat="40.8231440093" lon="-3.6563568190"><ele>913.39</ele><time>2026-08-23T10:02:13Z</time></trkpt><trkpt lat="40.8231968153" lon="-3.6559878476"><ele>915.31</ele><time>2026-08-23T10:02:22Z</time></trkpt><trkpt lat="40.8232176024" lon="-3.6558668967"><ele>914.35</ele><time>2026-08-23T10:02:25Z</time></trkpt><trkpt lat="40.8232725039" lon="-3.6554867774"><ele>913.39</ele><time>2026-08-23T10:02:33Z</time></trkpt><trkpt lat="40.8233353682" lon="-3.6550351605"><ele>911.95</ele><time>2026-08-23T10:02:42Z</time></trkpt><trkpt lat="40.8233481925" lon="-3.6548711266"><ele>911.95</ele><time>2026-08-23T10:02:45Z</time></trkpt><trkpt lat="40.8233462647" lon="-3.6548233498"><ele>911.95</ele><time>2026-08-23T10:02:46Z</time></trkpt><trkpt lat="40.8233404811" lon="-3.6547764950"><ele>911.95</ele><time>2026-08-23T10:02:47Z</time></trkpt><trkpt lat="40.8232264034" lon="-3.6540911067"><ele>910.03</ele><time>2026-08-23T10:03:01Z</time></trkpt><trkpt lat="40.8231295086" lon="-3.6534978356"><ele>907.14</ele><time>2026-08-23T10:03:10Z</time></trkpt><trkpt lat="40.8229993377" lon="-3.6527981982"><ele>904.26</ele><time>2026-08-23T10:03:19Z</time></trkpt><trkpt lat="40.8229376469" lon="-3.6524569709"><ele>902.82</ele><time>2026-08-23T10:03:23Z</time></trkpt><trkpt lat="40.8229145128" lon="-3.6523749121"><ele>902.82</ele><time>2026-08-23T10:03:24Z</time></trkpt><trkpt lat="40.8228873555" lon="-3.6522978824"><ele>902.33</ele><time>2026-08-23T10:03:25Z</time></trkpt><trkpt lat="40.8227876108" lon="-3.6520364508"><ele>901.85</ele><time>2026-08-23T10:03:29Z</time></trkpt><trkpt lat="40.8227652311" lon="-3.6519824713"><ele>901.37</ele><time>2026-08-23T10:03:30Z</time></trkpt><trkpt lat="40.8227296080" lon="-3.6518755183"><ele>900.89</ele><time>2026-08-23T10:03:32Z</time></trkpt><trkpt lat="40.8226995170" lon="-3.6518252268"><ele>899.93</ele><time>2026-08-23T10:03:33Z</time></trkpt><trkpt lat="40.8226676658" lon="-3.6517676432"><ele>899.93</ele><time>2026-08-23T10:03:34Z</time></trkpt><trkpt lat="40.8226439450" lon="-3.6516963132"><ele>898.97</ele><time>2026-08-23T10:03:35Z</time></trkpt><trkpt lat="40.8226372395" lon="-3.6516204569"><ele>898.49</ele><time>2026-08-23T10:03:36Z</time></trkpt><trkpt lat="40.8226402570" lon="-3.6515455227"><ele>898.49</ele><time>2026-08-23T10:03:37Z</time></trkpt><trkpt lat="40.8226405084" lon="-3.6514710076"><ele>897.53</ele><time>2026-08-23T10:03:38Z</time></trkpt><trkpt lat="40.8226405922" lon="-3.6512413435"><ele>896.57</ele><time>2026-08-23T10:03:41Z</time></trkpt><trkpt lat="40.8226496447" lon="-3.6511686724"><ele>896.57</ele><time>2026-08-23T10:03:42Z</time></trkpt><trkpt lat="40.8226640616" lon="-3.6510933191"><ele>896.57</ele><time>2026-08-23T10:03:43Z</time></trkpt><trkpt lat="40.8226824179" lon="-3.6510236654"><ele>896.57</ele><time>2026-08-23T10:03:44Z</time></trkpt><trkpt lat="40.8227061387" lon="-3.6509566102"><ele>895.61</ele><time>2026-08-23T10:03:45Z</time></trkpt><trkpt lat="40.8227342181" lon="-3.6508861184"><ele>895.12</ele><time>2026-08-23T10:03:46Z</time></trkpt><trkpt lat="40.8227567654" lon="-3.6508140340"><ele>894.64</ele><time>2026-08-23T10:03:47Z</time></trkpt><trkpt lat="40.8227630518" lon="-3.6507468112"><ele>893.68</ele><time>2026-08-23T10:03:48Z</time></trkpt><trkpt lat="40.8227544185" lon="-3.6506872158"><ele>892.72</ele><time>2026-08-23T10:03:49Z</time></trkpt><trkpt lat="40.8227386605" lon="-3.6506309733"><ele>892.72</ele><time>2026-08-23T10:03:50Z</time></trkpt><trkpt lat="40.8227239922" lon="-3.6505699530"><ele>892.72</ele><time>2026-08-23T10:03:51Z</time></trkpt><trkpt lat="40.8227166999" lon="-3.6505071726"><ele>891.76</ele><time>2026-08-23T10:03:52Z</time></trkpt><trkpt lat="40.8227087371" lon="-3.6504430510"><ele>892.24</ele><time>2026-08-23T10:03:53Z</time></trkpt><trkpt lat="40.8226919733" lon="-3.6503822822"><ele>892.24</ele><time>2026-08-23T10:03:54Z</time></trkpt><trkpt lat="40.8226638101" lon="-3.6503316555"><ele>892.24</ele><time>2026-08-23T10:03:55Z</time></trkpt><trkpt lat="40.8226338029" lon="-3.6502730660"><ele>892.24</ele><time>2026-08-23T10:03:56Z</time></trkpt><trkpt lat="40.8226144407" lon="-3.6502062622"><ele>892.24</ele><time>2026-08-23T10:03:57Z</time></trkpt><trkpt lat="40.8226063941" lon="-3.6501290649"><ele>891.76</ele><time>2026-08-23T10:03:58Z</time></trkpt><trkpt lat="40.8225944918" lon="-3.6500475928"><ele>891.28</ele><time>2026-08-23T10:03:59Z</time></trkpt><trkpt lat="40.8225802425" lon="-3.6499728262"><ele>890.80</ele><time>2026-08-23T10:04:00Z</time></trkpt><trkpt lat="40.8225737046" lon="-3.6498988979"><ele>890.80</ele><time>2026-08-23T10:04:01Z</time></trkpt><trkpt lat="40.8225756325" lon="-3.6498311721"><ele>890.80</ele><time>2026-08-23T10:04:02Z</time></trkpt><trkpt lat="40.8225767221" lon="-3.6497595906"><ele>890.32</ele><time>2026-08-23T10:04:03Z</time></trkpt><trkpt lat="40.8225682564" lon="-3.6496906914"><ele>889.84</ele><time>2026-08-23T10:04:04Z</time></trkpt><trkpt lat="40.8225519117" lon="-3.6496260669"><ele>889.84</ele><time>2026-08-23T10:04:05Z</time></trkpt><trkpt lat="40.8225276880" lon="-3.6495668907"><ele>889.84</ele><time>2026-08-23T10:04:06Z</time></trkpt><trkpt lat="40.8225009497" lon="-3.6495107319"><ele>888.88</ele><time>2026-08-23T10:04:07Z</time></trkpt><trkpt lat="40.8224807493" lon="-3.6494616140"><ele>888.88</ele><time>2026-08-23T10:04:08Z</time></trkpt><trkpt lat="40.8224541787" lon="-3.6494000908"><ele>888.88</ele><time>2026-08-23T10:04:09Z</time></trkpt><trkpt lat="40.8224107604" lon="-3.6493171100"><ele>888.40</ele><time>2026-08-23T10:04:10Z</time></trkpt><trkpt lat="40.8223462198" lon="-3.6491804011"><ele>887.91</ele><time>2026-08-23T10:04:13Z</time></trkpt><trkpt lat="40.8222494088" lon="-3.6489747092"><ele>887.91</ele><time>2026-08-23T10:04:18Z</time></trkpt><trkpt lat="40.8220236003" lon="-3.6485681031"><ele>886.47</ele><time>2026-08-23T10:04:27Z</time></trkpt><trkpt lat="40.8220128715" lon="-3.6485464778"><ele>886.47</ele><time>2026-08-23T10:04:28Z</time></trkpt><trkpt lat="40.8219915815" lon="-3.6485220026"><ele>886.47</ele><time>2026-08-23T10:04:29Z</time></trkpt><trkpt lat="40.8219642565" lon="-3.6485004611"><ele>886.47</ele><time>2026-08-23T10:04:30Z</time></trkpt><trkpt lat="40.8219351713" lon="-3.6484854575"><ele>886.47</ele><time>2026-08-23T10:04:31Z</time></trkpt><trkpt lat="40.8219049126" lon="-3.6484708730"><ele>886.47</ele><time>2026-08-23T10:04:32Z</time></trkpt><trkpt lat="40.8218806051" lon="-3.6484437156"><ele>886.47</ele><time>2026-08-23T10:04:33Z</time></trkpt><trkpt lat="40.8218594827" lon="-3.6484132055"><ele>886.47</ele><time>2026-08-23T10:04:34Z</time></trkpt><trkpt lat="40.8217234444" lon="-3.6483179033"><ele>886.47</ele><time>2026-08-23T10:04:39Z</time></trkpt><trkpt lat="40.8216978796" lon="-3.6483270396"><ele>886.47</ele><time>2026-08-23T10:04:40Z</time></trkpt><trkpt lat="40.8216708899" lon="-3.6483337451"><ele>886.47</ele><time>2026-08-23T10:04:41Z</time></trkpt><trkpt lat="40.8216417208" lon="-3.6483236868"><ele>886.47</ele><time>2026-08-23T10:04:42Z</time></trkpt><trkpt lat="40.8216120489" lon="-3.6483051628"><ele>887.91</ele><time>2026-08-23T10:04:43Z</time></trkpt><trkpt lat="40.8215805329" lon="-3.6482962780"><ele>888.40</ele><time>2026-08-23T10:04:44Z</time></trkpt><trkpt lat="40.8215453289" lon="-3.6482883990"><ele>888.88</ele><time>2026-08-23T10:04:45Z</time></trkpt><trkpt lat="40.8215132263" lon="-3.6482724734"><ele>888.88</ele><time>2026-08-23T10:04:46Z</time></trkpt><trkpt lat="40.8214815427" lon="-3.6482504290"><ele>889.36</ele><time>2026-08-23T10:04:47Z</time></trkpt><trkpt lat="40.8214506973" lon="-3.6482218467"><ele>889.84</ele><time>2026-08-23T10:04:48Z</time></trkpt><trkpt lat="40.8214149065" lon="-3.6481894087"><ele>890.32</ele><time>2026-08-23T10:04:49Z</time></trkpt><trkpt lat="40.8213792834" lon="-3.6481607426"><ele>890.32</ele><time>2026-08-23T10:04:50Z</time></trkpt><trkpt lat="40.8211526368" lon="-3.6478605028"><ele>890.80</ele><time>2026-08-23T10:05:00Z</time></trkpt><trkpt lat="40.8210673928" lon="-3.6477838084"><ele>888.88</ele><time>2026-08-23T10:05:03Z</time></trkpt><trkpt lat="40.8210142516" lon="-3.6477413960"><ele>886.95</ele><time>2026-08-23T10:05:06Z</time></trkpt><trkpt lat="40.8209984098" lon="-3.6477286555"><ele>885.99</ele><time>2026-08-23T10:05:23Z</time></trkpt><trkpt lat="40.8209984936" lon="-3.6477245484"><ele>885.99</ele><time>2026-08-23T10:05:51Z</time></trkpt><trkpt lat="40.8209859207" lon="-3.6477134842"><ele>885.99</ele><time>2026-08-23T10:06:09Z</time></trkpt><trkpt lat="40.8209727611" lon="-3.6477078684"><ele>885.99</ele><time>2026-08-23T10:06:10Z</time></trkpt><trkpt lat="40.8209521417" lon="-3.6477020849"><ele>885.99</ele><time>2026-08-23T10:06:11Z</time></trkpt><trkpt lat="40.8208544925" lon="-3.6476493627"><ele>885.99</ele><time>2026-08-23T10:06:14Z</time></trkpt><trkpt lat="40.8206294384" lon="-3.6474763602"><ele>885.51</ele><time>2026-08-23T10:06:19Z</time></trkpt><trkpt lat="40.8205726929" lon="-3.6474516336"><ele>884.55</ele><time>2026-08-23T10:06:20Z</time></trkpt><trkpt lat="40.8205159474" lon="-3.6474300921"><ele>884.07</ele><time>2026-08-23T10:06:21Z</time></trkpt><trkpt lat="40.8204609621" lon="-3.6474025995"><ele>882.63</ele><time>2026-08-23T10:06:22Z</time></trkpt><trkpt lat="40.8204082400" lon="-3.6473658867"><ele>882.63</ele><time>2026-08-23T10:06:23Z</time></trkpt><trkpt lat="40.8203563560" lon="-3.6473245639"><ele>882.63</ele><time>2026-08-23T10:06:24Z</time></trkpt><trkpt lat="40.8200862072" lon="-3.6471245717"><ele>881.19</ele><time>2026-08-23T10:06:29Z</time></trkpt><trkpt lat="40.8198407851" lon="-3.6468958296"><ele>880.71</ele><time>2026-08-23T10:06:34Z</time></trkpt><trkpt lat="40.8196933474" lon="-3.6467818357"><ele>878.30</ele><time>2026-08-23T10:06:37Z</time></trkpt><trkpt lat="40.8196484204" lon="-3.6467316281"><ele>878.30</ele><time>2026-08-23T10:06:38Z</time></trkpt><trkpt lat="40.8196050860" lon="-3.6466745473"><ele>878.30</ele><time>2026-08-23T10:06:39Z</time></trkpt><trkpt lat="40.8195606619" lon="-3.6466167960"><ele>877.82</ele><time>2026-08-23T10:06:40Z</time></trkpt><trkpt lat="40.8195124660" lon="-3.6465618107"><ele>877.82</ele><time>2026-08-23T10:06:41Z</time></trkpt><trkpt lat="40.8188318554" lon="-3.6457869876"><ele>875.90</ele><time>2026-08-23T10:06:55Z</time></trkpt><trkpt lat="40.8186897822" lon="-3.6456590798"><ele>874.94</ele><time>2026-08-23T10:06:58Z</time></trkpt><trkpt lat="40.8178686071" lon="-3.6447519902"><ele>873.01</ele><time>2026-08-23T10:07:16Z</time></trkpt><trkpt lat="40.8172853943" lon="-3.6439935118"><ele>872.05</ele><time>2026-08-23T10:07:31Z</time></trkpt><trkpt lat="40.8172061015" lon="-3.6439027358"><ele>871.57</ele><time>2026-08-23T10:07:33Z</time></trkpt><trkpt lat="40.8170062769" lon="-3.6436853092"><ele>871.57</ele><time>2026-08-23T10:07:38Z</time></trkpt><trkpt lat="40.8169610985" lon="-3.6436451599"><ele>871.57</ele><time>2026-08-23T10:07:39Z</time></trkpt><trkpt lat="40.8165631257" lon="-3.6434196867"><ele>872.53</ele><time>2026-08-23T10:07:47Z</time></trkpt><trkpt lat="40.8164036181" lon="-3.6433190200"><ele>870.61</ele><time>2026-08-23T10:07:50Z</time></trkpt><trkpt lat="40.8163568471" lon="-3.6432778649"><ele>870.61</ele><time>2026-08-23T10:07:51Z</time></trkpt><trkpt lat="40.8158591297" lon="-3.6426631361"><ele>869.17</ele><time>2026-08-23T10:08:03Z</time></trkpt><trkpt lat="40.8153207600" lon="-3.6420283746"><ele>867.25</ele><time>2026-08-23T10:08:19Z</time></trkpt><trkpt lat="40.8152957819" lon="-3.6419852916"><ele>866.29</ele><time>2026-08-23T10:08:30Z</time></trkpt><trkpt lat="40.8152868133" lon="-3.6419847887"><ele>866.29</ele><time>2026-08-23T10:08:34Z</time></trkpt><trkpt lat="40.8152725641" lon="-3.6419789214"><ele>866.29</ele><time>2026-08-23T10:08:35Z</time></trkpt><trkpt lat="40.8152540401" lon="-3.6419664323"><ele>866.29</ele><time>2026-08-23T10:08:36Z</time></trkpt><trkpt lat="40.8152356837" lon="-3.6419486627"><ele>866.29</ele><time>2026-08-23T10:08:37Z</time></trkpt><trkpt lat="40.8152140584" lon="-3.6419258639"><ele>866.29</ele><time>2026-08-23T10:08:38Z</time></trkpt><trkpt lat="40.8150795288" lon="-3.6417647637"><ele>866.29</ele><time>2026-08-23T10:08:43Z</time></trkpt><trkpt lat="40.8150510304" lon="-3.6417211778"><ele>866.29</ele><time>2026-08-23T10:08:44Z</time></trkpt><trkpt lat="40.8146948833" lon="-3.6412214488"><ele>866.29</ele><time>2026-08-23T10:08:56Z</time></trkpt><trkpt lat="40.8143295161" lon="-3.6407285929"><ele>865.32</ele><time>2026-08-23T10:09:07Z</time></trkpt><trkpt lat="40.8143046219" lon="-3.6406718474"><ele>865.32</ele><time>2026-08-23T10:09:08Z</time></trkpt><trkpt lat="40.8142839186" lon="-3.6406131741"><ele>865.32</ele><time>2026-08-23T10:09:09Z</time></trkpt><trkpt lat="40.8142346330" lon="-3.6404316220"><ele>864.84</ele><time>2026-08-23T10:09:12Z</time></trkpt><trkpt lat="40.8142365608" lon="-3.6403758824"><ele>864.84</ele><time>2026-08-23T10:09:13Z</time></trkpt><trkpt lat="40.8142496366" lon="-3.6403223220"><ele>864.84</ele><time>2026-08-23T10:09:14Z</time></trkpt><trkpt lat="40.8142702561" lon="-3.6402773950"><ele>864.84</ele><time>2026-08-23T10:09:15Z</time></trkpt><trkpt lat="40.8142980840" lon="-3.6402291153"><ele>864.84</ele><time>2026-08-23T10:09:16Z</time></trkpt><trkpt lat="40.8143235650" lon="-3.6401776504"><ele>864.84</ele><time>2026-08-23T10:09:17Z</time></trkpt><trkpt lat="40.8143414184" lon="-3.6401217431"><ele>864.84</ele><time>2026-08-23T10:09:18Z</time></trkpt><trkpt lat="40.8144230582" lon="-3.6398237664"><ele>864.84</ele><time>2026-08-23T10:09:23Z</time></trkpt><trkpt lat="40.8144261595" lon="-3.6397592258"><ele>864.84</ele><time>2026-08-23T10:09:24Z</time></trkpt><trkpt lat="40.8144166879" lon="-3.6396923382"><ele>864.84</ele><time>2026-08-23T10:09:25Z</time></trkpt><trkpt lat="40.8143921290" lon="-3.6396324914"><ele>866.29</ele><time>2026-08-23T10:09:26Z</time></trkpt><trkpt lat="40.8143513091" lon="-3.6395849660"><ele>866.29</ele><time>2026-08-23T10:09:27Z</time></trkpt><trkpt lat="40.8143092319" lon="-3.6395522766"><ele>866.29</ele><time>2026-08-23T10:09:28Z</time></trkpt><trkpt lat="40.8142658975" lon="-3.6395211797"><ele>866.29</ele><time>2026-08-23T10:09:29Z</time></trkpt><trkpt lat="40.8141920529" lon="-3.6394555494"><ele>866.29</ele><time>2026-08-23T10:09:31Z</time></trkpt><trkpt lat="40.8141588606" lon="-3.6394103710"><ele>866.29</ele><time>2026-08-23T10:09:32Z</time></trkpt><trkpt lat="40.8141305298" lon="-3.6393567268"><ele>866.29</ele><time>2026-08-23T10:09:33Z</time></trkpt><trkpt lat="40.8141122572" lon="-3.6392975505"><ele>866.29</ele><time>2026-08-23T10:09:34Z</time></trkpt><trkpt lat="40.8141067252" lon="-3.6392373685"><ele>866.29</ele><time>2026-08-23T10:09:35Z</time></trkpt><trkpt lat="40.8141128439" lon="-3.6391776055"><ele>866.29</ele><time>2026-08-23T10:09:36Z</time></trkpt><trkpt lat="40.8141276799" lon="-3.6391187645"><ele>866.29</ele><time>2026-08-23T10:09:37Z</time></trkpt><trkpt lat="40.8141519874" lon="-3.6390653718"><ele>866.29</ele><time>2026-08-23T10:09:38Z</time></trkpt><trkpt lat="40.8141797315" lon="-3.6390182655"><ele>866.29</ele><time>2026-08-23T10:09:39Z</time></trkpt><trkpt lat="40.8142034523" lon="-3.6389711592"><ele>864.84</ele><time>2026-08-23T10:09:40Z</time></trkpt><trkpt lat="40.8142236527" lon="-3.6389271542"><ele>864.84</ele><time>2026-08-23T10:09:41Z</time></trkpt><trkpt lat="40.8143871836" lon="-3.6385396589"><ele>866.29</ele><time>2026-08-23T10:09:51Z</time></trkpt><trkpt lat="40.8144580945" lon="-3.6384103261"><ele>866.77</ele><time>2026-08-23T10:09:54Z</time></trkpt><trkpt lat="40.8144884370" lon="-3.6383670755"><ele>866.77</ele><time>2026-08-23T10:09:55Z</time></trkpt><trkpt lat="40.8145896904" lon="-3.6382457055"><ele>867.25</ele><time>2026-08-23T10:09:58Z</time></trkpt><trkpt lat="40.8153151441" lon="-3.6375992931"><ele>870.13</ele><time>2026-08-23T10:10:17Z</time></trkpt><trkpt lat="40.8158608899" lon="-3.6371114664"><ele>873.50</ele><time>2026-08-23T10:10:33Z</time></trkpt><trkpt lat="40.8160425257" lon="-3.6367138289"><ele>875.90</ele><time>2026-08-23T10:10:43Z</time></trkpt><trkpt lat="40.8161906339" lon="-3.6365034431"><ele>877.34</ele><time>2026-08-23T10:10:48Z</time></trkpt><trkpt lat="40.8162186295" lon="-3.6364561692"><ele>877.34</ele><time>2026-08-23T10:10:49Z</time></trkpt><trkpt lat="40.8162510674" lon="-3.6364086438"><ele>878.30</ele><time>2026-08-23T10:10:50Z</time></trkpt><trkpt lat="40.8164401632" lon="-3.6361336336"><ele>880.22</ele><time>2026-08-23T10:10:57Z</time></trkpt><trkpt lat="40.8165143430" lon="-3.6360132694"><ele>880.71</ele><time>2026-08-23T10:11:00Z</time></trkpt><trkpt lat="40.8165638801" lon="-3.6359281093"><ele>881.19</ele><time>2026-08-23T10:11:02Z</time></trkpt><trkpt lat="40.8167984057" lon="-3.6354229320"><ele>884.55</ele><time>2026-08-23T10:11:14Z</time></trkpt><trkpt lat="40.8169604279" lon="-3.6351523641"><ele>887.43</ele><time>2026-08-23T10:11:21Z</time></trkpt><trkpt lat="40.8170726616" lon="-3.6349968798"><ele>888.88</ele><time>2026-08-23T10:11:25Z</time></trkpt><trkpt lat="40.8171608392" lon="-3.6348035932"><ele>890.32</ele><time>2026-08-23T10:11:29Z</time></trkpt><trkpt lat="40.8172050957" lon="-3.6347036809"><ele>890.80</ele><time>2026-08-23T10:11:31Z</time></trkpt><trkpt lat="40.8172666188" lon="-3.6345564108"><ele>890.80</ele><time>2026-08-23T10:11:34Z</time></trkpt><trkpt lat="40.8174168225" lon="-3.6343631241"><ele>892.24</ele><time>2026-08-23T10:11:40Z</time></trkpt><trkpt lat="40.8175739832" lon="-3.6343409959"><ele>893.68</ele><time>2026-08-23T10:11:44Z</time></trkpt><trkpt lat="40.8176692855" lon="-3.6342966557"><ele>896.09</ele><time>2026-08-23T10:11:47Z</time></trkpt><trkpt lat="40.8177142963" lon="-3.6342552491"><ele>897.05</ele><time>2026-08-23T10:11:49Z</time></trkpt><trkpt lat="40.8177549485" lon="-3.6341142654"><ele>898.97</ele><time>2026-08-23T10:11:53Z</time></trkpt><trkpt lat="40.8177397773" lon="-3.6340091564"><ele>900.89</ele><time>2026-08-23T10:12:05Z</time></trkpt><trkpt lat="40.8177362569" lon="-3.6340053007"><ele>900.41</ele><time>2026-08-23T10:12:26Z</time></trkpt><trkpt lat="40.8177318145" lon="-3.6339931469"><ele>900.41</ele><time>2026-08-23T10:12:29Z</time></trkpt><trkpt lat="40.8177671861" lon="-3.6338225752"><ele>902.33</ele><time>2026-08-23T10:12:37Z</time></trkpt><trkpt lat="40.8178036474" lon="-3.6336923204"><ele>904.26</ele><time>2026-08-23T10:12:41Z</time></trkpt><trkpt lat="40.8177714609" lon="-3.6335541029"><ele>906.66</ele><time>2026-08-23T10:12:45Z</time></trkpt><trkpt lat="40.8177419566" lon="-3.6333196610"><ele>908.10</ele><time>2026-08-23T10:12:51Z</time></trkpt><trkpt lat="40.8177448902" lon="-3.6331964470"><ele>909.06</ele><time>2026-08-23T10:12:54Z</time></trkpt><trkpt lat="40.8178655058" lon="-3.6328269728"><ele>912.43</ele><time>2026-08-23T10:13:03Z</time></trkpt><trkpt lat="40.8179009613" lon="-3.6326368712"><ele>912.91</ele><time>2026-08-23T10:13:14Z</time></trkpt><trkpt lat="40.8178967703" lon="-3.6326496955"><ele>912.91</ele><time>2026-08-23T10:13:36Z</time></trkpt><trkpt lat="40.8180092555" lon="-3.6323831510"><ele>914.83</ele><time>2026-08-23T10:13:47Z</time></trkpt><trkpt lat="40.8181310445" lon="-3.6319476273"><ele>916.75</ele><time>2026-08-23T10:13:57Z</time></trkpt><trkpt lat="40.8181615546" lon="-3.6318768002"><ele>916.75</ele><time>2026-08-23T10:13:59Z</time></trkpt><trkpt lat="40.8181176335" lon="-3.6316116806"><ele>919.16</ele><time>2026-08-23T10:14:04Z</time></trkpt><trkpt lat="40.8180193137" lon="-3.6312754825"><ele>921.56</ele><time>2026-08-23T10:14:11Z</time></trkpt><trkpt lat="40.8179758117" lon="-3.6311779171"><ele>922.04</ele><time>2026-08-23T10:14:13Z</time></trkpt><trkpt lat="40.8177552838" lon="-3.6308351811"><ele>925.89</ele><time>2026-08-23T10:14:22Z</time></trkpt><trkpt lat="40.8174858894" lon="-3.6304015853"><ele>927.33</ele><time>2026-08-23T10:14:34Z</time></trkpt><trkpt lat="40.8173229452" lon="-3.6300296802"><ele>930.69</ele><time>2026-08-23T10:14:42Z</time></trkpt><trkpt lat="40.8173015714" lon="-3.6299855914"><ele>930.69</ele><time>2026-08-23T10:14:43Z</time></trkpt><trkpt lat="40.8172848076" lon="-3.6297515687"><ele>929.25</ele><time>2026-08-23T10:14:48Z</time></trkpt><trkpt lat="40.8173585683" lon="-3.6296243314"><ele>929.25</ele><time>2026-08-23T10:14:53Z</time></trkpt><trkpt lat="40.8173913416" lon="-3.6295929831"><ele>929.25</ele><time>2026-08-23T10:14:56Z</time></trkpt><trkpt lat="40.8174126316" lon="-3.6295126844"><ele>929.25</ele><time>2026-08-23T10:15:02Z</time></trkpt><trkpt lat="40.8174965344" lon="-3.6294822581"><ele>929.25</ele><time>2026-08-23T10:15:08Z</time></trkpt><trkpt lat="40.8178800903" lon="-3.6289456487"><ele>930.69</ele><time>2026-08-23T10:15:23Z</time></trkpt><trkpt lat="40.8180008736" lon="-3.6288954411"><ele>931.17</ele><time>2026-08-23T10:15:26Z</time></trkpt><trkpt lat="40.8181179687" lon="-3.6289029848"><ele>931.17</ele><time>2026-08-23T10:15:29Z</time></trkpt><trkpt lat="40.8182278555" lon="-3.6288334988"><ele>931.17</ele><time>2026-08-23T10:15:32Z</time></trkpt><trkpt lat="40.8183976728" lon="-3.6286253762"><ele>931.17</ele><time>2026-08-23T10:15:37Z</time></trkpt><trkpt lat="40.8185063023" lon="-3.6284291558"><ele>931.17</ele><time>2026-08-23T10:15:41Z</time></trkpt><trkpt lat="40.8185280114" lon="-3.6283921916"><ele>931.17</ele><time>2026-08-23T10:15:42Z</time></trkpt><trkpt lat="40.8185600303" lon="-3.6283482704"><ele>931.65</ele><time>2026-08-23T10:15:43Z</time></trkpt><trkpt lat="40.8186007664" lon="-3.6283049360"><ele>931.65</ele><time>2026-08-23T10:15:44Z</time></trkpt><trkpt lat="40.8186460286" lon="-3.6282693967"><ele>931.65</ele><time>2026-08-23T10:15:45Z</time></trkpt><trkpt lat="40.8186893631" lon="-3.6282410659"><ele>930.21</ele><time>2026-08-23T10:15:46Z</time></trkpt><trkpt lat="40.8187313564" lon="-3.6282160040"><ele>930.21</ele><time>2026-08-23T10:15:47Z</time></trkpt><trkpt lat="40.8188166004" lon="-3.6281704903"><ele>930.21</ele><time>2026-08-23T10:15:49Z</time></trkpt><trkpt lat="40.8189458493" lon="-3.6281227134"><ele>929.73</ele><time>2026-08-23T10:15:52Z</time></trkpt><trkpt lat="40.8189896028" lon="-3.6281169299"><ele>929.73</ele><time>2026-08-23T10:15:53Z</time></trkpt><trkpt lat="40.8192988113" lon="-3.6281046923"><ele>929.25</ele><time>2026-08-23T10:16:01Z</time></trkpt><trkpt lat="40.8194580674" lon="-3.6280773673"><ele>929.25</ele><time>2026-08-23T10:16:05Z</time></trkpt><trkpt lat="40.8197136316" lon="-3.6281890143"><ele>928.77</ele><time>2026-08-23T10:16:12Z</time></trkpt><trkpt lat="40.8198119514" lon="-3.6283075344"><ele>927.33</ele><time>2026-08-23T10:16:15Z</time></trkpt><trkpt lat="40.8202028833" lon="-3.6287367716"><ele>920.12</ele><time>2026-08-23T10:16:25Z</time></trkpt><trkpt lat="40.8204606269" lon="-3.6286996398"><ele>917.72</ele><time>2026-08-23T10:16:30Z</time></trkpt><trkpt lat="40.8207918797" lon="-3.6286254600"><ele>915.79</ele><time>2026-08-23T10:16:35Z</time></trkpt><trkpt lat="40.8209989965" lon="-3.6286641844"><ele>912.43</ele><time>2026-08-23T10:16:38Z</time></trkpt><trkpt lat="40.8212723304" lon="-3.6285685468"><ele>908.58</ele><time>2026-08-23T10:16:42Z</time></trkpt><trkpt lat="40.8213448338" lon="-3.6285020784"><ele>907.14</ele><time>2026-08-23T10:16:43Z</time></trkpt><trkpt lat="40.8213940356" lon="-3.6284498591"><ele>907.14</ele><time>2026-08-23T10:16:44Z</time></trkpt><trkpt lat="40.8214651980" lon="-3.6283619329"><ele>907.14</ele><time>2026-08-23T10:16:46Z</time></trkpt><trkpt lat="40.8215775993" lon="-3.6282709893"><ele>906.66</ele><time>2026-08-23T10:16:48Z</time></trkpt><trkpt lat="40.8216583170" lon="-3.6281564925"><ele>908.58</ele><time>2026-08-23T10:16:50Z</time></trkpt><trkpt lat="40.8216810320" lon="-3.6281196121"><ele>908.58</ele><time>2026-08-23T10:16:51Z</time></trkpt><trkpt lat="40.8217679523" lon="-3.6279446818"><ele>909.54</ele><time>2026-08-23T10:16:57Z</time></trkpt><trkpt lat="40.8217819501" lon="-3.6279391497"><ele>909.54</ele><time>2026-08-23T10:16:58Z</time></trkpt><trkpt lat="40.8217995521" lon="-3.6279406585"><ele>909.54</ele><time>2026-08-23T10:16:59Z</time></trkpt><trkpt lat="40.8218074311" lon="-3.6279448494"><ele>909.06</ele><time>2026-08-23T10:17:07Z</time></trkpt><trkpt lat="40.8218398690" lon="-3.6279668938"><ele>908.58</ele><time>2026-08-23T10:17:17Z</time></trkpt><trkpt lat="40.8218542021" lon="-3.6279788800"><ele>908.58</ele><time>2026-08-23T10:17:19Z</time></trkpt><trkpt lat="40.8218693733" lon="-3.6279836576"><ele>908.58</ele><time>2026-08-23T10:17:20Z</time></trkpt><trkpt lat="40.8218827844" lon="-3.6279834900"><ele>908.58</ele><time>2026-08-23T10:17:21Z</time></trkpt><trkpt lat="40.8222085889" lon="-3.6279280856"><ele>909.06</ele><time>2026-08-23T10:17:31Z</time></trkpt><trkpt lat="40.8225047216" lon="-3.6279644631"><ele>909.54</ele><time>2026-08-23T10:17:38Z</time></trkpt><trkpt lat="40.8225538395" lon="-3.6279680673"><ele>910.03</ele><time>2026-08-23T10:17:39Z</time></trkpt><trkpt lat="40.8226993494" lon="-3.6279872619"><ele>910.99</ele><time>2026-08-23T10:17:42Z</time></trkpt><trkpt lat="40.8228967432" lon="-3.6280287523"><ele>911.47</ele><time>2026-08-23T10:17:46Z</time></trkpt><trkpt lat="40.8229489625" lon="-3.6280505452"><ele>911.47</ele><time>2026-08-23T10:17:47Z</time></trkpt><trkpt lat="40.8230000082" lon="-3.6280712485"><ele>911.95</ele><time>2026-08-23T10:17:48Z</time></trkpt><trkpt lat="40.8230511378" lon="-3.6281000823"><ele>911.95</ele><time>2026-08-23T10:17:49Z</time></trkpt><trkpt lat="40.8230959810" lon="-3.6281300057"><ele>911.95</ele><time>2026-08-23T10:17:50Z</time></trkpt><trkpt lat="40.8234750107" lon="-3.6283408944"><ele>912.91</ele><time>2026-08-23T10:17:58Z</time></trkpt><trkpt lat="40.8235219494" lon="-3.6283712368"><ele>912.91</ele><time>2026-08-23T10:17:59Z</time></trkpt><trkpt lat="40.8235657867" lon="-3.6284062732"><ele>912.91</ele><time>2026-08-23T10:18:00Z</time></trkpt><trkpt lat="40.8236075286" lon="-3.6284457520"><ele>912.91</ele><time>2026-08-23T10:18:01Z</time></trkpt><trkpt lat="40.8236500248" lon="-3.6284878291"><ele>912.91</ele><time>2026-08-23T10:18:02Z</time></trkpt><trkpt lat="40.8238591533" lon="-3.6286903359"><ele>915.31</ele><time>2026-08-23T10:18:08Z</time></trkpt><trkpt lat="40.8243471477" lon="-3.6288375221"><ele>918.68</ele><time>2026-08-23T10:18:21Z</time></trkpt><trkpt lat="40.8248981740" lon="-3.6289809365"><ele>921.56</ele><time>2026-08-23T10:18:36Z</time></trkpt><trkpt lat="40.8253535628" lon="-3.6291142926"><ele>923.00</ele><time>2026-08-23T10:18:49Z</time></trkpt><trkpt lat="40.8259138092" lon="-3.6293541826"><ele>925.89</ele><time>2026-08-23T10:19:03Z</time></trkpt><trkpt lat="40.8260966185" lon="-3.6294222437"><ele>926.37</ele><time>2026-08-23T10:19:07Z</time></trkpt><trkpt lat="40.8261397015" lon="-3.6294336431"><ele>926.85</ele><time>2026-08-23T10:19:08Z</time></trkpt><trkpt lat="40.8261828683" lon="-3.6294458807"><ele>926.85</ele><time>2026-08-23T10:19:09Z</time></trkpt><trkpt lat="40.8262254484" lon="-3.6294599622"><ele>927.33</ele><time>2026-08-23T10:19:10Z</time></trkpt><trkpt lat="40.8262677770" lon="-3.6294680089"><ele>927.33</ele><time>2026-08-23T10:19:11Z</time></trkpt><trkpt lat="40.8263103571" lon="-3.6294743791"><ele>928.29</ele><time>2026-08-23T10:19:12Z</time></trkpt><trkpt lat="40.8266369998" lon="-3.6296391673"><ele>931.65</ele><time>2026-08-23T10:19:21Z</time></trkpt><trkpt lat="40.8268885408" lon="-3.6299278401"><ele>934.06</ele><time>2026-08-23T10:19:31Z</time></trkpt><trkpt lat="40.8269920573" lon="-3.6302310973"><ele>937.42</ele><time>2026-08-23T10:19:41Z</time></trkpt><trkpt lat="40.8271329571" lon="-3.6306183413"><ele>939.83</ele><time>2026-08-23T10:19:55Z</time></trkpt><trkpt lat="40.8273501322" lon="-3.6312094331"><ele>940.79</ele><time>2026-08-23T10:20:10Z</time></trkpt><trkpt lat="40.8274713345" lon="-3.6314972676"><ele>940.79</ele><time>2026-08-23T10:20:17Z</time></trkpt><trkpt lat="40.8274884336" lon="-3.6315289512"><ele>940.79</ele><time>2026-08-23T10:20:18Z</time></trkpt><trkpt lat="40.8276346978" lon="-3.6317757145"><ele>939.35</ele><time>2026-08-23T10:20:22Z</time></trkpt><trkpt lat="40.8277911879" lon="-3.6320840009"><ele>937.90</ele><time>2026-08-23T10:20:26Z</time></trkpt><trkpt lat="40.8278180100" lon="-3.6321700830"><ele>937.90</ele><time>2026-08-23T10:20:27Z</time></trkpt><trkpt lat="40.8279789425" lon="-3.6329232808"><ele>937.42</ele><time>2026-08-23T10:20:37Z</time></trkpt><trkpt lat="40.8279864024" lon="-3.6329821218"><ele>936.46</ele><time>2026-08-23T10:20:38Z</time></trkpt><trkpt lat="40.8281265479" lon="-3.6337881256"><ele>937.42</ele><time>2026-08-23T10:20:50Z</time></trkpt><trkpt lat="40.8281509392" lon="-3.6338610481"><ele>937.42</ele><time>2026-08-23T10:20:51Z</time></trkpt><trkpt lat="40.8282054216" lon="-3.6340006907"><ele>936.46</ele><time>2026-08-23T10:20:53Z</time></trkpt><trkpt lat="40.8283810224" lon="-3.6343385652"><ele>935.50</ele><time>2026-08-23T10:20:58Z</time></trkpt><trkpt lat="40.8284251951" lon="-3.6344005074"><ele>935.02</ele><time>2026-08-23T10:20:59Z</time></trkpt><trkpt lat="40.8287625667" lon="-3.6349486839"><ele>936.46</ele><time>2026-08-23T10:21:09Z</time></trkpt><trkpt lat="40.8290607110" lon="-3.6356107704"><ele>938.86</ele><time>2026-08-23T10:21:24Z</time></trkpt><trkpt lat="40.8292870224" lon="-3.6363643873"><ele>940.31</ele><time>2026-08-23T10:21:40Z</time></trkpt><trkpt lat="40.8293370623" lon="-3.6364543252"><ele>940.31</ele><time>2026-08-23T10:21:42Z</time></trkpt><trkpt lat="40.8294282574" lon="-3.6366330273"><ele>940.79</ele><time>2026-08-23T10:21:46Z</time></trkpt><trkpt lat="40.8294438478" lon="-3.6366846599"><ele>940.79</ele><time>2026-08-23T10:21:47Z</time></trkpt><trkpt lat="40.8294548281" lon="-3.6367394775"><ele>941.27</ele><time>2026-08-23T10:21:48Z</time></trkpt><trkpt lat="40.8294661436" lon="-3.6367973126"><ele>941.27</ele><time>2026-08-23T10:21:49Z</time></trkpt><trkpt lat="40.8294821531" lon="-3.6368484423"><ele>941.27</ele><time>2026-08-23T10:21:50Z</time></trkpt><trkpt lat="40.8295032755" lon="-3.6369030923"><ele>941.27</ele><time>2026-08-23T10:21:51Z</time></trkpt><trkpt lat="40.8295220509" lon="-3.6369549762"><ele>941.27</ele><time>2026-08-23T10:21:52Z</time></trkpt><trkpt lat="40.8295935486" lon="-3.6371814553"><ele>941.75</ele><time>2026-08-23T10:21:56Z</time></trkpt><trkpt lat="40.8296165988" lon="-3.6372364406"><ele>941.75</ele><time>2026-08-23T10:21:57Z</time></trkpt><trkpt lat="40.8298008330" lon="-3.6377329845"><ele>942.23</ele><time>2026-08-23T10:22:06Z</time></trkpt><trkpt lat="40.8298261464" lon="-3.6377779115"><ele>942.71</ele><time>2026-08-23T10:22:07Z</time></trkpt><trkpt lat="40.8298490290" lon="-3.6378231738"><ele>943.19</ele><time>2026-08-23T10:22:08Z</time></trkpt><trkpt lat="40.8298655413" lon="-3.6378769856"><ele>943.19</ele><time>2026-08-23T10:22:09Z</time></trkpt><trkpt lat="40.8298823051" lon="-3.6379364133"><ele>944.15</ele><time>2026-08-23T10:22:10Z</time></trkpt><trkpt lat="40.8299035113" lon="-3.6379944999"><ele>944.15</ele><time>2026-08-23T10:22:11Z</time></trkpt><trkpt lat="40.8299270645" lon="-3.6380503234"><ele>944.15</ele><time>2026-08-23T10:22:12Z</time></trkpt><trkpt lat="40.8299712371" lon="-3.6381623056"><ele>945.11</ele><time>2026-08-23T10:22:14Z</time></trkpt><trkpt lat="40.8299908508" lon="-3.6382167041"><ele>945.59</ele><time>2026-08-23T10:22:15Z</time></trkpt><trkpt lat="40.8300119732" lon="-3.6382675823"><ele>946.07</ele><time>2026-08-23T10:22:16Z</time></trkpt><trkpt lat="40.8300344367" lon="-3.6383191310"><ele>946.07</ele><time>2026-08-23T10:22:17Z</time></trkpt><trkpt lat="40.8300566487" lon="-3.6383706797"><ele>946.56</ele><time>2026-08-23T10:22:18Z</time></trkpt><trkpt lat="40.8300763462" lon="-3.6384244077"><ele>947.04</ele><time>2026-08-23T10:22:19Z</time></trkpt><trkpt lat="40.8300917689" lon="-3.6384826619"><ele>947.04</ele><time>2026-08-23T10:22:20Z</time></trkpt><trkpt lat="40.8301065210" lon="-3.6385442689"><ele>947.04</ele><time>2026-08-23T10:22:21Z</time></trkpt><trkpt lat="40.8301238716" lon="-3.6386038642"><ele>947.04</ele><time>2026-08-23T10:22:22Z</time></trkpt><trkpt lat="40.8301425632" lon="-3.6386627890"><ele>947.52</ele><time>2026-08-23T10:22:23Z</time></trkpt><trkpt lat="40.8301621769" lon="-3.6387219653"><ele>947.52</ele><time>2026-08-23T10:22:24Z</time></trkpt><trkpt lat="40.8302654419" lon="-3.6390072014"><ele>948.48</ele><time>2026-08-23T10:22:29Z</time></trkpt><trkpt lat="40.8302899171" lon="-3.6390473507"><ele>948.48</ele><time>2026-08-23T10:22:30Z</time></trkpt><trkpt lat="40.8303193375" lon="-3.6390610971"><ele>948.48</ele><time>2026-08-23T10:22:31Z</time></trkpt><trkpt lat="40.8303519432" lon="-3.6390577443"><ele>948.96</ele><time>2026-08-23T10:22:32Z</time></trkpt><trkpt lat="40.8303868957" lon="-3.6390532181"><ele>948.96</ele><time>2026-08-23T10:22:33Z</time></trkpt><trkpt lat="40.8308538515" lon="-3.6389540602"><ele>950.88</ele><time>2026-08-23T10:22:46Z</time></trkpt><trkpt lat="40.8309245948" lon="-3.6389452592"><ele>951.84</ele><time>2026-08-23T10:22:48Z</time></trkpt><trkpt lat="40.8311579470" lon="-3.6389565747"><ele>954.73</ele><time>2026-08-23T10:22:56Z</time></trkpt><trkpt lat="40.8313679975" lon="-3.6389704049"><ele>956.17</ele><time>2026-08-23T10:23:03Z</time></trkpt><trkpt lat="40.8313927241" lon="-3.6389541440"><ele>956.65</ele><time>2026-08-23T10:23:04Z</time></trkpt><trkpt lat="40.8314187918" lon="-3.6389409006"><ele>956.65</ele><time>2026-08-23T10:23:05Z</time></trkpt><trkpt lat="40.8314474579" lon="-3.6389332730"><ele>957.13</ele><time>2026-08-23T10:23:06Z</time></trkpt><trkpt lat="40.8314791415" lon="-3.6389297526"><ele>958.09</ele><time>2026-08-23T10:23:07Z</time></trkpt><trkpt lat="40.8315071370" lon="-3.6389289983"><ele>958.09</ele><time>2026-08-23T10:23:08Z</time></trkpt><trkpt lat="40.8315362222" lon="-3.6389326863"><ele>958.09</ele><time>2026-08-23T10:23:09Z</time></trkpt><trkpt lat="40.8315653075" lon="-3.6389369611"><ele>959.05</ele><time>2026-08-23T10:23:10Z</time></trkpt><trkpt lat="40.8315965720" lon="-3.6389350332"><ele>959.05</ele><time>2026-08-23T10:23:11Z</time></trkpt><trkpt lat="40.8316301834" lon="-3.6389206164"><ele>960.01</ele><time>2026-08-23T10:23:12Z</time></trkpt><trkpt lat="40.8316644654" lon="-3.6389042716"><ele>960.49</ele><time>2026-08-23T10:23:13Z</time></trkpt><trkpt lat="40.8316979092" lon="-3.6388961412"><ele>960.49</ele><time>2026-08-23T10:23:14Z</time></trkpt><trkpt lat="40.8317335322" lon="-3.6388899386"><ele>961.46</ele><time>2026-08-23T10:23:15Z</time></trkpt><trkpt lat="40.8321644459" lon="-3.6389062833"><ele>963.38</ele><time>2026-08-23T10:23:26Z</time></trkpt><trkpt lat="40.8323852252" lon="-3.6389529705"><ele>964.82</ele><time>2026-08-23T10:23:32Z</time></trkpt><trkpt lat="40.8324262965" lon="-3.6389525514"><ele>964.82</ele><time>2026-08-23T10:23:33Z</time></trkpt><trkpt lat="40.8325083554" lon="-3.6389491986"><ele>965.30</ele><time>2026-08-23T10:23:35Z</time></trkpt><trkpt lat="40.8326867223" lon="-3.6389705725"><ele>966.26</ele><time>2026-08-23T10:23:39Z</time></trkpt><trkpt lat="40.8327274583" lon="-3.6389790382"><ele>966.74</ele><time>2026-08-23T10:23:40Z</time></trkpt><trkpt lat="40.8327702899" lon="-3.6389805470"><ele>966.74</ele><time>2026-08-23T10:23:41Z</time></trkpt><trkpt lat="40.8328133728" lon="-3.6389828101"><ele>967.70</ele><time>2026-08-23T10:23:42Z</time></trkpt><trkpt lat="40.8328542765" lon="-3.6389889289"><ele>967.70</ele><time>2026-08-23T10:23:43Z</time></trkpt><trkpt lat="40.8328970242" lon="-3.6389890127"><ele>968.18</ele><time>2026-08-23T10:23:44Z</time></trkpt><trkpt lat="40.8329416998" lon="-3.6389895994"><ele>968.18</ele><time>2026-08-23T10:23:45Z</time></trkpt><trkpt lat="40.8332566917" lon="-3.6390617676"><ele>969.15</ele><time>2026-08-23T10:23:52Z</time></trkpt><trkpt lat="40.8333043009" lon="-3.6390823033"><ele>969.15</ele><time>2026-08-23T10:23:53Z</time></trkpt><trkpt lat="40.8333537541" lon="-3.6390951276"><ele>969.63</ele><time>2026-08-23T10:23:54Z</time></trkpt><trkpt lat="40.8335462026" lon="-3.6391209438"><ele>970.11</ele><time>2026-08-23T10:23:58Z</time></trkpt><trkpt lat="40.8336432651" lon="-3.6391434073"><ele>970.59</ele><time>2026-08-23T10:24:00Z</time></trkpt><trkpt lat="40.8337299339" lon="-3.6391721573"><ele>971.07</ele><time>2026-08-23T10:24:02Z</time></trkpt><trkpt lat="40.8337771241" lon="-3.6391816288"><ele>971.55</ele><time>2026-08-23T10:24:03Z</time></trkpt><trkpt lat="40.8339667227" lon="-3.6392412242"><ele>972.99</ele><time>2026-08-23T10:24:07Z</time></trkpt><trkpt lat="40.8340598457" lon="-3.6392805353"><ele>973.95</ele><time>2026-08-23T10:24:09Z</time></trkpt><trkpt lat="40.8341077901" lon="-3.6392863188"><ele>973.95</ele><time>2026-08-23T10:24:10Z</time></trkpt><trkpt lat="40.8342115581" lon="-3.6392935272"><ele>974.43</ele><time>2026-08-23T10:24:12Z</time></trkpt><trkpt lat="40.8342585806" lon="-3.6393090338"><ele>974.91</ele><time>2026-08-23T10:24:13Z</time></trkpt><trkpt lat="40.8343122248" lon="-3.6393266357"><ele>975.39</ele><time>2026-08-23T10:24:14Z</time></trkpt><trkpt lat="40.8343624324" lon="-3.6393487640"><ele>975.39</ele><time>2026-08-23T10:24:15Z</time></trkpt><trkpt lat="40.8344089519" lon="-3.6393739935"><ele>976.36</ele><time>2026-08-23T10:24:16Z</time></trkpt><trkpt lat="40.8344544657" lon="-3.6393830460"><ele>977.32</ele><time>2026-08-23T10:24:17Z</time></trkpt><trkpt lat="40.8345032483" lon="-3.6393780168"><ele>977.32</ele><time>2026-08-23T10:24:18Z</time></trkpt><trkpt lat="40.8345554676" lon="-3.6393660307"><ele>977.32</ele><time>2026-08-23T10:24:19Z</time></trkpt><trkpt lat="40.8346119616" lon="-3.6393490154"><ele>977.80</ele><time>2026-08-23T10:24:20Z</time></trkpt><trkpt lat="40.8347269613" lon="-3.6393248755"><ele>978.76</ele><time>2026-08-23T10:24:22Z</time></trkpt><trkpt lat="40.8347877301" lon="-3.6393216066"><ele>979.72</ele><time>2026-08-23T10:24:23Z</time></trkpt><trkpt lat="40.8348432183" lon="-3.6393178347"><ele>979.72</ele><time>2026-08-23T10:24:24Z</time></trkpt><trkpt lat="40.8348968625" lon="-3.6393094528"><ele>979.72</ele><time>2026-08-23T10:24:25Z</time></trkpt><trkpt lat="40.8349505905" lon="-3.6393004842"><ele>979.72</ele><time>2026-08-23T10:24:26Z</time></trkpt><trkpt lat="40.8350017201" lon="-3.6392972153"><ele>979.72</ele><time>2026-08-23T10:24:27Z</time></trkpt><trkpt lat="40.8350524306" lon="-3.6392908450"><ele>980.20</ele><time>2026-08-23T10:24:28Z</time></trkpt><trkpt lat="40.8351504151" lon="-3.6392708123"><ele>980.20</ele><time>2026-08-23T10:24:30Z</time></trkpt><trkpt lat="40.8351993654" lon="-3.6392706446"><ele>980.20</ele><time>2026-08-23T10:24:31Z</time></trkpt><trkpt lat="40.8352490701" lon="-3.6392692197"><ele>981.16</ele><time>2026-08-23T10:24:32Z</time></trkpt><trkpt lat="40.8352965955" lon="-3.6392591614"><ele>981.64</ele><time>2026-08-23T10:24:33Z</time></trkpt><trkpt lat="40.8353484794" lon="-3.6392446607"><ele>982.12</ele><time>2026-08-23T10:24:34Z</time></trkpt><trkpt lat="40.8354051411" lon="-3.6392278969"><ele>982.12</ele><time>2026-08-23T10:24:35Z</time></trkpt><trkpt lat="40.8359855041" lon="-3.6391365342"><ele>984.53</ele><time>2026-08-23T10:24:45Z</time></trkpt><trkpt lat="40.8360348735" lon="-3.6391159985"><ele>984.53</ele><time>2026-08-23T10:24:46Z</time></trkpt><trkpt lat="40.8360813931" lon="-3.6390812974"><ele>984.53</ele><time>2026-08-23T10:24:47Z</time></trkpt><trkpt lat="40.8361181896" lon="-3.6390408967"><ele>984.53</ele><time>2026-08-23T10:24:48Z</time></trkpt><trkpt lat="40.8361523040" lon="-3.6389950477"><ele>984.53</ele><time>2026-08-23T10:24:49Z</time></trkpt><trkpt lat="40.8361829817" lon="-3.6389424093"><ele>984.53</ele><time>2026-08-23T10:24:50Z</time></trkpt><trkpt lat="40.8362090494" lon="-3.6388943810"><ele>984.53</ele><time>2026-08-23T10:24:51Z</time></trkpt><trkpt lat="40.8362356201" lon="-3.6388418265"><ele>984.53</ele><time>2026-08-23T10:24:52Z</time></trkpt><trkpt lat="40.8362581674" lon="-3.6387814768"><ele>984.53</ele><time>2026-08-23T10:24:53Z</time></trkpt><trkpt lat="40.8362776134" lon="-3.6387276649"><ele>984.53</ele><time>2026-08-23T10:24:54Z</time></trkpt><trkpt lat="40.8363146614" lon="-3.6386185326"><ele>982.60</ele><time>2026-08-23T10:24:56Z</time></trkpt><trkpt lat="40.8364435751" lon="-3.6382186320"><ele>982.60</ele><time>2026-08-23T10:25:04Z</time></trkpt><trkpt lat="40.8364978060" lon="-3.6379787419"><ele>981.64</ele><time>2026-08-23T10:25:09Z</time></trkpt><trkpt lat="40.8365207724" lon="-3.6379641574"><ele>981.64</ele><time>2026-08-23T10:25:10Z</time></trkpt><trkpt lat="40.8365405537" lon="-3.6379626486"><ele>981.64</ele><time>2026-08-23T10:25:11Z</time></trkpt><trkpt lat="40.8365597483" lon="-3.6379650794"><ele>981.64</ele><time>2026-08-23T10:25:12Z</time></trkpt><trkpt lat="40.8365802001" lon="-3.6379632354"><ele>981.64</ele><time>2026-08-23T10:25:13Z</time></trkpt><trkpt lat="40.8366008196" lon="-3.6379554402"><ele>981.16</ele><time>2026-08-23T10:25:14Z</time></trkpt><trkpt lat="40.8366251271" lon="-3.6379410233"><ele>981.16</ele><time>2026-08-23T10:25:15Z</time></trkpt><trkpt lat="40.8366501890" lon="-3.6379198171"><ele>981.16</ele><time>2026-08-23T10:25:16Z</time></trkpt><trkpt lat="40.8366763406" lon="-3.6378945038"><ele>980.68</ele><time>2026-08-23T10:25:17Z</time></trkpt><trkpt lat="40.8368502650" lon="-3.6377548613"><ele>979.24</ele><time>2026-08-23T10:25:26Z</time></trkpt><trkpt lat="40.8368542884" lon="-3.6377583817"><ele>978.76</ele><time>2026-08-23T10:25:42Z</time></trkpt><trkpt lat="40.8368483372" lon="-3.6377556156"><ele>978.76</ele><time>2026-08-23T10:26:11Z</time></trkpt><trkpt lat="40.8368639275" lon="-3.6377776600"><ele>978.76</ele><time>2026-08-23T10:26:31Z</time></trkpt><trkpt lat="40.8368743211" lon="-3.6377633270"><ele>978.28</ele><time>2026-08-23T10:26:50Z</time></trkpt><trkpt lat="40.8368878998" lon="-3.6377580464"><ele>978.28</ele><time>2026-08-23T10:27:08Z</time></trkpt><trkpt lat="40.8370714635" lon="-3.6376817711"><ele>977.80</ele><time>2026-08-23T10:27:19Z</time></trkpt><trkpt lat="40.8374413569" lon="-3.6374927592"><ele>976.36</ele><time>2026-08-23T10:27:29Z</time></trkpt><trkpt lat="40.8377043810" lon="-3.6372464988"><ele>975.39</ele><time>2026-08-23T10:27:36Z</time></trkpt><trkpt lat="40.8377466258" lon="-3.6372207664"><ele>975.39</ele><time>2026-08-23T10:27:37Z</time></trkpt><trkpt lat="40.8377869427" lon="-3.6372028291"><ele>975.39</ele><time>2026-08-23T10:27:38Z</time></trkpt><trkpt lat="40.8378300257" lon="-3.6371900886"><ele>975.39</ele><time>2026-08-23T10:27:39Z</time></trkpt><trkpt lat="40.8378758747" lon="-3.6371787731"><ele>975.39</ele><time>2026-08-23T10:27:40Z</time></trkpt><trkpt lat="40.8380590193" lon="-3.6371166632"><ele>975.39</ele><time>2026-08-23T10:27:44Z</time></trkpt><trkpt lat="40.8381007612" lon="-3.6370893382"><ele>975.39</ele><time>2026-08-23T10:27:45Z</time></trkpt><trkpt lat="40.8381405752" lon="-3.6370516196"><ele>975.39</ele><time>2026-08-23T10:27:46Z</time></trkpt><trkpt lat="40.8381738514" lon="-3.6370086204"><ele>975.39</ele><time>2026-08-23T10:27:47Z</time></trkpt><trkpt lat="40.8382032719" lon="-3.6369642802"><ele>975.39</ele><time>2026-08-23T10:27:48Z</time></trkpt><trkpt lat="40.8382336982" lon="-3.6369134020"><ele>975.39</ele><time>2026-08-23T10:27:49Z</time></trkpt><trkpt lat="40.8382649627" lon="-3.6368648708"><ele>975.39</ele><time>2026-08-23T10:27:50Z</time></trkpt><trkpt lat="40.8382981550" lon="-3.6368269008"><ele>975.39</ele><time>2026-08-23T10:27:51Z</time></trkpt><trkpt lat="40.8383371308" lon="-3.6367952172"><ele>975.39</ele><time>2026-08-23T10:27:52Z</time></trkpt><trkpt lat="40.8383837342" lon="-3.6367638689"><ele>975.39</ele><time>2026-08-23T10:27:53Z</time></trkpt><trkpt lat="40.8384311758" lon="-3.6367399804"><ele>975.39</ele><time>2026-08-23T10:27:54Z</time></trkpt><trkpt lat="40.8384822216" lon="-3.6367200315"><ele>975.39</ele><time>2026-08-23T10:27:55Z</time></trkpt><trkpt lat="40.8386875782" lon="-3.6366550718"><ele>974.91</ele><time>2026-08-23T10:27:59Z</time></trkpt><trkpt lat="40.8388290647" lon="-3.6365739349"><ele>974.91</ele><time>2026-08-23T10:28:02Z</time></trkpt><trkpt lat="40.8393111080" lon="-3.6361779738"><ele>975.88</ele><time>2026-08-23T10:28:14Z</time></trkpt><trkpt lat="40.8393880539" lon="-3.6361276824"><ele>975.88</ele><time>2026-08-23T10:28:16Z</time></trkpt><trkpt lat="40.8395370003" lon="-3.6360178795"><ele>975.88</ele><time>2026-08-23T10:28:20Z</time></trkpt><trkpt lat="40.8396172151" lon="-3.6359743774"><ele>975.88</ele><time>2026-08-23T10:28:22Z</time></trkpt><trkpt lat="40.8397388365" lon="-3.6359281931"><ele>975.88</ele><time>2026-08-23T10:28:25Z</time></trkpt><trkpt lat="40.8401262481" lon="-3.6358262692"><ele>975.88</ele><time>2026-08-23T10:28:34Z</time></trkpt><trkpt lat="40.8401690796" lon="-3.6358143669"><ele>975.88</ele><time>2026-08-23T10:28:35Z</time></trkpt><trkpt lat="40.8405807149" lon="-3.6357229203"><ele>976.36</ele><time>2026-08-23T10:28:44Z</time></trkpt><trkpt lat="40.8406258095" lon="-3.6357144546"><ele>976.36</ele><time>2026-08-23T10:28:45Z</time></trkpt><trkpt lat="40.8406742569" lon="-3.6357037257"><ele>976.36</ele><time>2026-08-23T10:28:46Z</time></trkpt><trkpt lat="40.8407209441" lon="-3.6356944218"><ele>976.36</ele><time>2026-08-23T10:28:47Z</time></trkpt><trkpt lat="40.8407672960" lon="-3.6356834415"><ele>976.36</ele><time>2026-08-23T10:28:48Z</time></trkpt><trkpt lat="40.8409930207" lon="-3.6356020533"><ele>976.36</ele><time>2026-08-23T10:28:53Z</time></trkpt><trkpt lat="40.8414007165" lon="-3.6353122070"><ele>977.32</ele><time>2026-08-23T10:29:03Z</time></trkpt><trkpt lat="40.8414433803" lon="-3.6352962814"><ele>977.32</ele><time>2026-08-23T10:29:04Z</time></trkpt><trkpt lat="40.8414828591" lon="-3.6352795176"><ele>978.28</ele><time>2026-08-23T10:29:05Z</time></trkpt><trkpt lat="40.8415217511" lon="-3.6352532823"><ele>978.28</ele><time>2026-08-23T10:29:06Z</time></trkpt><trkpt lat="40.8415564522" lon="-3.6352228560"><ele>978.28</ele><time>2026-08-23T10:29:07Z</time></trkpt><trkpt lat="40.8415902313" lon="-3.6351894960"><ele>978.28</ele><time>2026-08-23T10:29:08Z</time></trkpt><trkpt lat="40.8417411055" lon="-3.6350446567"><ele>979.24</ele><time>2026-08-23T10:29:12Z</time></trkpt><trkpt lat="40.8418551832" lon="-3.6349561438"><ele>979.24</ele><time>2026-08-23T10:29:15Z</time></trkpt><trkpt lat="40.8418916445" lon="-3.6349202693"><ele>979.24</ele><time>2026-08-23T10:29:16Z</time></trkpt><trkpt lat="40.8419353981" lon="-3.6348878313"><ele>979.24</ele><time>2026-08-23T10:29:17Z</time></trkpt><trkpt lat="40.8419906348" lon="-3.6348607577"><ele>979.24</ele><time>2026-08-23T10:29:18Z</time></trkpt><trkpt lat="40.8420351427" lon="-3.6348387133"><ele>979.24</ele><time>2026-08-23T10:29:19Z</time></trkpt><trkpt lat="40.8420786448" lon="-3.6348137353"><ele>979.24</ele><time>2026-08-23T10:29:20Z</time></trkpt><trkpt lat="40.8421217278" lon="-3.6347869970"><ele>979.24</ele><time>2026-08-23T10:29:21Z</time></trkpt><trkpt lat="40.8421633020" lon="-3.6347653717"><ele>979.72</ele><time>2026-08-23T10:29:22Z</time></trkpt><trkpt lat="40.8423270844" lon="-3.6346692313"><ele>979.24</ele><time>2026-08-23T10:29:26Z</time></trkpt><trkpt lat="40.8423679043" lon="-3.6346419901"><ele>979.24</ele><time>2026-08-23T10:29:27Z</time></trkpt><trkpt lat="40.8424893580" lon="-3.6345734261"><ele>979.72</ele><time>2026-08-23T10:29:30Z</time></trkpt><trkpt lat="40.8427255601" lon="-3.6345166806"><ele>979.72</ele><time>2026-08-23T10:29:35Z</time></trkpt><trkpt lat="40.8427774440" lon="-3.6344960611"><ele>979.72</ele><time>2026-08-23T10:29:36Z</time></trkpt><trkpt lat="40.8432456572" lon="-3.6343030259"><ele>980.68</ele><time>2026-08-23T10:29:48Z</time></trkpt><trkpt lat="40.8436550293" lon="-3.6344032735"><ele>982.60</ele><time>2026-08-23T10:29:59Z</time></trkpt><trkpt lat="40.8440804947" lon="-3.6346126534"><ele>985.01</ele><time>2026-08-23T10:30:11Z</time></trkpt><trkpt lat="40.8443052974" lon="-3.6344932113"><ele>987.89</ele><time>2026-08-23T10:30:18Z</time></trkpt><trkpt lat="40.8447050303" lon="-3.6340799835"><ele>988.85</ele><time>2026-08-23T10:30:31Z</time></trkpt><trkpt lat="40.8449890092" lon="-3.6337867845"><ele>988.85</ele><time>2026-08-23T10:30:39Z</time></trkpt><trkpt lat="40.8450251352" lon="-3.6337619741"><ele>988.85</ele><time>2026-08-23T10:30:40Z</time></trkpt><trkpt lat="40.8450659551" lon="-3.6337449588"><ele>988.85</ele><time>2026-08-23T10:30:41Z</time></trkpt><trkpt lat="40.8451034222" lon="-3.6337350681"><ele>988.85</ele><time>2026-08-23T10:30:42Z</time></trkpt><trkpt lat="40.8451433200" lon="-3.6337286979"><ele>988.85</ele><time>2026-08-23T10:30:43Z</time></trkpt><trkpt lat="40.8451844752" lon="-3.6337161250"><ele>988.85</ele><time>2026-08-23T10:30:44Z</time></trkpt><trkpt lat="40.8452278934" lon="-3.6336948350"><ele>988.85</ele><time>2026-08-23T10:30:45Z</time></trkpt><trkpt lat="40.8452733234" lon="-3.6336696055"><ele>988.85</ele><time>2026-08-23T10:30:46Z</time></trkpt><trkpt lat="40.8453154005" lon="-3.6336516682"><ele>988.85</ele><time>2026-08-23T10:30:47Z</time></trkpt><trkpt lat="40.8453521971" lon="-3.6336404365"><ele>988.85</ele><time>2026-08-23T10:30:48Z</time></trkpt><trkpt lat="40.8454438951" lon="-3.6335841101"><ele>988.85</ele><time>2026-08-23T10:30:51Z</time></trkpt><trkpt lat="40.8454615809" lon="-3.6335417815"><ele>988.85</ele><time>2026-08-23T10:30:52Z</time></trkpt><trkpt lat="40.8454713877" lon="-3.6334890593"><ele>988.85</ele><time>2026-08-23T10:30:53Z</time></trkpt><trkpt lat="40.8454709686" lon="-3.6334261112"><ele>988.85</ele><time>2026-08-23T10:30:54Z</time></trkpt><trkpt lat="40.8454602398" lon="-3.6333630793"><ele>988.85</ele><time>2026-08-23T10:30:55Z</time></trkpt><trkpt lat="40.8454453200" lon="-3.6333019752"><ele>989.33</ele><time>2026-08-23T10:30:56Z</time></trkpt><trkpt lat="40.8453760017" lon="-3.6329965387"><ele>989.33</ele><time>2026-08-23T10:31:02Z</time></trkpt><trkpt lat="40.8453780133" lon="-3.6329418886"><ele>989.33</ele><time>2026-08-23T10:31:03Z</time></trkpt><trkpt lat="40.8453885745" lon="-3.6328822933"><ele>989.33</ele><time>2026-08-23T10:31:04Z</time></trkpt><trkpt lat="40.8454082720" lon="-3.6328292359"><ele>989.33</ele><time>2026-08-23T10:31:05Z</time></trkpt><trkpt lat="40.8454345074" lon="-3.6327774357"><ele>989.33</ele><time>2026-08-23T10:31:06Z</time></trkpt><trkpt lat="40.8454765007" lon="-3.6326698959"><ele>989.33</ele><time>2026-08-23T10:31:08Z</time></trkpt><trkpt lat="40.8454870619" lon="-3.6326092109"><ele>989.33</ele><time>2026-08-23T10:31:09Z</time></trkpt><trkpt lat="40.8454899956" lon="-3.6325415689"><ele>989.33</ele><time>2026-08-23T10:31:10Z</time></trkpt><trkpt lat="40.8454951923" lon="-3.6324780341"><ele>989.33</ele><time>2026-08-23T10:31:11Z</time></trkpt><trkpt lat="40.8455060050" lon="-3.6324125715"><ele>989.81</ele><time>2026-08-23T10:31:12Z</time></trkpt><trkpt lat="40.8455226850" lon="-3.6323445104"><ele>989.81</ele><time>2026-08-23T10:31:13Z</time></trkpt><trkpt lat="40.8455584757" lon="-3.6322272476"><ele>989.81</ele><time>2026-08-23T10:31:15Z</time></trkpt><trkpt lat="40.8455829509" lon="-3.6321790516"><ele>989.81</ele><time>2026-08-23T10:31:16Z</time></trkpt><trkpt lat="40.8456117846" lon="-3.6321511399"><ele>989.81</ele><time>2026-08-23T10:31:17Z</time></trkpt><trkpt lat="40.8456484135" lon="-3.6321386509"><ele>989.81</ele><time>2026-08-23T10:31:18Z</time></trkpt><trkpt lat="40.8456905745" lon="-3.6321349628"><ele>989.81</ele><time>2026-08-23T10:31:19Z</time></trkpt><trkpt lat="40.8459727094" lon="-3.6321843322"><ele>989.81</ele><time>2026-08-23T10:31:26Z</time></trkpt><trkpt lat="40.8460147027" lon="-3.6321905348"><ele>989.81</ele><time>2026-08-23T10:31:27Z</time></trkpt><trkpt lat="40.8460566122" lon="-3.6321865954"><ele>989.81</ele><time>2026-08-23T10:31:28Z</time></trkpt><trkpt lat="40.8460991923" lon="-3.6321737710"><ele>989.81</ele><time>2026-08-23T10:31:29Z</time></trkpt><trkpt lat="40.8461358212" lon="-3.6321637128"><ele>989.81</ele><time>2026-08-23T10:31:30Z</time></trkpt><trkpt lat="40.8461736236" lon="-3.6321560852"><ele>989.81</ele><time>2026-08-23T10:31:31Z</time></trkpt><trkpt lat="40.8462128509" lon="-3.6321473680"><ele>989.81</ele><time>2026-08-23T10:31:32Z</time></trkpt><trkpt lat="40.8462482225" lon="-3.6321420036"><ele>990.30</ele><time>2026-08-23T10:31:33Z</time></trkpt><trkpt lat="40.8462854382" lon="-3.6321368068"><ele>990.30</ele><time>2026-08-23T10:31:34Z</time></trkpt><trkpt lat="40.8463264257" lon="-3.6321244854"><ele>990.30</ele><time>2026-08-23T10:31:35Z</time></trkpt><trkpt lat="40.8463668264" lon="-3.6321083922"><ele>990.30</ele><time>2026-08-23T10:31:36Z</time></trkpt><trkpt lat="40.8464108314" lon="-3.6320887785"><ele>991.26</ele><time>2026-08-23T10:31:37Z</time></trkpt><trkpt lat="40.8464511484" lon="-3.6320777144"><ele>991.74</ele><time>2026-08-23T10:31:38Z</time></trkpt><trkpt lat="40.8464938123" lon="-3.6320777982"><ele>991.74</ele><time>2026-08-23T10:31:39Z</time></trkpt><trkpt lat="40.8466152661" lon="-3.6320782173"><ele>992.70</ele><time>2026-08-23T10:31:42Z</time></trkpt><trkpt lat="40.8466500510" lon="-3.6320441030"><ele>993.18</ele><time>2026-08-23T10:31:43Z</time></trkpt><trkpt lat="40.8466757834" lon="-3.6320038699"><ele>993.66</ele><time>2026-08-23T10:31:44Z</time></trkpt><trkpt lat="40.8466995880" lon="-3.6319620442"><ele>993.66</ele><time>2026-08-23T10:31:45Z</time></trkpt><trkpt lat="40.8467282541" lon="-3.6319258343"><ele>994.62</ele><time>2026-08-23T10:31:46Z</time></trkpt><trkpt lat="40.8467624523" lon="-3.6319027841"><ele>994.62</ele><time>2026-08-23T10:31:47Z</time></trkpt><trkpt lat="40.8467976563" lon="-3.6318955757"><ele>994.62</ele><time>2026-08-23T10:31:48Z</time></trkpt><trkpt lat="40.8468365483" lon="-3.6319031194"><ele>994.62</ele><time>2026-08-23T10:31:49Z</time></trkpt><trkpt lat="40.8468686510" lon="-3.6319252476"><ele>994.62</ele><time>2026-08-23T10:31:50Z</time></trkpt><trkpt lat="40.8468958084" lon="-3.6319636367"><ele>995.58</ele><time>2026-08-23T10:31:51Z</time></trkpt><trkpt lat="40.8469231334" lon="-3.6320090666"><ele>995.58</ele><time>2026-08-23T10:31:52Z</time></trkpt><trkpt lat="40.8469513804" lon="-3.6320492160"><ele>995.58</ele><time>2026-08-23T10:31:53Z</time></trkpt><trkpt lat="40.8469831478" lon="-3.6320881080"><ele>995.58</ele><time>2026-08-23T10:31:54Z</time></trkpt><trkpt lat="40.8470181003" lon="-3.6321172770"><ele>995.58</ele><time>2026-08-23T10:31:55Z</time></trkpt><trkpt lat="40.8470582496" lon="-3.6321334541"><ele>995.58</ele><time>2026-08-23T10:31:56Z</time></trkpt><trkpt lat="40.8470989857" lon="-3.6321347952"><ele>995.58</ele><time>2026-08-23T10:31:57Z</time></trkpt><trkpt lat="40.8471451700" lon="-3.6321252398"><ele>996.06</ele><time>2026-08-23T10:31:58Z</time></trkpt><trkpt lat="40.8471908513" lon="-3.6321122479"><ele>996.06</ele><time>2026-08-23T10:31:59Z</time></trkpt><trkpt lat="40.8472357783" lon="-3.6320959032"><ele>996.06</ele><time>2026-08-23T10:32:00Z</time></trkpt><trkpt lat="40.8472786099" lon="-3.6320790555"><ele>996.06</ele><time>2026-08-23T10:32:01Z</time></trkpt><trkpt lat="40.8474548813" lon="-3.6320080608"><ele>995.58</ele><time>2026-08-23T10:32:05Z</time></trkpt><trkpt lat="40.8476367686" lon="-3.6319063883"><ele>995.58</ele><time>2026-08-23T10:32:09Z</time></trkpt><trkpt lat="40.8476812765" lon="-3.6318690889"><ele>995.58</ele><time>2026-08-23T10:32:10Z</time></trkpt><trkpt lat="40.8477203362" lon="-3.6318322085"><ele>996.54</ele><time>2026-08-23T10:32:11Z</time></trkpt><trkpt lat="40.8477616590" lon="-3.6317944061"><ele>996.54</ele><time>2026-08-23T10:32:12Z</time></trkpt><trkpt lat="40.8478070050" lon="-3.6317618843"><ele>996.54</ele><time>2026-08-23T10:32:13Z</time></trkpt><trkpt lat="40.8478544466" lon="-3.6317332182"><ele>996.54</ele><time>2026-08-23T10:32:14Z</time></trkpt><trkpt lat="40.8481176384" lon="-3.6315742973"><ele>996.54</ele><time>2026-08-23T10:32:20Z</time></trkpt><trkpt lat="40.8481571171" lon="-3.6315418594"><ele>996.54</ele><time>2026-08-23T10:32:21Z</time></trkpt><trkpt lat="40.8481962606" lon="-3.6314997822"><ele>996.54</ele><time>2026-08-23T10:32:22Z</time></trkpt><trkpt lat="40.8485266753" lon="-3.6311060842"><ele>997.51</ele><time>2026-08-23T10:32:31Z</time></trkpt><trkpt lat="40.8487643022" lon="-3.6309004761"><ele>998.95</ele><time>2026-08-23T10:32:36Z</time></trkpt><trkpt lat="40.8493575733" lon="-3.6303887609"><ele>1000.39</ele><time>2026-08-23T10:32:49Z</time></trkpt><trkpt lat="40.8495943621" lon="-3.6302445084"><ele>1000.87</ele><time>2026-08-23T10:32:54Z</time></trkpt><trkpt lat="40.8496309910" lon="-3.6301996652"><ele>1000.87</ele><time>2026-08-23T10:32:55Z</time></trkpt><trkpt lat="40.8496659435" lon="-3.6301466916"><ele>1000.87</ele><time>2026-08-23T10:32:56Z</time></trkpt><trkpt lat="40.8497079369" lon="-3.6300989147"><ele>1000.87</ele><time>2026-08-23T10:32:57Z</time></trkpt><trkpt lat="40.8497549593" lon="-3.6300643813"><ele>1001.83</ele><time>2026-08-23T10:32:58Z</time></trkpt><trkpt lat="40.8498025686" lon="-3.6300417501"><ele>1001.83</ele><time>2026-08-23T10:32:59Z</time></trkpt><trkpt lat="40.8498554584" lon="-3.6300220527"><ele>1002.31</ele><time>2026-08-23T10:33:00Z</time></trkpt><trkpt lat="40.8499054145" lon="-3.6300082225"><ele>1002.31</ele><time>2026-08-23T10:33:01Z</time></trkpt><trkpt lat="40.8501881361" lon="-3.6299503036"><ele>1003.27</ele><time>2026-08-23T10:33:07Z</time></trkpt><trkpt lat="40.8502273634" lon="-3.6299264152"><ele>1003.27</ele><time>2026-08-23T10:33:08Z</time></trkpt><trkpt lat="40.8502640761" lon="-3.6298979167"><ele>1003.27</ele><time>2026-08-23T10:33:09Z</time></trkpt><trkpt lat="40.8503017109" lon="-3.6298609525"><ele>1004.23</ele><time>2026-08-23T10:33:10Z</time></trkpt><trkpt lat="40.8503361605" lon="-3.6298210546"><ele>1004.23</ele><time>2026-08-23T10:33:11Z</time></trkpt><trkpt lat="40.8504503220" lon="-3.6297099106"><ele>1004.23</ele><time>2026-08-23T10:33:14Z</time></trkpt><trkpt lat="40.8504936565" lon="-3.6296862736"><ele>1004.23</ele><time>2026-08-23T10:33:15Z</time></trkpt><trkpt lat="40.8505400922" lon="-3.6296728626"><ele>1004.72</ele><time>2026-08-23T10:33:16Z</time></trkpt><trkpt lat="40.8505918086" lon="-3.6296676658"><ele>1005.20</ele><time>2026-08-23T10:33:17Z</time></trkpt><trkpt lat="40.8506396692" lon="-3.6296691746"><ele>1005.20</ele><time>2026-08-23T10:33:18Z</time></trkpt><trkpt lat="40.8513227105" lon="-3.6297640577"><ele>1007.12</ele><time>2026-08-23T10:33:32Z</time></trkpt><trkpt lat="40.8513650391" lon="-3.6297617108"><ele>1008.08</ele><time>2026-08-23T10:33:33Z</time></trkpt><trkpt lat="40.8514077868" lon="-3.6297443602"><ele>1008.56</ele><time>2026-08-23T10:33:34Z</time></trkpt><trkpt lat="40.8514470980" lon="-3.6297107488"><ele>1008.56</ele><time>2026-08-23T10:33:35Z</time></trkpt><trkpt lat="40.8514833916" lon="-3.6296712700"><ele>1009.04</ele><time>2026-08-23T10:33:36Z</time></trkpt><trkpt lat="40.8519868925" lon="-3.6289905757"><ele>1009.52</ele><time>2026-08-23T10:33:51Z</time></trkpt><trkpt lat="40.8521002997" lon="-3.6288038269"><ele>1008.08</ele><time>2026-08-23T10:33:55Z</time></trkpt><trkpt lat="40.8521344978" lon="-3.6287565529"><ele>1008.08</ele><time>2026-08-23T10:33:56Z</time></trkpt><trkpt lat="40.8525986876" lon="-3.6281312630"><ele>1009.52</ele><time>2026-08-23T10:34:09Z</time></trkpt><trkpt lat="40.8528902102" lon="-3.6277814023"><ele>1009.04</ele><time>2026-08-23T10:34:17Z</time></trkpt><trkpt lat="40.8530092333" lon="-3.6276724376"><ele>1009.04</ele><time>2026-08-23T10:34:20Z</time></trkpt><trkpt lat="40.8530548308" lon="-3.6276482977"><ele>1010.00</ele><time>2026-08-23T10:34:21Z</time></trkpt><trkpt lat="40.8530988358" lon="-3.6276406702"><ele>1010.00</ele><time>2026-08-23T10:34:22Z</time></trkpt><trkpt lat="40.8532329462" lon="-3.6276336294"><ele>1010.96</ele><time>2026-08-23T10:34:25Z</time></trkpt><trkpt lat="40.8532805555" lon="-3.6276186258"><ele>1011.44</ele><time>2026-08-23T10:34:26Z</time></trkpt><trkpt lat="40.8533292543" lon="-3.6275977548"><ele>1011.44</ele><time>2026-08-23T10:34:27Z</time></trkpt><trkpt lat="40.8533757739" lon="-3.6275718547"><ele>1011.44</ele><time>2026-08-23T10:34:28Z</time></trkpt><trkpt lat="40.8534199465" lon="-3.6275393330"><ele>1011.44</ele><time>2026-08-23T10:34:29Z</time></trkpt><trkpt lat="40.8539588191" lon="-3.6269199941"><ele>1012.89</ele><time>2026-08-23T10:34:43Z</time></trkpt><trkpt lat="40.8540805243" lon="-3.6268150527"><ele>1012.89</ele><time>2026-08-23T10:34:46Z</time></trkpt><trkpt lat="40.8541264571" lon="-3.6267867219"><ele>1012.89</ele><time>2026-08-23T10:34:47Z</time></trkpt><trkpt lat="40.8541734796" lon="-3.6267664377"><ele>1012.89</ele><time>2026-08-23T10:34:48Z</time></trkpt><trkpt lat="40.8542188257" lon="-3.6267539486"><ele>1012.89</ele><time>2026-08-23T10:34:49Z</time></trkpt><trkpt lat="40.8542646747" lon="-3.6267502606"><ele>1012.89</ele><time>2026-08-23T10:34:50Z</time></trkpt><trkpt lat="40.8543081768" lon="-3.6267578881"><ele>1013.37</ele><time>2026-08-23T10:34:51Z</time></trkpt><trkpt lat="40.8543500863" lon="-3.6267737299"><ele>1013.37</ele><time>2026-08-23T10:34:52Z</time></trkpt><trkpt lat="40.8543957677" lon="-3.6267935112"><ele>1013.85</ele><time>2026-08-23T10:34:53Z</time></trkpt><trkpt lat="40.8544781618" lon="-3.6268153042"><ele>1013.85</ele><time>2026-08-23T10:34:55Z</time></trkpt><trkpt lat="40.8545214124" lon="-3.6268096883"><ele>1014.33</ele><time>2026-08-23T10:34:56Z</time></trkpt><trkpt lat="40.8545640763" lon="-3.6267905775"><ele>1014.33</ele><time>2026-08-23T10:34:57Z</time></trkpt><trkpt lat="40.8546030521" lon="-3.6267669406"><ele>1014.81</ele><time>2026-08-23T10:34:58Z</time></trkpt><trkpt lat="40.8546442073" lon="-3.6267384421"><ele>1014.81</ele><time>2026-08-23T10:34:59Z</time></trkpt><trkpt lat="40.8546861168" lon="-3.6267135479"><ele>1015.29</ele><time>2026-08-23T10:35:00Z</time></trkpt><trkpt lat="40.8547280263" lon="-3.6266925093"><ele>1015.29</ele><time>2026-08-23T10:35:01Z</time></trkpt><trkpt lat="40.8547713608" lon="-3.6266763322"><ele>1015.77</ele><time>2026-08-23T10:35:02Z</time></trkpt><trkpt lat="40.8548153657" lon="-3.6266630050"><ele>1015.77</ele><time>2026-08-23T10:35:03Z</time></trkpt><trkpt lat="40.8548549283" lon="-3.6266510189"><ele>1015.77</ele><time>2026-08-23T10:35:04Z</time></trkpt><trkpt lat="40.8548944909" lon="-3.6266346741"><ele>1015.77</ele><time>2026-08-23T10:35:05Z</time></trkpt><trkpt lat="40.8549322095" lon="-3.6266127974"><ele>1016.73</ele><time>2026-08-23T10:35:06Z</time></trkpt><trkpt lat="40.8549634740" lon="-3.6265843827"><ele>1016.73</ele><time>2026-08-23T10:35:07Z</time></trkpt><trkpt lat="40.8549911343" lon="-3.6265472509"><ele>1017.21</ele><time>2026-08-23T10:35:08Z</time></trkpt><trkpt lat="40.8550120890" lon="-3.6265073530"><ele>1018.17</ele><time>2026-08-23T10:35:09Z</time></trkpt><trkpt lat="40.8550342172" lon="-3.6264614202"><ele>1018.65</ele><time>2026-08-23T10:35:10Z</time></trkpt><trkpt lat="40.8550586924" lon="-3.6264182534"><ele>1018.65</ele><time>2026-08-23T10:35:11Z</time></trkpt><trkpt lat="40.8550872747" lon="-3.6263745837"><ele>1019.13</ele><time>2026-08-23T10:35:12Z</time></trkpt><trkpt lat="40.8551151026" lon="-3.6263376195"><ele>1019.13</ele><time>2026-08-23T10:35:13Z</time></trkpt><trkpt lat="40.8551435173" lon="-3.6263038404"><ele>1019.62</ele><time>2026-08-23T10:35:14Z</time></trkpt><trkpt lat="40.8554341178" lon="-3.6259638704"><ele>1022.98</ele><time>2026-08-23T10:35:25Z</time></trkpt><trkpt lat="40.8554839063" lon="-3.6258833203"><ele>1023.46</ele><time>2026-08-23T10:35:27Z</time></trkpt><trkpt lat="40.8555402327" lon="-3.6257902812"><ele>1023.94</ele><time>2026-08-23T10:35:29Z</time></trkpt><trkpt lat="40.8556636143" lon="-3.6254854314"><ele>1027.31</ele><time>2026-08-23T10:35:35Z</time></trkpt><trkpt lat="40.8557726629" lon="-3.6250318028"><ele>1028.27</ele><time>2026-08-23T10:35:46Z</time></trkpt><trkpt lat="40.8558136504" lon="-3.6249855347"><ele>1028.27</ele><time>2026-08-23T10:35:49Z</time></trkpt><trkpt lat="40.8558224514" lon="-3.6249671783"><ele>1028.27</ele><time>2026-08-23T10:35:50Z</time></trkpt><trkpt lat="40.8558419812" lon="-3.6249465588"><ele>1028.27</ele><time>2026-08-23T10:35:51Z</time></trkpt><trkpt lat="40.8558626007" lon="-3.6249386799"><ele>1028.27</ele><time>2026-08-23T10:35:53Z</time></trkpt><trkpt lat="40.8558950387" lon="-3.6249007937"><ele>1028.27</ele><time>2026-08-23T10:35:54Z</time></trkpt><trkpt lat="40.8559081145" lon="-3.6248706188"><ele>1028.27</ele><time>2026-08-23T10:35:55Z</time></trkpt><trkpt lat="40.8559262194" lon="-3.6248206627"><ele>1028.27</ele><time>2026-08-23T10:35:56Z</time></trkpt><trkpt lat="40.8559383731" lon="-3.6247875541"><ele>1028.75</ele><time>2026-08-23T10:35:57Z</time></trkpt><trkpt lat="40.8559677936" lon="-3.6247383524"><ele>1028.75</ele><time>2026-08-23T10:35:58Z</time></trkpt><trkpt lat="40.8560014050" lon="-3.6247204989"><ele>1029.23</ele><time>2026-08-23T10:36:00Z</time></trkpt><trkpt lat="40.8560503554" lon="-3.6247069202"><ele>1029.71</ele><time>2026-08-23T10:36:01Z</time></trkpt><trkpt lat="40.8560821228" lon="-3.6246868875"><ele>1029.71</ele><time>2026-08-23T10:36:02Z</time></trkpt><trkpt lat="40.8561118785" lon="-3.6246598978"><ele>1030.67</ele><time>2026-08-23T10:36:03Z</time></trkpt><trkpt lat="40.8563365974" lon="-3.6244176608"><ele>1034.04</ele><time>2026-08-23T10:36:11Z</time></trkpt><trkpt lat="40.8564610686" lon="-3.6241997313"><ele>1035.96</ele><time>2026-08-23T10:36:16Z</time></trkpt><trkpt lat="40.8564959373" lon="-3.6241666228"><ele>1035.96</ele><time>2026-08-23T10:36:17Z</time></trkpt><trkpt lat="40.8565334044" lon="-3.6241478473"><ele>1035.96</ele><time>2026-08-23T10:36:18Z</time></trkpt><trkpt lat="40.8565738890" lon="-3.6241403874"><ele>1036.44</ele><time>2026-08-23T10:36:19Z</time></trkpt><trkpt lat="40.8566142898" lon="-3.6241384596"><ele>1037.40</ele><time>2026-08-23T10:36:20Z</time></trkpt><trkpt lat="40.8566553611" lon="-3.6241398007"><ele>1037.40</ele><time>2026-08-23T10:36:21Z</time></trkpt><trkpt lat="40.8566935826" lon="-3.6241437402"><ele>1037.88</ele><time>2026-08-23T10:36:22Z</time></trkpt><trkpt lat="40.8567302115" lon="-3.6241364479"><ele>1038.36</ele><time>2026-08-23T10:36:23Z</time></trkpt><trkpt lat="40.8567637391" lon="-3.6241222825"><ele>1038.36</ele><time>2026-08-23T10:36:24Z</time></trkpt><trkpt lat="40.8568367455" lon="-3.6240725778"><ele>1038.84</ele><time>2026-08-23T10:36:26Z</time></trkpt><trkpt lat="40.8568734583" lon="-3.6240318418"><ele>1039.80</ele><time>2026-08-23T10:36:27Z</time></trkpt><trkpt lat="40.8569371607" lon="-3.6239466816"><ele>1039.80</ele><time>2026-08-23T10:36:29Z</time></trkpt><trkpt lat="40.8569633123" lon="-3.6239048559"><ele>1039.80</ele><time>2026-08-23T10:36:30Z</time></trkpt><trkpt lat="40.8569908887" lon="-3.6238444224"><ele>1039.80</ele><time>2026-08-23T10:36:31Z</time></trkpt><trkpt lat="40.8570903819" lon="-3.6235977430"><ele>1038.36</ele><time>2026-08-23T10:36:36Z</time></trkpt><trkpt lat="40.8572109137" lon="-3.6231259257"><ele>1035.00</ele><time>2026-08-23T10:36:45Z</time></trkpt><trkpt lat="40.8572281804" lon="-3.6228592135"><ele>1033.55</ele><time>2026-08-23T10:36:48Z</time></trkpt><trkpt lat="40.8572127577" lon="-3.6227734666"><ele>1033.55</ele><time>2026-08-23T10:36:49Z</time></trkpt><trkpt lat="40.8571883664" lon="-3.6226823553"><ele>1033.55</ele><time>2026-08-23T10:36:50Z</time></trkpt><trkpt lat="40.8571167849" lon="-3.6224263720"><ele>1033.55</ele><time>2026-08-23T10:36:53Z</time></trkpt><trkpt lat="40.8570790663" lon="-3.6221734900"><ele>1031.63</ele><time>2026-08-23T10:36:56Z</time></trkpt><trkpt lat="40.8570755459" lon="-3.6220817082"><ele>1030.67</ele><time>2026-08-23T10:36:57Z</time></trkpt><trkpt lat="40.8570815809" lon="-3.6219993141"><ele>1030.67</ele><time>2026-08-23T10:36:58Z</time></trkpt><trkpt lat="40.8570951596" lon="-3.6219134834"><ele>1030.67</ele><time>2026-08-23T10:36:59Z</time></trkpt><trkpt lat="40.8571118396" lon="-3.6218422372"><ele>1030.67</ele><time>2026-08-23T10:37:00Z</time></trkpt><trkpt lat="40.8571368176" lon="-3.6217739247"><ele>1030.19</ele><time>2026-08-23T10:37:01Z</time></trkpt><trkpt lat="40.8571653161" lon="-3.6217256449"><ele>1029.71</ele><time>2026-08-23T10:37:02Z</time></trkpt><trkpt lat="40.8571923058" lon="-3.6216872558"><ele>1029.71</ele><time>2026-08-23T10:37:03Z</time></trkpt><trkpt lat="40.8572187088" lon="-3.6216429994"><ele>1029.71</ele><time>2026-08-23T10:37:04Z</time></trkpt><trkpt lat="40.8572364785" lon="-3.6215953901"><ele>1029.71</ele><time>2026-08-23T10:37:05Z</time></trkpt><trkpt lat="40.8572425973" lon="-3.6215404049"><ele>1031.15</ele><time>2026-08-23T10:37:06Z</time></trkpt><trkpt lat="40.8572393283" lon="-3.6214877665"><ele>1031.15</ele><time>2026-08-23T10:37:07Z</time></trkpt><trkpt lat="40.8572320361" lon="-3.6214419175"><ele>1031.15</ele><time>2026-08-23T10:37:08Z</time></trkpt><trkpt lat="40.8572222292" lon="-3.6213967390"><ele>1031.15</ele><time>2026-08-23T10:37:09Z</time></trkpt><trkpt lat="40.8572131768" lon="-3.6213451903"><ele>1031.63</ele><time>2026-08-23T10:37:10Z</time></trkpt><trkpt lat="40.8572037891" lon="-3.6211885326"><ele>1032.11</ele><time>2026-08-23T10:37:13Z</time></trkpt><trkpt lat="40.8572074771" lon="-3.6210931465"><ele>1033.07</ele><time>2026-08-23T10:37:15Z</time></trkpt><trkpt lat="40.8572666533" lon="-3.6208717804"><ele>1035.00</ele><time>2026-08-23T10:37:19Z</time></trkpt><trkpt lat="40.8572958224" lon="-3.6208313797"><ele>1035.48</ele><time>2026-08-23T10:37:20Z</time></trkpt><trkpt lat="40.8573282603" lon="-3.6207909789"><ele>1035.48</ele><time>2026-08-23T10:37:21Z</time></trkpt><trkpt lat="40.8573632967" lon="-3.6207555234"><ele>1036.44</ele><time>2026-08-23T10:37:22Z</time></trkpt><trkpt lat="40.8573970757" lon="-3.6207214929"><ele>1036.92</ele><time>2026-08-23T10:37:23Z</time></trkpt><trkpt lat="40.8576576691" lon="-3.6204451416"><ele>1038.84</ele><time>2026-08-23T10:37:32Z</time></trkpt><trkpt lat="40.8578921109" lon="-3.6201493442"><ele>1039.32</ele><time>2026-08-23T10:37:41Z</time></trkpt><trkpt lat="40.8582578972" lon="-3.6196873337"><ele>1037.88</ele><time>2026-08-23T10:37:52Z</time></trkpt><trkpt lat="40.8582908381" lon="-3.6196414847"><ele>1037.88</ele><time>2026-08-23T10:37:53Z</time></trkpt><trkpt lat="40.8584914170" lon="-3.6194150895"><ele>1037.88</ele><time>2026-08-23T10:37:59Z</time></trkpt><trkpt lat="40.8585682791" lon="-3.6193570867"><ele>1037.88</ele><time>2026-08-23T10:38:01Z</time></trkpt><trkpt lat="40.8586101048" lon="-3.6193436757"><ele>1037.40</ele><time>2026-08-23T10:38:02Z</time></trkpt><trkpt lat="40.8586443029" lon="-3.6193404067"><ele>1037.40</ele><time>2026-08-23T10:38:03Z</time></trkpt><trkpt lat="40.8586714603" lon="-3.6193406582"><ele>1036.92</ele><time>2026-08-23T10:38:04Z</time></trkpt><trkpt lat="40.8587042335" lon="-3.6193368863"><ele>1036.92</ele><time>2026-08-23T10:38:05Z</time></trkpt><trkpt lat="40.8587489091" lon="-3.6193249840"><ele>1035.96</ele><time>2026-08-23T10:38:06Z</time></trkpt><trkpt lat="40.8587993681" lon="-3.6193050351"><ele>1035.96</ele><time>2026-08-23T10:38:07Z</time></trkpt><trkpt lat="40.8588461392" lon="-3.6192891095"><ele>1035.96</ele><time>2026-08-23T10:38:08Z</time></trkpt><trkpt lat="40.8588939998" lon="-3.6192793027"><ele>1035.48</ele><time>2026-08-23T10:38:09Z</time></trkpt><trkpt lat="40.8591090795" lon="-3.6192411650"><ele>1035.48</ele><time>2026-08-23T10:38:13Z</time></trkpt><trkpt lat="40.8591648191" lon="-3.6192422546"><ele>1035.48</ele><time>2026-08-23T10:38:14Z</time></trkpt><trkpt lat="40.8592208941" lon="-3.6192454398"><ele>1035.48</ele><time>2026-08-23T10:38:15Z</time></trkpt><trkpt lat="40.8594291005" lon="-3.6192501336"><ele>1035.48</ele><time>2026-08-23T10:38:19Z</time></trkpt><trkpt lat="40.8597796317" lon="-3.6191848386"><ele>1035.48</ele><time>2026-08-23T10:38:26Z</time></trkpt><trkpt lat="40.8601133153" lon="-3.6191046238"><ele>1035.48</ele><time>2026-08-23T10:38:33Z</time></trkpt><trkpt lat="40.8604283072" lon="-3.6189755425"><ele>1036.92</ele><time>2026-08-23T10:38:40Z</time></trkpt><trkpt lat="40.8604655229" lon="-3.6189443618"><ele>1036.92</ele><time>2026-08-23T10:38:41Z</time></trkpt><trkpt lat="40.8605018165" lon="-3.6189135164"><ele>1037.40</ele><time>2026-08-23T10:38:42Z</time></trkpt><trkpt lat="40.8605366852" lon="-3.6188893765"><ele>1037.40</ele><time>2026-08-23T10:38:43Z</time></trkpt><trkpt lat="40.8605796006" lon="-3.6188618839"><ele>1037.40</ele><time>2026-08-23T10:38:44Z</time></trkpt><trkpt lat="40.8611297887" lon="-3.6184145417"><ele>1037.88</ele><time>2026-08-23T10:38:59Z</time></trkpt><trkpt lat="40.8613280207" lon="-3.6182107776"><ele>1037.88</ele><time>2026-08-23T10:39:05Z</time></trkpt><trkpt lat="40.8613958303" lon="-3.6181374360"><ele>1037.88</ele><time>2026-08-23T10:39:07Z</time></trkpt><trkpt lat="40.8616669849" lon="-3.6179553811"><ele>1038.36</ele><time>2026-08-23T10:39:14Z</time></trkpt><trkpt lat="40.8617080562" lon="-3.6179245356"><ele>1038.36</ele><time>2026-08-23T10:39:15Z</time></trkpt><trkpt lat="40.8617435955" lon="-3.6178925168"><ele>1038.36</ele><time>2026-08-23T10:39:16Z</time></trkpt><trkpt lat="40.8617800567" lon="-3.6178591568"><ele>1038.36</ele><time>2026-08-23T10:39:17Z</time></trkpt><trkpt lat="40.8618145064" lon="-3.6178303231"><ele>1038.36</ele><time>2026-08-23T10:39:18Z</time></trkpt><trkpt lat="40.8619445097" lon="-3.6176967155"><ele>1038.36</ele><time>2026-08-23T10:39:22Z</time></trkpt><trkpt lat="40.8622822165" lon="-3.6173290852"><ele>1038.84</ele><time>2026-08-23T10:39:33Z</time></trkpt><trkpt lat="40.8624351025" lon="-3.6171702482"><ele>1038.84</ele><time>2026-08-23T10:39:38Z</time></trkpt><trkpt lat="40.8627466578" lon="-3.6168789770"><ele>1038.84</ele><time>2026-08-23T10:39:50Z</time></trkpt><trkpt lat="40.8629702032" lon="-3.6166782305"><ele>1039.80</ele><time>2026-08-23T10:39:58Z</time></trkpt><trkpt lat="40.8630504180" lon="-3.6165907234"><ele>1039.80</ele><time>2026-08-23T10:40:00Z</time></trkpt><trkpt lat="40.8630798385" lon="-3.6165546812"><ele>1040.28</ele><time>2026-08-23T10:40:01Z</time></trkpt><trkpt lat="40.8633680921" lon="-3.6162074190"><ele>1038.84</ele><time>2026-08-23T10:40:10Z</time></trkpt><trkpt lat="40.8634171262" lon="-3.6161713768"><ele>1038.84</ele><time>2026-08-23T10:40:11Z</time></trkpt><trkpt lat="40.8634962514" lon="-3.6161365919"><ele>1038.36</ele><time>2026-08-23T10:40:12Z</time></trkpt><trkpt lat="40.8637777157" lon="-3.6158632580"><ele>1037.40</ele><time>2026-08-23T10:40:24Z</time></trkpt><trkpt lat="40.8635573555" lon="-3.6154621001"><ele>1036.92</ele><time>2026-08-23T10:40:38Z</time></trkpt><trkpt lat="40.8633917291" lon="-3.6151160952"><ele>1038.84</ele><time>2026-08-23T10:40:48Z</time></trkpt><trkpt lat="40.8632853627" lon="-3.6149435956"><ele>1036.92</ele><time>2026-08-23T10:40:53Z</time></trkpt><trkpt lat="40.8632121049" lon="-3.6148450244"><ele>1036.92</ele><time>2026-08-23T10:40:55Z</time></trkpt><trkpt lat="40.8628885634" lon="-3.6145660747"><ele>1035.00</ele><time>2026-08-23T10:41:03Z</time></trkpt><trkpt lat="40.8628166467" lon="-3.6146708485"><ele>1037.40</ele><time>2026-08-23T10:41:07Z</time></trkpt><trkpt lat="40.8628033195" lon="-3.6146951560"><ele>1037.40</ele><time>2026-08-23T10:41:08Z</time></trkpt><trkpt lat="40.8628811035" lon="-3.6147703417"><ele>1035.96</ele><time>2026-08-23T10:41:16Z</time></trkpt><trkpt lat="40.8627904113" lon="-3.6147033703"><ele>1035.48</ele><time>2026-08-23T10:41:21Z</time></trkpt><trkpt lat="40.8627584763" lon="-3.6147010233"><ele>1035.48</ele><time>2026-08-23T10:41:34Z</time></trkpt><trkpt lat="40.8626843803" lon="-3.6146845948"><ele>1035.48</ele><time>2026-08-23T10:41:50Z</time></trkpt><trkpt lat="40.8626781777" lon="-3.6146850977"><ele>1035.48</ele><time>2026-08-23T10:42:09Z</time></trkpt><trkpt lat="40.8626746573" lon="-3.6146905459"><ele>1035.48</ele><time>2026-08-23T10:42:45Z</time></trkpt><trkpt lat="40.8626883198" lon="-3.6147192959"><ele>1035.96</ele><time>2026-08-23T10:43:22Z</time></trkpt><trkpt lat="40.8626919240" lon="-3.6147179548"><ele>1035.96</ele><time>2026-08-23T10:43:54Z</time></trkpt><trkpt lat="40.8626964502" lon="-3.6147168651"><ele>1035.96</ele><time>2026-08-23T10:44:19Z</time></trkpt><trkpt lat="40.8626887389" lon="-3.6147222295"><ele>1035.96</ele><time>2026-08-23T10:44:44Z</time></trkpt><trkpt lat="40.8626843803" lon="-3.6147247441"><ele>1035.96</ele><time>2026-08-23T10:45:12Z</time></trkpt><trkpt lat="40.8626708016" lon="-3.6147246603"><ele>1036.44</ele><time>2026-08-23T10:45:42Z</time></trkpt><trkpt lat="40.8626844641" lon="-3.6147255823"><ele>1036.44</ele><time>2026-08-23T10:46:06Z</time></trkpt></trkseg></trk></gpx>